<?xml version="1.0" encoding="UTF-8" standalone="no" ?>
<gpx xmlns="http://www.topografix.com/GPX/1/1" xmlns:xsi="http://www.w3.org/2001/XMLSchema-instance" xsi:schemaLocation="http://www.topografix.com/GPX/1/1 http://www.topografix.com/GPX/1/1/gpx.xsd" version="1.1" creator="VisuGPX - https://www.visugpx.com">
  <metadata>
    <name>20-OCT-21 17:19:45</name>
    <desc><![CDATA[Bourbach-Le-Haut, jardin partagé, col du Schirm, Gros chêne, VorderSchirm, Masevaux, puis piste cyclable jusqu'à Oberbruck et direction Rimbach au bout du village à droite chemin carrossable rectangle rouge et blanc vers le Belacker mais avant le Ruchberg prendre à droite dans l'épingle pour rester sur le chemin forestier qui monte jusqu'à la ferme du Belacker. Au niveau de la ferme à gauche descente sur le GR 532 direction fontaine st Jean qu'on laisse sur notre droite pour suivre un chemin forestier sur environ 2 kilomètres avant de tourner à gauche. Toujours un chemin forestier qui rejoint celui marqué rectangle rouge et blanc sous le col de Rimbach et qui mène à Mollau en passant par la place des Tilleuls. Après Mollau, Wesserling et trouver une petite route sur la droite qui rejoint la piste cyclable qui longe la Thur . Après Moosch au lieu dit Gehren bifurquer sur la route à droite à droite pour monter vers le Blaufels. Au premier carrefour rester à droite rectangle rouge et blanc qui rejoint un autre chemin forestier. Toujours prendre les options à gauche jusqu'au Blaufels. De là descente vers le chemin de l'Altrain et montée vers la place Zundel. Puis col du Hundsruck, chemin du Baeselbach, ferme des Buissonnets et retour sur B-L-H.]]></desc>
  </metadata>
  <trk>
    <name><![CDATA[20-OCT-21 17:19:45]]></name>
    <trkseg>
      <trkpt lat="47.79434" lon="7.03101">
        <ele>488.49</ele>
        <time>2021-10-20T11:11:21Z</time>
      </trkpt>
      <trkpt lat="47.79413" lon="7.03073">
        <ele>485.6</ele>
        <time>2021-10-20T11:11:26Z</time>
      </trkpt>
      <trkpt lat="47.79409" lon="7.03067">
        <ele>486.56</ele>
        <time>2021-10-20T11:11:27Z</time>
      </trkpt>
      <trkpt lat="47.79404" lon="7.03031">
        <ele>484.64</ele>
        <time>2021-10-20T11:11:31Z</time>
      </trkpt>
      <trkpt lat="47.79391" lon="7.03015">
        <ele>488.49</ele>
        <time>2021-10-20T11:11:34Z</time>
      </trkpt>
      <trkpt lat="47.79385" lon="7.0301">
        <ele>491.37</ele>
        <time>2021-10-20T11:11:38Z</time>
      </trkpt>
      <trkpt lat="47.79385" lon="7.03009">
        <ele>495.7</ele>
        <time>2021-10-20T11:11:41Z</time>
      </trkpt>
      <trkpt lat="47.79385" lon="7.03008">
        <ele>499.54</ele>
        <time>2021-10-20T11:11:44Z</time>
      </trkpt>
      <trkpt lat="47.79385" lon="7.03007">
        <ele>502.91</ele>
        <time>2021-10-20T11:11:47Z</time>
      </trkpt>
      <trkpt lat="47.79385" lon="7.03006">
        <ele>506.27</ele>
        <time>2021-10-20T11:11:50Z</time>
      </trkpt>
      <trkpt lat="47.79384" lon="7.03007">
        <ele>507.23</ele>
        <time>2021-10-20T11:11:51Z</time>
      </trkpt>
      <trkpt lat="47.79382" lon="7.03014">
        <ele>511.08</ele>
        <time>2021-10-20T11:11:55Z</time>
      </trkpt>
      <trkpt lat="47.79381" lon="7.03016">
        <ele>513</ele>
        <time>2021-10-20T11:11:56Z</time>
      </trkpt>
      <trkpt lat="47.79386" lon="7.03023">
        <ele>517.33</ele>
        <time>2021-10-20T11:12:01Z</time>
      </trkpt>
      <trkpt lat="47.79396" lon="7.03016">
        <ele>521.65</ele>
        <time>2021-10-20T11:12:07Z</time>
      </trkpt>
      <trkpt lat="47.79404" lon="7.03013">
        <ele>524.54</ele>
        <time>2021-10-20T11:12:10Z</time>
      </trkpt>
      <trkpt lat="47.7941" lon="7.03013">
        <ele>529.34</ele>
        <time>2021-10-20T11:12:17Z</time>
      </trkpt>
      <trkpt lat="47.79412" lon="7.03012">
        <ele>532.71</ele>
        <time>2021-10-20T11:12:26Z</time>
      </trkpt>
      <trkpt lat="47.79413" lon="7.0301">
        <ele>535.59</ele>
        <time>2021-10-20T11:12:38Z</time>
      </trkpt>
      <trkpt lat="47.79414" lon="7.0301">
        <ele>536.07</ele>
        <time>2021-10-20T11:12:41Z</time>
      </trkpt>
      <trkpt lat="47.79421" lon="7.02987">
        <ele>536.07</ele>
        <time>2021-10-20T11:12:48Z</time>
      </trkpt>
      <trkpt lat="47.79422" lon="7.0298">
        <ele>536.07</ele>
        <time>2021-10-20T11:12:49Z</time>
      </trkpt>
      <trkpt lat="47.79423" lon="7.02964">
        <ele>535.59</ele>
        <time>2021-10-20T11:12:51Z</time>
      </trkpt>
      <trkpt lat="47.79422" lon="7.02956">
        <ele>535.59</ele>
        <time>2021-10-20T11:12:52Z</time>
      </trkpt>
      <trkpt lat="47.79421" lon="7.02947">
        <ele>535.11</ele>
        <time>2021-10-20T11:12:53Z</time>
      </trkpt>
      <trkpt lat="47.79409" lon="7.02909">
        <ele>534.15</ele>
        <time>2021-10-20T11:12:57Z</time>
      </trkpt>
      <trkpt lat="47.79403" lon="7.02903">
        <ele>533.67</ele>
        <time>2021-10-20T11:12:58Z</time>
      </trkpt>
      <trkpt lat="47.79395" lon="7.02901">
        <ele>533.67</ele>
        <time>2021-10-20T11:12:59Z</time>
      </trkpt>
      <trkpt lat="47.79388" lon="7.02904">
        <ele>533.19</ele>
        <time>2021-10-20T11:13:00Z</time>
      </trkpt>
      <trkpt lat="47.79381" lon="7.02909">
        <ele>532.71</ele>
        <time>2021-10-20T11:13:01Z</time>
      </trkpt>
      <trkpt lat="47.79374" lon="7.02915">
        <ele>532.23</ele>
        <time>2021-10-20T11:13:02Z</time>
      </trkpt>
      <trkpt lat="47.79367" lon="7.02919">
        <ele>532.23</ele>
        <time>2021-10-20T11:13:03Z</time>
      </trkpt>
      <trkpt lat="47.79359" lon="7.02921">
        <ele>532.23</ele>
        <time>2021-10-20T11:13:04Z</time>
      </trkpt>
      <trkpt lat="47.79352" lon="7.0292">
        <ele>532.23</ele>
        <time>2021-10-20T11:13:05Z</time>
      </trkpt>
      <trkpt lat="47.79346" lon="7.02918">
        <ele>532.71</ele>
        <time>2021-10-20T11:13:06Z</time>
      </trkpt>
      <trkpt lat="47.79341" lon="7.02916">
        <ele>533.19</ele>
        <time>2021-10-20T11:13:07Z</time>
      </trkpt>
      <trkpt lat="47.79309" lon="7.02913">
        <ele>536.55</ele>
        <time>2021-10-20T11:13:17Z</time>
      </trkpt>
      <trkpt lat="47.79288" lon="7.02917">
        <ele>539.44</ele>
        <time>2021-10-20T11:13:25Z</time>
      </trkpt>
      <trkpt lat="47.79283" lon="7.02917">
        <ele>540.88</ele>
        <time>2021-10-20T11:13:27Z</time>
      </trkpt>
      <trkpt lat="47.79264" lon="7.02911">
        <ele>544.24</ele>
        <time>2021-10-20T11:13:35Z</time>
      </trkpt>
      <trkpt lat="47.79262" lon="7.02908">
        <ele>544.72</ele>
        <time>2021-10-20T11:13:36Z</time>
      </trkpt>
      <trkpt lat="47.79259" lon="7.02898">
        <ele>545.69</ele>
        <time>2021-10-20T11:13:39Z</time>
      </trkpt>
      <trkpt lat="47.79242" lon="7.02874">
        <ele>548.57</ele>
        <time>2021-10-20T11:13:48Z</time>
      </trkpt>
      <trkpt lat="47.7924" lon="7.02872">
        <ele>549.05</ele>
        <time>2021-10-20T11:13:49Z</time>
      </trkpt>
      <trkpt lat="47.79238" lon="7.02869">
        <ele>549.53</ele>
        <time>2021-10-20T11:13:50Z</time>
      </trkpt>
      <trkpt lat="47.79236" lon="7.02867">
        <ele>550.01</ele>
        <time>2021-10-20T11:13:51Z</time>
      </trkpt>
      <trkpt lat="47.79234" lon="7.02865">
        <ele>550.01</ele>
        <time>2021-10-20T11:13:52Z</time>
      </trkpt>
      <trkpt lat="47.79232" lon="7.0286">
        <ele>550.97</ele>
        <time>2021-10-20T11:13:54Z</time>
      </trkpt>
      <trkpt lat="47.79231" lon="7.02858">
        <ele>550.97</ele>
        <time>2021-10-20T11:13:55Z</time>
      </trkpt>
      <trkpt lat="47.7923" lon="7.02856">
        <ele>551.45</ele>
        <time>2021-10-20T11:13:56Z</time>
      </trkpt>
      <trkpt lat="47.79211" lon="7.02819">
        <ele>553.86</ele>
        <time>2021-10-20T11:14:08Z</time>
      </trkpt>
      <trkpt lat="47.79195" lon="7.02781">
        <ele>555.78</ele>
        <time>2021-10-20T11:14:19Z</time>
      </trkpt>
      <trkpt lat="47.79174" lon="7.02776">
        <ele>558.66</ele>
        <time>2021-10-20T11:14:28Z</time>
      </trkpt>
      <trkpt lat="47.79162" lon="7.0277">
        <ele>560.59</ele>
        <time>2021-10-20T11:14:33Z</time>
      </trkpt>
      <trkpt lat="47.79141" lon="7.0273">
        <ele>563.47</ele>
        <time>2021-10-20T11:14:45Z</time>
      </trkpt>
      <trkpt lat="47.79117" lon="7.02685">
        <ele>565.39</ele>
        <time>2021-10-20T11:14:59Z</time>
      </trkpt>
      <trkpt lat="47.79092" lon="7.02672">
        <ele>568.76</ele>
        <time>2021-10-20T11:15:10Z</time>
      </trkpt>
      <trkpt lat="47.79058" lon="7.02666">
        <ele>570.2</ele>
        <time>2021-10-20T11:15:24Z</time>
      </trkpt>
      <trkpt lat="47.79054" lon="7.02668">
        <ele>570.68</ele>
        <time>2021-10-20T11:15:26Z</time>
      </trkpt>
      <trkpt lat="47.79051" lon="7.02671">
        <ele>572.12</ele>
        <time>2021-10-20T11:15:28Z</time>
      </trkpt>
      <trkpt lat="47.79043" lon="7.02674">
        <ele>575.49</ele>
        <time>2021-10-20T11:15:33Z</time>
      </trkpt>
      <trkpt lat="47.79034" lon="7.02668">
        <ele>578.37</ele>
        <time>2021-10-20T11:15:37Z</time>
      </trkpt>
      <trkpt lat="47.79019" lon="7.02637">
        <ele>580.29</ele>
        <time>2021-10-20T11:15:49Z</time>
      </trkpt>
      <trkpt lat="47.79013" lon="7.02627">
        <ele>582.22</ele>
        <time>2021-10-20T11:15:53Z</time>
      </trkpt>
      <trkpt lat="47.79009" lon="7.02622">
        <ele>583.66</ele>
        <time>2021-10-20T11:15:56Z</time>
      </trkpt>
      <trkpt lat="47.78993" lon="7.02589">
        <ele>586.54</ele>
        <time>2021-10-20T11:16:07Z</time>
      </trkpt>
      <trkpt lat="47.7899" lon="7.02578">
        <ele>587.02</ele>
        <time>2021-10-20T11:16:10Z</time>
      </trkpt>
      <trkpt lat="47.7898" lon="7.02548">
        <ele>587.98</ele>
        <time>2021-10-20T11:16:19Z</time>
      </trkpt>
      <trkpt lat="47.78971" lon="7.02537">
        <ele>589.43</ele>
        <time>2021-10-20T11:16:25Z</time>
      </trkpt>
      <trkpt lat="47.7894" lon="7.02523">
        <ele>592.31</ele>
        <time>2021-10-20T11:16:37Z</time>
      </trkpt>
      <trkpt lat="47.78934" lon="7.02527">
        <ele>593.75</ele>
        <time>2021-10-20T11:16:41Z</time>
      </trkpt>
      <trkpt lat="47.78928" lon="7.02543">
        <ele>597.12</ele>
        <time>2021-10-20T11:16:49Z</time>
      </trkpt>
      <trkpt lat="47.78928" lon="7.02544">
        <ele>597.6</ele>
        <time>2021-10-20T11:16:50Z</time>
      </trkpt>
      <trkpt lat="47.78925" lon="7.02546">
        <ele>598.56</ele>
        <time>2021-10-20T11:16:52Z</time>
      </trkpt>
      <trkpt lat="47.78908" lon="7.02552">
        <ele>601.44</ele>
        <time>2021-10-20T11:16:58Z</time>
      </trkpt>
      <trkpt lat="47.7889" lon="7.02547">
        <ele>604.81</ele>
        <time>2021-10-20T11:17:06Z</time>
      </trkpt>
      <trkpt lat="47.78864" lon="7.02537">
        <ele>606.25</ele>
        <time>2021-10-20T11:17:16Z</time>
      </trkpt>
      <trkpt lat="47.78824" lon="7.02519">
        <ele>609.13</ele>
        <time>2021-10-20T11:17:28Z</time>
      </trkpt>
      <trkpt lat="47.78787" lon="7.02487">
        <ele>609.61</ele>
        <time>2021-10-20T11:17:41Z</time>
      </trkpt>
      <trkpt lat="47.78775" lon="7.02492">
        <ele>609.13</ele>
        <time>2021-10-20T11:17:45Z</time>
      </trkpt>
      <trkpt lat="47.78736" lon="7.02538">
        <ele>607.69</ele>
        <time>2021-10-20T11:17:59Z</time>
      </trkpt>
      <trkpt lat="47.78717" lon="7.02533">
        <ele>610.57</ele>
        <time>2021-10-20T11:18:08Z</time>
      </trkpt>
      <trkpt lat="47.78698" lon="7.02498">
        <ele>612.5</ele>
        <time>2021-10-20T11:18:20Z</time>
      </trkpt>
      <trkpt lat="47.78677" lon="7.02457">
        <ele>614.42</ele>
        <time>2021-10-20T11:18:32Z</time>
      </trkpt>
      <trkpt lat="47.78654" lon="7.02419">
        <ele>614.9</ele>
        <time>2021-10-20T11:18:43Z</time>
      </trkpt>
      <trkpt lat="47.7863" lon="7.02388">
        <ele>614.42</ele>
        <time>2021-10-20T11:18:53Z</time>
      </trkpt>
      <trkpt lat="47.78603" lon="7.0235">
        <ele>614.42</ele>
        <time>2021-10-20T11:19:04Z</time>
      </trkpt>
      <trkpt lat="47.78571" lon="7.0231">
        <ele>613.94</ele>
        <time>2021-10-20T11:19:15Z</time>
      </trkpt>
      <trkpt lat="47.78544" lon="7.02272">
        <ele>613.94</ele>
        <time>2021-10-20T11:19:25Z</time>
      </trkpt>
      <trkpt lat="47.78515" lon="7.02225">
        <ele>613.94</ele>
        <time>2021-10-20T11:19:37Z</time>
      </trkpt>
      <trkpt lat="47.78482" lon="7.02195">
        <ele>613.94</ele>
        <time>2021-10-20T11:19:49Z</time>
      </trkpt>
      <trkpt lat="47.78446" lon="7.02168">
        <ele>613.94</ele>
        <time>2021-10-20T11:20:01Z</time>
      </trkpt>
      <trkpt lat="47.78442" lon="7.02155">
        <ele>614.42</ele>
        <time>2021-10-20T11:20:04Z</time>
      </trkpt>
      <trkpt lat="47.78425" lon="7.02109">
        <ele>615.86</ele>
        <time>2021-10-20T11:20:15Z</time>
      </trkpt>
      <trkpt lat="47.78394" lon="7.02065">
        <ele>614.9</ele>
        <time>2021-10-20T11:20:26Z</time>
      </trkpt>
      <trkpt lat="47.78356" lon="7.02044">
        <ele>614.9</ele>
        <time>2021-10-20T11:20:37Z</time>
      </trkpt>
      <trkpt lat="47.78293" lon="7.02048">
        <ele>613.46</ele>
        <time>2021-10-20T11:20:51Z</time>
      </trkpt>
      <trkpt lat="47.78279" lon="7.02056">
        <ele>613.94</ele>
        <time>2021-10-20T11:20:54Z</time>
      </trkpt>
      <trkpt lat="47.78276" lon="7.02058">
        <ele>613.94</ele>
        <time>2021-10-20T11:20:55Z</time>
      </trkpt>
      <trkpt lat="47.78272" lon="7.02062">
        <ele>613.94</ele>
        <time>2021-10-20T11:20:56Z</time>
      </trkpt>
      <trkpt lat="47.78269" lon="7.02066">
        <ele>613.94</ele>
        <time>2021-10-20T11:20:57Z</time>
      </trkpt>
      <trkpt lat="47.78266" lon="7.0207">
        <ele>613.94</ele>
        <time>2021-10-20T11:20:58Z</time>
      </trkpt>
      <trkpt lat="47.78263" lon="7.02074">
        <ele>614.42</ele>
        <time>2021-10-20T11:20:59Z</time>
      </trkpt>
      <trkpt lat="47.78261" lon="7.02079">
        <ele>614.42</ele>
        <time>2021-10-20T11:21:00Z</time>
      </trkpt>
      <trkpt lat="47.78243" lon="7.02109">
        <ele>614.9</ele>
        <time>2021-10-20T11:21:09Z</time>
      </trkpt>
      <trkpt lat="47.78209" lon="7.02117">
        <ele>612.98</ele>
        <time>2021-10-20T11:21:18Z</time>
      </trkpt>
      <trkpt lat="47.78208" lon="7.02116">
        <ele>612.98</ele>
        <time>2021-10-20T11:21:19Z</time>
      </trkpt>
      <trkpt lat="47.78206" lon="7.02115">
        <ele>612.98</ele>
        <time>2021-10-20T11:21:20Z</time>
      </trkpt>
      <trkpt lat="47.78205" lon="7.02114">
        <ele>612.5</ele>
        <time>2021-10-20T11:21:21Z</time>
      </trkpt>
      <trkpt lat="47.78202" lon="7.02113">
        <ele>612.5</ele>
        <time>2021-10-20T11:21:22Z</time>
      </trkpt>
      <trkpt lat="47.78165" lon="7.02112">
        <ele>612.02</ele>
        <time>2021-10-20T11:21:32Z</time>
      </trkpt>
      <trkpt lat="47.78128" lon="7.02133">
        <ele>614.42</ele>
        <time>2021-10-20T11:21:43Z</time>
      </trkpt>
      <trkpt lat="47.78097" lon="7.02138">
        <ele>613.94</ele>
        <time>2021-10-20T11:21:52Z</time>
      </trkpt>
      <trkpt lat="47.78083" lon="7.02131">
        <ele>613.46</ele>
        <time>2021-10-20T11:21:55Z</time>
      </trkpt>
      <trkpt lat="47.78072" lon="7.0212">
        <ele>612.98</ele>
        <time>2021-10-20T11:21:58Z</time>
      </trkpt>
      <trkpt lat="47.78068" lon="7.02116">
        <ele>613.46</ele>
        <time>2021-10-20T11:21:59Z</time>
      </trkpt>
      <trkpt lat="47.78063" lon="7.02112">
        <ele>613.46</ele>
        <time>2021-10-20T11:22:00Z</time>
      </trkpt>
      <trkpt lat="47.7806" lon="7.02108">
        <ele>613.46</ele>
        <time>2021-10-20T11:22:01Z</time>
      </trkpt>
      <trkpt lat="47.78057" lon="7.02102">
        <ele>613.46</ele>
        <time>2021-10-20T11:22:02Z</time>
      </trkpt>
      <trkpt lat="47.78054" lon="7.02095">
        <ele>613.46</ele>
        <time>2021-10-20T11:22:03Z</time>
      </trkpt>
      <trkpt lat="47.78051" lon="7.02088">
        <ele>613.94</ele>
        <time>2021-10-20T11:22:04Z</time>
      </trkpt>
      <trkpt lat="47.78049" lon="7.02082">
        <ele>613.94</ele>
        <time>2021-10-20T11:22:05Z</time>
      </trkpt>
      <trkpt lat="47.78047" lon="7.02075">
        <ele>613.94</ele>
        <time>2021-10-20T11:22:06Z</time>
      </trkpt>
      <trkpt lat="47.78045" lon="7.02068">
        <ele>613.94</ele>
        <time>2021-10-20T11:22:07Z</time>
      </trkpt>
      <trkpt lat="47.7804" lon="7.02042">
        <ele>613.46</ele>
        <time>2021-10-20T11:22:11Z</time>
      </trkpt>
      <trkpt lat="47.78038" lon="7.02035">
        <ele>613.46</ele>
        <time>2021-10-20T11:22:12Z</time>
      </trkpt>
      <trkpt lat="47.78036" lon="7.02029">
        <ele>613.46</ele>
        <time>2021-10-20T11:22:13Z</time>
      </trkpt>
      <trkpt lat="47.78027" lon="7.02003">
        <ele>612.5</ele>
        <time>2021-10-20T11:22:17Z</time>
      </trkpt>
      <trkpt lat="47.78023" lon="7.01997">
        <ele>612.5</ele>
        <time>2021-10-20T11:22:18Z</time>
      </trkpt>
      <trkpt lat="47.77995" lon="7.01932">
        <ele>609.61</ele>
        <time>2021-10-20T11:22:26Z</time>
      </trkpt>
      <trkpt lat="47.77979" lon="7.01869">
        <ele>606.25</ele>
        <time>2021-10-20T11:22:32Z</time>
      </trkpt>
      <trkpt lat="47.77975" lon="7.01858">
        <ele>605.77</ele>
        <time>2021-10-20T11:22:33Z</time>
      </trkpt>
      <trkpt lat="47.77962" lon="7.01823">
        <ele>603.85</ele>
        <time>2021-10-20T11:22:37Z</time>
      </trkpt>
      <trkpt lat="47.77951" lon="7.01806">
        <ele>602.88</ele>
        <time>2021-10-20T11:22:40Z</time>
      </trkpt>
      <trkpt lat="47.77947" lon="7.01801">
        <ele>602.4</ele>
        <time>2021-10-20T11:22:41Z</time>
      </trkpt>
      <trkpt lat="47.77942" lon="7.01798">
        <ele>601.92</ele>
        <time>2021-10-20T11:22:42Z</time>
      </trkpt>
      <trkpt lat="47.77937" lon="7.01796">
        <ele>600.96</ele>
        <time>2021-10-20T11:22:43Z</time>
      </trkpt>
      <trkpt lat="47.77932" lon="7.01795">
        <ele>600.48</ele>
        <time>2021-10-20T11:22:44Z</time>
      </trkpt>
      <trkpt lat="47.77926" lon="7.01795">
        <ele>600</ele>
        <time>2021-10-20T11:22:45Z</time>
      </trkpt>
      <trkpt lat="47.77917" lon="7.01796">
        <ele>599.04</ele>
        <time>2021-10-20T11:22:47Z</time>
      </trkpt>
      <trkpt lat="47.77912" lon="7.01798">
        <ele>598.56</ele>
        <time>2021-10-20T11:22:48Z</time>
      </trkpt>
      <trkpt lat="47.77908" lon="7.01802">
        <ele>598.56</ele>
        <time>2021-10-20T11:22:49Z</time>
      </trkpt>
      <trkpt lat="47.77904" lon="7.01807">
        <ele>597.6</ele>
        <time>2021-10-20T11:22:50Z</time>
      </trkpt>
      <trkpt lat="47.77878" lon="7.0184">
        <ele>594.71</ele>
        <time>2021-10-20T11:22:55Z</time>
      </trkpt>
      <trkpt lat="47.77872" lon="7.01846">
        <ele>593.75</ele>
        <time>2021-10-20T11:22:56Z</time>
      </trkpt>
      <trkpt lat="47.77865" lon="7.01851">
        <ele>593.27</ele>
        <time>2021-10-20T11:22:57Z</time>
      </trkpt>
      <trkpt lat="47.77857" lon="7.01856">
        <ele>592.31</ele>
        <time>2021-10-20T11:22:58Z</time>
      </trkpt>
      <trkpt lat="47.77814" lon="7.01875">
        <ele>589.43</ele>
        <time>2021-10-20T11:23:03Z</time>
      </trkpt>
      <trkpt lat="47.77799" lon="7.01887">
        <ele>588.46</ele>
        <time>2021-10-20T11:23:05Z</time>
      </trkpt>
      <trkpt lat="47.77793" lon="7.01895">
        <ele>587.98</ele>
        <time>2021-10-20T11:23:06Z</time>
      </trkpt>
      <trkpt lat="47.7778" lon="7.01913">
        <ele>586.06</ele>
        <time>2021-10-20T11:23:08Z</time>
      </trkpt>
      <trkpt lat="47.77772" lon="7.0192">
        <ele>585.1</ele>
        <time>2021-10-20T11:23:09Z</time>
      </trkpt>
      <trkpt lat="47.77763" lon="7.01925">
        <ele>584.62</ele>
        <time>2021-10-20T11:23:10Z</time>
      </trkpt>
      <trkpt lat="47.77754" lon="7.01928">
        <ele>584.14</ele>
        <time>2021-10-20T11:23:11Z</time>
      </trkpt>
      <trkpt lat="47.77744" lon="7.01929">
        <ele>584.14</ele>
        <time>2021-10-20T11:23:12Z</time>
      </trkpt>
      <trkpt lat="47.77734" lon="7.0193">
        <ele>583.66</ele>
        <time>2021-10-20T11:23:13Z</time>
      </trkpt>
      <trkpt lat="47.77725" lon="7.01932">
        <ele>582.7</ele>
        <time>2021-10-20T11:23:14Z</time>
      </trkpt>
      <trkpt lat="47.77668" lon="7.01941">
        <ele>579.33</ele>
        <time>2021-10-20T11:23:20Z</time>
      </trkpt>
      <trkpt lat="47.77658" lon="7.01941">
        <ele>578.85</ele>
        <time>2021-10-20T11:23:21Z</time>
      </trkpt>
      <trkpt lat="47.77649" lon="7.01938">
        <ele>577.89</ele>
        <time>2021-10-20T11:23:22Z</time>
      </trkpt>
      <trkpt lat="47.77632" lon="7.0193">
        <ele>576.45</ele>
        <time>2021-10-20T11:23:24Z</time>
      </trkpt>
      <trkpt lat="47.77623" lon="7.01926">
        <ele>575.97</ele>
        <time>2021-10-20T11:23:25Z</time>
      </trkpt>
      <trkpt lat="47.77572" lon="7.01911">
        <ele>572.6</ele>
        <time>2021-10-20T11:23:31Z</time>
      </trkpt>
      <trkpt lat="47.77528" lon="7.01903">
        <ele>569.24</ele>
        <time>2021-10-20T11:23:36Z</time>
      </trkpt>
      <trkpt lat="47.7752" lon="7.01903">
        <ele>568.28</ele>
        <time>2021-10-20T11:23:37Z</time>
      </trkpt>
      <trkpt lat="47.77501" lon="7.01906">
        <ele>567.8</ele>
        <time>2021-10-20T11:23:39Z</time>
      </trkpt>
      <trkpt lat="47.77452" lon="7.01922">
        <ele>563.95</ele>
        <time>2021-10-20T11:23:44Z</time>
      </trkpt>
      <trkpt lat="47.77442" lon="7.01922">
        <ele>562.99</ele>
        <time>2021-10-20T11:23:45Z</time>
      </trkpt>
      <trkpt lat="47.77415" lon="7.0192">
        <ele>561.07</ele>
        <time>2021-10-20T11:23:48Z</time>
      </trkpt>
      <trkpt lat="47.77397" lon="7.01915">
        <ele>560.11</ele>
        <time>2021-10-20T11:23:50Z</time>
      </trkpt>
      <trkpt lat="47.77389" lon="7.01911">
        <ele>558.66</ele>
        <time>2021-10-20T11:23:51Z</time>
      </trkpt>
      <trkpt lat="47.77383" lon="7.01907">
        <ele>557.7</ele>
        <time>2021-10-20T11:23:52Z</time>
      </trkpt>
      <trkpt lat="47.77377" lon="7.01902">
        <ele>556.74</ele>
        <time>2021-10-20T11:23:53Z</time>
      </trkpt>
      <trkpt lat="47.77369" lon="7.01895">
        <ele>555.78</ele>
        <time>2021-10-20T11:23:54Z</time>
      </trkpt>
      <trkpt lat="47.77345" lon="7.01873">
        <ele>553.38</ele>
        <time>2021-10-20T11:23:58Z</time>
      </trkpt>
      <trkpt lat="47.7734" lon="7.01873">
        <ele>553.86</ele>
        <time>2021-10-20T11:23:59Z</time>
      </trkpt>
      <trkpt lat="47.77337" lon="7.01871">
        <ele>553.86</ele>
        <time>2021-10-20T11:24:00Z</time>
      </trkpt>
      <trkpt lat="47.77335" lon="7.0187">
        <ele>553.38</ele>
        <time>2021-10-20T11:24:01Z</time>
      </trkpt>
      <trkpt lat="47.77335" lon="7.01869">
        <ele>553.38</ele>
        <time>2021-10-20T11:24:02Z</time>
      </trkpt>
      <trkpt lat="47.77335" lon="7.01866">
        <ele>552.41</ele>
        <time>2021-10-20T11:24:03Z</time>
      </trkpt>
      <trkpt lat="47.77335" lon="7.01863">
        <ele>551.93</ele>
        <time>2021-10-20T11:24:04Z</time>
      </trkpt>
      <trkpt lat="47.77339" lon="7.01861">
        <ele>551.45</ele>
        <time>2021-10-20T11:24:10Z</time>
      </trkpt>
      <trkpt lat="47.7734" lon="7.01861">
        <ele>551.93</ele>
        <time>2021-10-20T11:24:13Z</time>
      </trkpt>
      <trkpt lat="47.7734" lon="7.01859">
        <ele>551.45</ele>
        <time>2021-10-20T11:24:14Z</time>
      </trkpt>
      <trkpt lat="47.7734" lon="7.01856">
        <ele>551.45</ele>
        <time>2021-10-20T11:24:15Z</time>
      </trkpt>
      <trkpt lat="47.7735" lon="7.01816">
        <ele>549.53</ele>
        <time>2021-10-20T11:24:26Z</time>
      </trkpt>
      <trkpt lat="47.77378" lon="7.01806">
        <ele>548.09</ele>
        <time>2021-10-20T11:24:35Z</time>
      </trkpt>
      <trkpt lat="47.77382" lon="7.01809">
        <ele>548.09</ele>
        <time>2021-10-20T11:24:36Z</time>
      </trkpt>
      <trkpt lat="47.77385" lon="7.01813">
        <ele>547.61</ele>
        <time>2021-10-20T11:24:37Z</time>
      </trkpt>
      <trkpt lat="47.77402" lon="7.01836">
        <ele>546.65</ele>
        <time>2021-10-20T11:24:42Z</time>
      </trkpt>
      <trkpt lat="47.77412" lon="7.01849">
        <ele>546.17</ele>
        <time>2021-10-20T11:24:45Z</time>
      </trkpt>
      <trkpt lat="47.77416" lon="7.01852">
        <ele>545.69</ele>
        <time>2021-10-20T11:24:46Z</time>
      </trkpt>
      <trkpt lat="47.7742" lon="7.01854">
        <ele>545.69</ele>
        <time>2021-10-20T11:24:47Z</time>
      </trkpt>
      <trkpt lat="47.77425" lon="7.01855">
        <ele>545.2</ele>
        <time>2021-10-20T11:24:48Z</time>
      </trkpt>
      <trkpt lat="47.77429" lon="7.01855">
        <ele>544.72</ele>
        <time>2021-10-20T11:24:49Z</time>
      </trkpt>
      <trkpt lat="47.77434" lon="7.01854">
        <ele>544.72</ele>
        <time>2021-10-20T11:24:50Z</time>
      </trkpt>
      <trkpt lat="47.7745" lon="7.01846">
        <ele>543.28</ele>
        <time>2021-10-20T11:24:53Z</time>
      </trkpt>
      <trkpt lat="47.77454" lon="7.01843">
        <ele>542.8</ele>
        <time>2021-10-20T11:24:54Z</time>
      </trkpt>
      <trkpt lat="47.77468" lon="7.01832">
        <ele>541.84</ele>
        <time>2021-10-20T11:24:57Z</time>
      </trkpt>
      <trkpt lat="47.77477" lon="7.01823">
        <ele>540.88</ele>
        <time>2021-10-20T11:24:59Z</time>
      </trkpt>
      <trkpt lat="47.77482" lon="7.01818">
        <ele>540.4</ele>
        <time>2021-10-20T11:25:00Z</time>
      </trkpt>
      <trkpt lat="47.77487" lon="7.01813">
        <ele>539.92</ele>
        <time>2021-10-20T11:25:01Z</time>
      </trkpt>
      <trkpt lat="47.77492" lon="7.01808">
        <ele>539.44</ele>
        <time>2021-10-20T11:25:02Z</time>
      </trkpt>
      <trkpt lat="47.77496" lon="7.01803">
        <ele>538.48</ele>
        <time>2021-10-20T11:25:03Z</time>
      </trkpt>
      <trkpt lat="47.77537" lon="7.01755">
        <ele>535.59</ele>
        <time>2021-10-20T11:25:12Z</time>
      </trkpt>
      <trkpt lat="47.77556" lon="7.01743">
        <ele>534.15</ele>
        <time>2021-10-20T11:25:15Z</time>
      </trkpt>
      <trkpt lat="47.77569" lon="7.01738">
        <ele>533.19</ele>
        <time>2021-10-20T11:25:17Z</time>
      </trkpt>
      <trkpt lat="47.77576" lon="7.01736">
        <ele>533.19</ele>
        <time>2021-10-20T11:25:18Z</time>
      </trkpt>
      <trkpt lat="47.77583" lon="7.01732">
        <ele>532.71</ele>
        <time>2021-10-20T11:25:19Z</time>
      </trkpt>
      <trkpt lat="47.7759" lon="7.01728">
        <ele>532.71</ele>
        <time>2021-10-20T11:25:20Z</time>
      </trkpt>
      <trkpt lat="47.77597" lon="7.01723">
        <ele>532.23</ele>
        <time>2021-10-20T11:25:21Z</time>
      </trkpt>
      <trkpt lat="47.77603" lon="7.01716">
        <ele>532.23</ele>
        <time>2021-10-20T11:25:22Z</time>
      </trkpt>
      <trkpt lat="47.77608" lon="7.0171">
        <ele>531.75</ele>
        <time>2021-10-20T11:25:23Z</time>
      </trkpt>
      <trkpt lat="47.77632" lon="7.01682">
        <ele>529.34</ele>
        <time>2021-10-20T11:25:27Z</time>
      </trkpt>
      <trkpt lat="47.77666" lon="7.0165">
        <ele>524.54</ele>
        <time>2021-10-20T11:25:32Z</time>
      </trkpt>
      <trkpt lat="47.77688" lon="7.01632">
        <ele>521.17</ele>
        <time>2021-10-20T11:25:35Z</time>
      </trkpt>
      <trkpt lat="47.77695" lon="7.01628">
        <ele>520.21</ele>
        <time>2021-10-20T11:25:36Z</time>
      </trkpt>
      <trkpt lat="47.77701" lon="7.01626">
        <ele>519.73</ele>
        <time>2021-10-20T11:25:37Z</time>
      </trkpt>
      <trkpt lat="47.77705" lon="7.01622">
        <ele>519.25</ele>
        <time>2021-10-20T11:25:38Z</time>
      </trkpt>
      <trkpt lat="47.77709" lon="7.01618">
        <ele>518.77</ele>
        <time>2021-10-20T11:25:39Z</time>
      </trkpt>
      <trkpt lat="47.77711" lon="7.01614">
        <ele>518.29</ele>
        <time>2021-10-20T11:25:40Z</time>
      </trkpt>
      <trkpt lat="47.77712" lon="7.0161">
        <ele>517.81</ele>
        <time>2021-10-20T11:25:41Z</time>
      </trkpt>
      <trkpt lat="47.77713" lon="7.01606">
        <ele>516.85</ele>
        <time>2021-10-20T11:25:42Z</time>
      </trkpt>
      <trkpt lat="47.77711" lon="7.01601">
        <ele>516.37</ele>
        <time>2021-10-20T11:25:43Z</time>
      </trkpt>
      <trkpt lat="47.77708" lon="7.01597">
        <ele>515.88</ele>
        <time>2021-10-20T11:25:44Z</time>
      </trkpt>
      <trkpt lat="47.77704" lon="7.01594">
        <ele>515.4</ele>
        <time>2021-10-20T11:25:45Z</time>
      </trkpt>
      <trkpt lat="47.777" lon="7.01591">
        <ele>514.44</ele>
        <time>2021-10-20T11:25:46Z</time>
      </trkpt>
      <trkpt lat="47.77696" lon="7.01588">
        <ele>513.96</ele>
        <time>2021-10-20T11:25:47Z</time>
      </trkpt>
      <trkpt lat="47.77691" lon="7.01587">
        <ele>513</ele>
        <time>2021-10-20T11:25:48Z</time>
      </trkpt>
      <trkpt lat="47.77687" lon="7.01584">
        <ele>512.52</ele>
        <time>2021-10-20T11:25:49Z</time>
      </trkpt>
      <trkpt lat="47.77683" lon="7.01581">
        <ele>512.04</ele>
        <time>2021-10-20T11:25:50Z</time>
      </trkpt>
      <trkpt lat="47.77678" lon="7.01578">
        <ele>511.08</ele>
        <time>2021-10-20T11:25:51Z</time>
      </trkpt>
      <trkpt lat="47.77674" lon="7.01575">
        <ele>510.6</ele>
        <time>2021-10-20T11:25:52Z</time>
      </trkpt>
      <trkpt lat="47.77669" lon="7.01572">
        <ele>509.16</ele>
        <time>2021-10-20T11:25:53Z</time>
      </trkpt>
      <trkpt lat="47.77654" lon="7.01564">
        <ele>507.71</ele>
        <time>2021-10-20T11:25:56Z</time>
      </trkpt>
      <trkpt lat="47.77648" lon="7.01564">
        <ele>506.75</ele>
        <time>2021-10-20T11:25:57Z</time>
      </trkpt>
      <trkpt lat="47.77616" lon="7.01562">
        <ele>503.39</ele>
        <time>2021-10-20T11:26:02Z</time>
      </trkpt>
      <trkpt lat="47.77568" lon="7.01556">
        <ele>500.02</ele>
        <time>2021-10-20T11:26:09Z</time>
      </trkpt>
      <trkpt lat="47.77548" lon="7.01558">
        <ele>498.58</ele>
        <time>2021-10-20T11:26:12Z</time>
      </trkpt>
      <trkpt lat="47.77541" lon="7.01561">
        <ele>497.62</ele>
        <time>2021-10-20T11:26:13Z</time>
      </trkpt>
      <trkpt lat="47.77529" lon="7.0157">
        <ele>496.18</ele>
        <time>2021-10-20T11:26:15Z</time>
      </trkpt>
      <trkpt lat="47.77524" lon="7.01575">
        <ele>495.7</ele>
        <time>2021-10-20T11:26:16Z</time>
      </trkpt>
      <trkpt lat="47.77519" lon="7.0158">
        <ele>494.74</ele>
        <time>2021-10-20T11:26:17Z</time>
      </trkpt>
      <trkpt lat="47.77509" lon="7.01589">
        <ele>493.77</ele>
        <time>2021-10-20T11:26:19Z</time>
      </trkpt>
      <trkpt lat="47.77505" lon="7.01591">
        <ele>493.29</ele>
        <time>2021-10-20T11:26:20Z</time>
      </trkpt>
      <trkpt lat="47.77503" lon="7.0159">
        <ele>492.81</ele>
        <time>2021-10-20T11:26:21Z</time>
      </trkpt>
      <trkpt lat="47.77499" lon="7.01564">
        <ele>490.89</ele>
        <time>2021-10-20T11:26:27Z</time>
      </trkpt>
      <trkpt lat="47.775" lon="7.01525">
        <ele>487.53</ele>
        <time>2021-10-20T11:26:32Z</time>
      </trkpt>
      <trkpt lat="47.77501" lon="7.01517">
        <ele>487.05</ele>
        <time>2021-10-20T11:26:33Z</time>
      </trkpt>
      <trkpt lat="47.77503" lon="7.01502">
        <ele>485.6</ele>
        <time>2021-10-20T11:26:35Z</time>
      </trkpt>
      <trkpt lat="47.77506" lon="7.01494">
        <ele>484.64</ele>
        <time>2021-10-20T11:26:36Z</time>
      </trkpt>
      <trkpt lat="47.7751" lon="7.01487">
        <ele>484.16</ele>
        <time>2021-10-20T11:26:37Z</time>
      </trkpt>
      <trkpt lat="47.77513" lon="7.01479">
        <ele>483.2</ele>
        <time>2021-10-20T11:26:38Z</time>
      </trkpt>
      <trkpt lat="47.77516" lon="7.01471">
        <ele>482.24</ele>
        <time>2021-10-20T11:26:39Z</time>
      </trkpt>
      <trkpt lat="47.77519" lon="7.01464">
        <ele>481.28</ele>
        <time>2021-10-20T11:26:40Z</time>
      </trkpt>
      <trkpt lat="47.77525" lon="7.0145">
        <ele>478.87</ele>
        <time>2021-10-20T11:26:42Z</time>
      </trkpt>
      <trkpt lat="47.77527" lon="7.01443">
        <ele>477.91</ele>
        <time>2021-10-20T11:26:43Z</time>
      </trkpt>
      <trkpt lat="47.77529" lon="7.01436">
        <ele>477.43</ele>
        <time>2021-10-20T11:26:44Z</time>
      </trkpt>
      <trkpt lat="47.7753" lon="7.01429">
        <ele>476.47</ele>
        <time>2021-10-20T11:26:45Z</time>
      </trkpt>
      <trkpt lat="47.7753" lon="7.01422">
        <ele>475.51</ele>
        <time>2021-10-20T11:26:46Z</time>
      </trkpt>
      <trkpt lat="47.77531" lon="7.01414">
        <ele>474.55</ele>
        <time>2021-10-20T11:26:47Z</time>
      </trkpt>
      <trkpt lat="47.77536" lon="7.01373">
        <ele>471.18</ele>
        <time>2021-10-20T11:26:51Z</time>
      </trkpt>
      <trkpt lat="47.77539" lon="7.01344">
        <ele>467.82</ele>
        <time>2021-10-20T11:26:54Z</time>
      </trkpt>
      <trkpt lat="47.77541" lon="7.01315">
        <ele>464.93</ele>
        <time>2021-10-20T11:26:57Z</time>
      </trkpt>
      <trkpt lat="47.77544" lon="7.01285">
        <ele>462.05</ele>
        <time>2021-10-20T11:27:00Z</time>
      </trkpt>
      <trkpt lat="47.77547" lon="7.01276">
        <ele>461.09</ele>
        <time>2021-10-20T11:27:01Z</time>
      </trkpt>
      <trkpt lat="47.7755" lon="7.01268">
        <ele>460.61</ele>
        <time>2021-10-20T11:27:02Z</time>
      </trkpt>
      <trkpt lat="47.77553" lon="7.01261">
        <ele>460.13</ele>
        <time>2021-10-20T11:27:03Z</time>
      </trkpt>
      <trkpt lat="47.77557" lon="7.01254">
        <ele>458.69</ele>
        <time>2021-10-20T11:27:04Z</time>
      </trkpt>
      <trkpt lat="47.77559" lon="7.01248">
        <ele>458.21</ele>
        <time>2021-10-20T11:27:05Z</time>
      </trkpt>
      <trkpt lat="47.77562" lon="7.01241">
        <ele>457.72</ele>
        <time>2021-10-20T11:27:06Z</time>
      </trkpt>
      <trkpt lat="47.77565" lon="7.01234">
        <ele>457.72</ele>
        <time>2021-10-20T11:27:07Z</time>
      </trkpt>
      <trkpt lat="47.77567" lon="7.01229">
        <ele>457.24</ele>
        <time>2021-10-20T11:27:08Z</time>
      </trkpt>
      <trkpt lat="47.7757" lon="7.01223">
        <ele>456.76</ele>
        <time>2021-10-20T11:27:09Z</time>
      </trkpt>
      <trkpt lat="47.77574" lon="7.01217">
        <ele>456.28</ele>
        <time>2021-10-20T11:27:10Z</time>
      </trkpt>
      <trkpt lat="47.77578" lon="7.01213">
        <ele>455.8</ele>
        <time>2021-10-20T11:27:11Z</time>
      </trkpt>
      <trkpt lat="47.77581" lon="7.01209">
        <ele>455.32</ele>
        <time>2021-10-20T11:27:12Z</time>
      </trkpt>
      <trkpt lat="47.77584" lon="7.01204">
        <ele>454.84</ele>
        <time>2021-10-20T11:27:13Z</time>
      </trkpt>
      <trkpt lat="47.77587" lon="7.01199">
        <ele>454.36</ele>
        <time>2021-10-20T11:27:14Z</time>
      </trkpt>
      <trkpt lat="47.7759" lon="7.01193">
        <ele>453.88</ele>
        <time>2021-10-20T11:27:15Z</time>
      </trkpt>
      <trkpt lat="47.77605" lon="7.01168">
        <ele>451.48</ele>
        <time>2021-10-20T11:27:19Z</time>
      </trkpt>
      <trkpt lat="47.77608" lon="7.0116">
        <ele>451</ele>
        <time>2021-10-20T11:27:20Z</time>
      </trkpt>
      <trkpt lat="47.77611" lon="7.01153">
        <ele>450.03</ele>
        <time>2021-10-20T11:27:21Z</time>
      </trkpt>
      <trkpt lat="47.77618" lon="7.01131">
        <ele>447.63</ele>
        <time>2021-10-20T11:27:24Z</time>
      </trkpt>
      <trkpt lat="47.77621" lon="7.01123">
        <ele>446.67</ele>
        <time>2021-10-20T11:27:25Z</time>
      </trkpt>
      <trkpt lat="47.77634" lon="7.01089">
        <ele>443.79</ele>
        <time>2021-10-20T11:27:29Z</time>
      </trkpt>
      <trkpt lat="47.77636" lon="7.0108">
        <ele>442.82</ele>
        <time>2021-10-20T11:27:30Z</time>
      </trkpt>
      <trkpt lat="47.77637" lon="7.01071">
        <ele>442.34</ele>
        <time>2021-10-20T11:27:31Z</time>
      </trkpt>
      <trkpt lat="47.77639" lon="7.01026">
        <ele>438.98</ele>
        <time>2021-10-20T11:27:36Z</time>
      </trkpt>
      <trkpt lat="47.7764" lon="7.01009">
        <ele>438.02</ele>
        <time>2021-10-20T11:27:38Z</time>
      </trkpt>
      <trkpt lat="47.77642" lon="7.01">
        <ele>437.06</ele>
        <time>2021-10-20T11:27:39Z</time>
      </trkpt>
      <trkpt lat="47.77645" lon="7.00992">
        <ele>436.58</ele>
        <time>2021-10-20T11:27:40Z</time>
      </trkpt>
      <trkpt lat="47.77649" lon="7.00985">
        <ele>436.1</ele>
        <time>2021-10-20T11:27:41Z</time>
      </trkpt>
      <trkpt lat="47.77653" lon="7.00977">
        <ele>435.13</ele>
        <time>2021-10-20T11:27:42Z</time>
      </trkpt>
      <trkpt lat="47.77676" lon="7.00924">
        <ele>432.25</ele>
        <time>2021-10-20T11:27:48Z</time>
      </trkpt>
      <trkpt lat="47.77701" lon="7.008">
        <ele>429.37</ele>
        <time>2021-10-20T11:28:02Z</time>
      </trkpt>
      <trkpt lat="47.777" lon="7.00793">
        <ele>429.37</ele>
        <time>2021-10-20T11:28:03Z</time>
      </trkpt>
      <trkpt lat="47.77697" lon="7.00787">
        <ele>428.89</ele>
        <time>2021-10-20T11:28:04Z</time>
      </trkpt>
      <trkpt lat="47.77694" lon="7.0078">
        <ele>428.89</ele>
        <time>2021-10-20T11:28:05Z</time>
      </trkpt>
      <trkpt lat="47.77691" lon="7.00774">
        <ele>428.89</ele>
        <time>2021-10-20T11:28:06Z</time>
      </trkpt>
      <trkpt lat="47.77688" lon="7.0077">
        <ele>428.89</ele>
        <time>2021-10-20T11:28:07Z</time>
      </trkpt>
      <trkpt lat="47.77682" lon="7.00762">
        <ele>429.37</ele>
        <time>2021-10-20T11:28:09Z</time>
      </trkpt>
      <trkpt lat="47.77664" lon="7.00706">
        <ele>429.85</ele>
        <time>2021-10-20T11:28:21Z</time>
      </trkpt>
      <trkpt lat="47.77653" lon="7.00658">
        <ele>431.29</ele>
        <time>2021-10-20T11:28:32Z</time>
      </trkpt>
      <trkpt lat="47.77663" lon="7.00597">
        <ele>429.85</ele>
        <time>2021-10-20T11:28:45Z</time>
      </trkpt>
      <trkpt lat="47.77661" lon="7.00579">
        <ele>428.4</ele>
        <time>2021-10-20T11:28:48Z</time>
      </trkpt>
      <trkpt lat="47.77658" lon="7.00551">
        <ele>426.48</ele>
        <time>2021-10-20T11:28:52Z</time>
      </trkpt>
      <trkpt lat="47.77654" lon="7.00535">
        <ele>425.52</ele>
        <time>2021-10-20T11:28:54Z</time>
      </trkpt>
      <trkpt lat="47.77652" lon="7.00527">
        <ele>425.04</ele>
        <time>2021-10-20T11:28:55Z</time>
      </trkpt>
      <trkpt lat="47.77637" lon="7.00473">
        <ele>422.64</ele>
        <time>2021-10-20T11:29:01Z</time>
      </trkpt>
      <trkpt lat="47.77635" lon="7.00464">
        <ele>422.16</ele>
        <time>2021-10-20T11:29:02Z</time>
      </trkpt>
      <trkpt lat="47.77633" lon="7.00456">
        <ele>421.19</ele>
        <time>2021-10-20T11:29:03Z</time>
      </trkpt>
      <trkpt lat="47.7763" lon="7.00447">
        <ele>421.19</ele>
        <time>2021-10-20T11:29:04Z</time>
      </trkpt>
      <trkpt lat="47.77626" lon="7.0044">
        <ele>420.23</ele>
        <time>2021-10-20T11:29:05Z</time>
      </trkpt>
      <trkpt lat="47.77622" lon="7.00432">
        <ele>419.75</ele>
        <time>2021-10-20T11:29:06Z</time>
      </trkpt>
      <trkpt lat="47.77608" lon="7.004">
        <ele>418.31</ele>
        <time>2021-10-20T11:29:10Z</time>
      </trkpt>
      <trkpt lat="47.77606" lon="7.00392">
        <ele>417.83</ele>
        <time>2021-10-20T11:29:11Z</time>
      </trkpt>
      <trkpt lat="47.776" lon="7.00366">
        <ele>417.83</ele>
        <time>2021-10-20T11:29:14Z</time>
      </trkpt>
      <trkpt lat="47.77599" lon="7.00357">
        <ele>417.83</ele>
        <time>2021-10-20T11:29:15Z</time>
      </trkpt>
      <trkpt lat="47.77597" lon="7.00333">
        <ele>417.83</ele>
        <time>2021-10-20T11:29:18Z</time>
      </trkpt>
      <trkpt lat="47.77595" lon="7.00325">
        <ele>417.83</ele>
        <time>2021-10-20T11:29:19Z</time>
      </trkpt>
      <trkpt lat="47.77594" lon="7.00318">
        <ele>417.83</ele>
        <time>2021-10-20T11:29:20Z</time>
      </trkpt>
      <trkpt lat="47.7759" lon="7.00306">
        <ele>418.31</ele>
        <time>2021-10-20T11:29:22Z</time>
      </trkpt>
      <trkpt lat="47.77587" lon="7.00302">
        <ele>418.31</ele>
        <time>2021-10-20T11:29:23Z</time>
      </trkpt>
      <trkpt lat="47.77584" lon="7.00299">
        <ele>418.31</ele>
        <time>2021-10-20T11:29:24Z</time>
      </trkpt>
      <trkpt lat="47.77581" lon="7.00295">
        <ele>418.31</ele>
        <time>2021-10-20T11:29:25Z</time>
      </trkpt>
      <trkpt lat="47.77579" lon="7.0029">
        <ele>418.31</ele>
        <time>2021-10-20T11:29:26Z</time>
      </trkpt>
      <trkpt lat="47.77556" lon="7.00252">
        <ele>417.83</ele>
        <time>2021-10-20T11:29:34Z</time>
      </trkpt>
      <trkpt lat="47.77543" lon="7.00234">
        <ele>417.35</ele>
        <time>2021-10-20T11:29:38Z</time>
      </trkpt>
      <trkpt lat="47.77507" lon="7.00193">
        <ele>414.47</ele>
        <time>2021-10-20T11:29:50Z</time>
      </trkpt>
      <trkpt lat="47.77507" lon="7.00188">
        <ele>414.47</ele>
        <time>2021-10-20T11:29:51Z</time>
      </trkpt>
      <trkpt lat="47.77513" lon="7.00178">
        <ele>414.47</ele>
        <time>2021-10-20T11:29:54Z</time>
      </trkpt>
      <trkpt lat="47.7755" lon="7.00149">
        <ele>415.43</ele>
        <time>2021-10-20T11:30:08Z</time>
      </trkpt>
      <trkpt lat="47.77588" lon="7.00111">
        <ele>415.91</ele>
        <time>2021-10-20T11:30:21Z</time>
      </trkpt>
      <trkpt lat="47.7761" lon="7.00085">
        <ele>416.87</ele>
        <time>2021-10-20T11:30:29Z</time>
      </trkpt>
      <trkpt lat="47.77642" lon="7.00058">
        <ele>418.31</ele>
        <time>2021-10-20T11:30:42Z</time>
      </trkpt>
      <trkpt lat="47.77659" lon="7.00027">
        <ele>418.31</ele>
        <time>2021-10-20T11:30:51Z</time>
      </trkpt>
      <trkpt lat="47.77691" lon="6.99963">
        <ele>420.23</ele>
        <time>2021-10-20T11:31:06Z</time>
      </trkpt>
      <trkpt lat="47.77722" lon="6.99899">
        <ele>421.19</ele>
        <time>2021-10-20T11:31:21Z</time>
      </trkpt>
      <trkpt lat="47.77752" lon="6.9984">
        <ele>423.12</ele>
        <time>2021-10-20T11:31:36Z</time>
      </trkpt>
      <trkpt lat="47.77789" lon="6.99762">
        <ele>423.12</ele>
        <time>2021-10-20T11:31:53Z</time>
      </trkpt>
      <trkpt lat="47.7782" lon="6.99695">
        <ele>424.08</ele>
        <time>2021-10-20T11:32:07Z</time>
      </trkpt>
      <trkpt lat="47.77856" lon="6.99617">
        <ele>424.56</ele>
        <time>2021-10-20T11:32:24Z</time>
      </trkpt>
      <trkpt lat="47.77889" lon="6.99546">
        <ele>425.52</ele>
        <time>2021-10-20T11:32:40Z</time>
      </trkpt>
      <trkpt lat="47.77898" lon="6.9953">
        <ele>426</ele>
        <time>2021-10-20T11:32:44Z</time>
      </trkpt>
      <trkpt lat="47.77927" lon="6.99472">
        <ele>426.96</ele>
        <time>2021-10-20T11:32:58Z</time>
      </trkpt>
      <trkpt lat="47.7795" lon="6.99418">
        <ele>427.92</ele>
        <time>2021-10-20T11:33:11Z</time>
      </trkpt>
      <trkpt lat="47.7797" lon="6.9935">
        <ele>428.4</ele>
        <time>2021-10-20T11:33:24Z</time>
      </trkpt>
      <trkpt lat="47.7797" lon="6.99344">
        <ele>428.4</ele>
        <time>2021-10-20T11:33:25Z</time>
      </trkpt>
      <trkpt lat="47.7797" lon="6.99338">
        <ele>428.4</ele>
        <time>2021-10-20T11:33:26Z</time>
      </trkpt>
      <trkpt lat="47.77969" lon="6.99332">
        <ele>428.4</ele>
        <time>2021-10-20T11:33:27Z</time>
      </trkpt>
      <trkpt lat="47.77969" lon="6.99326">
        <ele>428.4</ele>
        <time>2021-10-20T11:33:28Z</time>
      </trkpt>
      <trkpt lat="47.77969" lon="6.9932">
        <ele>428.4</ele>
        <time>2021-10-20T11:33:29Z</time>
      </trkpt>
      <trkpt lat="47.77968" lon="6.99313">
        <ele>428.4</ele>
        <time>2021-10-20T11:33:30Z</time>
      </trkpt>
      <trkpt lat="47.77968" lon="6.99255">
        <ele>428.89</ele>
        <time>2021-10-20T11:33:42Z</time>
      </trkpt>
      <trkpt lat="47.7797" lon="6.99227">
        <ele>428.4</ele>
        <time>2021-10-20T11:33:47Z</time>
      </trkpt>
      <trkpt lat="47.77977" lon="6.99141">
        <ele>429.37</ele>
        <time>2021-10-20T11:33:59Z</time>
      </trkpt>
      <trkpt lat="47.77978" lon="6.99029">
        <ele>429.85</ele>
        <time>2021-10-20T11:34:14Z</time>
      </trkpt>
      <trkpt lat="47.77961" lon="6.9894">
        <ele>429.37</ele>
        <time>2021-10-20T11:34:25Z</time>
      </trkpt>
      <trkpt lat="47.77959" lon="6.98933">
        <ele>429.37</ele>
        <time>2021-10-20T11:34:26Z</time>
      </trkpt>
      <trkpt lat="47.77927" lon="6.98842">
        <ele>430.33</ele>
        <time>2021-10-20T11:34:41Z</time>
      </trkpt>
      <trkpt lat="47.77906" lon="6.98756">
        <ele>430.81</ele>
        <time>2021-10-20T11:34:54Z</time>
      </trkpt>
      <trkpt lat="47.77898" lon="6.9865">
        <ele>432.25</ele>
        <time>2021-10-20T11:35:10Z</time>
      </trkpt>
      <trkpt lat="47.77898" lon="6.98615">
        <ele>431.77</ele>
        <time>2021-10-20T11:35:15Z</time>
      </trkpt>
      <trkpt lat="47.77912" lon="6.98528">
        <ele>431.77</ele>
        <time>2021-10-20T11:35:27Z</time>
      </trkpt>
      <trkpt lat="47.77924" lon="6.98467">
        <ele>434.17</ele>
        <time>2021-10-20T11:35:36Z</time>
      </trkpt>
      <trkpt lat="47.77925" lon="6.98459">
        <ele>433.21</ele>
        <time>2021-10-20T11:35:37Z</time>
      </trkpt>
      <trkpt lat="47.77927" lon="6.98452">
        <ele>432.73</ele>
        <time>2021-10-20T11:35:38Z</time>
      </trkpt>
      <trkpt lat="47.77928" lon="6.98446">
        <ele>432.73</ele>
        <time>2021-10-20T11:35:39Z</time>
      </trkpt>
      <trkpt lat="47.7793" lon="6.98439">
        <ele>432.73</ele>
        <time>2021-10-20T11:35:40Z</time>
      </trkpt>
      <trkpt lat="47.77932" lon="6.98433">
        <ele>432.73</ele>
        <time>2021-10-20T11:35:41Z</time>
      </trkpt>
      <trkpt lat="47.77933" lon="6.98427">
        <ele>432.73</ele>
        <time>2021-10-20T11:35:42Z</time>
      </trkpt>
      <trkpt lat="47.77935" lon="6.98421">
        <ele>432.73</ele>
        <time>2021-10-20T11:35:43Z</time>
      </trkpt>
      <trkpt lat="47.77959" lon="6.98322">
        <ele>433.69</ele>
        <time>2021-10-20T11:35:58Z</time>
      </trkpt>
      <trkpt lat="47.7797" lon="6.98282">
        <ele>433.69</ele>
        <time>2021-10-20T11:36:04Z</time>
      </trkpt>
      <trkpt lat="47.77971" lon="6.98275">
        <ele>433.69</ele>
        <time>2021-10-20T11:36:05Z</time>
      </trkpt>
      <trkpt lat="47.77973" lon="6.98269">
        <ele>433.69</ele>
        <time>2021-10-20T11:36:06Z</time>
      </trkpt>
      <trkpt lat="47.77975" lon="6.98263">
        <ele>433.69</ele>
        <time>2021-10-20T11:36:07Z</time>
      </trkpt>
      <trkpt lat="47.77976" lon="6.98257">
        <ele>433.69</ele>
        <time>2021-10-20T11:36:08Z</time>
      </trkpt>
      <trkpt lat="47.77978" lon="6.98251">
        <ele>433.69</ele>
        <time>2021-10-20T11:36:09Z</time>
      </trkpt>
      <trkpt lat="47.77981" lon="6.98239">
        <ele>433.69</ele>
        <time>2021-10-20T11:36:11Z</time>
      </trkpt>
      <trkpt lat="47.77985" lon="6.98212">
        <ele>433.69</ele>
        <time>2021-10-20T11:36:15Z</time>
      </trkpt>
      <trkpt lat="47.77988" lon="6.98191">
        <ele>433.69</ele>
        <time>2021-10-20T11:36:18Z</time>
      </trkpt>
      <trkpt lat="47.77989" lon="6.98183">
        <ele>433.69</ele>
        <time>2021-10-20T11:36:19Z</time>
      </trkpt>
      <trkpt lat="47.77995" lon="6.98161">
        <ele>434.17</ele>
        <time>2021-10-20T11:36:22Z</time>
      </trkpt>
      <trkpt lat="47.78006" lon="6.98116">
        <ele>434.65</ele>
        <time>2021-10-20T11:36:28Z</time>
      </trkpt>
      <trkpt lat="47.78047" lon="6.98037">
        <ele>435.61</ele>
        <time>2021-10-20T11:36:40Z</time>
      </trkpt>
      <trkpt lat="47.7808" lon="6.97983">
        <ele>436.58</ele>
        <time>2021-10-20T11:36:49Z</time>
      </trkpt>
      <trkpt lat="47.78096" lon="6.9796">
        <ele>437.06</ele>
        <time>2021-10-20T11:36:53Z</time>
      </trkpt>
      <trkpt lat="47.78109" lon="6.97935">
        <ele>437.06</ele>
        <time>2021-10-20T11:36:57Z</time>
      </trkpt>
      <trkpt lat="47.78112" lon="6.9793">
        <ele>437.54</ele>
        <time>2021-10-20T11:36:58Z</time>
      </trkpt>
      <trkpt lat="47.78115" lon="6.97927">
        <ele>437.54</ele>
        <time>2021-10-20T11:36:59Z</time>
      </trkpt>
      <trkpt lat="47.78118" lon="6.97925">
        <ele>438.02</ele>
        <time>2021-10-20T11:37:00Z</time>
      </trkpt>
      <trkpt lat="47.7812" lon="6.97923">
        <ele>438.02</ele>
        <time>2021-10-20T11:37:01Z</time>
      </trkpt>
      <trkpt lat="47.78123" lon="6.9792">
        <ele>438.02</ele>
        <time>2021-10-20T11:37:02Z</time>
      </trkpt>
      <trkpt lat="47.78125" lon="6.97916">
        <ele>438.02</ele>
        <time>2021-10-20T11:37:03Z</time>
      </trkpt>
      <trkpt lat="47.78126" lon="6.97911">
        <ele>437.54</ele>
        <time>2021-10-20T11:37:04Z</time>
      </trkpt>
      <trkpt lat="47.78126" lon="6.97906">
        <ele>437.54</ele>
        <time>2021-10-20T11:37:05Z</time>
      </trkpt>
      <trkpt lat="47.78127" lon="6.97901">
        <ele>437.54</ele>
        <time>2021-10-20T11:37:06Z</time>
      </trkpt>
      <trkpt lat="47.78127" lon="6.97896">
        <ele>437.54</ele>
        <time>2021-10-20T11:37:07Z</time>
      </trkpt>
      <trkpt lat="47.78129" lon="6.97891">
        <ele>437.54</ele>
        <time>2021-10-20T11:37:08Z</time>
      </trkpt>
      <trkpt lat="47.78145" lon="6.9785">
        <ele>437.54</ele>
        <time>2021-10-20T11:37:15Z</time>
      </trkpt>
      <trkpt lat="47.7819" lon="6.97739">
        <ele>437.06</ele>
        <time>2021-10-20T11:37:32Z</time>
      </trkpt>
      <trkpt lat="47.78229" lon="6.9764">
        <ele>437.06</ele>
        <time>2021-10-20T11:37:48Z</time>
      </trkpt>
      <trkpt lat="47.78248" lon="6.97592">
        <ele>437.06</ele>
        <time>2021-10-20T11:37:56Z</time>
      </trkpt>
      <trkpt lat="47.78274" lon="6.97531">
        <ele>438.5</ele>
        <time>2021-10-20T11:38:07Z</time>
      </trkpt>
      <trkpt lat="47.78278" lon="6.9752">
        <ele>438.98</ele>
        <time>2021-10-20T11:38:09Z</time>
      </trkpt>
      <trkpt lat="47.7828" lon="6.97515">
        <ele>438.98</ele>
        <time>2021-10-20T11:38:10Z</time>
      </trkpt>
      <trkpt lat="47.78283" lon="6.97509">
        <ele>438.98</ele>
        <time>2021-10-20T11:38:11Z</time>
      </trkpt>
      <trkpt lat="47.78299" lon="6.97466">
        <ele>438.98</ele>
        <time>2021-10-20T11:38:19Z</time>
      </trkpt>
      <trkpt lat="47.78337" lon="6.97374">
        <ele>439.94</ele>
        <time>2021-10-20T11:38:35Z</time>
      </trkpt>
      <trkpt lat="47.78356" lon="6.97322">
        <ele>439.94</ele>
        <time>2021-10-20T11:38:44Z</time>
      </trkpt>
      <trkpt lat="47.78382" lon="6.9726">
        <ele>440.9</ele>
        <time>2021-10-20T11:38:55Z</time>
      </trkpt>
      <trkpt lat="47.78402" lon="6.97214">
        <ele>441.38</ele>
        <time>2021-10-20T11:39:03Z</time>
      </trkpt>
      <trkpt lat="47.78412" lon="6.97184">
        <ele>441.38</ele>
        <time>2021-10-20T11:39:08Z</time>
      </trkpt>
      <trkpt lat="47.78415" lon="6.97178">
        <ele>441.38</ele>
        <time>2021-10-20T11:39:09Z</time>
      </trkpt>
      <trkpt lat="47.78421" lon="6.97166">
        <ele>441.86</ele>
        <time>2021-10-20T11:39:11Z</time>
      </trkpt>
      <trkpt lat="47.78438" lon="6.97101">
        <ele>442.82</ele>
        <time>2021-10-20T11:39:22Z</time>
      </trkpt>
      <trkpt lat="47.78441" lon="6.97095">
        <ele>442.34</ele>
        <time>2021-10-20T11:39:23Z</time>
      </trkpt>
      <trkpt lat="47.78446" lon="6.97088">
        <ele>442.82</ele>
        <time>2021-10-20T11:39:24Z</time>
      </trkpt>
      <trkpt lat="47.7845" lon="6.97082">
        <ele>442.82</ele>
        <time>2021-10-20T11:39:25Z</time>
      </trkpt>
      <trkpt lat="47.78458" lon="6.97068">
        <ele>442.82</ele>
        <time>2021-10-20T11:39:27Z</time>
      </trkpt>
      <trkpt lat="47.78484" lon="6.97006">
        <ele>442.82</ele>
        <time>2021-10-20T11:39:36Z</time>
      </trkpt>
      <trkpt lat="47.78511" lon="6.96941">
        <ele>443.31</ele>
        <time>2021-10-20T11:39:46Z</time>
      </trkpt>
      <trkpt lat="47.78514" lon="6.96935">
        <ele>443.79</ele>
        <time>2021-10-20T11:39:47Z</time>
      </trkpt>
      <trkpt lat="47.78534" lon="6.96889">
        <ele>444.27</ele>
        <time>2021-10-20T11:39:54Z</time>
      </trkpt>
      <trkpt lat="47.78559" lon="6.96827">
        <ele>444.75</ele>
        <time>2021-10-20T11:40:06Z</time>
      </trkpt>
      <trkpt lat="47.78588" lon="6.96774">
        <ele>445.71</ele>
        <time>2021-10-20T11:40:18Z</time>
      </trkpt>
      <trkpt lat="47.78594" lon="6.96764">
        <ele>445.71</ele>
        <time>2021-10-20T11:40:20Z</time>
      </trkpt>
      <trkpt lat="47.78597" lon="6.96759">
        <ele>446.19</ele>
        <time>2021-10-20T11:40:21Z</time>
      </trkpt>
      <trkpt lat="47.78656" lon="6.96687">
        <ele>445.71</ele>
        <time>2021-10-20T11:40:36Z</time>
      </trkpt>
      <trkpt lat="47.78717" lon="6.96612">
        <ele>447.15</ele>
        <time>2021-10-20T11:40:51Z</time>
      </trkpt>
      <trkpt lat="47.78743" lon="6.96581">
        <ele>447.15</ele>
        <time>2021-10-20T11:40:58Z</time>
      </trkpt>
      <trkpt lat="47.78755" lon="6.96566">
        <ele>446.67</ele>
        <time>2021-10-20T11:41:01Z</time>
      </trkpt>
      <trkpt lat="47.78826" lon="6.96506">
        <ele>448.11</ele>
        <time>2021-10-20T11:41:18Z</time>
      </trkpt>
      <trkpt lat="47.78891" lon="6.96463">
        <ele>448.59</ele>
        <time>2021-10-20T11:41:34Z</time>
      </trkpt>
      <trkpt lat="47.78925" lon="6.96441">
        <ele>449.07</ele>
        <time>2021-10-20T11:41:42Z</time>
      </trkpt>
      <trkpt lat="47.78929" lon="6.96438">
        <ele>449.07</ele>
        <time>2021-10-20T11:41:43Z</time>
      </trkpt>
      <trkpt lat="47.78933" lon="6.96436">
        <ele>449.07</ele>
        <time>2021-10-20T11:41:44Z</time>
      </trkpt>
      <trkpt lat="47.78937" lon="6.96433">
        <ele>449.07</ele>
        <time>2021-10-20T11:41:45Z</time>
      </trkpt>
      <trkpt lat="47.78941" lon="6.96431">
        <ele>449.07</ele>
        <time>2021-10-20T11:41:46Z</time>
      </trkpt>
      <trkpt lat="47.78949" lon="6.96425">
        <ele>448.59</ele>
        <time>2021-10-20T11:41:48Z</time>
      </trkpt>
      <trkpt lat="47.78992" lon="6.964">
        <ele>449.55</ele>
        <time>2021-10-20T11:41:58Z</time>
      </trkpt>
      <trkpt lat="47.78996" lon="6.96397">
        <ele>449.55</ele>
        <time>2021-10-20T11:41:59Z</time>
      </trkpt>
      <trkpt lat="47.79" lon="6.96395">
        <ele>449.55</ele>
        <time>2021-10-20T11:42:00Z</time>
      </trkpt>
      <trkpt lat="47.79029" lon="6.96375">
        <ele>450.52</ele>
        <time>2021-10-20T11:42:07Z</time>
      </trkpt>
      <trkpt lat="47.79033" lon="6.96372">
        <ele>450.52</ele>
        <time>2021-10-20T11:42:08Z</time>
      </trkpt>
      <trkpt lat="47.7908" lon="6.96343">
        <ele>451.48</ele>
        <time>2021-10-20T11:42:19Z</time>
      </trkpt>
      <trkpt lat="47.79131" lon="6.96312">
        <ele>451.96</ele>
        <time>2021-10-20T11:42:32Z</time>
      </trkpt>
      <trkpt lat="47.79149" lon="6.96303">
        <ele>452.44</ele>
        <time>2021-10-20T11:42:36Z</time>
      </trkpt>
      <trkpt lat="47.79207" lon="6.96269">
        <ele>452.92</ele>
        <time>2021-10-20T11:42:50Z</time>
      </trkpt>
      <trkpt lat="47.79252" lon="6.96243">
        <ele>453.88</ele>
        <time>2021-10-20T11:43:02Z</time>
      </trkpt>
      <trkpt lat="47.7927" lon="6.96231">
        <ele>453.88</ele>
        <time>2021-10-20T11:43:07Z</time>
      </trkpt>
      <trkpt lat="47.79283" lon="6.96224">
        <ele>454.36</ele>
        <time>2021-10-20T11:43:10Z</time>
      </trkpt>
      <trkpt lat="47.79315" lon="6.96213">
        <ele>454.36</ele>
        <time>2021-10-20T11:43:18Z</time>
      </trkpt>
      <trkpt lat="47.79341" lon="6.96208">
        <ele>454.84</ele>
        <time>2021-10-20T11:43:24Z</time>
      </trkpt>
      <trkpt lat="47.79385" lon="6.96208">
        <ele>455.8</ele>
        <time>2021-10-20T11:43:34Z</time>
      </trkpt>
      <trkpt lat="47.79409" lon="6.96212">
        <ele>458.21</ele>
        <time>2021-10-20T11:43:40Z</time>
      </trkpt>
      <trkpt lat="47.79413" lon="6.96213">
        <ele>456.76</ele>
        <time>2021-10-20T11:43:41Z</time>
      </trkpt>
      <trkpt lat="47.7946" lon="6.9623">
        <ele>457.72</ele>
        <time>2021-10-20T11:43:52Z</time>
      </trkpt>
      <trkpt lat="47.79474" lon="6.96235">
        <ele>457.72</ele>
        <time>2021-10-20T11:43:55Z</time>
      </trkpt>
      <trkpt lat="47.79518" lon="6.96245">
        <ele>457.24</ele>
        <time>2021-10-20T11:44:02Z</time>
      </trkpt>
      <trkpt lat="47.7953" lon="6.96246">
        <ele>457.72</ele>
        <time>2021-10-20T11:44:04Z</time>
      </trkpt>
      <trkpt lat="47.79575" lon="6.96246">
        <ele>457.24</ele>
        <time>2021-10-20T11:44:11Z</time>
      </trkpt>
      <trkpt lat="47.79644" lon="6.9624">
        <ele>457.24</ele>
        <time>2021-10-20T11:44:22Z</time>
      </trkpt>
      <trkpt lat="47.79726" lon="6.9622">
        <ele>457.24</ele>
        <time>2021-10-20T11:44:35Z</time>
      </trkpt>
      <trkpt lat="47.79801" lon="6.96181">
        <ele>457.24</ele>
        <time>2021-10-20T11:44:49Z</time>
      </trkpt>
      <trkpt lat="47.79853" lon="6.96135">
        <ele>457.24</ele>
        <time>2021-10-20T11:45:02Z</time>
      </trkpt>
      <trkpt lat="47.7988" lon="6.96104">
        <ele>457.24</ele>
        <time>2021-10-20T11:45:12Z</time>
      </trkpt>
      <trkpt lat="47.79925" lon="6.96033">
        <ele>458.21</ele>
        <time>2021-10-20T11:45:28Z</time>
      </trkpt>
      <trkpt lat="47.79927" lon="6.96028">
        <ele>458.21</ele>
        <time>2021-10-20T11:45:29Z</time>
      </trkpt>
      <trkpt lat="47.7993" lon="6.96023">
        <ele>458.69</ele>
        <time>2021-10-20T11:45:30Z</time>
      </trkpt>
      <trkpt lat="47.79938" lon="6.96007">
        <ele>458.69</ele>
        <time>2021-10-20T11:45:33Z</time>
      </trkpt>
      <trkpt lat="47.7994" lon="6.96002">
        <ele>458.69</ele>
        <time>2021-10-20T11:45:34Z</time>
      </trkpt>
      <trkpt lat="47.79945" lon="6.95992">
        <ele>458.69</ele>
        <time>2021-10-20T11:45:36Z</time>
      </trkpt>
      <trkpt lat="47.79962" lon="6.95942">
        <ele>459.17</ele>
        <time>2021-10-20T11:45:45Z</time>
      </trkpt>
      <trkpt lat="47.79964" lon="6.95937">
        <ele>459.17</ele>
        <time>2021-10-20T11:45:46Z</time>
      </trkpt>
      <trkpt lat="47.79965" lon="6.95931">
        <ele>459.17</ele>
        <time>2021-10-20T11:45:47Z</time>
      </trkpt>
      <trkpt lat="47.79967" lon="6.95926">
        <ele>459.17</ele>
        <time>2021-10-20T11:45:48Z</time>
      </trkpt>
      <trkpt lat="47.79968" lon="6.95921">
        <ele>459.65</ele>
        <time>2021-10-20T11:45:49Z</time>
      </trkpt>
      <trkpt lat="47.79983" lon="6.95881">
        <ele>459.65</ele>
        <time>2021-10-20T11:45:59Z</time>
      </trkpt>
      <trkpt lat="47.79983" lon="6.95877">
        <ele>459.65</ele>
        <time>2021-10-20T11:46:00Z</time>
      </trkpt>
      <trkpt lat="47.79983" lon="6.95872">
        <ele>459.65</ele>
        <time>2021-10-20T11:46:01Z</time>
      </trkpt>
      <trkpt lat="47.79984" lon="6.95867">
        <ele>459.65</ele>
        <time>2021-10-20T11:46:02Z</time>
      </trkpt>
      <trkpt lat="47.79986" lon="6.95862">
        <ele>459.65</ele>
        <time>2021-10-20T11:46:03Z</time>
      </trkpt>
      <trkpt lat="47.79989" lon="6.95857">
        <ele>459.65</ele>
        <time>2021-10-20T11:46:04Z</time>
      </trkpt>
      <trkpt lat="47.79995" lon="6.95847">
        <ele>459.65</ele>
        <time>2021-10-20T11:46:06Z</time>
      </trkpt>
      <trkpt lat="47.80016" lon="6.95778">
        <ele>460.13</ele>
        <time>2021-10-20T11:46:18Z</time>
      </trkpt>
      <trkpt lat="47.80041" lon="6.95709">
        <ele>460.61</ele>
        <time>2021-10-20T11:46:31Z</time>
      </trkpt>
      <trkpt lat="47.80068" lon="6.95634">
        <ele>461.09</ele>
        <time>2021-10-20T11:46:45Z</time>
      </trkpt>
      <trkpt lat="47.80071" lon="6.9563">
        <ele>461.09</ele>
        <time>2021-10-20T11:46:46Z</time>
      </trkpt>
      <trkpt lat="47.80074" lon="6.95625">
        <ele>461.09</ele>
        <time>2021-10-20T11:46:47Z</time>
      </trkpt>
      <trkpt lat="47.80077" lon="6.9562">
        <ele>461.57</ele>
        <time>2021-10-20T11:46:48Z</time>
      </trkpt>
      <trkpt lat="47.80079" lon="6.95615">
        <ele>461.57</ele>
        <time>2021-10-20T11:46:49Z</time>
      </trkpt>
      <trkpt lat="47.80112" lon="6.95533">
        <ele>462.53</ele>
        <time>2021-10-20T11:47:04Z</time>
      </trkpt>
      <trkpt lat="47.80117" lon="6.95523">
        <ele>463.01</ele>
        <time>2021-10-20T11:47:06Z</time>
      </trkpt>
      <trkpt lat="47.80141" lon="6.95481">
        <ele>464.45</ele>
        <time>2021-10-20T11:47:15Z</time>
      </trkpt>
      <trkpt lat="47.80144" lon="6.95476">
        <ele>464.45</ele>
        <time>2021-10-20T11:47:16Z</time>
      </trkpt>
      <trkpt lat="47.80176" lon="6.95428">
        <ele>463.49</ele>
        <time>2021-10-20T11:47:29Z</time>
      </trkpt>
      <trkpt lat="47.80198" lon="6.95396">
        <ele>463.49</ele>
        <time>2021-10-20T11:47:38Z</time>
      </trkpt>
      <trkpt lat="47.80237" lon="6.95343">
        <ele>464.45</ele>
        <time>2021-10-20T11:47:51Z</time>
      </trkpt>
      <trkpt lat="47.80249" lon="6.95325">
        <ele>464.45</ele>
        <time>2021-10-20T11:47:55Z</time>
      </trkpt>
      <trkpt lat="47.80252" lon="6.95321">
        <ele>464.45</ele>
        <time>2021-10-20T11:47:56Z</time>
      </trkpt>
      <trkpt lat="47.80255" lon="6.95316">
        <ele>464.45</ele>
        <time>2021-10-20T11:47:57Z</time>
      </trkpt>
      <trkpt lat="47.80258" lon="6.95312">
        <ele>464.45</ele>
        <time>2021-10-20T11:47:58Z</time>
      </trkpt>
      <trkpt lat="47.80261" lon="6.95307">
        <ele>464.45</ele>
        <time>2021-10-20T11:47:59Z</time>
      </trkpt>
      <trkpt lat="47.80265" lon="6.95303">
        <ele>464.45</ele>
        <time>2021-10-20T11:48:00Z</time>
      </trkpt>
      <trkpt lat="47.80296" lon="6.95257">
        <ele>464.93</ele>
        <time>2021-10-20T11:48:10Z</time>
      </trkpt>
      <trkpt lat="47.80329" lon="6.95209">
        <ele>465.42</ele>
        <time>2021-10-20T11:48:21Z</time>
      </trkpt>
      <trkpt lat="47.80332" lon="6.95205">
        <ele>465.42</ele>
        <time>2021-10-20T11:48:22Z</time>
      </trkpt>
      <trkpt lat="47.80363" lon="6.95157">
        <ele>465.42</ele>
        <time>2021-10-20T11:48:32Z</time>
      </trkpt>
      <trkpt lat="47.80376" lon="6.95129">
        <ele>465.42</ele>
        <time>2021-10-20T11:48:37Z</time>
      </trkpt>
      <trkpt lat="47.80413" lon="6.95033">
        <ele>466.38</ele>
        <time>2021-10-20T11:48:53Z</time>
      </trkpt>
      <trkpt lat="47.80445" lon="6.94954">
        <ele>466.38</ele>
        <time>2021-10-20T11:49:08Z</time>
      </trkpt>
      <trkpt lat="47.80485" lon="6.94855">
        <ele>468.3</ele>
        <time>2021-10-20T11:49:27Z</time>
      </trkpt>
      <trkpt lat="47.80504" lon="6.94808">
        <ele>468.78</ele>
        <time>2021-10-20T11:49:38Z</time>
      </trkpt>
      <trkpt lat="47.80532" lon="6.9474">
        <ele>469.74</ele>
        <time>2021-10-20T11:49:51Z</time>
      </trkpt>
      <trkpt lat="47.80534" lon="6.94735">
        <ele>469.26</ele>
        <time>2021-10-20T11:49:52Z</time>
      </trkpt>
      <trkpt lat="47.80538" lon="6.94724">
        <ele>469.26</ele>
        <time>2021-10-20T11:49:54Z</time>
      </trkpt>
      <trkpt lat="47.80553" lon="6.94686">
        <ele>469.74</ele>
        <time>2021-10-20T11:50:01Z</time>
      </trkpt>
      <trkpt lat="47.80555" lon="6.9468">
        <ele>470.22</ele>
        <time>2021-10-20T11:50:02Z</time>
      </trkpt>
      <trkpt lat="47.80585" lon="6.94615">
        <ele>469.74</ele>
        <time>2021-10-20T11:50:15Z</time>
      </trkpt>
      <trkpt lat="47.80622" lon="6.94549">
        <ele>471.18</ele>
        <time>2021-10-20T11:50:29Z</time>
      </trkpt>
      <trkpt lat="47.80625" lon="6.94544">
        <ele>471.18</ele>
        <time>2021-10-20T11:50:30Z</time>
      </trkpt>
      <trkpt lat="47.80628" lon="6.94539">
        <ele>471.18</ele>
        <time>2021-10-20T11:50:31Z</time>
      </trkpt>
      <trkpt lat="47.8063" lon="6.94535">
        <ele>471.66</ele>
        <time>2021-10-20T11:50:32Z</time>
      </trkpt>
      <trkpt lat="47.80633" lon="6.9453">
        <ele>471.66</ele>
        <time>2021-10-20T11:50:33Z</time>
      </trkpt>
      <trkpt lat="47.80668" lon="6.94458">
        <ele>473.11</ele>
        <time>2021-10-20T11:50:46Z</time>
      </trkpt>
      <trkpt lat="47.80692" lon="6.9436">
        <ele>474.55</ele>
        <time>2021-10-20T11:51:01Z</time>
      </trkpt>
      <trkpt lat="47.807" lon="6.94323">
        <ele>474.55</ele>
        <time>2021-10-20T11:51:11Z</time>
      </trkpt>
      <trkpt lat="47.80702" lon="6.94322">
        <ele>474.55</ele>
        <time>2021-10-20T11:51:12Z</time>
      </trkpt>
      <trkpt lat="47.80705" lon="6.94321">
        <ele>474.55</ele>
        <time>2021-10-20T11:51:13Z</time>
      </trkpt>
      <trkpt lat="47.80708" lon="6.94321">
        <ele>474.55</ele>
        <time>2021-10-20T11:51:14Z</time>
      </trkpt>
      <trkpt lat="47.80712" lon="6.94323">
        <ele>474.55</ele>
        <time>2021-10-20T11:51:15Z</time>
      </trkpt>
      <trkpt lat="47.8076" lon="6.94337">
        <ele>475.03</ele>
        <time>2021-10-20T11:51:29Z</time>
      </trkpt>
      <trkpt lat="47.80778" lon="6.94345">
        <ele>475.51</ele>
        <time>2021-10-20T11:51:36Z</time>
      </trkpt>
      <trkpt lat="47.80782" lon="6.94346">
        <ele>475.99</ele>
        <time>2021-10-20T11:51:37Z</time>
      </trkpt>
      <trkpt lat="47.80787" lon="6.94345">
        <ele>475.51</ele>
        <time>2021-10-20T11:51:38Z</time>
      </trkpt>
      <trkpt lat="47.80792" lon="6.94343">
        <ele>475.51</ele>
        <time>2021-10-20T11:51:39Z</time>
      </trkpt>
      <trkpt lat="47.80797" lon="6.9434">
        <ele>475.51</ele>
        <time>2021-10-20T11:51:40Z</time>
      </trkpt>
      <trkpt lat="47.80824" lon="6.94331">
        <ele>476.95</ele>
        <time>2021-10-20T11:51:45Z</time>
      </trkpt>
      <trkpt lat="47.80847" lon="6.9433">
        <ele>477.43</ele>
        <time>2021-10-20T11:51:49Z</time>
      </trkpt>
      <trkpt lat="47.80852" lon="6.94331">
        <ele>477.43</ele>
        <time>2021-10-20T11:51:50Z</time>
      </trkpt>
      <trkpt lat="47.80858" lon="6.94332">
        <ele>477.91</ele>
        <time>2021-10-20T11:51:51Z</time>
      </trkpt>
      <trkpt lat="47.80862" lon="6.94333">
        <ele>477.91</ele>
        <time>2021-10-20T11:51:52Z</time>
      </trkpt>
      <trkpt lat="47.80866" lon="6.94335">
        <ele>478.39</ele>
        <time>2021-10-20T11:51:53Z</time>
      </trkpt>
      <trkpt lat="47.8087" lon="6.94336">
        <ele>478.39</ele>
        <time>2021-10-20T11:51:54Z</time>
      </trkpt>
      <trkpt lat="47.80893" lon="6.9435">
        <ele>479.35</ele>
        <time>2021-10-20T11:52:01Z</time>
      </trkpt>
      <trkpt lat="47.80895" lon="6.94352">
        <ele>479.35</ele>
        <time>2021-10-20T11:52:02Z</time>
      </trkpt>
      <trkpt lat="47.80899" lon="6.94354">
        <ele>479.35</ele>
        <time>2021-10-20T11:52:03Z</time>
      </trkpt>
      <trkpt lat="47.80902" lon="6.94354">
        <ele>479.84</ele>
        <time>2021-10-20T11:52:04Z</time>
      </trkpt>
      <trkpt lat="47.80906" lon="6.94353">
        <ele>479.35</ele>
        <time>2021-10-20T11:52:05Z</time>
      </trkpt>
      <trkpt lat="47.8094" lon="6.9436">
        <ele>480.8</ele>
        <time>2021-10-20T11:52:16Z</time>
      </trkpt>
      <trkpt lat="47.8099" lon="6.94375">
        <ele>483.68</ele>
        <time>2021-10-20T11:52:30Z</time>
      </trkpt>
      <trkpt lat="47.81036" lon="6.94377">
        <ele>484.64</ele>
        <time>2021-10-20T11:52:42Z</time>
      </trkpt>
      <trkpt lat="47.81076" lon="6.94385">
        <ele>487.53</ele>
        <time>2021-10-20T11:52:53Z</time>
      </trkpt>
      <trkpt lat="47.81114" lon="6.94394">
        <ele>490.89</ele>
        <time>2021-10-20T11:53:05Z</time>
      </trkpt>
      <trkpt lat="47.81151" lon="6.94393">
        <ele>493.77</ele>
        <time>2021-10-20T11:53:17Z</time>
      </trkpt>
      <trkpt lat="47.81184" lon="6.94376">
        <ele>497.14</ele>
        <time>2021-10-20T11:53:27Z</time>
      </trkpt>
      <trkpt lat="47.81211" lon="6.9438">
        <ele>499.54</ele>
        <time>2021-10-20T11:53:35Z</time>
      </trkpt>
      <trkpt lat="47.81239" lon="6.94398">
        <ele>502.91</ele>
        <time>2021-10-20T11:53:45Z</time>
      </trkpt>
      <trkpt lat="47.81271" lon="6.94428">
        <ele>502.91</ele>
        <time>2021-10-20T11:53:58Z</time>
      </trkpt>
      <trkpt lat="47.8131" lon="6.94455">
        <ele>505.79</ele>
        <time>2021-10-20T11:54:13Z</time>
      </trkpt>
      <trkpt lat="47.81353" lon="6.94472">
        <ele>507.71</ele>
        <time>2021-10-20T11:54:27Z</time>
      </trkpt>
      <trkpt lat="47.81404" lon="6.94498">
        <ele>510.12</ele>
        <time>2021-10-20T11:54:43Z</time>
      </trkpt>
      <trkpt lat="47.81463" lon="6.94529">
        <ele>513</ele>
        <time>2021-10-20T11:55:02Z</time>
      </trkpt>
      <trkpt lat="47.81514" lon="6.94542">
        <ele>514.92</ele>
        <time>2021-10-20T11:55:18Z</time>
      </trkpt>
      <trkpt lat="47.81553" lon="6.94515">
        <ele>516.85</ele>
        <time>2021-10-20T11:55:31Z</time>
      </trkpt>
      <trkpt lat="47.8158" lon="6.94471">
        <ele>518.29</ele>
        <time>2021-10-20T11:55:44Z</time>
      </trkpt>
      <trkpt lat="47.81616" lon="6.94432">
        <ele>519.73</ele>
        <time>2021-10-20T11:55:58Z</time>
      </trkpt>
      <trkpt lat="47.81669" lon="6.94407">
        <ele>522.13</ele>
        <time>2021-10-20T11:56:13Z</time>
      </trkpt>
      <trkpt lat="47.81731" lon="6.944">
        <ele>524.06</ele>
        <time>2021-10-20T11:56:29Z</time>
      </trkpt>
      <trkpt lat="47.81783" lon="6.94397">
        <ele>527.42</ele>
        <time>2021-10-20T11:56:44Z</time>
      </trkpt>
      <trkpt lat="47.81814" lon="6.94418">
        <ele>530.3</ele>
        <time>2021-10-20T11:56:55Z</time>
      </trkpt>
      <trkpt lat="47.81845" lon="6.94447">
        <ele>533.67</ele>
        <time>2021-10-20T11:57:07Z</time>
      </trkpt>
      <trkpt lat="47.81852" lon="6.94455">
        <ele>535.11</ele>
        <time>2021-10-20T11:57:10Z</time>
      </trkpt>
      <trkpt lat="47.81896" lon="6.94484">
        <ele>537.03</ele>
        <time>2021-10-20T11:57:26Z</time>
      </trkpt>
      <trkpt lat="47.81912" lon="6.94486">
        <ele>538.48</ele>
        <time>2021-10-20T11:57:31Z</time>
      </trkpt>
      <trkpt lat="47.81963" lon="6.94498">
        <ele>542.32</ele>
        <time>2021-10-20T11:57:47Z</time>
      </trkpt>
      <trkpt lat="47.82009" lon="6.94539">
        <ele>544.72</ele>
        <time>2021-10-20T11:58:02Z</time>
      </trkpt>
      <trkpt lat="47.82056" lon="6.94582">
        <ele>546.17</ele>
        <time>2021-10-20T11:58:16Z</time>
      </trkpt>
      <trkpt lat="47.82098" lon="6.94628">
        <ele>548.09</ele>
        <time>2021-10-20T11:58:31Z</time>
      </trkpt>
      <trkpt lat="47.8214" lon="6.94674">
        <ele>549.53</ele>
        <time>2021-10-20T11:58:45Z</time>
      </trkpt>
      <trkpt lat="47.82182" lon="6.94697">
        <ele>551.45</ele>
        <time>2021-10-20T11:58:56Z</time>
      </trkpt>
      <trkpt lat="47.82185" lon="6.947">
        <ele>551.45</ele>
        <time>2021-10-20T11:58:57Z</time>
      </trkpt>
      <trkpt lat="47.82189" lon="6.94703">
        <ele>551.93</ele>
        <time>2021-10-20T11:58:58Z</time>
      </trkpt>
      <trkpt lat="47.82192" lon="6.94707">
        <ele>551.93</ele>
        <time>2021-10-20T11:58:59Z</time>
      </trkpt>
      <trkpt lat="47.82196" lon="6.9471">
        <ele>551.93</ele>
        <time>2021-10-20T11:59:00Z</time>
      </trkpt>
      <trkpt lat="47.82199" lon="6.94715">
        <ele>551.93</ele>
        <time>2021-10-20T11:59:01Z</time>
      </trkpt>
      <trkpt lat="47.82206" lon="6.94723">
        <ele>552.41</ele>
        <time>2021-10-20T11:59:03Z</time>
      </trkpt>
      <trkpt lat="47.82242" lon="6.94781">
        <ele>554.34</ele>
        <time>2021-10-20T11:59:17Z</time>
      </trkpt>
      <trkpt lat="47.8227" lon="6.94807">
        <ele>556.26</ele>
        <time>2021-10-20T11:59:28Z</time>
      </trkpt>
      <trkpt lat="47.82301" lon="6.94821">
        <ele>558.18</ele>
        <time>2021-10-20T11:59:41Z</time>
      </trkpt>
      <trkpt lat="47.82335" lon="6.9485">
        <ele>560.11</ele>
        <time>2021-10-20T11:59:54Z</time>
      </trkpt>
      <trkpt lat="47.82357" lon="6.94907">
        <ele>562.51</ele>
        <time>2021-10-20T12:00:09Z</time>
      </trkpt>
      <trkpt lat="47.82385" lon="6.94958">
        <ele>564.43</ele>
        <time>2021-10-20T12:00:23Z</time>
      </trkpt>
      <trkpt lat="47.8242" lon="6.94988">
        <ele>566.35</ele>
        <time>2021-10-20T12:00:37Z</time>
      </trkpt>
      <trkpt lat="47.82465" lon="6.9501">
        <ele>568.76</ele>
        <time>2021-10-20T12:00:51Z</time>
      </trkpt>
      <trkpt lat="47.82508" lon="6.95032">
        <ele>570.68</ele>
        <time>2021-10-20T12:01:03Z</time>
      </trkpt>
      <trkpt lat="47.8255" lon="6.95051">
        <ele>572.6</ele>
        <time>2021-10-20T12:01:14Z</time>
      </trkpt>
      <trkpt lat="47.82553" lon="6.95054">
        <ele>572.6</ele>
        <time>2021-10-20T12:01:15Z</time>
      </trkpt>
      <trkpt lat="47.82556" lon="6.95057">
        <ele>573.08</ele>
        <time>2021-10-20T12:01:16Z</time>
      </trkpt>
      <trkpt lat="47.8256" lon="6.9506">
        <ele>573.56</ele>
        <time>2021-10-20T12:01:17Z</time>
      </trkpt>
      <trkpt lat="47.82563" lon="6.95064">
        <ele>573.56</ele>
        <time>2021-10-20T12:01:18Z</time>
      </trkpt>
      <trkpt lat="47.82596" lon="6.95099">
        <ele>574.53</ele>
        <time>2021-10-20T12:01:28Z</time>
      </trkpt>
      <trkpt lat="47.82599" lon="6.95102">
        <ele>575.01</ele>
        <time>2021-10-20T12:01:29Z</time>
      </trkpt>
      <trkpt lat="47.82612" lon="6.95116">
        <ele>575.01</ele>
        <time>2021-10-20T12:01:33Z</time>
      </trkpt>
      <trkpt lat="47.82667" lon="6.95144">
        <ele>577.89</ele>
        <time>2021-10-20T12:01:48Z</time>
      </trkpt>
      <trkpt lat="47.8271" lon="6.9515">
        <ele>580.77</ele>
        <time>2021-10-20T12:02:00Z</time>
      </trkpt>
      <trkpt lat="47.82744" lon="6.95153">
        <ele>584.14</ele>
        <time>2021-10-20T12:02:11Z</time>
      </trkpt>
      <trkpt lat="47.82778" lon="6.95157">
        <ele>587.02</ele>
        <time>2021-10-20T12:02:22Z</time>
      </trkpt>
      <trkpt lat="47.82817" lon="6.95184">
        <ele>589.43</ele>
        <time>2021-10-20T12:02:35Z</time>
      </trkpt>
      <trkpt lat="47.82854" lon="6.95209">
        <ele>592.31</ele>
        <time>2021-10-20T12:02:47Z</time>
      </trkpt>
      <trkpt lat="47.82877" lon="6.95231">
        <ele>591.83</ele>
        <time>2021-10-20T12:02:55Z</time>
      </trkpt>
      <trkpt lat="47.82881" lon="6.95236">
        <ele>591.35</ele>
        <time>2021-10-20T12:02:56Z</time>
      </trkpt>
      <trkpt lat="47.82885" lon="6.95241">
        <ele>590.87</ele>
        <time>2021-10-20T12:02:57Z</time>
      </trkpt>
      <trkpt lat="47.82889" lon="6.95245">
        <ele>590.39</ele>
        <time>2021-10-20T12:02:58Z</time>
      </trkpt>
      <trkpt lat="47.82893" lon="6.9525">
        <ele>589.91</ele>
        <time>2021-10-20T12:02:59Z</time>
      </trkpt>
      <trkpt lat="47.82897" lon="6.95254">
        <ele>589.91</ele>
        <time>2021-10-20T12:03:00Z</time>
      </trkpt>
      <trkpt lat="47.82916" lon="6.95277">
        <ele>587.98</ele>
        <time>2021-10-20T12:03:06Z</time>
      </trkpt>
      <trkpt lat="47.82916" lon="6.95283">
        <ele>587.98</ele>
        <time>2021-10-20T12:03:07Z</time>
      </trkpt>
      <trkpt lat="47.82915" lon="6.95289">
        <ele>587.5</ele>
        <time>2021-10-20T12:03:08Z</time>
      </trkpt>
      <trkpt lat="47.82915" lon="6.95295">
        <ele>587.5</ele>
        <time>2021-10-20T12:03:09Z</time>
      </trkpt>
      <trkpt lat="47.82916" lon="6.953">
        <ele>587.02</ele>
        <time>2021-10-20T12:03:10Z</time>
      </trkpt>
      <trkpt lat="47.82918" lon="6.95306">
        <ele>587.02</ele>
        <time>2021-10-20T12:03:11Z</time>
      </trkpt>
      <trkpt lat="47.82919" lon="6.9531">
        <ele>586.54</ele>
        <time>2021-10-20T12:03:12Z</time>
      </trkpt>
      <trkpt lat="47.82921" lon="6.95314">
        <ele>586.54</ele>
        <time>2021-10-20T12:03:13Z</time>
      </trkpt>
      <trkpt lat="47.82923" lon="6.95318">
        <ele>586.06</ele>
        <time>2021-10-20T12:03:24Z</time>
      </trkpt>
      <trkpt lat="47.82925" lon="6.95319">
        <ele>586.06</ele>
        <time>2021-10-20T12:03:39Z</time>
      </trkpt>
      <trkpt lat="47.82926" lon="6.95321">
        <ele>585.58</ele>
        <time>2021-10-20T12:03:40Z</time>
      </trkpt>
      <trkpt lat="47.82927" lon="6.95323">
        <ele>585.58</ele>
        <time>2021-10-20T12:03:41Z</time>
      </trkpt>
      <trkpt lat="47.82944" lon="6.95342">
        <ele>587.5</ele>
        <time>2021-10-20T12:03:50Z</time>
      </trkpt>
      <trkpt lat="47.82968" lon="6.95365">
        <ele>588.46</ele>
        <time>2021-10-20T12:04:03Z</time>
      </trkpt>
      <trkpt lat="47.82975" lon="6.95373">
        <ele>590.39</ele>
        <time>2021-10-20T12:04:10Z</time>
      </trkpt>
      <trkpt lat="47.82976" lon="6.95374">
        <ele>590.39</ele>
        <time>2021-10-20T12:04:11Z</time>
      </trkpt>
      <trkpt lat="47.82977" lon="6.95373">
        <ele>590.39</ele>
        <time>2021-10-20T12:04:12Z</time>
      </trkpt>
      <trkpt lat="47.82978" lon="6.95372">
        <ele>590.87</ele>
        <time>2021-10-20T12:04:13Z</time>
      </trkpt>
      <trkpt lat="47.82976" lon="6.9537">
        <ele>590.87</ele>
        <time>2021-10-20T12:04:14Z</time>
      </trkpt>
      <trkpt lat="47.82971" lon="6.95368">
        <ele>590.39</ele>
        <time>2021-10-20T12:04:16Z</time>
      </trkpt>
      <trkpt lat="47.82967" lon="6.95365">
        <ele>589.91</ele>
        <time>2021-10-20T12:04:17Z</time>
      </trkpt>
      <trkpt lat="47.82963" lon="6.9536">
        <ele>589.43</ele>
        <time>2021-10-20T12:04:18Z</time>
      </trkpt>
      <trkpt lat="47.82949" lon="6.95345">
        <ele>587.98</ele>
        <time>2021-10-20T12:04:21Z</time>
      </trkpt>
      <trkpt lat="47.82936" lon="6.95333">
        <ele>585.58</ele>
        <time>2021-10-20T12:04:24Z</time>
      </trkpt>
      <trkpt lat="47.82932" lon="6.9533">
        <ele>585.58</ele>
        <time>2021-10-20T12:04:25Z</time>
      </trkpt>
      <trkpt lat="47.82915" lon="6.95299">
        <ele>586.54</ele>
        <time>2021-10-20T12:04:34Z</time>
      </trkpt>
      <trkpt lat="47.82915" lon="6.95264">
        <ele>587.5</ele>
        <time>2021-10-20T12:04:44Z</time>
      </trkpt>
      <trkpt lat="47.82913" lon="6.95263">
        <ele>587.98</ele>
        <time>2021-10-20T12:04:45Z</time>
      </trkpt>
      <trkpt lat="47.82913" lon="6.95264">
        <ele>587.98</ele>
        <time>2021-10-20T12:04:46Z</time>
      </trkpt>
      <trkpt lat="47.82912" lon="6.95264">
        <ele>588.46</ele>
        <time>2021-10-20T12:04:54Z</time>
      </trkpt>
      <trkpt lat="47.82908" lon="6.95262">
        <ele>588.46</ele>
        <time>2021-10-20T12:04:55Z</time>
      </trkpt>
      <trkpt lat="47.82904" lon="6.95259">
        <ele>588.46</ele>
        <time>2021-10-20T12:04:56Z</time>
      </trkpt>
      <trkpt lat="47.82899" lon="6.95254">
        <ele>588.95</ele>
        <time>2021-10-20T12:04:57Z</time>
      </trkpt>
      <trkpt lat="47.8289" lon="6.95245">
        <ele>589.43</ele>
        <time>2021-10-20T12:04:59Z</time>
      </trkpt>
      <trkpt lat="47.82864" lon="6.95213">
        <ele>591.83</ele>
        <time>2021-10-20T12:05:10Z</time>
      </trkpt>
      <trkpt lat="47.82862" lon="6.9521">
        <ele>591.83</ele>
        <time>2021-10-20T12:05:12Z</time>
      </trkpt>
      <trkpt lat="47.82861" lon="6.95209">
        <ele>592.31</ele>
        <time>2021-10-20T12:05:14Z</time>
      </trkpt>
      <trkpt lat="47.8286" lon="6.95211">
        <ele>591.83</ele>
        <time>2021-10-20T12:05:16Z</time>
      </trkpt>
      <trkpt lat="47.82861" lon="6.95213">
        <ele>591.83</ele>
        <time>2021-10-20T12:05:17Z</time>
      </trkpt>
      <trkpt lat="47.82862" lon="6.95215">
        <ele>591.83</ele>
        <time>2021-10-20T12:05:28Z</time>
      </trkpt>
      <trkpt lat="47.82861" lon="6.95214">
        <ele>593.75</ele>
        <time>2021-10-20T12:05:49Z</time>
      </trkpt>
      <trkpt lat="47.82861" lon="6.95215">
        <ele>593.75</ele>
        <time>2021-10-20T12:06:17Z</time>
      </trkpt>
      <trkpt lat="47.82862" lon="6.95214">
        <ele>593.75</ele>
        <time>2021-10-20T12:06:40Z</time>
      </trkpt>
      <trkpt lat="47.82862" lon="6.95215">
        <ele>593.27</ele>
        <time>2021-10-20T12:07:07Z</time>
      </trkpt>
      <trkpt lat="47.82863" lon="6.95214">
        <ele>593.27</ele>
        <time>2021-10-20T12:07:37Z</time>
      </trkpt>
      <trkpt lat="47.82865" lon="6.95214">
        <ele>592.79</ele>
        <time>2021-10-20T12:07:49Z</time>
      </trkpt>
      <trkpt lat="47.8287" lon="6.95221">
        <ele>592.31</ele>
        <time>2021-10-20T12:07:53Z</time>
      </trkpt>
      <trkpt lat="47.82876" lon="6.95228">
        <ele>591.83</ele>
        <time>2021-10-20T12:07:55Z</time>
      </trkpt>
      <trkpt lat="47.8288" lon="6.95232">
        <ele>591.35</ele>
        <time>2021-10-20T12:07:56Z</time>
      </trkpt>
      <trkpt lat="47.82897" lon="6.95251">
        <ele>589.91</ele>
        <time>2021-10-20T12:08:01Z</time>
      </trkpt>
      <trkpt lat="47.82901" lon="6.95254">
        <ele>589.43</ele>
        <time>2021-10-20T12:08:02Z</time>
      </trkpt>
      <trkpt lat="47.82904" lon="6.95258">
        <ele>588.95</ele>
        <time>2021-10-20T12:08:03Z</time>
      </trkpt>
      <trkpt lat="47.82915" lon="6.95278">
        <ele>587.98</ele>
        <time>2021-10-20T12:08:08Z</time>
      </trkpt>
      <trkpt lat="47.82915" lon="6.95284">
        <ele>587.98</ele>
        <time>2021-10-20T12:08:09Z</time>
      </trkpt>
      <trkpt lat="47.82915" lon="6.95292">
        <ele>587.5</ele>
        <time>2021-10-20T12:08:10Z</time>
      </trkpt>
      <trkpt lat="47.82916" lon="6.95299">
        <ele>587.02</ele>
        <time>2021-10-20T12:08:11Z</time>
      </trkpt>
      <trkpt lat="47.82918" lon="6.95306">
        <ele>587.02</ele>
        <time>2021-10-20T12:08:12Z</time>
      </trkpt>
      <trkpt lat="47.8292" lon="6.95312">
        <ele>586.54</ele>
        <time>2021-10-20T12:08:13Z</time>
      </trkpt>
      <trkpt lat="47.82922" lon="6.95317">
        <ele>586.54</ele>
        <time>2021-10-20T12:08:14Z</time>
      </trkpt>
      <trkpt lat="47.82924" lon="6.95321">
        <ele>586.06</ele>
        <time>2021-10-20T12:08:15Z</time>
      </trkpt>
      <trkpt lat="47.82947" lon="6.95346">
        <ele>587.02</ele>
        <time>2021-10-20T12:08:25Z</time>
      </trkpt>
      <trkpt lat="47.82973" lon="6.95371">
        <ele>590.87</ele>
        <time>2021-10-20T12:08:35Z</time>
      </trkpt>
      <trkpt lat="47.82977" lon="6.95374">
        <ele>591.35</ele>
        <time>2021-10-20T12:08:37Z</time>
      </trkpt>
      <trkpt lat="47.8298" lon="6.95374">
        <ele>591.83</ele>
        <time>2021-10-20T12:08:38Z</time>
      </trkpt>
      <trkpt lat="47.82983" lon="6.95374">
        <ele>592.31</ele>
        <time>2021-10-20T12:08:39Z</time>
      </trkpt>
      <trkpt lat="47.83027" lon="6.95382">
        <ele>593.75</ele>
        <time>2021-10-20T12:08:54Z</time>
      </trkpt>
      <trkpt lat="47.83057" lon="6.95395">
        <ele>596.15</ele>
        <time>2021-10-20T12:09:06Z</time>
      </trkpt>
      <trkpt lat="47.83087" lon="6.95416">
        <ele>597.6</ele>
        <time>2021-10-20T12:09:18Z</time>
      </trkpt>
      <trkpt lat="47.83124" lon="6.95449">
        <ele>600.96</ele>
        <time>2021-10-20T12:09:33Z</time>
      </trkpt>
      <trkpt lat="47.83132" lon="6.95456">
        <ele>602.4</ele>
        <time>2021-10-20T12:09:36Z</time>
      </trkpt>
      <trkpt lat="47.8316" lon="6.95502">
        <ele>603.36</ele>
        <time>2021-10-20T12:09:49Z</time>
      </trkpt>
      <trkpt lat="47.83178" lon="6.95538">
        <ele>605.77</ele>
        <time>2021-10-20T12:10:01Z</time>
      </trkpt>
      <trkpt lat="47.8321" lon="6.95572">
        <ele>607.69</ele>
        <time>2021-10-20T12:10:14Z</time>
      </trkpt>
      <trkpt lat="47.83226" lon="6.95591">
        <ele>607.69</ele>
        <time>2021-10-20T12:10:20Z</time>
      </trkpt>
      <trkpt lat="47.83227" lon="6.95593">
        <ele>607.69</ele>
        <time>2021-10-20T12:10:21Z</time>
      </trkpt>
      <trkpt lat="47.8325" lon="6.95627">
        <ele>609.13</ele>
        <time>2021-10-20T12:10:34Z</time>
      </trkpt>
      <trkpt lat="47.83267" lon="6.95675">
        <ele>608.65</ele>
        <time>2021-10-20T12:10:45Z</time>
      </trkpt>
      <trkpt lat="47.83295" lon="6.95727">
        <ele>610.57</ele>
        <time>2021-10-20T12:10:58Z</time>
      </trkpt>
      <trkpt lat="47.83305" lon="6.95772">
        <ele>612.98</ele>
        <time>2021-10-20T12:11:10Z</time>
      </trkpt>
      <trkpt lat="47.83311" lon="6.95848">
        <ele>615.86</ele>
        <time>2021-10-20T12:11:28Z</time>
      </trkpt>
      <trkpt lat="47.83321" lon="6.95902">
        <ele>618.26</ele>
        <time>2021-10-20T12:11:40Z</time>
      </trkpt>
      <trkpt lat="47.83331" lon="6.95957">
        <ele>621.15</ele>
        <time>2021-10-20T12:11:52Z</time>
      </trkpt>
      <trkpt lat="47.8334" lon="6.96018">
        <ele>623.07</ele>
        <time>2021-10-20T12:12:05Z</time>
      </trkpt>
      <trkpt lat="47.8334" lon="6.96085">
        <ele>625.47</ele>
        <time>2021-10-20T12:12:18Z</time>
      </trkpt>
      <trkpt lat="47.83345" lon="6.96152">
        <ele>627.88</ele>
        <time>2021-10-20T12:12:32Z</time>
      </trkpt>
      <trkpt lat="47.8334" lon="6.96209">
        <ele>630.76</ele>
        <time>2021-10-20T12:12:45Z</time>
      </trkpt>
      <trkpt lat="47.83333" lon="6.9626">
        <ele>633.65</ele>
        <time>2021-10-20T12:12:56Z</time>
      </trkpt>
      <trkpt lat="47.83324" lon="6.96319">
        <ele>636.53</ele>
        <time>2021-10-20T12:13:09Z</time>
      </trkpt>
      <trkpt lat="47.83318" lon="6.96369">
        <ele>637.49</ele>
        <time>2021-10-20T12:13:20Z</time>
      </trkpt>
      <trkpt lat="47.83306" lon="6.96446">
        <ele>637.97</ele>
        <time>2021-10-20T12:13:32Z</time>
      </trkpt>
      <trkpt lat="47.83302" lon="6.96479">
        <ele>638.45</ele>
        <time>2021-10-20T12:13:37Z</time>
      </trkpt>
      <trkpt lat="47.83284" lon="6.96544">
        <ele>641.34</ele>
        <time>2021-10-20T12:13:50Z</time>
      </trkpt>
      <trkpt lat="47.83275" lon="6.96596">
        <ele>643.74</ele>
        <time>2021-10-20T12:14:00Z</time>
      </trkpt>
      <trkpt lat="47.83284" lon="6.96655">
        <ele>645.66</ele>
        <time>2021-10-20T12:14:11Z</time>
      </trkpt>
      <trkpt lat="47.83289" lon="6.96709">
        <ele>649.03</ele>
        <time>2021-10-20T12:14:22Z</time>
      </trkpt>
      <trkpt lat="47.83283" lon="6.96774">
        <ele>652.39</ele>
        <time>2021-10-20T12:14:35Z</time>
      </trkpt>
      <trkpt lat="47.83281" lon="6.96785">
        <ele>652.87</ele>
        <time>2021-10-20T12:14:37Z</time>
      </trkpt>
      <trkpt lat="47.8328" lon="6.9679">
        <ele>652.87</ele>
        <time>2021-10-20T12:14:38Z</time>
      </trkpt>
      <trkpt lat="47.83279" lon="6.96795">
        <ele>653.83</ele>
        <time>2021-10-20T12:14:39Z</time>
      </trkpt>
      <trkpt lat="47.8327" lon="6.96847">
        <ele>655.76</ele>
        <time>2021-10-20T12:14:50Z</time>
      </trkpt>
      <trkpt lat="47.83263" lon="6.96905">
        <ele>657.2</ele>
        <time>2021-10-20T12:15:02Z</time>
      </trkpt>
      <trkpt lat="47.83265" lon="6.96963">
        <ele>659.6</ele>
        <time>2021-10-20T12:15:13Z</time>
      </trkpt>
      <trkpt lat="47.8326" lon="6.97005">
        <ele>661.52</ele>
        <time>2021-10-20T12:15:24Z</time>
      </trkpt>
      <trkpt lat="47.83256" lon="6.97054">
        <ele>663.45</ele>
        <time>2021-10-20T12:15:35Z</time>
      </trkpt>
      <trkpt lat="47.83272" lon="6.97088">
        <ele>662.97</ele>
        <time>2021-10-20T12:15:45Z</time>
      </trkpt>
      <trkpt lat="47.83303" lon="6.97119">
        <ele>664.89</ele>
        <time>2021-10-20T12:15:56Z</time>
      </trkpt>
      <trkpt lat="47.83323" lon="6.97166">
        <ele>666.33</ele>
        <time>2021-10-20T12:16:08Z</time>
      </trkpt>
      <trkpt lat="47.83351" lon="6.97188">
        <ele>669.22</ele>
        <time>2021-10-20T12:16:18Z</time>
      </trkpt>
      <trkpt lat="47.83359" lon="6.97191">
        <ele>670.18</ele>
        <time>2021-10-20T12:16:21Z</time>
      </trkpt>
      <trkpt lat="47.83381" lon="6.97198">
        <ele>673.54</ele>
        <time>2021-10-20T12:16:29Z</time>
      </trkpt>
      <trkpt lat="47.83401" lon="6.9722">
        <ele>676.91</ele>
        <time>2021-10-20T12:16:38Z</time>
      </trkpt>
      <trkpt lat="47.83421" lon="6.97268">
        <ele>678.83</ele>
        <time>2021-10-20T12:16:50Z</time>
      </trkpt>
      <trkpt lat="47.83435" lon="6.97325">
        <ele>680.75</ele>
        <time>2021-10-20T12:17:03Z</time>
      </trkpt>
      <trkpt lat="47.83444" lon="6.97383">
        <ele>683.15</ele>
        <time>2021-10-20T12:17:15Z</time>
      </trkpt>
      <trkpt lat="47.8345" lon="6.97418">
        <ele>685.08</ele>
        <time>2021-10-20T12:17:25Z</time>
      </trkpt>
      <trkpt lat="47.83456" lon="6.97423">
        <ele>684.6</ele>
        <time>2021-10-20T12:17:37Z</time>
      </trkpt>
      <trkpt lat="47.83457" lon="6.97422">
        <ele>686.52</ele>
        <time>2021-10-20T12:18:02Z</time>
      </trkpt>
      <trkpt lat="47.83457" lon="6.97423">
        <ele>686.04</ele>
        <time>2021-10-20T12:18:23Z</time>
      </trkpt>
      <trkpt lat="47.83457" lon="6.97423">
        <ele>684.6</ele>
        <time>2021-10-20T12:18:50Z</time>
      </trkpt>
      <trkpt lat="47.83457" lon="6.97423">
        <ele>687.96</ele>
        <time>2021-10-20T12:19:13Z</time>
      </trkpt>
      <trkpt lat="47.83457" lon="6.97422">
        <ele>687</ele>
        <time>2021-10-20T12:19:33Z</time>
      </trkpt>
      <trkpt lat="47.83457" lon="6.97419">
        <ele>687</ele>
        <time>2021-10-20T12:19:47Z</time>
      </trkpt>
      <trkpt lat="47.83455" lon="6.97418">
        <ele>686.52</ele>
        <time>2021-10-20T12:19:48Z</time>
      </trkpt>
      <trkpt lat="47.83453" lon="6.97417">
        <ele>686.52</ele>
        <time>2021-10-20T12:19:49Z</time>
      </trkpt>
      <trkpt lat="47.8345" lon="6.97416">
        <ele>686.04</ele>
        <time>2021-10-20T12:19:50Z</time>
      </trkpt>
      <trkpt lat="47.83448" lon="6.97413">
        <ele>686.04</ele>
        <time>2021-10-20T12:19:51Z</time>
      </trkpt>
      <trkpt lat="47.83445" lon="6.97408">
        <ele>685.56</ele>
        <time>2021-10-20T12:19:52Z</time>
      </trkpt>
      <trkpt lat="47.83445" lon="6.97401">
        <ele>685.56</ele>
        <time>2021-10-20T12:19:53Z</time>
      </trkpt>
      <trkpt lat="47.83445" lon="6.97394">
        <ele>684.6</ele>
        <time>2021-10-20T12:19:54Z</time>
      </trkpt>
      <trkpt lat="47.83445" lon="6.97387">
        <ele>684.12</ele>
        <time>2021-10-20T12:19:55Z</time>
      </trkpt>
      <trkpt lat="47.83445" lon="6.9738">
        <ele>684.12</ele>
        <time>2021-10-20T12:19:56Z</time>
      </trkpt>
      <trkpt lat="47.83445" lon="6.97373">
        <ele>683.63</ele>
        <time>2021-10-20T12:19:57Z</time>
      </trkpt>
      <trkpt lat="47.83444" lon="6.97366">
        <ele>683.63</ele>
        <time>2021-10-20T12:19:58Z</time>
      </trkpt>
      <trkpt lat="47.83443" lon="6.97359">
        <ele>683.63</ele>
        <time>2021-10-20T12:19:59Z</time>
      </trkpt>
      <trkpt lat="47.83441" lon="6.97351">
        <ele>683.15</ele>
        <time>2021-10-20T12:20:00Z</time>
      </trkpt>
      <trkpt lat="47.83439" lon="6.97344">
        <ele>683.15</ele>
        <time>2021-10-20T12:20:01Z</time>
      </trkpt>
      <trkpt lat="47.83437" lon="6.97336">
        <ele>682.67</ele>
        <time>2021-10-20T12:20:02Z</time>
      </trkpt>
      <trkpt lat="47.83434" lon="6.97328">
        <ele>682.19</ele>
        <time>2021-10-20T12:20:03Z</time>
      </trkpt>
      <trkpt lat="47.83431" lon="6.9732">
        <ele>682.19</ele>
        <time>2021-10-20T12:20:04Z</time>
      </trkpt>
      <trkpt lat="47.83426" lon="6.97301">
        <ele>681.71</ele>
        <time>2021-10-20T12:20:06Z</time>
      </trkpt>
      <trkpt lat="47.83413" lon="6.97249">
        <ele>678.35</ele>
        <time>2021-10-20T12:20:11Z</time>
      </trkpt>
      <trkpt lat="47.8341" lon="6.97239">
        <ele>677.87</ele>
        <time>2021-10-20T12:20:12Z</time>
      </trkpt>
      <trkpt lat="47.83397" lon="6.97211">
        <ele>676.42</ele>
        <time>2021-10-20T12:20:15Z</time>
      </trkpt>
      <trkpt lat="47.83392" lon="6.97204">
        <ele>675.94</ele>
        <time>2021-10-20T12:20:16Z</time>
      </trkpt>
      <trkpt lat="47.83386" lon="6.97198">
        <ele>674.98</ele>
        <time>2021-10-20T12:20:17Z</time>
      </trkpt>
      <trkpt lat="47.83379" lon="6.97194">
        <ele>674.02</ele>
        <time>2021-10-20T12:20:18Z</time>
      </trkpt>
      <trkpt lat="47.83371" lon="6.97191">
        <ele>673.06</ele>
        <time>2021-10-20T12:20:19Z</time>
      </trkpt>
      <trkpt lat="47.83363" lon="6.97189">
        <ele>672.1</ele>
        <time>2021-10-20T12:20:20Z</time>
      </trkpt>
      <trkpt lat="47.83355" lon="6.97186">
        <ele>671.14</ele>
        <time>2021-10-20T12:20:21Z</time>
      </trkpt>
      <trkpt lat="47.83347" lon="6.97181">
        <ele>670.18</ele>
        <time>2021-10-20T12:20:22Z</time>
      </trkpt>
      <trkpt lat="47.83332" lon="6.97169">
        <ele>668.73</ele>
        <time>2021-10-20T12:20:24Z</time>
      </trkpt>
      <trkpt lat="47.83326" lon="6.9716">
        <ele>668.25</ele>
        <time>2021-10-20T12:20:25Z</time>
      </trkpt>
      <trkpt lat="47.8332" lon="6.9715">
        <ele>666.81</ele>
        <time>2021-10-20T12:20:26Z</time>
      </trkpt>
      <trkpt lat="47.83315" lon="6.97139">
        <ele>666.81</ele>
        <time>2021-10-20T12:20:27Z</time>
      </trkpt>
      <trkpt lat="47.83303" lon="6.97107">
        <ele>665.37</ele>
        <time>2021-10-20T12:20:30Z</time>
      </trkpt>
      <trkpt lat="47.83298" lon="6.97098">
        <ele>664.41</ele>
        <time>2021-10-20T12:20:31Z</time>
      </trkpt>
      <trkpt lat="47.83292" lon="6.97092">
        <ele>663.93</ele>
        <time>2021-10-20T12:20:32Z</time>
      </trkpt>
      <trkpt lat="47.83287" lon="6.97088">
        <ele>664.41</ele>
        <time>2021-10-20T12:20:33Z</time>
      </trkpt>
      <trkpt lat="47.8328" lon="6.97086">
        <ele>663.93</ele>
        <time>2021-10-20T12:20:34Z</time>
      </trkpt>
      <trkpt lat="47.83274" lon="6.97084">
        <ele>663.45</ele>
        <time>2021-10-20T12:20:35Z</time>
      </trkpt>
      <trkpt lat="47.83268" lon="6.97079">
        <ele>663.45</ele>
        <time>2021-10-20T12:20:36Z</time>
      </trkpt>
      <trkpt lat="47.83264" lon="6.97073">
        <ele>663.45</ele>
        <time>2021-10-20T12:20:37Z</time>
      </trkpt>
      <trkpt lat="47.8326" lon="6.97066">
        <ele>663.45</ele>
        <time>2021-10-20T12:20:38Z</time>
      </trkpt>
      <trkpt lat="47.83258" lon="6.97058">
        <ele>663.45</ele>
        <time>2021-10-20T12:20:39Z</time>
      </trkpt>
      <trkpt lat="47.83258" lon="6.97051">
        <ele>663.93</ele>
        <time>2021-10-20T12:20:40Z</time>
      </trkpt>
      <trkpt lat="47.83257" lon="6.97037">
        <ele>663.93</ele>
        <time>2021-10-20T12:20:42Z</time>
      </trkpt>
      <trkpt lat="47.83259" lon="6.97026">
        <ele>663.45</ele>
        <time>2021-10-20T12:20:44Z</time>
      </trkpt>
      <trkpt lat="47.83261" lon="6.96972">
        <ele>661.04</ele>
        <time>2021-10-20T12:20:50Z</time>
      </trkpt>
      <trkpt lat="47.83253" lon="6.96917">
        <ele>661.52</ele>
        <time>2021-10-20T12:20:59Z</time>
      </trkpt>
      <trkpt lat="47.83252" lon="6.96874">
        <ele>663.45</ele>
        <time>2021-10-20T12:21:10Z</time>
      </trkpt>
      <trkpt lat="47.83245" lon="6.96832">
        <ele>666.33</ele>
        <time>2021-10-20T12:21:20Z</time>
      </trkpt>
      <trkpt lat="47.83238" lon="6.96788">
        <ele>668.73</ele>
        <time>2021-10-20T12:21:31Z</time>
      </trkpt>
      <trkpt lat="47.83237" lon="6.96781">
        <ele>669.22</ele>
        <time>2021-10-20T12:21:33Z</time>
      </trkpt>
      <trkpt lat="47.83235" lon="6.96778">
        <ele>669.7</ele>
        <time>2021-10-20T12:21:34Z</time>
      </trkpt>
      <trkpt lat="47.83232" lon="6.96768">
        <ele>670.18</ele>
        <time>2021-10-20T12:21:37Z</time>
      </trkpt>
      <trkpt lat="47.83232" lon="6.96763">
        <ele>670.18</ele>
        <time>2021-10-20T12:21:38Z</time>
      </trkpt>
      <trkpt lat="47.83232" lon="6.96759">
        <ele>670.66</ele>
        <time>2021-10-20T12:21:39Z</time>
      </trkpt>
      <trkpt lat="47.83231" lon="6.96755">
        <ele>670.66</ele>
        <time>2021-10-20T12:21:40Z</time>
      </trkpt>
      <trkpt lat="47.83229" lon="6.96753">
        <ele>670.66</ele>
        <time>2021-10-20T12:21:41Z</time>
      </trkpt>
      <trkpt lat="47.83227" lon="6.96751">
        <ele>670.66</ele>
        <time>2021-10-20T12:21:42Z</time>
      </trkpt>
      <trkpt lat="47.83221" lon="6.96759">
        <ele>672.1</ele>
        <time>2021-10-20T12:21:47Z</time>
      </trkpt>
      <trkpt lat="47.83222" lon="6.96807">
        <ele>674.98</ele>
        <time>2021-10-20T12:22:01Z</time>
      </trkpt>
      <trkpt lat="47.8322" lon="6.96852">
        <ele>678.35</ele>
        <time>2021-10-20T12:22:14Z</time>
      </trkpt>
      <trkpt lat="47.83219" lon="6.96869">
        <ele>680.27</ele>
        <time>2021-10-20T12:22:22Z</time>
      </trkpt>
      <trkpt lat="47.83222" lon="6.9688">
        <ele>682.19</ele>
        <time>2021-10-20T12:22:29Z</time>
      </trkpt>
      <trkpt lat="47.83223" lon="6.96888">
        <ele>682.67</ele>
        <time>2021-10-20T12:22:32Z</time>
      </trkpt>
      <trkpt lat="47.83225" lon="6.96941">
        <ele>685.56</ele>
        <time>2021-10-20T12:22:44Z</time>
      </trkpt>
      <trkpt lat="47.83218" lon="6.96982">
        <ele>687.96</ele>
        <time>2021-10-20T12:22:54Z</time>
      </trkpt>
      <trkpt lat="47.83216" lon="6.97004">
        <ele>689.88</ele>
        <time>2021-10-20T12:23:03Z</time>
      </trkpt>
      <trkpt lat="47.83204" lon="6.9704">
        <ele>693.25</ele>
        <time>2021-10-20T12:23:15Z</time>
      </trkpt>
      <trkpt lat="47.83188" lon="6.97074">
        <ele>695.65</ele>
        <time>2021-10-20T12:23:25Z</time>
      </trkpt>
      <trkpt lat="47.83185" lon="6.97085">
        <ele>697.09</ele>
        <time>2021-10-20T12:23:30Z</time>
      </trkpt>
      <trkpt lat="47.83178" lon="6.97111">
        <ele>699.5</ele>
        <time>2021-10-20T12:23:42Z</time>
      </trkpt>
      <trkpt lat="47.83179" lon="6.97148">
        <ele>701.9</ele>
        <time>2021-10-20T12:23:53Z</time>
      </trkpt>
      <trkpt lat="47.83179" lon="6.97151">
        <ele>703.34</ele>
        <time>2021-10-20T12:23:54Z</time>
      </trkpt>
      <trkpt lat="47.83178" lon="6.97159">
        <ele>702.86</ele>
        <time>2021-10-20T12:23:57Z</time>
      </trkpt>
      <trkpt lat="47.83181" lon="6.97205">
        <ele>706.23</ele>
        <time>2021-10-20T12:24:11Z</time>
      </trkpt>
      <trkpt lat="47.83174" lon="6.9725">
        <ele>708.15</ele>
        <time>2021-10-20T12:24:20Z</time>
      </trkpt>
      <trkpt lat="47.83173" lon="6.97301">
        <ele>711.03</ele>
        <time>2021-10-20T12:24:31Z</time>
      </trkpt>
      <trkpt lat="47.83171" lon="6.97315">
        <ele>712.95</ele>
        <time>2021-10-20T12:24:37Z</time>
      </trkpt>
      <trkpt lat="47.8317" lon="6.97322">
        <ele>712.95</ele>
        <time>2021-10-20T12:24:39Z</time>
      </trkpt>
      <trkpt lat="47.8317" lon="6.97336">
        <ele>714.88</ele>
        <time>2021-10-20T12:24:44Z</time>
      </trkpt>
      <trkpt lat="47.8317" lon="6.9734">
        <ele>714.88</ele>
        <time>2021-10-20T12:24:45Z</time>
      </trkpt>
      <trkpt lat="47.8317" lon="6.97345">
        <ele>715.36</ele>
        <time>2021-10-20T12:24:46Z</time>
      </trkpt>
      <trkpt lat="47.83174" lon="6.97402">
        <ele>718.72</ele>
        <time>2021-10-20T12:24:59Z</time>
      </trkpt>
      <trkpt lat="47.83176" lon="6.97416">
        <ele>720.16</ele>
        <time>2021-10-20T12:25:06Z</time>
      </trkpt>
      <trkpt lat="47.83173" lon="6.9747">
        <ele>723.53</ele>
        <time>2021-10-20T12:25:16Z</time>
      </trkpt>
      <trkpt lat="47.83164" lon="6.9752">
        <ele>726.41</ele>
        <time>2021-10-20T12:25:27Z</time>
      </trkpt>
      <trkpt lat="47.83154" lon="6.97563">
        <ele>729.3</ele>
        <time>2021-10-20T12:25:37Z</time>
      </trkpt>
      <trkpt lat="47.83152" lon="6.97568">
        <ele>729.78</ele>
        <time>2021-10-20T12:25:39Z</time>
      </trkpt>
      <trkpt lat="47.83141" lon="6.976">
        <ele>732.18</ele>
        <time>2021-10-20T12:25:51Z</time>
      </trkpt>
      <trkpt lat="47.83114" lon="6.97656">
        <ele>734.1</ele>
        <time>2021-10-20T12:26:01Z</time>
      </trkpt>
      <trkpt lat="47.83094" lon="6.97722">
        <ele>736.51</ele>
        <time>2021-10-20T12:26:13Z</time>
      </trkpt>
      <trkpt lat="47.83083" lon="6.97778">
        <ele>738.91</ele>
        <time>2021-10-20T12:26:25Z</time>
      </trkpt>
      <trkpt lat="47.83065" lon="6.97806">
        <ele>742.28</ele>
        <time>2021-10-20T12:26:36Z</time>
      </trkpt>
      <trkpt lat="47.83041" lon="6.97839">
        <ele>745.16</ele>
        <time>2021-10-20T12:26:46Z</time>
      </trkpt>
      <trkpt lat="47.83035" lon="6.97844">
        <ele>745.64</ele>
        <time>2021-10-20T12:26:47Z</time>
      </trkpt>
      <trkpt lat="47.83012" lon="6.97872">
        <ele>748.52</ele>
        <time>2021-10-20T12:26:58Z</time>
      </trkpt>
      <trkpt lat="47.82987" lon="6.97888">
        <ele>751.89</ele>
        <time>2021-10-20T12:27:09Z</time>
      </trkpt>
      <trkpt lat="47.82968" lon="6.97896">
        <ele>753.33</ele>
        <time>2021-10-20T12:27:15Z</time>
      </trkpt>
      <trkpt lat="47.82962" lon="6.97902">
        <ele>753.81</ele>
        <time>2021-10-20T12:27:18Z</time>
      </trkpt>
      <trkpt lat="47.82961" lon="6.9792">
        <ele>756.21</ele>
        <time>2021-10-20T12:27:27Z</time>
      </trkpt>
      <trkpt lat="47.82959" lon="6.97946">
        <ele>758.62</ele>
        <time>2021-10-20T12:27:37Z</time>
      </trkpt>
      <trkpt lat="47.82956" lon="6.97958">
        <ele>759.58</ele>
        <time>2021-10-20T12:27:41Z</time>
      </trkpt>
      <trkpt lat="47.82956" lon="6.9796">
        <ele>759.58</ele>
        <time>2021-10-20T12:27:42Z</time>
      </trkpt>
      <trkpt lat="47.82954" lon="6.97968">
        <ele>760.06</ele>
        <time>2021-10-20T12:27:45Z</time>
      </trkpt>
      <trkpt lat="47.82949" lon="6.98017">
        <ele>763.42</ele>
        <time>2021-10-20T12:27:59Z</time>
      </trkpt>
      <trkpt lat="47.82949" lon="6.98026">
        <ele>764.39</ele>
        <time>2021-10-20T12:28:03Z</time>
      </trkpt>
      <trkpt lat="47.82949" lon="6.98096">
        <ele>766.31</ele>
        <time>2021-10-20T12:28:14Z</time>
      </trkpt>
      <trkpt lat="47.82957" lon="6.98143">
        <ele>769.19</ele>
        <time>2021-10-20T12:28:24Z</time>
      </trkpt>
      <trkpt lat="47.82965" lon="6.98171">
        <ele>772.56</ele>
        <time>2021-10-20T12:28:31Z</time>
      </trkpt>
      <trkpt lat="47.82976" lon="6.98204">
        <ele>774.96</ele>
        <time>2021-10-20T12:28:42Z</time>
      </trkpt>
      <trkpt lat="47.82989" lon="6.98241">
        <ele>775.92</ele>
        <time>2021-10-20T12:28:53Z</time>
      </trkpt>
      <trkpt lat="47.83006" lon="6.98267">
        <ele>777.84</ele>
        <time>2021-10-20T12:29:05Z</time>
      </trkpt>
      <trkpt lat="47.83012" lon="6.98273">
        <ele>778.81</ele>
        <time>2021-10-20T12:29:09Z</time>
      </trkpt>
      <trkpt lat="47.8303" lon="6.98359">
        <ele>779.77</ele>
        <time>2021-10-20T12:29:12Z</time>
      </trkpt>
      <trkpt lat="47.82996" lon="6.9845">
        <ele>780.25</ele>
        <time>2021-10-20T12:29:16Z</time>
      </trkpt>
      <trkpt lat="47.83012" lon="6.98501">
        <ele>782.17</ele>
        <time>2021-10-20T12:29:29Z</time>
      </trkpt>
      <trkpt lat="47.83034" lon="6.9853">
        <ele>784.09</ele>
        <time>2021-10-20T12:29:42Z</time>
      </trkpt>
      <trkpt lat="47.83035" lon="6.98535">
        <ele>784.57</ele>
        <time>2021-10-20T12:29:44Z</time>
      </trkpt>
      <trkpt lat="47.83031" lon="6.98553">
        <ele>786.02</ele>
        <time>2021-10-20T12:29:56Z</time>
      </trkpt>
      <trkpt lat="47.83033" lon="6.98554">
        <ele>786.98</ele>
        <time>2021-10-20T12:30:14Z</time>
      </trkpt>
      <trkpt lat="47.83031" lon="6.98561">
        <ele>786.98</ele>
        <time>2021-10-20T12:30:25Z</time>
      </trkpt>
      <trkpt lat="47.83025" lon="6.98555">
        <ele>786.98</ele>
        <time>2021-10-20T12:30:31Z</time>
      </trkpt>
      <trkpt lat="47.83023" lon="6.9855">
        <ele>786.98</ele>
        <time>2021-10-20T12:30:34Z</time>
      </trkpt>
      <trkpt lat="47.83035" lon="6.98528">
        <ele>785.05</ele>
        <time>2021-10-20T12:30:45Z</time>
      </trkpt>
      <trkpt lat="47.83035" lon="6.98521">
        <ele>783.61</ele>
        <time>2021-10-20T12:31:00Z</time>
      </trkpt>
      <trkpt lat="47.83052" lon="6.98493">
        <ele>782.65</ele>
        <time>2021-10-20T12:31:08Z</time>
      </trkpt>
      <trkpt lat="47.83054" lon="6.98487">
        <ele>782.65</ele>
        <time>2021-10-20T12:31:09Z</time>
      </trkpt>
      <trkpt lat="47.83056" lon="6.98481">
        <ele>782.65</ele>
        <time>2021-10-20T12:31:10Z</time>
      </trkpt>
      <trkpt lat="47.83068" lon="6.98438">
        <ele>784.57</ele>
        <time>2021-10-20T12:31:20Z</time>
      </trkpt>
      <trkpt lat="47.83079" lon="6.98402">
        <ele>786.02</ele>
        <time>2021-10-20T12:31:30Z</time>
      </trkpt>
      <trkpt lat="47.83077" lon="6.9838">
        <ele>786.98</ele>
        <time>2021-10-20T12:31:36Z</time>
      </trkpt>
      <trkpt lat="47.83076" lon="6.98377">
        <ele>787.46</ele>
        <time>2021-10-20T12:31:37Z</time>
      </trkpt>
      <trkpt lat="47.83074" lon="6.98373">
        <ele>787.94</ele>
        <time>2021-10-20T12:31:38Z</time>
      </trkpt>
      <trkpt lat="47.83073" lon="6.98369">
        <ele>787.94</ele>
        <time>2021-10-20T12:31:39Z</time>
      </trkpt>
      <trkpt lat="47.83072" lon="6.98364">
        <ele>788.42</ele>
        <time>2021-10-20T12:31:40Z</time>
      </trkpt>
      <trkpt lat="47.83069" lon="6.9831">
        <ele>789.86</ele>
        <time>2021-10-20T12:31:51Z</time>
      </trkpt>
      <trkpt lat="47.83079" lon="6.98257">
        <ele>792.74</ele>
        <time>2021-10-20T12:32:03Z</time>
      </trkpt>
      <trkpt lat="47.83087" lon="6.98225">
        <ele>795.63</ele>
        <time>2021-10-20T12:32:12Z</time>
      </trkpt>
      <trkpt lat="47.83094" lon="6.98203">
        <ele>797.07</ele>
        <time>2021-10-20T12:32:18Z</time>
      </trkpt>
      <trkpt lat="47.83096" lon="6.982">
        <ele>797.55</ele>
        <time>2021-10-20T12:32:19Z</time>
      </trkpt>
      <trkpt lat="47.83098" lon="6.98197">
        <ele>797.55</ele>
        <time>2021-10-20T12:32:20Z</time>
      </trkpt>
      <trkpt lat="47.831" lon="6.98194">
        <ele>797.55</ele>
        <time>2021-10-20T12:32:21Z</time>
      </trkpt>
      <trkpt lat="47.83126" lon="6.98166">
        <ele>800.44</ele>
        <time>2021-10-20T12:32:32Z</time>
      </trkpt>
      <trkpt lat="47.83161" lon="6.98151">
        <ele>803.32</ele>
        <time>2021-10-20T12:32:44Z</time>
      </trkpt>
      <trkpt lat="47.83196" lon="6.98143">
        <ele>805.72</ele>
        <time>2021-10-20T12:32:57Z</time>
      </trkpt>
      <trkpt lat="47.83222" lon="6.98137">
        <ele>807.16</ele>
        <time>2021-10-20T12:33:06Z</time>
      </trkpt>
      <trkpt lat="47.83246" lon="6.98111">
        <ele>809.09</ele>
        <time>2021-10-20T12:33:19Z</time>
      </trkpt>
      <trkpt lat="47.83266" lon="6.9807">
        <ele>810.53</ele>
        <time>2021-10-20T12:33:31Z</time>
      </trkpt>
      <trkpt lat="47.83285" lon="6.98042">
        <ele>813.89</ele>
        <time>2021-10-20T12:33:42Z</time>
      </trkpt>
      <trkpt lat="47.83288" lon="6.98039">
        <ele>814.85</ele>
        <time>2021-10-20T12:33:44Z</time>
      </trkpt>
      <trkpt lat="47.83308" lon="6.98007">
        <ele>817.26</ele>
        <time>2021-10-20T12:33:54Z</time>
      </trkpt>
      <trkpt lat="47.83334" lon="6.97956">
        <ele>820.14</ele>
        <time>2021-10-20T12:34:07Z</time>
      </trkpt>
      <trkpt lat="47.83355" lon="6.97937">
        <ele>822.55</ele>
        <time>2021-10-20T12:34:17Z</time>
      </trkpt>
      <trkpt lat="47.83384" lon="6.97911">
        <ele>825.91</ele>
        <time>2021-10-20T12:34:30Z</time>
      </trkpt>
      <trkpt lat="47.83408" lon="6.97884">
        <ele>828.79</ele>
        <time>2021-10-20T12:34:41Z</time>
      </trkpt>
      <trkpt lat="47.83435" lon="6.97862">
        <ele>831.2</ele>
        <time>2021-10-20T12:34:53Z</time>
      </trkpt>
      <trkpt lat="47.83446" lon="6.97855">
        <ele>832.16</ele>
        <time>2021-10-20T12:34:57Z</time>
      </trkpt>
      <trkpt lat="47.83449" lon="6.97855">
        <ele>832.64</ele>
        <time>2021-10-20T12:34:58Z</time>
      </trkpt>
      <trkpt lat="47.83452" lon="6.97855">
        <ele>833.12</ele>
        <time>2021-10-20T12:34:59Z</time>
      </trkpt>
      <trkpt lat="47.83479" lon="6.97869">
        <ele>836</ele>
        <time>2021-10-20T12:35:09Z</time>
      </trkpt>
      <trkpt lat="47.83487" lon="6.97876">
        <ele>836.96</ele>
        <time>2021-10-20T12:35:14Z</time>
      </trkpt>
      <trkpt lat="47.83491" lon="6.97879">
        <ele>837.93</ele>
        <time>2021-10-20T12:35:16Z</time>
      </trkpt>
      <trkpt lat="47.83493" lon="6.9788">
        <ele>838.41</ele>
        <time>2021-10-20T12:35:17Z</time>
      </trkpt>
      <trkpt lat="47.83494" lon="6.97881">
        <ele>838.41</ele>
        <time>2021-10-20T12:35:18Z</time>
      </trkpt>
      <trkpt lat="47.83497" lon="6.97883">
        <ele>838.89</ele>
        <time>2021-10-20T12:35:19Z</time>
      </trkpt>
      <trkpt lat="47.83533" lon="6.97905">
        <ele>841.77</ele>
        <time>2021-10-20T12:35:31Z</time>
      </trkpt>
      <trkpt lat="47.83535" lon="6.97907">
        <ele>841.77</ele>
        <time>2021-10-20T12:35:32Z</time>
      </trkpt>
      <trkpt lat="47.83537" lon="6.97909">
        <ele>841.77</ele>
        <time>2021-10-20T12:35:33Z</time>
      </trkpt>
      <trkpt lat="47.83539" lon="6.97911">
        <ele>841.77</ele>
        <time>2021-10-20T12:35:34Z</time>
      </trkpt>
      <trkpt lat="47.83541" lon="6.97913">
        <ele>842.25</ele>
        <time>2021-10-20T12:35:35Z</time>
      </trkpt>
      <trkpt lat="47.83542" lon="6.97915">
        <ele>842.25</ele>
        <time>2021-10-20T12:35:36Z</time>
      </trkpt>
      <trkpt lat="47.83537" lon="6.97914">
        <ele>842.73</ele>
        <time>2021-10-20T12:35:41Z</time>
      </trkpt>
      <trkpt lat="47.83517" lon="6.97897">
        <ele>844.66</ele>
        <time>2021-10-20T12:35:53Z</time>
      </trkpt>
      <trkpt lat="47.83492" lon="6.97892">
        <ele>845.62</ele>
        <time>2021-10-20T12:36:03Z</time>
      </trkpt>
      <trkpt lat="47.83489" lon="6.97893">
        <ele>845.62</ele>
        <time>2021-10-20T12:36:04Z</time>
      </trkpt>
      <trkpt lat="47.83455" lon="6.97913">
        <ele>847.54</ele>
        <time>2021-10-20T12:36:16Z</time>
      </trkpt>
      <trkpt lat="47.83432" lon="6.9794">
        <ele>850.9</ele>
        <time>2021-10-20T12:36:27Z</time>
      </trkpt>
      <trkpt lat="47.83413" lon="6.97973">
        <ele>852.35</ele>
        <time>2021-10-20T12:36:37Z</time>
      </trkpt>
      <trkpt lat="47.8339" lon="6.98008">
        <ele>854.27</ele>
        <time>2021-10-20T12:36:51Z</time>
      </trkpt>
      <trkpt lat="47.83376" lon="6.98029">
        <ele>855.23</ele>
        <time>2021-10-20T12:37:00Z</time>
      </trkpt>
      <trkpt lat="47.83362" lon="6.98061">
        <ele>856.67</ele>
        <time>2021-10-20T12:37:11Z</time>
      </trkpt>
      <trkpt lat="47.83353" lon="6.98077">
        <ele>858.11</ele>
        <time>2021-10-20T12:37:16Z</time>
      </trkpt>
      <trkpt lat="47.8334" lon="6.98112">
        <ele>859.56</ele>
        <time>2021-10-20T12:37:26Z</time>
      </trkpt>
      <trkpt lat="47.8332" lon="6.98159">
        <ele>861.48</ele>
        <time>2021-10-20T12:37:37Z</time>
      </trkpt>
      <trkpt lat="47.83303" lon="6.982">
        <ele>864.36</ele>
        <time>2021-10-20T12:37:48Z</time>
      </trkpt>
      <trkpt lat="47.83277" lon="6.98242">
        <ele>866.77</ele>
        <time>2021-10-20T12:38:00Z</time>
      </trkpt>
      <trkpt lat="47.83252" lon="6.98272">
        <ele>866.77</ele>
        <time>2021-10-20T12:38:11Z</time>
      </trkpt>
      <trkpt lat="47.83236" lon="6.98296">
        <ele>869.65</ele>
        <time>2021-10-20T12:38:18Z</time>
      </trkpt>
      <trkpt lat="47.83231" lon="6.9831">
        <ele>872.05</ele>
        <time>2021-10-20T12:38:22Z</time>
      </trkpt>
      <trkpt lat="47.83225" lon="6.98325">
        <ele>873.5</ele>
        <time>2021-10-20T12:38:26Z</time>
      </trkpt>
      <trkpt lat="47.83235" lon="6.98353">
        <ele>874.94</ele>
        <time>2021-10-20T12:38:33Z</time>
      </trkpt>
      <trkpt lat="47.83255" lon="6.98399">
        <ele>877.34</ele>
        <time>2021-10-20T12:38:46Z</time>
      </trkpt>
      <trkpt lat="47.83276" lon="6.98426">
        <ele>878.78</ele>
        <time>2021-10-20T12:38:57Z</time>
      </trkpt>
      <trkpt lat="47.83295" lon="6.98463">
        <ele>880.22</ele>
        <time>2021-10-20T12:39:08Z</time>
      </trkpt>
      <trkpt lat="47.83298" lon="6.985">
        <ele>882.15</ele>
        <time>2021-10-20T12:39:17Z</time>
      </trkpt>
      <trkpt lat="47.83286" lon="6.98544">
        <ele>885.99</ele>
        <time>2021-10-20T12:39:26Z</time>
      </trkpt>
      <trkpt lat="47.83274" lon="6.98589">
        <ele>888.88</ele>
        <time>2021-10-20T12:39:38Z</time>
      </trkpt>
      <trkpt lat="47.83259" lon="6.98635">
        <ele>890.8</ele>
        <time>2021-10-20T12:39:51Z</time>
      </trkpt>
      <trkpt lat="47.83248" lon="6.98666">
        <ele>893.68</ele>
        <time>2021-10-20T12:40:02Z</time>
      </trkpt>
      <trkpt lat="47.83239" lon="6.98679">
        <ele>895.61</ele>
        <time>2021-10-20T12:40:08Z</time>
      </trkpt>
      <trkpt lat="47.8323" lon="6.98716">
        <ele>898.01</ele>
        <time>2021-10-20T12:40:17Z</time>
      </trkpt>
      <trkpt lat="47.83231" lon="6.98737">
        <ele>898.97</ele>
        <time>2021-10-20T12:40:23Z</time>
      </trkpt>
      <trkpt lat="47.83233" lon="6.9874">
        <ele>899.45</ele>
        <time>2021-10-20T12:40:25Z</time>
      </trkpt>
      <trkpt lat="47.83233" lon="6.98736">
        <ele>900.89</ele>
        <time>2021-10-20T12:40:28Z</time>
      </trkpt>
      <trkpt lat="47.83237" lon="6.98713">
        <ele>902.82</ele>
        <time>2021-10-20T12:40:36Z</time>
      </trkpt>
      <trkpt lat="47.83252" lon="6.98698">
        <ele>904.26</ele>
        <time>2021-10-20T12:40:46Z</time>
      </trkpt>
      <trkpt lat="47.83261" lon="6.98683">
        <ele>905.22</ele>
        <time>2021-10-20T12:40:51Z</time>
      </trkpt>
      <trkpt lat="47.83274" lon="6.98657">
        <ele>909.06</ele>
        <time>2021-10-20T12:41:02Z</time>
      </trkpt>
      <trkpt lat="47.83285" lon="6.98634">
        <ele>910.03</ele>
        <time>2021-10-20T12:41:08Z</time>
      </trkpt>
      <trkpt lat="47.83308" lon="6.98592">
        <ele>912.91</ele>
        <time>2021-10-20T12:41:20Z</time>
      </trkpt>
      <trkpt lat="47.83331" lon="6.98556">
        <ele>916.27</ele>
        <time>2021-10-20T12:41:32Z</time>
      </trkpt>
      <trkpt lat="47.83349" lon="6.98507">
        <ele>918.68</ele>
        <time>2021-10-20T12:41:42Z</time>
      </trkpt>
      <trkpt lat="47.83347" lon="6.98482">
        <ele>919.16</ele>
        <time>2021-10-20T12:41:48Z</time>
      </trkpt>
      <trkpt lat="47.83338" lon="6.9845">
        <ele>920.6</ele>
        <time>2021-10-20T12:41:56Z</time>
      </trkpt>
      <trkpt lat="47.83322" lon="6.98406">
        <ele>923</ele>
        <time>2021-10-20T12:42:08Z</time>
      </trkpt>
      <trkpt lat="47.83321" lon="6.98377">
        <ele>925.89</ele>
        <time>2021-10-20T12:42:14Z</time>
      </trkpt>
      <trkpt lat="47.8333" lon="6.9835">
        <ele>928.29</ele>
        <time>2021-10-20T12:42:21Z</time>
      </trkpt>
      <trkpt lat="47.83364" lon="6.98335">
        <ele>930.69</ele>
        <time>2021-10-20T12:42:34Z</time>
      </trkpt>
      <trkpt lat="47.83377" lon="6.98361">
        <ele>932.14</ele>
        <time>2021-10-20T12:42:42Z</time>
      </trkpt>
      <trkpt lat="47.83389" lon="6.98418">
        <ele>935.02</ele>
        <time>2021-10-20T12:42:55Z</time>
      </trkpt>
      <trkpt lat="47.83406" lon="6.98461">
        <ele>937.9</ele>
        <time>2021-10-20T12:43:06Z</time>
      </trkpt>
      <trkpt lat="47.83432" lon="6.98496">
        <ele>940.79</ele>
        <time>2021-10-20T12:43:17Z</time>
      </trkpt>
      <trkpt lat="47.83437" lon="6.985">
        <ele>941.75</ele>
        <time>2021-10-20T12:43:19Z</time>
      </trkpt>
      <trkpt lat="47.83462" lon="6.98528">
        <ele>944.15</ele>
        <time>2021-10-20T12:43:31Z</time>
      </trkpt>
      <trkpt lat="47.83477" lon="6.98548">
        <ele>945.59</ele>
        <time>2021-10-20T12:43:38Z</time>
      </trkpt>
      <trkpt lat="47.83503" lon="6.98581">
        <ele>948.48</ele>
        <time>2021-10-20T12:43:50Z</time>
      </trkpt>
      <trkpt lat="47.83517" lon="6.98602">
        <ele>950.4</ele>
        <time>2021-10-20T12:43:57Z</time>
      </trkpt>
      <trkpt lat="47.83533" lon="6.98622">
        <ele>952.32</ele>
        <time>2021-10-20T12:44:05Z</time>
      </trkpt>
      <trkpt lat="47.83543" lon="6.98638">
        <ele>953.28</ele>
        <time>2021-10-20T12:44:11Z</time>
      </trkpt>
      <trkpt lat="47.83558" lon="6.98667">
        <ele>955.21</ele>
        <time>2021-10-20T12:44:20Z</time>
      </trkpt>
      <trkpt lat="47.83578" lon="6.9871">
        <ele>957.13</ele>
        <time>2021-10-20T12:44:33Z</time>
      </trkpt>
      <trkpt lat="47.83604" lon="6.98736">
        <ele>957.61</ele>
        <time>2021-10-20T12:44:43Z</time>
      </trkpt>
      <trkpt lat="47.83622" lon="6.98734">
        <ele>957.61</ele>
        <time>2021-10-20T12:44:48Z</time>
      </trkpt>
      <trkpt lat="47.8366" lon="6.98708">
        <ele>958.09</ele>
        <time>2021-10-20T12:45:01Z</time>
      </trkpt>
      <trkpt lat="47.83691" lon="6.98691">
        <ele>960.49</ele>
        <time>2021-10-20T12:45:11Z</time>
      </trkpt>
      <trkpt lat="47.83722" lon="6.98688">
        <ele>963.38</ele>
        <time>2021-10-20T12:45:21Z</time>
      </trkpt>
      <trkpt lat="47.83745" lon="6.98695">
        <ele>965.78</ele>
        <time>2021-10-20T12:45:31Z</time>
      </trkpt>
      <trkpt lat="47.8377" lon="6.98709">
        <ele>968.18</ele>
        <time>2021-10-20T12:45:42Z</time>
      </trkpt>
      <trkpt lat="47.83801" lon="6.98728">
        <ele>970.11</ele>
        <time>2021-10-20T12:45:54Z</time>
      </trkpt>
      <trkpt lat="47.83823" lon="6.98742">
        <ele>973.47</ele>
        <time>2021-10-20T12:46:03Z</time>
      </trkpt>
      <trkpt lat="47.83825" lon="6.98744">
        <ele>973.47</ele>
        <time>2021-10-20T12:46:04Z</time>
      </trkpt>
      <trkpt lat="47.83853" lon="6.98765">
        <ele>974.43</ele>
        <time>2021-10-20T12:46:14Z</time>
      </trkpt>
      <trkpt lat="47.83869" lon="6.98774">
        <ele>977.8</ele>
        <time>2021-10-20T12:46:20Z</time>
      </trkpt>
      <trkpt lat="47.83872" lon="6.98775">
        <ele>978.76</ele>
        <time>2021-10-20T12:46:21Z</time>
      </trkpt>
      <trkpt lat="47.83897" lon="6.9879">
        <ele>982.12</ele>
        <time>2021-10-20T12:46:30Z</time>
      </trkpt>
      <trkpt lat="47.83919" lon="6.98815">
        <ele>984.05</ele>
        <time>2021-10-20T12:46:39Z</time>
      </trkpt>
      <trkpt lat="47.83953" lon="6.98851">
        <ele>985.01</ele>
        <time>2021-10-20T12:46:52Z</time>
      </trkpt>
      <trkpt lat="47.83964" lon="6.98858">
        <ele>985.97</ele>
        <time>2021-10-20T12:46:58Z</time>
      </trkpt>
      <trkpt lat="47.8398" lon="6.98862">
        <ele>989.33</ele>
        <time>2021-10-20T12:47:06Z</time>
      </trkpt>
      <trkpt lat="47.83991" lon="6.98864">
        <ele>991.26</ele>
        <time>2021-10-20T12:47:11Z</time>
      </trkpt>
      <trkpt lat="47.83999" lon="6.98866">
        <ele>994.62</ele>
        <time>2021-10-20T12:47:14Z</time>
      </trkpt>
      <trkpt lat="47.84011" lon="6.98866">
        <ele>996.54</ele>
        <time>2021-10-20T12:47:18Z</time>
      </trkpt>
      <trkpt lat="47.84014" lon="6.98865">
        <ele>995.58</ele>
        <time>2021-10-20T12:47:19Z</time>
      </trkpt>
      <trkpt lat="47.84019" lon="6.98867">
        <ele>1001.83</ele>
        <time>2021-10-20T12:47:21Z</time>
      </trkpt>
      <trkpt lat="47.84021" lon="6.98868">
        <ele>1000.87</ele>
        <time>2021-10-20T12:47:22Z</time>
      </trkpt>
      <trkpt lat="47.84025" lon="6.98872">
        <ele>998.95</ele>
        <time>2021-10-20T12:47:24Z</time>
      </trkpt>
      <trkpt lat="47.84029" lon="6.98882">
        <ele>997.02</ele>
        <time>2021-10-20T12:47:27Z</time>
      </trkpt>
      <trkpt lat="47.8403" lon="6.98895">
        <ele>994.62</ele>
        <time>2021-10-20T12:47:30Z</time>
      </trkpt>
      <trkpt lat="47.84029" lon="6.98911">
        <ele>993.18</ele>
        <time>2021-10-20T12:47:35Z</time>
      </trkpt>
      <trkpt lat="47.84026" lon="6.98915">
        <ele>990.3</ele>
        <time>2021-10-20T12:47:38Z</time>
      </trkpt>
      <trkpt lat="47.84025" lon="6.98916">
        <ele>990.78</ele>
        <time>2021-10-20T12:47:52Z</time>
      </trkpt>
      <trkpt lat="47.84023" lon="6.98921">
        <ele>990.3</ele>
        <time>2021-10-20T12:48:04Z</time>
      </trkpt>
      <trkpt lat="47.84023" lon="6.98921">
        <ele>990.3</ele>
        <time>2021-10-20T12:48:06Z</time>
      </trkpt>
      <trkpt lat="47.84016" lon="6.98938">
        <ele>988.85</ele>
        <time>2021-10-20T12:48:15Z</time>
      </trkpt>
      <trkpt lat="47.84016" lon="6.98942">
        <ele>987.41</ele>
        <time>2021-10-20T12:48:34Z</time>
      </trkpt>
      <trkpt lat="47.84012" lon="6.98943">
        <ele>986.45</ele>
        <time>2021-10-20T12:48:45Z</time>
      </trkpt>
      <trkpt lat="47.84" lon="6.98957">
        <ele>986.45</ele>
        <time>2021-10-20T12:48:58Z</time>
      </trkpt>
      <trkpt lat="47.84001" lon="6.98958">
        <ele>986.45</ele>
        <time>2021-10-20T12:49:28Z</time>
      </trkpt>
      <trkpt lat="47.84001" lon="6.9896">
        <ele>987.41</ele>
        <time>2021-10-20T12:50:00Z</time>
      </trkpt>
      <trkpt lat="47.84" lon="6.98961">
        <ele>987.41</ele>
        <time>2021-10-20T12:50:09Z</time>
      </trkpt>
      <trkpt lat="47.83974" lon="6.98982">
        <ele>988.85</ele>
        <time>2021-10-20T12:50:19Z</time>
      </trkpt>
      <trkpt lat="47.83971" lon="6.98985">
        <ele>990.3</ele>
        <time>2021-10-20T12:50:20Z</time>
      </trkpt>
      <trkpt lat="47.83963" lon="6.98989">
        <ele>987.41</ele>
        <time>2021-10-20T12:50:22Z</time>
      </trkpt>
      <trkpt lat="47.83959" lon="6.98991">
        <ele>986.93</ele>
        <time>2021-10-20T12:50:23Z</time>
      </trkpt>
      <trkpt lat="47.83941" lon="6.99003">
        <ele>985.97</ele>
        <time>2021-10-20T12:50:27Z</time>
      </trkpt>
      <trkpt lat="47.83916" lon="6.99015">
        <ele>985.49</ele>
        <time>2021-10-20T12:50:33Z</time>
      </trkpt>
      <trkpt lat="47.83912" lon="6.99018">
        <ele>985.49</ele>
        <time>2021-10-20T12:50:34Z</time>
      </trkpt>
      <trkpt lat="47.83909" lon="6.9902">
        <ele>985.49</ele>
        <time>2021-10-20T12:50:35Z</time>
      </trkpt>
      <trkpt lat="47.83905" lon="6.99022">
        <ele>985.97</ele>
        <time>2021-10-20T12:50:36Z</time>
      </trkpt>
      <trkpt lat="47.83902" lon="6.99024">
        <ele>985.97</ele>
        <time>2021-10-20T12:50:37Z</time>
      </trkpt>
      <trkpt lat="47.83858" lon="6.99054">
        <ele>985.01</ele>
        <time>2021-10-20T12:50:51Z</time>
      </trkpt>
      <trkpt lat="47.83843" lon="6.99061">
        <ele>985.49</ele>
        <time>2021-10-20T12:50:57Z</time>
      </trkpt>
      <trkpt lat="47.83842" lon="6.99063">
        <ele>985.97</ele>
        <time>2021-10-20T12:50:58Z</time>
      </trkpt>
      <trkpt lat="47.83843" lon="6.99067">
        <ele>986.93</ele>
        <time>2021-10-20T12:50:59Z</time>
      </trkpt>
      <trkpt lat="47.83845" lon="6.99071">
        <ele>985.97</ele>
        <time>2021-10-20T12:51:00Z</time>
      </trkpt>
      <trkpt lat="47.83848" lon="6.99073">
        <ele>985.49</ele>
        <time>2021-10-20T12:51:01Z</time>
      </trkpt>
      <trkpt lat="47.83852" lon="6.99073">
        <ele>985.97</ele>
        <time>2021-10-20T12:51:02Z</time>
      </trkpt>
      <trkpt lat="47.83857" lon="6.99073">
        <ele>985.01</ele>
        <time>2021-10-20T12:51:03Z</time>
      </trkpt>
      <trkpt lat="47.83861" lon="6.99073">
        <ele>983.57</ele>
        <time>2021-10-20T12:51:04Z</time>
      </trkpt>
      <trkpt lat="47.83866" lon="6.99075">
        <ele>983.09</ele>
        <time>2021-10-20T12:51:05Z</time>
      </trkpt>
      <trkpt lat="47.83889" lon="6.99078">
        <ele>979.72</ele>
        <time>2021-10-20T12:51:09Z</time>
      </trkpt>
      <trkpt lat="47.83921" lon="6.99083">
        <ele>976.36</ele>
        <time>2021-10-20T12:51:13Z</time>
      </trkpt>
      <trkpt lat="47.83957" lon="6.99087">
        <ele>974.43</ele>
        <time>2021-10-20T12:51:17Z</time>
      </trkpt>
      <trkpt lat="47.83966" lon="6.99087">
        <ele>973.95</ele>
        <time>2021-10-20T12:51:18Z</time>
      </trkpt>
      <trkpt lat="47.83975" lon="6.99088">
        <ele>973.47</ele>
        <time>2021-10-20T12:51:19Z</time>
      </trkpt>
      <trkpt lat="47.84013" lon="6.99094">
        <ele>971.55</ele>
        <time>2021-10-20T12:51:24Z</time>
      </trkpt>
      <trkpt lat="47.8402" lon="6.99096">
        <ele>971.55</ele>
        <time>2021-10-20T12:51:25Z</time>
      </trkpt>
      <trkpt lat="47.84026" lon="6.991">
        <ele>971.55</ele>
        <time>2021-10-20T12:51:26Z</time>
      </trkpt>
      <trkpt lat="47.84061" lon="6.9913">
        <ele>970.11</ele>
        <time>2021-10-20T12:51:33Z</time>
      </trkpt>
      <trkpt lat="47.84092" lon="6.99168">
        <ele>968.67</ele>
        <time>2021-10-20T12:51:40Z</time>
      </trkpt>
      <trkpt lat="47.84099" lon="6.99182">
        <ele>968.18</ele>
        <time>2021-10-20T12:51:42Z</time>
      </trkpt>
      <trkpt lat="47.84101" lon="6.99189">
        <ele>968.18</ele>
        <time>2021-10-20T12:51:43Z</time>
      </trkpt>
      <trkpt lat="47.84101" lon="6.99197">
        <ele>968.67</ele>
        <time>2021-10-20T12:51:44Z</time>
      </trkpt>
      <trkpt lat="47.84101" lon="6.99204">
        <ele>968.67</ele>
        <time>2021-10-20T12:51:45Z</time>
      </trkpt>
      <trkpt lat="47.841" lon="6.99211">
        <ele>967.7</ele>
        <time>2021-10-20T12:51:46Z</time>
      </trkpt>
      <trkpt lat="47.841" lon="6.99227">
        <ele>967.22</ele>
        <time>2021-10-20T12:51:48Z</time>
      </trkpt>
      <trkpt lat="47.841" lon="6.99235">
        <ele>966.74</ele>
        <time>2021-10-20T12:51:49Z</time>
      </trkpt>
      <trkpt lat="47.84104" lon="6.9926">
        <ele>964.34</ele>
        <time>2021-10-20T12:51:52Z</time>
      </trkpt>
      <trkpt lat="47.84114" lon="6.993">
        <ele>961.46</ele>
        <time>2021-10-20T12:51:57Z</time>
      </trkpt>
      <trkpt lat="47.84122" lon="6.99343">
        <ele>958.57</ele>
        <time>2021-10-20T12:52:02Z</time>
      </trkpt>
      <trkpt lat="47.84125" lon="6.9935">
        <ele>958.09</ele>
        <time>2021-10-20T12:52:03Z</time>
      </trkpt>
      <trkpt lat="47.84131" lon="6.99368">
        <ele>956.65</ele>
        <time>2021-10-20T12:52:06Z</time>
      </trkpt>
      <trkpt lat="47.84142" lon="6.99397">
        <ele>953.77</ele>
        <time>2021-10-20T12:52:11Z</time>
      </trkpt>
      <trkpt lat="47.84151" lon="6.99417">
        <ele>951.84</ele>
        <time>2021-10-20T12:52:15Z</time>
      </trkpt>
      <trkpt lat="47.84151" lon="6.99422">
        <ele>951.36</ele>
        <time>2021-10-20T12:52:16Z</time>
      </trkpt>
      <trkpt lat="47.84152" lon="6.99426">
        <ele>950.4</ele>
        <time>2021-10-20T12:52:17Z</time>
      </trkpt>
      <trkpt lat="47.84161" lon="6.99447">
        <ele>947.52</ele>
        <time>2021-10-20T12:52:24Z</time>
      </trkpt>
      <trkpt lat="47.84179" lon="6.99466">
        <ele>944.15</ele>
        <time>2021-10-20T12:52:30Z</time>
      </trkpt>
      <trkpt lat="47.84201" lon="6.99501">
        <ele>940.79</ele>
        <time>2021-10-20T12:52:38Z</time>
      </trkpt>
      <trkpt lat="47.84212" lon="6.99517">
        <ele>939.35</ele>
        <time>2021-10-20T12:52:45Z</time>
      </trkpt>
      <trkpt lat="47.84214" lon="6.99521">
        <ele>939.35</ele>
        <time>2021-10-20T12:52:46Z</time>
      </trkpt>
      <trkpt lat="47.84216" lon="6.99525">
        <ele>938.86</ele>
        <time>2021-10-20T12:52:47Z</time>
      </trkpt>
      <trkpt lat="47.84219" lon="6.99529">
        <ele>938.38</ele>
        <time>2021-10-20T12:52:48Z</time>
      </trkpt>
      <trkpt lat="47.84221" lon="6.99532">
        <ele>937.9</ele>
        <time>2021-10-20T12:52:49Z</time>
      </trkpt>
      <trkpt lat="47.84224" lon="6.99534">
        <ele>937.42</ele>
        <time>2021-10-20T12:52:50Z</time>
      </trkpt>
      <trkpt lat="47.8423" lon="6.99537">
        <ele>935.98</ele>
        <time>2021-10-20T12:52:52Z</time>
      </trkpt>
      <trkpt lat="47.84235" lon="6.99539">
        <ele>935.5</ele>
        <time>2021-10-20T12:52:53Z</time>
      </trkpt>
      <trkpt lat="47.8424" lon="6.99543">
        <ele>935.02</ele>
        <time>2021-10-20T12:52:54Z</time>
      </trkpt>
      <trkpt lat="47.84246" lon="6.99545">
        <ele>934.06</ele>
        <time>2021-10-20T12:52:55Z</time>
      </trkpt>
      <trkpt lat="47.84251" lon="6.99547">
        <ele>933.58</ele>
        <time>2021-10-20T12:52:56Z</time>
      </trkpt>
      <trkpt lat="47.84257" lon="6.99549">
        <ele>933.1</ele>
        <time>2021-10-20T12:52:57Z</time>
      </trkpt>
      <trkpt lat="47.84262" lon="6.99551">
        <ele>932.62</ele>
        <time>2021-10-20T12:52:58Z</time>
      </trkpt>
      <trkpt lat="47.84267" lon="6.99553">
        <ele>932.14</ele>
        <time>2021-10-20T12:52:59Z</time>
      </trkpt>
      <trkpt lat="47.84272" lon="6.99554">
        <ele>931.65</ele>
        <time>2021-10-20T12:53:00Z</time>
      </trkpt>
      <trkpt lat="47.8429" lon="6.99552">
        <ele>930.21</ele>
        <time>2021-10-20T12:53:04Z</time>
      </trkpt>
      <trkpt lat="47.84296" lon="6.99548">
        <ele>929.73</ele>
        <time>2021-10-20T12:53:05Z</time>
      </trkpt>
      <trkpt lat="47.84302" lon="6.99544">
        <ele>929.25</ele>
        <time>2021-10-20T12:53:06Z</time>
      </trkpt>
      <trkpt lat="47.84318" lon="6.99531">
        <ele>928.29</ele>
        <time>2021-10-20T12:53:09Z</time>
      </trkpt>
      <trkpt lat="47.84325" lon="6.99522">
        <ele>927.81</ele>
        <time>2021-10-20T12:53:11Z</time>
      </trkpt>
      <trkpt lat="47.84329" lon="6.99518">
        <ele>927.81</ele>
        <time>2021-10-20T12:53:12Z</time>
      </trkpt>
      <trkpt lat="47.84343" lon="6.9951">
        <ele>928.29</ele>
        <time>2021-10-20T12:53:22Z</time>
      </trkpt>
      <trkpt lat="47.84348" lon="6.99512">
        <ele>928.29</ele>
        <time>2021-10-20T12:53:43Z</time>
      </trkpt>
      <trkpt lat="47.84352" lon="6.99509">
        <ele>927.33</ele>
        <time>2021-10-20T12:54:02Z</time>
      </trkpt>
      <trkpt lat="47.84371" lon="6.9952">
        <ele>928.29</ele>
        <time>2021-10-20T12:54:09Z</time>
      </trkpt>
      <trkpt lat="47.84381" lon="6.99524">
        <ele>928.29</ele>
        <time>2021-10-20T12:54:11Z</time>
      </trkpt>
      <trkpt lat="47.84385" lon="6.99528">
        <ele>928.29</ele>
        <time>2021-10-20T12:54:12Z</time>
      </trkpt>
      <trkpt lat="47.84388" lon="6.99533">
        <ele>928.29</ele>
        <time>2021-10-20T12:54:13Z</time>
      </trkpt>
      <trkpt lat="47.84406" lon="6.99554">
        <ele>929.25</ele>
        <time>2021-10-20T12:54:21Z</time>
      </trkpt>
      <trkpt lat="47.84407" lon="6.99555">
        <ele>929.25</ele>
        <time>2021-10-20T12:54:22Z</time>
      </trkpt>
      <trkpt lat="47.84408" lon="6.99556">
        <ele>929.25</ele>
        <time>2021-10-20T12:54:23Z</time>
      </trkpt>
      <trkpt lat="47.8441" lon="6.99558">
        <ele>928.77</ele>
        <time>2021-10-20T12:54:24Z</time>
      </trkpt>
      <trkpt lat="47.84415" lon="6.99564">
        <ele>930.21</ele>
        <time>2021-10-20T12:54:36Z</time>
      </trkpt>
      <trkpt lat="47.84418" lon="6.99565">
        <ele>930.69</ele>
        <time>2021-10-20T12:54:39Z</time>
      </trkpt>
      <trkpt lat="47.84415" lon="6.99559">
        <ele>930.69</ele>
        <time>2021-10-20T12:54:42Z</time>
      </trkpt>
      <trkpt lat="47.84402" lon="6.99546">
        <ele>930.69</ele>
        <time>2021-10-20T12:54:47Z</time>
      </trkpt>
      <trkpt lat="47.84399" lon="6.99558">
        <ele>928.77</ele>
        <time>2021-10-20T12:54:53Z</time>
      </trkpt>
      <trkpt lat="47.84403" lon="6.99561">
        <ele>928.29</ele>
        <time>2021-10-20T12:55:06Z</time>
      </trkpt>
      <trkpt lat="47.84404" lon="6.99558">
        <ele>930.21</ele>
        <time>2021-10-20T12:55:33Z</time>
      </trkpt>
      <trkpt lat="47.84405" lon="6.99555">
        <ele>929.25</ele>
        <time>2021-10-20T12:56:04Z</time>
      </trkpt>
      <trkpt lat="47.84405" lon="6.99555">
        <ele>930.69</ele>
        <time>2021-10-20T12:56:38Z</time>
      </trkpt>
      <trkpt lat="47.84405" lon="6.99556">
        <ele>930.69</ele>
        <time>2021-10-20T12:57:11Z</time>
      </trkpt>
      <trkpt lat="47.84407" lon="6.99556">
        <ele>929.25</ele>
        <time>2021-10-20T12:57:50Z</time>
      </trkpt>
      <trkpt lat="47.84406" lon="6.99553">
        <ele>930.21</ele>
        <time>2021-10-20T12:58:29Z</time>
      </trkpt>
      <trkpt lat="47.84405" lon="6.99553">
        <ele>931.65</ele>
        <time>2021-10-20T12:59:02Z</time>
      </trkpt>
      <trkpt lat="47.84405" lon="6.99553">
        <ele>931.65</ele>
        <time>2021-10-20T12:59:34Z</time>
      </trkpt>
      <trkpt lat="47.84405" lon="6.99553">
        <ele>932.14</ele>
        <time>2021-10-20T13:00:00Z</time>
      </trkpt>
      <trkpt lat="47.84406" lon="6.99554">
        <ele>932.14</ele>
        <time>2021-10-20T13:00:32Z</time>
      </trkpt>
      <trkpt lat="47.84406" lon="6.99553">
        <ele>931.17</ele>
        <time>2021-10-20T13:01:08Z</time>
      </trkpt>
      <trkpt lat="47.84407" lon="6.99552">
        <ele>934.06</ele>
        <time>2021-10-20T13:01:33Z</time>
      </trkpt>
      <trkpt lat="47.84407" lon="6.99556">
        <ele>934.54</ele>
        <time>2021-10-20T13:01:51Z</time>
      </trkpt>
      <trkpt lat="47.84407" lon="6.99556">
        <ele>934.06</ele>
        <time>2021-10-20T13:01:55Z</time>
      </trkpt>
      <trkpt lat="47.84411" lon="6.9956">
        <ele>934.54</ele>
        <time>2021-10-20T13:01:59Z</time>
      </trkpt>
      <trkpt lat="47.84429" lon="6.9958">
        <ele>935.02</ele>
        <time>2021-10-20T13:02:11Z</time>
      </trkpt>
      <trkpt lat="47.84443" lon="6.9959">
        <ele>935.5</ele>
        <time>2021-10-20T13:02:17Z</time>
      </trkpt>
      <trkpt lat="47.84465" lon="6.9961">
        <ele>937.42</ele>
        <time>2021-10-20T13:02:28Z</time>
      </trkpt>
      <trkpt lat="47.84515" lon="6.99631">
        <ele>935.02</ele>
        <time>2021-10-20T13:02:43Z</time>
      </trkpt>
      <trkpt lat="47.84535" lon="6.99653">
        <ele>932.62</ele>
        <time>2021-10-20T13:02:49Z</time>
      </trkpt>
      <trkpt lat="47.84542" lon="6.99676">
        <ele>930.21</ele>
        <time>2021-10-20T13:02:55Z</time>
      </trkpt>
      <trkpt lat="47.84563" lon="6.99716">
        <ele>926.85</ele>
        <time>2021-10-20T13:03:04Z</time>
      </trkpt>
      <trkpt lat="47.84582" lon="6.99735">
        <ele>923.48</ele>
        <time>2021-10-20T13:03:09Z</time>
      </trkpt>
      <trkpt lat="47.84598" lon="6.99742">
        <ele>920.12</ele>
        <time>2021-10-20T13:03:13Z</time>
      </trkpt>
      <trkpt lat="47.84607" lon="6.99745">
        <ele>917.72</ele>
        <time>2021-10-20T13:03:15Z</time>
      </trkpt>
      <trkpt lat="47.84629" lon="6.99754">
        <ele>914.83</ele>
        <time>2021-10-20T13:03:20Z</time>
      </trkpt>
      <trkpt lat="47.84652" lon="6.99769">
        <ele>910.99</ele>
        <time>2021-10-20T13:03:25Z</time>
      </trkpt>
      <trkpt lat="47.84674" lon="6.99796">
        <ele>909.06</ele>
        <time>2021-10-20T13:03:34Z</time>
      </trkpt>
      <trkpt lat="47.84679" lon="6.99798">
        <ele>909.54</ele>
        <time>2021-10-20T13:03:46Z</time>
      </trkpt>
      <trkpt lat="47.84687" lon="6.99784">
        <ele>909.54</ele>
        <time>2021-10-20T13:03:56Z</time>
      </trkpt>
      <trkpt lat="47.84691" lon="6.99755">
        <ele>906.66</ele>
        <time>2021-10-20T13:04:04Z</time>
      </trkpt>
      <trkpt lat="47.84694" lon="6.99712">
        <ele>903.3</ele>
        <time>2021-10-20T13:04:13Z</time>
      </trkpt>
      <trkpt lat="47.84699" lon="6.99649">
        <ele>900.41</ele>
        <time>2021-10-20T13:04:22Z</time>
      </trkpt>
      <trkpt lat="47.84702" lon="6.99621">
        <ele>898.49</ele>
        <time>2021-10-20T13:04:26Z</time>
      </trkpt>
      <trkpt lat="47.84702" lon="6.99589">
        <ele>895.12</ele>
        <time>2021-10-20T13:04:32Z</time>
      </trkpt>
      <trkpt lat="47.84702" lon="6.9958">
        <ele>894.16</ele>
        <time>2021-10-20T13:04:34Z</time>
      </trkpt>
      <trkpt lat="47.84711" lon="6.99537">
        <ele>890.8</ele>
        <time>2021-10-20T13:04:41Z</time>
      </trkpt>
      <trkpt lat="47.84718" lon="6.99491">
        <ele>887.91</ele>
        <time>2021-10-20T13:04:50Z</time>
      </trkpt>
      <trkpt lat="47.84716" lon="6.99482">
        <ele>886.47</ele>
        <time>2021-10-20T13:05:09Z</time>
      </trkpt>
      <trkpt lat="47.84711" lon="6.99475">
        <ele>885.51</ele>
        <time>2021-10-20T13:05:19Z</time>
      </trkpt>
      <trkpt lat="47.84708" lon="6.99474">
        <ele>885.51</ele>
        <time>2021-10-20T13:05:20Z</time>
      </trkpt>
      <trkpt lat="47.84706" lon="6.99472">
        <ele>885.51</ele>
        <time>2021-10-20T13:05:21Z</time>
      </trkpt>
      <trkpt lat="47.84704" lon="6.99472">
        <ele>885.99</ele>
        <time>2021-10-20T13:05:22Z</time>
      </trkpt>
      <trkpt lat="47.84703" lon="6.9947">
        <ele>885.51</ele>
        <time>2021-10-20T13:05:23Z</time>
      </trkpt>
      <trkpt lat="47.84702" lon="6.99468">
        <ele>885.99</ele>
        <time>2021-10-20T13:05:24Z</time>
      </trkpt>
      <trkpt lat="47.847" lon="6.99467">
        <ele>885.51</ele>
        <time>2021-10-20T13:05:25Z</time>
      </trkpt>
      <trkpt lat="47.84699" lon="6.99467">
        <ele>885.99</ele>
        <time>2021-10-20T13:05:26Z</time>
      </trkpt>
      <trkpt lat="47.84697" lon="6.99467">
        <ele>885.51</ele>
        <time>2021-10-20T13:05:27Z</time>
      </trkpt>
      <trkpt lat="47.84696" lon="6.99466">
        <ele>885.99</ele>
        <time>2021-10-20T13:05:28Z</time>
      </trkpt>
      <trkpt lat="47.84692" lon="6.99463">
        <ele>885.99</ele>
        <time>2021-10-20T13:05:31Z</time>
      </trkpt>
      <trkpt lat="47.84691" lon="6.99462">
        <ele>885.99</ele>
        <time>2021-10-20T13:05:32Z</time>
      </trkpt>
      <trkpt lat="47.84689" lon="6.99461">
        <ele>885.99</ele>
        <time>2021-10-20T13:05:33Z</time>
      </trkpt>
      <trkpt lat="47.84687" lon="6.9946">
        <ele>885.99</ele>
        <time>2021-10-20T13:05:34Z</time>
      </trkpt>
      <trkpt lat="47.84685" lon="6.99458">
        <ele>886.47</ele>
        <time>2021-10-20T13:05:35Z</time>
      </trkpt>
      <trkpt lat="47.84684" lon="6.99456">
        <ele>886.47</ele>
        <time>2021-10-20T13:05:36Z</time>
      </trkpt>
      <trkpt lat="47.84679" lon="6.99449">
        <ele>886.95</ele>
        <time>2021-10-20T13:05:40Z</time>
      </trkpt>
      <trkpt lat="47.84677" lon="6.99447">
        <ele>887.43</ele>
        <time>2021-10-20T13:05:41Z</time>
      </trkpt>
      <trkpt lat="47.84675" lon="6.99446">
        <ele>887.43</ele>
        <time>2021-10-20T13:05:42Z</time>
      </trkpt>
      <trkpt lat="47.84673" lon="6.99444">
        <ele>887.91</ele>
        <time>2021-10-20T13:05:43Z</time>
      </trkpt>
      <trkpt lat="47.8467" lon="6.99441">
        <ele>889.36</ele>
        <time>2021-10-20T13:05:46Z</time>
      </trkpt>
      <trkpt lat="47.84665" lon="6.99433">
        <ele>890.8</ele>
        <time>2021-10-20T13:06:04Z</time>
      </trkpt>
      <trkpt lat="47.84662" lon="6.99434">
        <ele>889.84</ele>
        <time>2021-10-20T13:06:35Z</time>
      </trkpt>
      <trkpt lat="47.8466" lon="6.99433">
        <ele>891.76</ele>
        <time>2021-10-20T13:07:03Z</time>
      </trkpt>
      <trkpt lat="47.84645" lon="6.99421">
        <ele>891.28</ele>
        <time>2021-10-20T13:07:13Z</time>
      </trkpt>
      <trkpt lat="47.84639" lon="6.99416">
        <ele>891.28</ele>
        <time>2021-10-20T13:07:16Z</time>
      </trkpt>
      <trkpt lat="47.84637" lon="6.99414">
        <ele>891.28</ele>
        <time>2021-10-20T13:07:17Z</time>
      </trkpt>
      <trkpt lat="47.84636" lon="6.99412">
        <ele>891.28</ele>
        <time>2021-10-20T13:07:18Z</time>
      </trkpt>
      <trkpt lat="47.84634" lon="6.9941">
        <ele>891.28</ele>
        <time>2021-10-20T13:07:19Z</time>
      </trkpt>
      <trkpt lat="47.84633" lon="6.99408">
        <ele>891.28</ele>
        <time>2021-10-20T13:07:20Z</time>
      </trkpt>
      <trkpt lat="47.8462" lon="6.9938">
        <ele>891.76</ele>
        <time>2021-10-20T13:07:30Z</time>
      </trkpt>
      <trkpt lat="47.84598" lon="6.99348">
        <ele>894.16</ele>
        <time>2021-10-20T13:07:43Z</time>
      </trkpt>
      <trkpt lat="47.84575" lon="6.99314">
        <ele>897.53</ele>
        <time>2021-10-20T13:07:54Z</time>
      </trkpt>
      <trkpt lat="47.84549" lon="6.99277">
        <ele>900.41</ele>
        <time>2021-10-20T13:08:03Z</time>
      </trkpt>
      <trkpt lat="47.84536" lon="6.99251">
        <ele>900.41</ele>
        <time>2021-10-20T13:08:07Z</time>
      </trkpt>
      <trkpt lat="47.84534" lon="6.99245">
        <ele>900.41</ele>
        <time>2021-10-20T13:08:08Z</time>
      </trkpt>
      <trkpt lat="47.84533" lon="6.9924">
        <ele>900.89</ele>
        <time>2021-10-20T13:08:09Z</time>
      </trkpt>
      <trkpt lat="47.84532" lon="6.99236">
        <ele>900.89</ele>
        <time>2021-10-20T13:08:10Z</time>
      </trkpt>
      <trkpt lat="47.84532" lon="6.99232">
        <ele>900.89</ele>
        <time>2021-10-20T13:08:11Z</time>
      </trkpt>
      <trkpt lat="47.8454" lon="6.99176">
        <ele>901.37</ele>
        <time>2021-10-20T13:08:24Z</time>
      </trkpt>
      <trkpt lat="47.84538" lon="6.99115">
        <ele>902.82</ele>
        <time>2021-10-20T13:08:34Z</time>
      </trkpt>
      <trkpt lat="47.84533" lon="6.99082">
        <ele>904.26</ele>
        <time>2021-10-20T13:08:43Z</time>
      </trkpt>
      <trkpt lat="47.84512" lon="6.99035">
        <ele>904.74</ele>
        <time>2021-10-20T13:08:55Z</time>
      </trkpt>
      <trkpt lat="47.84493" lon="6.98987">
        <ele>905.7</ele>
        <time>2021-10-20T13:09:07Z</time>
      </trkpt>
      <trkpt lat="47.84471" lon="6.98919">
        <ele>907.14</ele>
        <time>2021-10-20T13:09:17Z</time>
      </trkpt>
      <trkpt lat="47.84458" lon="6.98845">
        <ele>906.18</ele>
        <time>2021-10-20T13:09:30Z</time>
      </trkpt>
      <trkpt lat="47.84462" lon="6.98825">
        <ele>905.7</ele>
        <time>2021-10-20T13:09:36Z</time>
      </trkpt>
      <trkpt lat="47.84475" lon="6.98791">
        <ele>905.7</ele>
        <time>2021-10-20T13:09:44Z</time>
      </trkpt>
      <trkpt lat="47.84516" lon="6.98746">
        <ele>905.7</ele>
        <time>2021-10-20T13:09:58Z</time>
      </trkpt>
      <trkpt lat="47.84531" lon="6.98695">
        <ele>906.18</ele>
        <time>2021-10-20T13:10:07Z</time>
      </trkpt>
      <trkpt lat="47.84562" lon="6.98659">
        <ele>906.66</ele>
        <time>2021-10-20T13:10:18Z</time>
      </trkpt>
      <trkpt lat="47.84589" lon="6.98622">
        <ele>907.14</ele>
        <time>2021-10-20T13:10:28Z</time>
      </trkpt>
      <trkpt lat="47.84604" lon="6.98559">
        <ele>906.66</ele>
        <time>2021-10-20T13:10:41Z</time>
      </trkpt>
      <trkpt lat="47.84618" lon="6.98511">
        <ele>906.18</ele>
        <time>2021-10-20T13:10:51Z</time>
      </trkpt>
      <trkpt lat="47.84642" lon="6.98481">
        <ele>905.7</ele>
        <time>2021-10-20T13:11:01Z</time>
      </trkpt>
      <trkpt lat="47.84685" lon="6.98458">
        <ele>904.74</ele>
        <time>2021-10-20T13:11:12Z</time>
      </trkpt>
      <trkpt lat="47.84712" lon="6.98457">
        <ele>901.85</ele>
        <time>2021-10-20T13:11:22Z</time>
      </trkpt>
      <trkpt lat="47.84718" lon="6.9846">
        <ele>900.89</ele>
        <time>2021-10-20T13:11:24Z</time>
      </trkpt>
      <trkpt lat="47.84724" lon="6.98461">
        <ele>900.41</ele>
        <time>2021-10-20T13:11:25Z</time>
      </trkpt>
      <trkpt lat="47.84728" lon="6.98463">
        <ele>900.41</ele>
        <time>2021-10-20T13:11:26Z</time>
      </trkpt>
      <trkpt lat="47.84733" lon="6.98465">
        <ele>899.93</ele>
        <time>2021-10-20T13:11:27Z</time>
      </trkpt>
      <trkpt lat="47.84738" lon="6.98466">
        <ele>899.45</ele>
        <time>2021-10-20T13:11:28Z</time>
      </trkpt>
      <trkpt lat="47.84746" lon="6.98469">
        <ele>898.97</ele>
        <time>2021-10-20T13:11:29Z</time>
      </trkpt>
      <trkpt lat="47.84753" lon="6.9847">
        <ele>898.49</ele>
        <time>2021-10-20T13:11:30Z</time>
      </trkpt>
      <trkpt lat="47.84759" lon="6.9847">
        <ele>898.01</ele>
        <time>2021-10-20T13:11:31Z</time>
      </trkpt>
      <trkpt lat="47.84765" lon="6.98471">
        <ele>897.53</ele>
        <time>2021-10-20T13:11:32Z</time>
      </trkpt>
      <trkpt lat="47.84771" lon="6.98472">
        <ele>897.05</ele>
        <time>2021-10-20T13:11:33Z</time>
      </trkpt>
      <trkpt lat="47.84776" lon="6.98472">
        <ele>896.09</ele>
        <time>2021-10-20T13:11:34Z</time>
      </trkpt>
      <trkpt lat="47.84797" lon="6.98475">
        <ele>892.72</ele>
        <time>2021-10-20T13:11:38Z</time>
      </trkpt>
      <trkpt lat="47.8482" lon="6.98479">
        <ele>889.84</ele>
        <time>2021-10-20T13:11:43Z</time>
      </trkpt>
      <trkpt lat="47.84845" lon="6.98487">
        <ele>886.47</ele>
        <time>2021-10-20T13:11:50Z</time>
      </trkpt>
      <trkpt lat="47.84859" lon="6.98498">
        <ele>883.59</ele>
        <time>2021-10-20T13:11:54Z</time>
      </trkpt>
      <trkpt lat="47.84867" lon="6.98506">
        <ele>882.15</ele>
        <time>2021-10-20T13:11:56Z</time>
      </trkpt>
      <trkpt lat="47.84871" lon="6.98509">
        <ele>881.67</ele>
        <time>2021-10-20T13:11:57Z</time>
      </trkpt>
      <trkpt lat="47.84875" lon="6.9851">
        <ele>881.19</ele>
        <time>2021-10-20T13:11:58Z</time>
      </trkpt>
      <trkpt lat="47.84879" lon="6.98512">
        <ele>880.22</ele>
        <time>2021-10-20T13:11:59Z</time>
      </trkpt>
      <trkpt lat="47.84884" lon="6.98512">
        <ele>880.22</ele>
        <time>2021-10-20T13:12:00Z</time>
      </trkpt>
      <trkpt lat="47.84889" lon="6.98513">
        <ele>879.26</ele>
        <time>2021-10-20T13:12:01Z</time>
      </trkpt>
      <trkpt lat="47.84894" lon="6.98513">
        <ele>878.78</ele>
        <time>2021-10-20T13:12:02Z</time>
      </trkpt>
      <trkpt lat="47.84899" lon="6.98513">
        <ele>877.82</ele>
        <time>2021-10-20T13:12:03Z</time>
      </trkpt>
      <trkpt lat="47.84918" lon="6.9851">
        <ele>874.94</ele>
        <time>2021-10-20T13:12:07Z</time>
      </trkpt>
      <trkpt lat="47.84923" lon="6.98508">
        <ele>874.46</ele>
        <time>2021-10-20T13:12:08Z</time>
      </trkpt>
      <trkpt lat="47.84934" lon="6.98506">
        <ele>873.01</ele>
        <time>2021-10-20T13:12:10Z</time>
      </trkpt>
      <trkpt lat="47.84939" lon="6.98506">
        <ele>872.53</ele>
        <time>2021-10-20T13:12:11Z</time>
      </trkpt>
      <trkpt lat="47.84943" lon="6.98506">
        <ele>872.05</ele>
        <time>2021-10-20T13:12:12Z</time>
      </trkpt>
      <trkpt lat="47.84964" lon="6.98513">
        <ele>868.69</ele>
        <time>2021-10-20T13:12:17Z</time>
      </trkpt>
      <trkpt lat="47.8499" lon="6.98528">
        <ele>865.32</ele>
        <time>2021-10-20T13:12:22Z</time>
      </trkpt>
      <trkpt lat="47.8501" lon="6.98532">
        <ele>861.48</ele>
        <time>2021-10-20T13:12:27Z</time>
      </trkpt>
      <trkpt lat="47.85034" lon="6.98515">
        <ele>858.59</ele>
        <time>2021-10-20T13:12:31Z</time>
      </trkpt>
      <trkpt lat="47.85039" lon="6.9851">
        <ele>858.59</ele>
        <time>2021-10-20T13:12:32Z</time>
      </trkpt>
      <trkpt lat="47.85043" lon="6.98505">
        <ele>857.63</ele>
        <time>2021-10-20T13:12:33Z</time>
      </trkpt>
      <trkpt lat="47.85047" lon="6.98498">
        <ele>857.15</ele>
        <time>2021-10-20T13:12:34Z</time>
      </trkpt>
      <trkpt lat="47.85049" lon="6.98494">
        <ele>856.67</ele>
        <time>2021-10-20T13:12:35Z</time>
      </trkpt>
      <trkpt lat="47.85053" lon="6.98487">
        <ele>856.19</ele>
        <time>2021-10-20T13:12:37Z</time>
      </trkpt>
      <trkpt lat="47.85062" lon="6.98474">
        <ele>856.19</ele>
        <time>2021-10-20T13:12:49Z</time>
      </trkpt>
      <trkpt lat="47.85065" lon="6.98467">
        <ele>855.71</ele>
        <time>2021-10-20T13:12:56Z</time>
      </trkpt>
      <trkpt lat="47.85066" lon="6.98465">
        <ele>855.71</ele>
        <time>2021-10-20T13:12:57Z</time>
      </trkpt>
      <trkpt lat="47.85067" lon="6.98462">
        <ele>855.23</ele>
        <time>2021-10-20T13:12:58Z</time>
      </trkpt>
      <trkpt lat="47.85069" lon="6.98459">
        <ele>854.75</ele>
        <time>2021-10-20T13:12:59Z</time>
      </trkpt>
      <trkpt lat="47.85071" lon="6.98454">
        <ele>854.75</ele>
        <time>2021-10-20T13:13:00Z</time>
      </trkpt>
      <trkpt lat="47.85074" lon="6.9845">
        <ele>853.79</ele>
        <time>2021-10-20T13:13:01Z</time>
      </trkpt>
      <trkpt lat="47.85076" lon="6.98446">
        <ele>853.31</ele>
        <time>2021-10-20T13:13:02Z</time>
      </trkpt>
      <trkpt lat="47.85077" lon="6.98442">
        <ele>852.83</ele>
        <time>2021-10-20T13:13:03Z</time>
      </trkpt>
      <trkpt lat="47.85079" lon="6.98439">
        <ele>852.35</ele>
        <time>2021-10-20T13:13:04Z</time>
      </trkpt>
      <trkpt lat="47.8508" lon="6.98435">
        <ele>851.87</ele>
        <time>2021-10-20T13:13:05Z</time>
      </trkpt>
      <trkpt lat="47.85082" lon="6.98431">
        <ele>851.38</ele>
        <time>2021-10-20T13:13:06Z</time>
      </trkpt>
      <trkpt lat="47.85085" lon="6.98428">
        <ele>850.9</ele>
        <time>2021-10-20T13:13:07Z</time>
      </trkpt>
      <trkpt lat="47.85087" lon="6.98424">
        <ele>849.94</ele>
        <time>2021-10-20T13:13:08Z</time>
      </trkpt>
      <trkpt lat="47.8509" lon="6.98422">
        <ele>849.46</ele>
        <time>2021-10-20T13:13:09Z</time>
      </trkpt>
      <trkpt lat="47.85099" lon="6.98416">
        <ele>848.02</ele>
        <time>2021-10-20T13:13:12Z</time>
      </trkpt>
      <trkpt lat="47.8512" lon="6.98405">
        <ele>846.1</ele>
        <time>2021-10-20T13:13:19Z</time>
      </trkpt>
      <trkpt lat="47.85125" lon="6.98403">
        <ele>845.14</ele>
        <time>2021-10-20T13:13:20Z</time>
      </trkpt>
      <trkpt lat="47.85143" lon="6.98398">
        <ele>844.66</ele>
        <time>2021-10-20T13:13:23Z</time>
      </trkpt>
      <trkpt lat="47.85176" lon="6.98381">
        <ele>842.73</ele>
        <time>2021-10-20T13:13:28Z</time>
      </trkpt>
      <trkpt lat="47.85191" lon="6.98373">
        <ele>842.25</ele>
        <time>2021-10-20T13:13:30Z</time>
      </trkpt>
      <trkpt lat="47.85198" lon="6.98369">
        <ele>842.25</ele>
        <time>2021-10-20T13:13:31Z</time>
      </trkpt>
      <trkpt lat="47.85203" lon="6.98367">
        <ele>841.77</ele>
        <time>2021-10-20T13:13:32Z</time>
      </trkpt>
      <trkpt lat="47.85251" lon="6.98347">
        <ele>838.89</ele>
        <time>2021-10-20T13:13:41Z</time>
      </trkpt>
      <trkpt lat="47.85276" lon="6.98344">
        <ele>836.96</ele>
        <time>2021-10-20T13:13:45Z</time>
      </trkpt>
      <trkpt lat="47.85283" lon="6.98342">
        <ele>836.48</ele>
        <time>2021-10-20T13:13:46Z</time>
      </trkpt>
      <trkpt lat="47.85352" lon="6.98311">
        <ele>833.12</ele>
        <time>2021-10-20T13:13:55Z</time>
      </trkpt>
      <trkpt lat="47.85387" lon="6.98293">
        <ele>831.68</ele>
        <time>2021-10-20T13:14:00Z</time>
      </trkpt>
      <trkpt lat="47.85398" lon="6.98286">
        <ele>830.72</ele>
        <time>2021-10-20T13:14:02Z</time>
      </trkpt>
      <trkpt lat="47.85404" lon="6.98282">
        <ele>830.24</ele>
        <time>2021-10-20T13:14:03Z</time>
      </trkpt>
      <trkpt lat="47.85433" lon="6.98258">
        <ele>828.79</ele>
        <time>2021-10-20T13:14:12Z</time>
      </trkpt>
      <trkpt lat="47.85444" lon="6.98254">
        <ele>828.79</ele>
        <time>2021-10-20T13:14:23Z</time>
      </trkpt>
      <trkpt lat="47.85445" lon="6.98254">
        <ele>828.79</ele>
        <time>2021-10-20T13:14:24Z</time>
      </trkpt>
      <trkpt lat="47.85448" lon="6.98256">
        <ele>829.27</ele>
        <time>2021-10-20T13:14:37Z</time>
      </trkpt>
      <trkpt lat="47.8545" lon="6.98258">
        <ele>829.76</ele>
        <time>2021-10-20T13:14:56Z</time>
      </trkpt>
      <trkpt lat="47.8545" lon="6.98262">
        <ele>828.79</ele>
        <time>2021-10-20T13:15:31Z</time>
      </trkpt>
      <trkpt lat="47.8545" lon="6.98263">
        <ele>828.31</ele>
        <time>2021-10-20T13:15:57Z</time>
      </trkpt>
      <trkpt lat="47.85451" lon="6.98262">
        <ele>829.27</ele>
        <time>2021-10-20T13:16:27Z</time>
      </trkpt>
      <trkpt lat="47.85452" lon="6.98262">
        <ele>831.2</ele>
        <time>2021-10-20T13:16:57Z</time>
      </trkpt>
      <trkpt lat="47.85451" lon="6.98259">
        <ele>831.2</ele>
        <time>2021-10-20T13:17:18Z</time>
      </trkpt>
      <trkpt lat="47.8545" lon="6.98258">
        <ele>831.2</ele>
        <time>2021-10-20T13:17:19Z</time>
      </trkpt>
      <trkpt lat="47.85449" lon="6.98255">
        <ele>831.2</ele>
        <time>2021-10-20T13:17:21Z</time>
      </trkpt>
      <trkpt lat="47.85448" lon="6.98253">
        <ele>831.2</ele>
        <time>2021-10-20T13:17:22Z</time>
      </trkpt>
      <trkpt lat="47.85447" lon="6.98251">
        <ele>831.2</ele>
        <time>2021-10-20T13:17:23Z</time>
      </trkpt>
      <trkpt lat="47.85447" lon="6.98248">
        <ele>831.68</ele>
        <time>2021-10-20T13:17:24Z</time>
      </trkpt>
      <trkpt lat="47.85447" lon="6.98245">
        <ele>831.68</ele>
        <time>2021-10-20T13:17:25Z</time>
      </trkpt>
      <trkpt lat="47.85447" lon="6.98241">
        <ele>832.16</ele>
        <time>2021-10-20T13:17:26Z</time>
      </trkpt>
      <trkpt lat="47.85447" lon="6.98238">
        <ele>832.16</ele>
        <time>2021-10-20T13:17:27Z</time>
      </trkpt>
      <trkpt lat="47.85446" lon="6.98235">
        <ele>832.16</ele>
        <time>2021-10-20T13:17:28Z</time>
      </trkpt>
      <trkpt lat="47.85445" lon="6.9823">
        <ele>832.16</ele>
        <time>2021-10-20T13:17:29Z</time>
      </trkpt>
      <trkpt lat="47.85445" lon="6.98226">
        <ele>832.16</ele>
        <time>2021-10-20T13:17:30Z</time>
      </trkpt>
      <trkpt lat="47.85444" lon="6.98222">
        <ele>832.16</ele>
        <time>2021-10-20T13:17:31Z</time>
      </trkpt>
      <trkpt lat="47.85444" lon="6.98218">
        <ele>832.16</ele>
        <time>2021-10-20T13:17:32Z</time>
      </trkpt>
      <trkpt lat="47.85442" lon="6.98202">
        <ele>832.16</ele>
        <time>2021-10-20T13:17:37Z</time>
      </trkpt>
      <trkpt lat="47.85441" lon="6.98199">
        <ele>832.16</ele>
        <time>2021-10-20T13:17:38Z</time>
      </trkpt>
      <trkpt lat="47.85432" lon="6.98178">
        <ele>832.16</ele>
        <time>2021-10-20T13:17:48Z</time>
      </trkpt>
      <trkpt lat="47.85432" lon="6.98176">
        <ele>832.16</ele>
        <time>2021-10-20T13:17:49Z</time>
      </trkpt>
      <trkpt lat="47.85431" lon="6.98166">
        <ele>832.16</ele>
        <time>2021-10-20T13:17:52Z</time>
      </trkpt>
      <trkpt lat="47.8543" lon="6.98164">
        <ele>832.16</ele>
        <time>2021-10-20T13:17:53Z</time>
      </trkpt>
      <trkpt lat="47.85429" lon="6.9816">
        <ele>832.16</ele>
        <time>2021-10-20T13:17:54Z</time>
      </trkpt>
      <trkpt lat="47.85428" lon="6.98157">
        <ele>832.16</ele>
        <time>2021-10-20T13:17:55Z</time>
      </trkpt>
      <trkpt lat="47.85426" lon="6.98153">
        <ele>832.16</ele>
        <time>2021-10-20T13:17:56Z</time>
      </trkpt>
      <trkpt lat="47.85424" lon="6.98148">
        <ele>832.16</ele>
        <time>2021-10-20T13:17:57Z</time>
      </trkpt>
      <trkpt lat="47.85405" lon="6.98114">
        <ele>831.2</ele>
        <time>2021-10-20T13:18:07Z</time>
      </trkpt>
      <trkpt lat="47.85383" lon="6.98081">
        <ele>830.72</ele>
        <time>2021-10-20T13:18:16Z</time>
      </trkpt>
      <trkpt lat="47.85375" lon="6.98065">
        <ele>830.24</ele>
        <time>2021-10-20T13:18:21Z</time>
      </trkpt>
      <trkpt lat="47.85367" lon="6.98016">
        <ele>830.72</ele>
        <time>2021-10-20T13:18:31Z</time>
      </trkpt>
      <trkpt lat="47.85365" lon="6.97957">
        <ele>831.2</ele>
        <time>2021-10-20T13:18:42Z</time>
      </trkpt>
      <trkpt lat="47.85368" lon="6.97887">
        <ele>831.2</ele>
        <time>2021-10-20T13:18:56Z</time>
      </trkpt>
      <trkpt lat="47.8537" lon="6.97839">
        <ele>831.2</ele>
        <time>2021-10-20T13:19:03Z</time>
      </trkpt>
      <trkpt lat="47.85395" lon="6.97706">
        <ele>830.72</ele>
        <time>2021-10-20T13:19:15Z</time>
      </trkpt>
      <trkpt lat="47.85402" lon="6.97636">
        <ele>830.72</ele>
        <time>2021-10-20T13:19:28Z</time>
      </trkpt>
      <trkpt lat="47.85395" lon="6.97601">
        <ele>830.24</ele>
        <time>2021-10-20T13:19:34Z</time>
      </trkpt>
      <trkpt lat="47.85392" lon="6.97595">
        <ele>830.24</ele>
        <time>2021-10-20T13:19:35Z</time>
      </trkpt>
      <trkpt lat="47.8539" lon="6.97589">
        <ele>829.76</ele>
        <time>2021-10-20T13:19:36Z</time>
      </trkpt>
      <trkpt lat="47.85389" lon="6.97581">
        <ele>829.76</ele>
        <time>2021-10-20T13:19:37Z</time>
      </trkpt>
      <trkpt lat="47.85389" lon="6.97573">
        <ele>829.76</ele>
        <time>2021-10-20T13:19:38Z</time>
      </trkpt>
      <trkpt lat="47.85387" lon="6.97558">
        <ele>829.76</ele>
        <time>2021-10-20T13:19:40Z</time>
      </trkpt>
      <trkpt lat="47.85386" lon="6.97552">
        <ele>830.24</ele>
        <time>2021-10-20T13:19:41Z</time>
      </trkpt>
      <trkpt lat="47.85387" lon="6.97493">
        <ele>830.24</ele>
        <time>2021-10-20T13:19:52Z</time>
      </trkpt>
      <trkpt lat="47.85392" lon="6.97446">
        <ele>830.24</ele>
        <time>2021-10-20T13:19:59Z</time>
      </trkpt>
      <trkpt lat="47.8539" lon="6.97441">
        <ele>830.24</ele>
        <time>2021-10-20T13:20:00Z</time>
      </trkpt>
      <trkpt lat="47.85386" lon="6.97436">
        <ele>831.2</ele>
        <time>2021-10-20T13:20:01Z</time>
      </trkpt>
      <trkpt lat="47.85365" lon="6.97416">
        <ele>832.16</ele>
        <time>2021-10-20T13:20:08Z</time>
      </trkpt>
      <trkpt lat="47.85361" lon="6.97417">
        <ele>832.16</ele>
        <time>2021-10-20T13:20:09Z</time>
      </trkpt>
      <trkpt lat="47.85356" lon="6.97418">
        <ele>832.16</ele>
        <time>2021-10-20T13:20:10Z</time>
      </trkpt>
      <trkpt lat="47.85352" lon="6.97419">
        <ele>832.16</ele>
        <time>2021-10-20T13:20:11Z</time>
      </trkpt>
      <trkpt lat="47.85347" lon="6.97419">
        <ele>832.16</ele>
        <time>2021-10-20T13:20:12Z</time>
      </trkpt>
      <trkpt lat="47.85342" lon="6.9742">
        <ele>832.64</ele>
        <time>2021-10-20T13:20:13Z</time>
      </trkpt>
      <trkpt lat="47.85338" lon="6.97421">
        <ele>832.64</ele>
        <time>2021-10-20T13:20:14Z</time>
      </trkpt>
      <trkpt lat="47.85325" lon="6.97423">
        <ele>832.64</ele>
        <time>2021-10-20T13:20:17Z</time>
      </trkpt>
      <trkpt lat="47.8532" lon="6.97424">
        <ele>832.64</ele>
        <time>2021-10-20T13:20:18Z</time>
      </trkpt>
      <trkpt lat="47.85308" lon="6.97425">
        <ele>833.12</ele>
        <time>2021-10-20T13:20:21Z</time>
      </trkpt>
      <trkpt lat="47.85304" lon="6.97426">
        <ele>833.12</ele>
        <time>2021-10-20T13:20:22Z</time>
      </trkpt>
      <trkpt lat="47.853" lon="6.97426">
        <ele>833.12</ele>
        <time>2021-10-20T13:20:23Z</time>
      </trkpt>
      <trkpt lat="47.85248" lon="6.97437">
        <ele>832.16</ele>
        <time>2021-10-20T13:20:35Z</time>
      </trkpt>
      <trkpt lat="47.85214" lon="6.97439">
        <ele>830.72</ele>
        <time>2021-10-20T13:20:43Z</time>
      </trkpt>
      <trkpt lat="47.85205" lon="6.97437">
        <ele>830.24</ele>
        <time>2021-10-20T13:20:45Z</time>
      </trkpt>
      <trkpt lat="47.852" lon="6.97435">
        <ele>829.76</ele>
        <time>2021-10-20T13:20:46Z</time>
      </trkpt>
      <trkpt lat="47.85172" lon="6.97407">
        <ele>829.76</ele>
        <time>2021-10-20T13:20:56Z</time>
      </trkpt>
      <trkpt lat="47.85149" lon="6.97378">
        <ele>830.24</ele>
        <time>2021-10-20T13:21:06Z</time>
      </trkpt>
      <trkpt lat="47.85103" lon="6.97339">
        <ele>830.72</ele>
        <time>2021-10-20T13:21:15Z</time>
      </trkpt>
      <trkpt lat="47.85098" lon="6.97334">
        <ele>830.72</ele>
        <time>2021-10-20T13:21:16Z</time>
      </trkpt>
      <trkpt lat="47.85093" lon="6.9733">
        <ele>830.72</ele>
        <time>2021-10-20T13:21:17Z</time>
      </trkpt>
      <trkpt lat="47.85088" lon="6.97325">
        <ele>831.2</ele>
        <time>2021-10-20T13:21:18Z</time>
      </trkpt>
      <trkpt lat="47.85084" lon="6.97322">
        <ele>831.2</ele>
        <time>2021-10-20T13:21:19Z</time>
      </trkpt>
      <trkpt lat="47.85075" lon="6.97313">
        <ele>831.68</ele>
        <time>2021-10-20T13:21:21Z</time>
      </trkpt>
      <trkpt lat="47.85071" lon="6.97311">
        <ele>831.2</ele>
        <time>2021-10-20T13:21:22Z</time>
      </trkpt>
      <trkpt lat="47.85057" lon="6.97303">
        <ele>831.68</ele>
        <time>2021-10-20T13:21:25Z</time>
      </trkpt>
      <trkpt lat="47.85053" lon="6.97301">
        <ele>832.16</ele>
        <time>2021-10-20T13:21:26Z</time>
      </trkpt>
      <trkpt lat="47.85048" lon="6.97299">
        <ele>832.16</ele>
        <time>2021-10-20T13:21:27Z</time>
      </trkpt>
      <trkpt lat="47.85043" lon="6.97297">
        <ele>832.64</ele>
        <time>2021-10-20T13:21:28Z</time>
      </trkpt>
      <trkpt lat="47.85039" lon="6.97296">
        <ele>833.12</ele>
        <time>2021-10-20T13:21:29Z</time>
      </trkpt>
      <trkpt lat="47.85034" lon="6.97295">
        <ele>833.12</ele>
        <time>2021-10-20T13:21:30Z</time>
      </trkpt>
      <trkpt lat="47.85009" lon="6.97301">
        <ele>833.12</ele>
        <time>2021-10-20T13:21:36Z</time>
      </trkpt>
      <trkpt lat="47.84986" lon="6.97315">
        <ele>833.6</ele>
        <time>2021-10-20T13:21:42Z</time>
      </trkpt>
      <trkpt lat="47.84982" lon="6.97318">
        <ele>833.6</ele>
        <time>2021-10-20T13:21:43Z</time>
      </trkpt>
      <trkpt lat="47.84941" lon="6.9735">
        <ele>834.08</ele>
        <time>2021-10-20T13:21:55Z</time>
      </trkpt>
      <trkpt lat="47.8494" lon="6.97352">
        <ele>834.08</ele>
        <time>2021-10-20T13:21:56Z</time>
      </trkpt>
      <trkpt lat="47.84939" lon="6.97354">
        <ele>834.08</ele>
        <time>2021-10-20T13:21:57Z</time>
      </trkpt>
      <trkpt lat="47.84933" lon="6.97366">
        <ele>833.6</ele>
        <time>2021-10-20T13:22:11Z</time>
      </trkpt>
      <trkpt lat="47.84932" lon="6.97366">
        <ele>833.6</ele>
        <time>2021-10-20T13:22:29Z</time>
      </trkpt>
      <trkpt lat="47.84934" lon="6.97365">
        <ele>832.16</ele>
        <time>2021-10-20T13:22:57Z</time>
      </trkpt>
      <trkpt lat="47.84932" lon="6.97372">
        <ele>831.68</ele>
        <time>2021-10-20T13:23:08Z</time>
      </trkpt>
      <trkpt lat="47.84931" lon="6.97378">
        <ele>831.2</ele>
        <time>2021-10-20T13:23:11Z</time>
      </trkpt>
      <trkpt lat="47.84932" lon="6.97381">
        <ele>830.24</ele>
        <time>2021-10-20T13:23:27Z</time>
      </trkpt>
      <trkpt lat="47.84933" lon="6.97386">
        <ele>830.24</ele>
        <time>2021-10-20T13:23:49Z</time>
      </trkpt>
      <trkpt lat="47.84933" lon="6.97389">
        <ele>830.24</ele>
        <time>2021-10-20T13:23:50Z</time>
      </trkpt>
      <trkpt lat="47.84933" lon="6.97393">
        <ele>830.24</ele>
        <time>2021-10-20T13:23:51Z</time>
      </trkpt>
      <trkpt lat="47.84922" lon="6.97442">
        <ele>830.24</ele>
        <time>2021-10-20T13:24:01Z</time>
      </trkpt>
      <trkpt lat="47.84895" lon="6.97503">
        <ele>831.2</ele>
        <time>2021-10-20T13:24:15Z</time>
      </trkpt>
      <trkpt lat="47.84892" lon="6.97516">
        <ele>831.2</ele>
        <time>2021-10-20T13:24:18Z</time>
      </trkpt>
      <trkpt lat="47.84893" lon="6.97526">
        <ele>831.2</ele>
        <time>2021-10-20T13:24:21Z</time>
      </trkpt>
      <trkpt lat="47.84898" lon="6.97541">
        <ele>830.72</ele>
        <time>2021-10-20T13:24:26Z</time>
      </trkpt>
      <trkpt lat="47.84903" lon="6.97598">
        <ele>830.72</ele>
        <time>2021-10-20T13:24:38Z</time>
      </trkpt>
      <trkpt lat="47.84907" lon="6.97665">
        <ele>831.2</ele>
        <time>2021-10-20T13:24:48Z</time>
      </trkpt>
      <trkpt lat="47.84916" lon="6.97741">
        <ele>830.72</ele>
        <time>2021-10-20T13:25:01Z</time>
      </trkpt>
      <trkpt lat="47.8492" lon="6.97757">
        <ele>830.72</ele>
        <time>2021-10-20T13:25:04Z</time>
      </trkpt>
      <trkpt lat="47.8492" lon="6.97765">
        <ele>830.24</ele>
        <time>2021-10-20T13:25:05Z</time>
      </trkpt>
      <trkpt lat="47.84941" lon="6.97805">
        <ele>829.27</ele>
        <time>2021-10-20T13:25:12Z</time>
      </trkpt>
      <trkpt lat="47.84955" lon="6.97839">
        <ele>827.83</ele>
        <time>2021-10-20T13:25:20Z</time>
      </trkpt>
      <trkpt lat="47.84954" lon="6.97839">
        <ele>827.83</ele>
        <time>2021-10-20T13:25:21Z</time>
      </trkpt>
      <trkpt lat="47.84909" lon="6.97863">
        <ele>824.95</ele>
        <time>2021-10-20T13:25:29Z</time>
      </trkpt>
      <trkpt lat="47.84857" lon="6.97855">
        <ele>821.58</ele>
        <time>2021-10-20T13:25:38Z</time>
      </trkpt>
      <trkpt lat="47.84849" lon="6.97853">
        <ele>820.62</ele>
        <time>2021-10-20T13:25:39Z</time>
      </trkpt>
      <trkpt lat="47.84841" lon="6.9785">
        <ele>820.14</ele>
        <time>2021-10-20T13:25:40Z</time>
      </trkpt>
      <trkpt lat="47.84801" lon="6.97842">
        <ele>816.3</ele>
        <time>2021-10-20T13:25:45Z</time>
      </trkpt>
      <trkpt lat="47.84767" lon="6.97835">
        <ele>812.93</ele>
        <time>2021-10-20T13:25:50Z</time>
      </trkpt>
      <trkpt lat="47.84761" lon="6.97831">
        <ele>811.97</ele>
        <time>2021-10-20T13:25:51Z</time>
      </trkpt>
      <trkpt lat="47.84756" lon="6.97825">
        <ele>811.49</ele>
        <time>2021-10-20T13:25:52Z</time>
      </trkpt>
      <trkpt lat="47.8473" lon="6.97792">
        <ele>807.64</ele>
        <time>2021-10-20T13:25:57Z</time>
      </trkpt>
      <trkpt lat="47.84716" lon="6.9778">
        <ele>806.68</ele>
        <time>2021-10-20T13:25:59Z</time>
      </trkpt>
      <trkpt lat="47.84709" lon="6.97775">
        <ele>805.72</ele>
        <time>2021-10-20T13:26:00Z</time>
      </trkpt>
      <trkpt lat="47.84701" lon="6.97771">
        <ele>805.72</ele>
        <time>2021-10-20T13:26:01Z</time>
      </trkpt>
      <trkpt lat="47.84677" lon="6.97758">
        <ele>802.84</ele>
        <time>2021-10-20T13:26:04Z</time>
      </trkpt>
      <trkpt lat="47.84656" lon="6.97742">
        <ele>800.44</ele>
        <time>2021-10-20T13:26:07Z</time>
      </trkpt>
      <trkpt lat="47.8465" lon="6.97736">
        <ele>799.95</ele>
        <time>2021-10-20T13:26:08Z</time>
      </trkpt>
      <trkpt lat="47.84644" lon="6.97731">
        <ele>798.99</ele>
        <time>2021-10-20T13:26:09Z</time>
      </trkpt>
      <trkpt lat="47.84638" lon="6.97724">
        <ele>798.51</ele>
        <time>2021-10-20T13:26:10Z</time>
      </trkpt>
      <trkpt lat="47.84631" lon="6.97717">
        <ele>797.55</ele>
        <time>2021-10-20T13:26:11Z</time>
      </trkpt>
      <trkpt lat="47.84598" lon="6.9768">
        <ele>793.71</ele>
        <time>2021-10-20T13:26:16Z</time>
      </trkpt>
      <trkpt lat="47.84557" lon="6.97644">
        <ele>789.86</ele>
        <time>2021-10-20T13:26:21Z</time>
      </trkpt>
      <trkpt lat="47.84533" lon="6.9763">
        <ele>786.5</ele>
        <time>2021-10-20T13:26:25Z</time>
      </trkpt>
      <trkpt lat="47.84531" lon="6.97631">
        <ele>786.5</ele>
        <time>2021-10-20T13:26:33Z</time>
      </trkpt>
      <trkpt lat="47.84531" lon="6.97628">
        <ele>786.5</ele>
        <time>2021-10-20T13:26:56Z</time>
      </trkpt>
      <trkpt lat="47.84529" lon="6.97628">
        <ele>786.5</ele>
        <time>2021-10-20T13:27:07Z</time>
      </trkpt>
      <trkpt lat="47.84527" lon="6.97626">
        <ele>786.5</ele>
        <time>2021-10-20T13:27:20Z</time>
      </trkpt>
      <trkpt lat="47.84529" lon="6.97627">
        <ele>787.46</ele>
        <time>2021-10-20T13:27:44Z</time>
      </trkpt>
      <trkpt lat="47.84529" lon="6.97628">
        <ele>786.98</ele>
        <time>2021-10-20T13:28:15Z</time>
      </trkpt>
      <trkpt lat="47.84529" lon="6.97626">
        <ele>786.98</ele>
        <time>2021-10-20T13:28:37Z</time>
      </trkpt>
      <trkpt lat="47.84528" lon="6.97627">
        <ele>786.98</ele>
        <time>2021-10-20T13:28:43Z</time>
      </trkpt>
      <trkpt lat="47.84527" lon="6.97628">
        <ele>786.98</ele>
        <time>2021-10-20T13:28:44Z</time>
      </trkpt>
      <trkpt lat="47.84525" lon="6.97629">
        <ele>786.5</ele>
        <time>2021-10-20T13:28:45Z</time>
      </trkpt>
      <trkpt lat="47.84523" lon="6.9763">
        <ele>786.5</ele>
        <time>2021-10-20T13:28:46Z</time>
      </trkpt>
      <trkpt lat="47.84521" lon="6.9763">
        <ele>786.02</ele>
        <time>2021-10-20T13:28:47Z</time>
      </trkpt>
      <trkpt lat="47.84503" lon="6.97613">
        <ele>783.13</ele>
        <time>2021-10-20T13:28:58Z</time>
      </trkpt>
      <trkpt lat="47.84509" lon="6.97579">
        <ele>779.77</ele>
        <time>2021-10-20T13:29:06Z</time>
      </trkpt>
      <trkpt lat="47.84511" lon="6.97578">
        <ele>779.29</ele>
        <time>2021-10-20T13:29:08Z</time>
      </trkpt>
      <trkpt lat="47.84525" lon="6.97581">
        <ele>776.88</ele>
        <time>2021-10-20T13:29:12Z</time>
      </trkpt>
      <trkpt lat="47.84543" lon="6.9758">
        <ele>774.48</ele>
        <time>2021-10-20T13:29:16Z</time>
      </trkpt>
      <trkpt lat="47.84554" lon="6.97576">
        <ele>773.04</ele>
        <time>2021-10-20T13:29:18Z</time>
      </trkpt>
      <trkpt lat="47.84566" lon="6.97571">
        <ele>771.6</ele>
        <time>2021-10-20T13:29:20Z</time>
      </trkpt>
      <trkpt lat="47.84576" lon="6.97567">
        <ele>770.15</ele>
        <time>2021-10-20T13:29:22Z</time>
      </trkpt>
      <trkpt lat="47.84601" lon="6.9756">
        <ele>766.79</ele>
        <time>2021-10-20T13:29:27Z</time>
      </trkpt>
      <trkpt lat="47.84613" lon="6.97558">
        <ele>765.35</ele>
        <time>2021-10-20T13:29:29Z</time>
      </trkpt>
      <trkpt lat="47.84639" lon="6.97552">
        <ele>761.98</ele>
        <time>2021-10-20T13:29:34Z</time>
      </trkpt>
      <trkpt lat="47.84664" lon="6.97545">
        <ele>758.62</ele>
        <time>2021-10-20T13:29:40Z</time>
      </trkpt>
      <trkpt lat="47.84676" lon="6.97541">
        <ele>755.25</ele>
        <time>2021-10-20T13:29:44Z</time>
      </trkpt>
      <trkpt lat="47.84685" lon="6.97527">
        <ele>754.29</ele>
        <time>2021-10-20T13:29:49Z</time>
      </trkpt>
      <trkpt lat="47.84686" lon="6.97522">
        <ele>753.81</ele>
        <time>2021-10-20T13:29:50Z</time>
      </trkpt>
      <trkpt lat="47.84688" lon="6.97518">
        <ele>753.33</ele>
        <time>2021-10-20T13:29:51Z</time>
      </trkpt>
      <trkpt lat="47.84694" lon="6.9748">
        <ele>750.93</ele>
        <time>2021-10-20T13:29:58Z</time>
      </trkpt>
      <trkpt lat="47.84693" lon="6.97472">
        <ele>750.45</ele>
        <time>2021-10-20T13:29:59Z</time>
      </trkpt>
      <trkpt lat="47.84691" lon="6.97465">
        <ele>749.97</ele>
        <time>2021-10-20T13:30:00Z</time>
      </trkpt>
      <trkpt lat="47.84685" lon="6.97422">
        <ele>747.08</ele>
        <time>2021-10-20T13:30:06Z</time>
      </trkpt>
      <trkpt lat="47.84686" lon="6.97403">
        <ele>745.64</ele>
        <time>2021-10-20T13:30:09Z</time>
      </trkpt>
      <trkpt lat="47.84692" lon="6.97361">
        <ele>742.76</ele>
        <time>2021-10-20T13:30:17Z</time>
      </trkpt>
      <trkpt lat="47.84699" lon="6.97326">
        <ele>738.91</ele>
        <time>2021-10-20T13:30:22Z</time>
      </trkpt>
      <trkpt lat="47.84707" lon="6.9729">
        <ele>735.07</ele>
        <time>2021-10-20T13:30:27Z</time>
      </trkpt>
      <trkpt lat="47.84711" lon="6.97275">
        <ele>734.1</ele>
        <time>2021-10-20T13:30:29Z</time>
      </trkpt>
      <trkpt lat="47.84714" lon="6.9726">
        <ele>732.66</ele>
        <time>2021-10-20T13:30:31Z</time>
      </trkpt>
      <trkpt lat="47.84716" lon="6.97252">
        <ele>731.7</ele>
        <time>2021-10-20T13:30:32Z</time>
      </trkpt>
      <trkpt lat="47.84721" lon="6.97239">
        <ele>730.26</ele>
        <time>2021-10-20T13:30:34Z</time>
      </trkpt>
      <trkpt lat="47.84726" lon="6.97216">
        <ele>727.37</ele>
        <time>2021-10-20T13:30:37Z</time>
      </trkpt>
      <trkpt lat="47.84727" lon="6.9721">
        <ele>726.89</ele>
        <time>2021-10-20T13:30:38Z</time>
      </trkpt>
      <trkpt lat="47.84739" lon="6.97173">
        <ele>723.53</ele>
        <time>2021-10-20T13:30:45Z</time>
      </trkpt>
      <trkpt lat="47.84749" lon="6.9715">
        <ele>720.16</ele>
        <time>2021-10-20T13:30:49Z</time>
      </trkpt>
      <trkpt lat="47.84755" lon="6.97137">
        <ele>718.24</ele>
        <time>2021-10-20T13:30:51Z</time>
      </trkpt>
      <trkpt lat="47.8476" lon="6.97124">
        <ele>714.4</ele>
        <time>2021-10-20T13:30:53Z</time>
      </trkpt>
      <trkpt lat="47.84762" lon="6.97119">
        <ele>714.4</ele>
        <time>2021-10-20T13:30:54Z</time>
      </trkpt>
      <trkpt lat="47.84772" lon="6.97093">
        <ele>711.51</ele>
        <time>2021-10-20T13:30:58Z</time>
      </trkpt>
      <trkpt lat="47.84784" lon="6.9707">
        <ele>710.07</ele>
        <time>2021-10-20T13:31:00Z</time>
      </trkpt>
      <trkpt lat="47.84811" lon="6.97033">
        <ele>707.19</ele>
        <time>2021-10-20T13:31:03Z</time>
      </trkpt>
      <trkpt lat="47.84817" lon="6.97025">
        <ele>706.23</ele>
        <time>2021-10-20T13:31:04Z</time>
      </trkpt>
      <trkpt lat="47.84849" lon="6.96986">
        <ele>703.82</ele>
        <time>2021-10-20T13:31:08Z</time>
      </trkpt>
      <trkpt lat="47.84878" lon="6.96951">
        <ele>699.98</ele>
        <time>2021-10-20T13:31:12Z</time>
      </trkpt>
      <trkpt lat="47.849" lon="6.96924">
        <ele>695.65</ele>
        <time>2021-10-20T13:31:15Z</time>
      </trkpt>
      <trkpt lat="47.84914" lon="6.96907">
        <ele>693.73</ele>
        <time>2021-10-20T13:31:17Z</time>
      </trkpt>
      <trkpt lat="47.84927" lon="6.96895">
        <ele>691.81</ele>
        <time>2021-10-20T13:31:19Z</time>
      </trkpt>
      <trkpt lat="47.84937" lon="6.96884">
        <ele>689.88</ele>
        <time>2021-10-20T13:31:21Z</time>
      </trkpt>
      <trkpt lat="47.84943" lon="6.96879">
        <ele>688.92</ele>
        <time>2021-10-20T13:31:22Z</time>
      </trkpt>
      <trkpt lat="47.84956" lon="6.9687">
        <ele>685.56</ele>
        <time>2021-10-20T13:31:24Z</time>
      </trkpt>
      <trkpt lat="47.84973" lon="6.96857">
        <ele>683.15</ele>
        <time>2021-10-20T13:31:26Z</time>
      </trkpt>
      <trkpt lat="47.84995" lon="6.9684">
        <ele>679.79</ele>
        <time>2021-10-20T13:31:29Z</time>
      </trkpt>
      <trkpt lat="47.85015" lon="6.96821">
        <ele>677.87</ele>
        <time>2021-10-20T13:31:31Z</time>
      </trkpt>
      <trkpt lat="47.85031" lon="6.96805">
        <ele>676.42</ele>
        <time>2021-10-20T13:31:33Z</time>
      </trkpt>
      <trkpt lat="47.85057" lon="6.96788">
        <ele>672.58</ele>
        <time>2021-10-20T13:31:36Z</time>
      </trkpt>
      <trkpt lat="47.85062" lon="6.96784">
        <ele>672.58</ele>
        <time>2021-10-20T13:31:37Z</time>
      </trkpt>
      <trkpt lat="47.85076" lon="6.96772">
        <ele>669.7</ele>
        <time>2021-10-20T13:31:39Z</time>
      </trkpt>
      <trkpt lat="47.8509" lon="6.9676">
        <ele>667.77</ele>
        <time>2021-10-20T13:31:41Z</time>
      </trkpt>
      <trkpt lat="47.85096" lon="6.96755">
        <ele>667.29</ele>
        <time>2021-10-20T13:31:42Z</time>
      </trkpt>
      <trkpt lat="47.85102" lon="6.96749">
        <ele>666.81</ele>
        <time>2021-10-20T13:31:43Z</time>
      </trkpt>
      <trkpt lat="47.85114" lon="6.96732">
        <ele>664.41</ele>
        <time>2021-10-20T13:31:46Z</time>
      </trkpt>
      <trkpt lat="47.85119" lon="6.9673">
        <ele>663.93</ele>
        <time>2021-10-20T13:31:47Z</time>
      </trkpt>
      <trkpt lat="47.85124" lon="6.96729">
        <ele>663.45</ele>
        <time>2021-10-20T13:31:48Z</time>
      </trkpt>
      <trkpt lat="47.85151" lon="6.96726">
        <ele>659.6</ele>
        <time>2021-10-20T13:31:52Z</time>
      </trkpt>
      <trkpt lat="47.85165" lon="6.96724">
        <ele>658.64</ele>
        <time>2021-10-20T13:31:54Z</time>
      </trkpt>
      <trkpt lat="47.85171" lon="6.96724">
        <ele>658.16</ele>
        <time>2021-10-20T13:31:55Z</time>
      </trkpt>
      <trkpt lat="47.85175" lon="6.96722">
        <ele>657.68</ele>
        <time>2021-10-20T13:31:56Z</time>
      </trkpt>
      <trkpt lat="47.85186" lon="6.96719">
        <ele>657.68</ele>
        <time>2021-10-20T13:32:07Z</time>
      </trkpt>
      <trkpt lat="47.85189" lon="6.9672">
        <ele>657.68</ele>
        <time>2021-10-20T13:32:29Z</time>
      </trkpt>
      <trkpt lat="47.85188" lon="6.96718">
        <ele>657.68</ele>
        <time>2021-10-20T13:32:43Z</time>
      </trkpt>
      <trkpt lat="47.85191" lon="6.96717">
        <ele>656.72</ele>
        <time>2021-10-20T13:32:47Z</time>
      </trkpt>
      <trkpt lat="47.85193" lon="6.96718">
        <ele>656.24</ele>
        <time>2021-10-20T13:32:48Z</time>
      </trkpt>
      <trkpt lat="47.85196" lon="6.96717">
        <ele>656.24</ele>
        <time>2021-10-20T13:32:49Z</time>
      </trkpt>
      <trkpt lat="47.85199" lon="6.96716">
        <ele>655.76</ele>
        <time>2021-10-20T13:32:50Z</time>
      </trkpt>
      <trkpt lat="47.85203" lon="6.96716">
        <ele>655.28</ele>
        <time>2021-10-20T13:32:51Z</time>
      </trkpt>
      <trkpt lat="47.85227" lon="6.96713">
        <ele>650.95</ele>
        <time>2021-10-20T13:32:56Z</time>
      </trkpt>
      <trkpt lat="47.85233" lon="6.96713">
        <ele>650.47</ele>
        <time>2021-10-20T13:32:57Z</time>
      </trkpt>
      <trkpt lat="47.85248" lon="6.96711">
        <ele>647.1</ele>
        <time>2021-10-20T13:33:00Z</time>
      </trkpt>
      <trkpt lat="47.85262" lon="6.9671">
        <ele>644.7</ele>
        <time>2021-10-20T13:33:02Z</time>
      </trkpt>
      <trkpt lat="47.85285" lon="6.96702">
        <ele>641.34</ele>
        <time>2021-10-20T13:33:05Z</time>
      </trkpt>
      <trkpt lat="47.85324" lon="6.96683">
        <ele>637.97</ele>
        <time>2021-10-20T13:33:10Z</time>
      </trkpt>
      <trkpt lat="47.85345" lon="6.9668">
        <ele>636.05</ele>
        <time>2021-10-20T13:33:13Z</time>
      </trkpt>
      <trkpt lat="47.85353" lon="6.9668">
        <ele>636.05</ele>
        <time>2021-10-20T13:33:14Z</time>
      </trkpt>
      <trkpt lat="47.85372" lon="6.96679">
        <ele>633.17</ele>
        <time>2021-10-20T13:33:17Z</time>
      </trkpt>
      <trkpt lat="47.85393" lon="6.9668">
        <ele>630.28</ele>
        <time>2021-10-20T13:33:20Z</time>
      </trkpt>
      <trkpt lat="47.85416" lon="6.96682">
        <ele>626.92</ele>
        <time>2021-10-20T13:33:23Z</time>
      </trkpt>
      <trkpt lat="47.85425" lon="6.96684">
        <ele>625.96</ele>
        <time>2021-10-20T13:33:24Z</time>
      </trkpt>
      <trkpt lat="47.85459" lon="6.96693">
        <ele>622.59</ele>
        <time>2021-10-20T13:33:28Z</time>
      </trkpt>
      <trkpt lat="47.85485" lon="6.96699">
        <ele>619.23</ele>
        <time>2021-10-20T13:33:31Z</time>
      </trkpt>
      <trkpt lat="47.85495" lon="6.96698">
        <ele>617.78</ele>
        <time>2021-10-20T13:33:32Z</time>
      </trkpt>
      <trkpt lat="47.85504" lon="6.96696">
        <ele>616.82</ele>
        <time>2021-10-20T13:33:33Z</time>
      </trkpt>
      <trkpt lat="47.85512" lon="6.96693">
        <ele>615.86</ele>
        <time>2021-10-20T13:33:34Z</time>
      </trkpt>
      <trkpt lat="47.85522" lon="6.96687">
        <ele>614.42</ele>
        <time>2021-10-20T13:33:35Z</time>
      </trkpt>
      <trkpt lat="47.8554" lon="6.96678">
        <ele>612.02</ele>
        <time>2021-10-20T13:33:37Z</time>
      </trkpt>
      <trkpt lat="47.85548" lon="6.96676">
        <ele>610.57</ele>
        <time>2021-10-20T13:33:38Z</time>
      </trkpt>
      <trkpt lat="47.85557" lon="6.96674">
        <ele>609.13</ele>
        <time>2021-10-20T13:33:39Z</time>
      </trkpt>
      <trkpt lat="47.85565" lon="6.96674">
        <ele>608.17</ele>
        <time>2021-10-20T13:33:40Z</time>
      </trkpt>
      <trkpt lat="47.85574" lon="6.96678">
        <ele>607.21</ele>
        <time>2021-10-20T13:33:41Z</time>
      </trkpt>
      <trkpt lat="47.85583" lon="6.96683">
        <ele>606.25</ele>
        <time>2021-10-20T13:33:42Z</time>
      </trkpt>
      <trkpt lat="47.85591" lon="6.96684">
        <ele>605.29</ele>
        <time>2021-10-20T13:33:43Z</time>
      </trkpt>
      <trkpt lat="47.85598" lon="6.96685">
        <ele>604.33</ele>
        <time>2021-10-20T13:33:44Z</time>
      </trkpt>
      <trkpt lat="47.85628" lon="6.96685">
        <ele>600.48</ele>
        <time>2021-10-20T13:33:48Z</time>
      </trkpt>
      <trkpt lat="47.85642" lon="6.96687">
        <ele>599.04</ele>
        <time>2021-10-20T13:33:51Z</time>
      </trkpt>
      <trkpt lat="47.85647" lon="6.96688">
        <ele>598.56</ele>
        <time>2021-10-20T13:33:52Z</time>
      </trkpt>
      <trkpt lat="47.85666" lon="6.9669">
        <ele>595.67</ele>
        <time>2021-10-20T13:33:57Z</time>
      </trkpt>
      <trkpt lat="47.85688" lon="6.96692">
        <ele>592.79</ele>
        <time>2021-10-20T13:34:06Z</time>
      </trkpt>
      <trkpt lat="47.85694" lon="6.96694">
        <ele>591.83</ele>
        <time>2021-10-20T13:34:09Z</time>
      </trkpt>
      <trkpt lat="47.85728" lon="6.96692">
        <ele>588.46</ele>
        <time>2021-10-20T13:34:19Z</time>
      </trkpt>
      <trkpt lat="47.85759" lon="6.967">
        <ele>585.1</ele>
        <time>2021-10-20T13:34:27Z</time>
      </trkpt>
      <trkpt lat="47.85769" lon="6.96701">
        <ele>584.62</ele>
        <time>2021-10-20T13:34:29Z</time>
      </trkpt>
      <trkpt lat="47.85776" lon="6.96703">
        <ele>583.66</ele>
        <time>2021-10-20T13:34:30Z</time>
      </trkpt>
      <trkpt lat="47.85783" lon="6.96704">
        <ele>583.18</ele>
        <time>2021-10-20T13:34:31Z</time>
      </trkpt>
      <trkpt lat="47.85795" lon="6.96705">
        <ele>582.22</ele>
        <time>2021-10-20T13:34:33Z</time>
      </trkpt>
      <trkpt lat="47.85802" lon="6.96706">
        <ele>581.73</ele>
        <time>2021-10-20T13:34:34Z</time>
      </trkpt>
      <trkpt lat="47.85814" lon="6.96708">
        <ele>580.29</ele>
        <time>2021-10-20T13:34:36Z</time>
      </trkpt>
      <trkpt lat="47.85819" lon="6.96709">
        <ele>580.29</ele>
        <time>2021-10-20T13:34:37Z</time>
      </trkpt>
      <trkpt lat="47.85825" lon="6.9671">
        <ele>579.81</ele>
        <time>2021-10-20T13:34:38Z</time>
      </trkpt>
      <trkpt lat="47.85832" lon="6.9671">
        <ele>579.33</ele>
        <time>2021-10-20T13:34:39Z</time>
      </trkpt>
      <trkpt lat="47.85837" lon="6.96709">
        <ele>578.37</ele>
        <time>2021-10-20T13:34:40Z</time>
      </trkpt>
      <trkpt lat="47.85852" lon="6.96706">
        <ele>577.41</ele>
        <time>2021-10-20T13:34:43Z</time>
      </trkpt>
      <trkpt lat="47.85874" lon="6.96702">
        <ele>575.97</ele>
        <time>2021-10-20T13:34:47Z</time>
      </trkpt>
      <trkpt lat="47.85886" lon="6.96702">
        <ele>575.49</ele>
        <time>2021-10-20T13:34:49Z</time>
      </trkpt>
      <trkpt lat="47.85892" lon="6.96701">
        <ele>575.01</ele>
        <time>2021-10-20T13:34:50Z</time>
      </trkpt>
      <trkpt lat="47.85905" lon="6.96698">
        <ele>574.53</ele>
        <time>2021-10-20T13:34:52Z</time>
      </trkpt>
      <trkpt lat="47.85923" lon="6.96695">
        <ele>574.04</ele>
        <time>2021-10-20T13:34:55Z</time>
      </trkpt>
      <trkpt lat="47.85929" lon="6.96696">
        <ele>574.04</ele>
        <time>2021-10-20T13:34:56Z</time>
      </trkpt>
      <trkpt lat="47.85962" lon="6.96696">
        <ele>573.56</ele>
        <time>2021-10-20T13:35:01Z</time>
      </trkpt>
      <trkpt lat="47.86024" lon="6.96686">
        <ele>570.2</ele>
        <time>2021-10-20T13:35:10Z</time>
      </trkpt>
      <trkpt lat="47.86032" lon="6.96684">
        <ele>569.72</ele>
        <time>2021-10-20T13:35:11Z</time>
      </trkpt>
      <trkpt lat="47.86077" lon="6.96663">
        <ele>566.83</ele>
        <time>2021-10-20T13:35:17Z</time>
      </trkpt>
      <trkpt lat="47.86093" lon="6.96658">
        <ele>566.35</ele>
        <time>2021-10-20T13:35:19Z</time>
      </trkpt>
      <trkpt lat="47.86116" lon="6.96655">
        <ele>565.87</ele>
        <time>2021-10-20T13:35:22Z</time>
      </trkpt>
      <trkpt lat="47.86146" lon="6.96658">
        <ele>564.91</ele>
        <time>2021-10-20T13:35:26Z</time>
      </trkpt>
      <trkpt lat="47.8622" lon="6.96682">
        <ele>562.99</ele>
        <time>2021-10-20T13:35:36Z</time>
      </trkpt>
      <trkpt lat="47.86238" lon="6.96692">
        <ele>562.51</ele>
        <time>2021-10-20T13:35:39Z</time>
      </trkpt>
      <trkpt lat="47.86243" lon="6.96696">
        <ele>562.51</ele>
        <time>2021-10-20T13:35:40Z</time>
      </trkpt>
      <trkpt lat="47.863" lon="6.96744">
        <ele>559.14</ele>
        <time>2021-10-20T13:35:51Z</time>
      </trkpt>
      <trkpt lat="47.86358" lon="6.96788">
        <ele>557.7</ele>
        <time>2021-10-20T13:36:02Z</time>
      </trkpt>
      <trkpt lat="47.86422" lon="6.96825">
        <ele>556.26</ele>
        <time>2021-10-20T13:36:14Z</time>
      </trkpt>
      <trkpt lat="47.86446" lon="6.96844">
        <ele>555.78</ele>
        <time>2021-10-20T13:36:19Z</time>
      </trkpt>
      <trkpt lat="47.86487" lon="6.96904">
        <ele>554.34</ele>
        <time>2021-10-20T13:36:31Z</time>
      </trkpt>
      <trkpt lat="47.86504" lon="6.96928">
        <ele>554.34</ele>
        <time>2021-10-20T13:36:37Z</time>
      </trkpt>
      <trkpt lat="47.86507" lon="6.9693">
        <ele>553.86</ele>
        <time>2021-10-20T13:36:38Z</time>
      </trkpt>
      <trkpt lat="47.86511" lon="6.96933">
        <ele>553.86</ele>
        <time>2021-10-20T13:36:39Z</time>
      </trkpt>
      <trkpt lat="47.86542" lon="6.96959">
        <ele>552.9</ele>
        <time>2021-10-20T13:36:49Z</time>
      </trkpt>
      <trkpt lat="47.86541" lon="6.96975">
        <ele>553.38</ele>
        <time>2021-10-20T13:37:02Z</time>
      </trkpt>
      <trkpt lat="47.86541" lon="6.96977">
        <ele>552.9</ele>
        <time>2021-10-20T13:37:03Z</time>
      </trkpt>
      <trkpt lat="47.86542" lon="6.96979">
        <ele>552.9</ele>
        <time>2021-10-20T13:37:04Z</time>
      </trkpt>
      <trkpt lat="47.86542" lon="6.96982">
        <ele>552.9</ele>
        <time>2021-10-20T13:37:05Z</time>
      </trkpt>
      <trkpt lat="47.86541" lon="6.96985">
        <ele>552.9</ele>
        <time>2021-10-20T13:37:06Z</time>
      </trkpt>
      <trkpt lat="47.8654" lon="6.96987">
        <ele>552.41</ele>
        <time>2021-10-20T13:37:07Z</time>
      </trkpt>
      <trkpt lat="47.8654" lon="6.96991">
        <ele>552.41</ele>
        <time>2021-10-20T13:37:08Z</time>
      </trkpt>
      <trkpt lat="47.86541" lon="6.96994">
        <ele>551.93</ele>
        <time>2021-10-20T13:37:09Z</time>
      </trkpt>
      <trkpt lat="47.86543" lon="6.96995">
        <ele>551.93</ele>
        <time>2021-10-20T13:37:10Z</time>
      </trkpt>
      <trkpt lat="47.86544" lon="6.96994">
        <ele>551.93</ele>
        <time>2021-10-20T13:37:11Z</time>
      </trkpt>
      <trkpt lat="47.86544" lon="6.96992">
        <ele>551.93</ele>
        <time>2021-10-20T13:37:12Z</time>
      </trkpt>
      <trkpt lat="47.86543" lon="6.96991">
        <ele>551.93</ele>
        <time>2021-10-20T13:37:13Z</time>
      </trkpt>
      <trkpt lat="47.86542" lon="6.96993">
        <ele>551.93</ele>
        <time>2021-10-20T13:37:14Z</time>
      </trkpt>
      <trkpt lat="47.86541" lon="6.96995">
        <ele>551.93</ele>
        <time>2021-10-20T13:37:15Z</time>
      </trkpt>
      <trkpt lat="47.86542" lon="6.96998">
        <ele>551.93</ele>
        <time>2021-10-20T13:37:16Z</time>
      </trkpt>
      <trkpt lat="47.86543" lon="6.97002">
        <ele>551.93</ele>
        <time>2021-10-20T13:37:17Z</time>
      </trkpt>
      <trkpt lat="47.86546" lon="6.97006">
        <ele>551.45</ele>
        <time>2021-10-20T13:37:18Z</time>
      </trkpt>
      <trkpt lat="47.86552" lon="6.97017">
        <ele>550.49</ele>
        <time>2021-10-20T13:37:20Z</time>
      </trkpt>
      <trkpt lat="47.86556" lon="6.97022">
        <ele>550.01</ele>
        <time>2021-10-20T13:37:21Z</time>
      </trkpt>
      <trkpt lat="47.86561" lon="6.97028">
        <ele>549.53</ele>
        <time>2021-10-20T13:37:22Z</time>
      </trkpt>
      <trkpt lat="47.86566" lon="6.97035">
        <ele>549.05</ele>
        <time>2021-10-20T13:37:23Z</time>
      </trkpt>
      <trkpt lat="47.86571" lon="6.97041">
        <ele>548.09</ele>
        <time>2021-10-20T13:37:24Z</time>
      </trkpt>
      <trkpt lat="47.86576" lon="6.97048">
        <ele>547.61</ele>
        <time>2021-10-20T13:37:25Z</time>
      </trkpt>
      <trkpt lat="47.8661" lon="6.9709">
        <ele>544.72</ele>
        <time>2021-10-20T13:37:31Z</time>
      </trkpt>
      <trkpt lat="47.86635" lon="6.97127">
        <ele>541.84</ele>
        <time>2021-10-20T13:37:36Z</time>
      </trkpt>
      <trkpt lat="47.8664" lon="6.97134">
        <ele>540.88</ele>
        <time>2021-10-20T13:37:37Z</time>
      </trkpt>
      <trkpt lat="47.86646" lon="6.9714">
        <ele>539.92</ele>
        <time>2021-10-20T13:37:38Z</time>
      </trkpt>
      <trkpt lat="47.86675" lon="6.97162">
        <ele>535.59</ele>
        <time>2021-10-20T13:37:42Z</time>
      </trkpt>
      <trkpt lat="47.86707" lon="6.97177">
        <ele>532.23</ele>
        <time>2021-10-20T13:37:46Z</time>
      </trkpt>
      <trkpt lat="47.86722" lon="6.97187">
        <ele>530.79</ele>
        <time>2021-10-20T13:37:48Z</time>
      </trkpt>
      <trkpt lat="47.86728" lon="6.97194">
        <ele>529.82</ele>
        <time>2021-10-20T13:37:49Z</time>
      </trkpt>
      <trkpt lat="47.86734" lon="6.97202">
        <ele>528.86</ele>
        <time>2021-10-20T13:37:50Z</time>
      </trkpt>
      <trkpt lat="47.86752" lon="6.97231">
        <ele>525.5</ele>
        <time>2021-10-20T13:37:54Z</time>
      </trkpt>
      <trkpt lat="47.86774" lon="6.97259">
        <ele>522.13</ele>
        <time>2021-10-20T13:37:59Z</time>
      </trkpt>
      <trkpt lat="47.86795" lon="6.97285">
        <ele>519.25</ele>
        <time>2021-10-20T13:38:05Z</time>
      </trkpt>
      <trkpt lat="47.86801" lon="6.97287">
        <ele>518.29</ele>
        <time>2021-10-20T13:38:06Z</time>
      </trkpt>
      <trkpt lat="47.86848" lon="6.97297">
        <ele>514.44</ele>
        <time>2021-10-20T13:38:14Z</time>
      </trkpt>
      <trkpt lat="47.8686" lon="6.97297">
        <ele>513</ele>
        <time>2021-10-20T13:38:16Z</time>
      </trkpt>
      <trkpt lat="47.86866" lon="6.97295">
        <ele>512.52</ele>
        <time>2021-10-20T13:38:17Z</time>
      </trkpt>
      <trkpt lat="47.86893" lon="6.97286">
        <ele>510.12</ele>
        <time>2021-10-20T13:38:23Z</time>
      </trkpt>
      <trkpt lat="47.86926" lon="6.97297">
        <ele>506.75</ele>
        <time>2021-10-20T13:38:31Z</time>
      </trkpt>
      <trkpt lat="47.8693" lon="6.97298">
        <ele>506.75</ele>
        <time>2021-10-20T13:38:32Z</time>
      </trkpt>
      <trkpt lat="47.86935" lon="6.97299">
        <ele>506.27</ele>
        <time>2021-10-20T13:38:33Z</time>
      </trkpt>
      <trkpt lat="47.8694" lon="6.97299">
        <ele>505.79</ele>
        <time>2021-10-20T13:38:34Z</time>
      </trkpt>
      <trkpt lat="47.86951" lon="6.97302">
        <ele>505.31</ele>
        <time>2021-10-20T13:38:36Z</time>
      </trkpt>
      <trkpt lat="47.87013" lon="6.97304">
        <ele>501.95</ele>
        <time>2021-10-20T13:38:46Z</time>
      </trkpt>
      <trkpt lat="47.87042" lon="6.97301">
        <ele>500.5</ele>
        <time>2021-10-20T13:38:53Z</time>
      </trkpt>
      <trkpt lat="47.87046" lon="6.97301">
        <ele>500.02</ele>
        <time>2021-10-20T13:38:54Z</time>
      </trkpt>
      <trkpt lat="47.87059" lon="6.97304">
        <ele>499.54</ele>
        <time>2021-10-20T13:38:57Z</time>
      </trkpt>
      <trkpt lat="47.87101" lon="6.97325">
        <ele>498.1</ele>
        <time>2021-10-20T13:39:06Z</time>
      </trkpt>
      <trkpt lat="47.87105" lon="6.97329">
        <ele>498.1</ele>
        <time>2021-10-20T13:39:07Z</time>
      </trkpt>
      <trkpt lat="47.87109" lon="6.97333">
        <ele>498.1</ele>
        <time>2021-10-20T13:39:08Z</time>
      </trkpt>
      <trkpt lat="47.87132" lon="6.97367">
        <ele>497.62</ele>
        <time>2021-10-20T13:39:19Z</time>
      </trkpt>
      <trkpt lat="47.87132" lon="6.97368">
        <ele>498.1</ele>
        <time>2021-10-20T13:39:39Z</time>
      </trkpt>
      <trkpt lat="47.87133" lon="6.97368">
        <ele>498.58</ele>
        <time>2021-10-20T13:40:02Z</time>
      </trkpt>
      <trkpt lat="47.87132" lon="6.97368">
        <ele>498.1</ele>
        <time>2021-10-20T13:40:24Z</time>
      </trkpt>
      <trkpt lat="47.87133" lon="6.97367">
        <ele>498.1</ele>
        <time>2021-10-20T13:40:53Z</time>
      </trkpt>
      <trkpt lat="47.87133" lon="6.97367">
        <ele>497.62</ele>
        <time>2021-10-20T13:41:18Z</time>
      </trkpt>
      <trkpt lat="47.87133" lon="6.9737">
        <ele>497.14</ele>
        <time>2021-10-20T13:41:32Z</time>
      </trkpt>
      <trkpt lat="47.8716" lon="6.97378">
        <ele>496.18</ele>
        <time>2021-10-20T13:41:42Z</time>
      </trkpt>
      <trkpt lat="47.87171" lon="6.97384">
        <ele>495.7</ele>
        <time>2021-10-20T13:41:45Z</time>
      </trkpt>
      <trkpt lat="47.87174" lon="6.97387">
        <ele>495.7</ele>
        <time>2021-10-20T13:41:46Z</time>
      </trkpt>
      <trkpt lat="47.87178" lon="6.9739">
        <ele>495.7</ele>
        <time>2021-10-20T13:41:47Z</time>
      </trkpt>
      <trkpt lat="47.87182" lon="6.97394">
        <ele>495.22</ele>
        <time>2021-10-20T13:41:48Z</time>
      </trkpt>
      <trkpt lat="47.87186" lon="6.97398">
        <ele>495.7</ele>
        <time>2021-10-20T13:41:49Z</time>
      </trkpt>
      <trkpt lat="47.8719" lon="6.97403">
        <ele>496.18</ele>
        <time>2021-10-20T13:41:50Z</time>
      </trkpt>
      <trkpt lat="47.87194" lon="6.97408">
        <ele>495.7</ele>
        <time>2021-10-20T13:41:51Z</time>
      </trkpt>
      <trkpt lat="47.87254" lon="6.97503">
        <ele>493.77</ele>
        <time>2021-10-20T13:42:07Z</time>
      </trkpt>
      <trkpt lat="47.87323" lon="6.97595">
        <ele>492.81</ele>
        <time>2021-10-20T13:42:22Z</time>
      </trkpt>
      <trkpt lat="47.87327" lon="6.97601">
        <ele>492.81</ele>
        <time>2021-10-20T13:42:23Z</time>
      </trkpt>
      <trkpt lat="47.87371" lon="6.97716">
        <ele>489.93</ele>
        <time>2021-10-20T13:42:37Z</time>
      </trkpt>
      <trkpt lat="47.87428" lon="6.97854">
        <ele>488.01</ele>
        <time>2021-10-20T13:42:52Z</time>
      </trkpt>
      <trkpt lat="47.87481" lon="6.97992">
        <ele>484.64</ele>
        <time>2021-10-20T13:43:07Z</time>
      </trkpt>
      <trkpt lat="47.87543" lon="6.98104">
        <ele>482.24</ele>
        <time>2021-10-20T13:43:20Z</time>
      </trkpt>
      <trkpt lat="47.87627" lon="6.98171">
        <ele>480.8</ele>
        <time>2021-10-20T13:43:33Z</time>
      </trkpt>
      <trkpt lat="47.8771" lon="6.98253">
        <ele>478.39</ele>
        <time>2021-10-20T13:43:48Z</time>
      </trkpt>
      <trkpt lat="47.87738" lon="6.98288">
        <ele>477.91</ele>
        <time>2021-10-20T13:43:54Z</time>
      </trkpt>
      <trkpt lat="47.87808" lon="6.98374">
        <ele>476.47</ele>
        <time>2021-10-20T13:44:10Z</time>
      </trkpt>
      <trkpt lat="47.87811" lon="6.9838">
        <ele>476.47</ele>
        <time>2021-10-20T13:44:11Z</time>
      </trkpt>
      <trkpt lat="47.87851" lon="6.9848">
        <ele>475.03</ele>
        <time>2021-10-20T13:44:24Z</time>
      </trkpt>
      <trkpt lat="47.87858" lon="6.98495">
        <ele>475.03</ele>
        <time>2021-10-20T13:44:26Z</time>
      </trkpt>
      <trkpt lat="47.87861" lon="6.98502">
        <ele>475.03</ele>
        <time>2021-10-20T13:44:27Z</time>
      </trkpt>
      <trkpt lat="47.87866" lon="6.98509">
        <ele>474.55</ele>
        <time>2021-10-20T13:44:28Z</time>
      </trkpt>
      <trkpt lat="47.87875" lon="6.9852">
        <ele>474.55</ele>
        <time>2021-10-20T13:44:30Z</time>
      </trkpt>
      <trkpt lat="47.87907" lon="6.98549">
        <ele>474.07</ele>
        <time>2021-10-20T13:44:38Z</time>
      </trkpt>
      <trkpt lat="47.87908" lon="6.98554">
        <ele>474.55</ele>
        <time>2021-10-20T13:44:39Z</time>
      </trkpt>
      <trkpt lat="47.87908" lon="6.98559">
        <ele>474.55</ele>
        <time>2021-10-20T13:44:40Z</time>
      </trkpt>
      <trkpt lat="47.87908" lon="6.98564">
        <ele>474.07</ele>
        <time>2021-10-20T13:44:41Z</time>
      </trkpt>
      <trkpt lat="47.87906" lon="6.98569">
        <ele>474.07</ele>
        <time>2021-10-20T13:44:42Z</time>
      </trkpt>
      <trkpt lat="47.87905" lon="6.98574">
        <ele>474.07</ele>
        <time>2021-10-20T13:44:43Z</time>
      </trkpt>
      <trkpt lat="47.87886" lon="6.98624">
        <ele>473.11</ele>
        <time>2021-10-20T13:44:53Z</time>
      </trkpt>
      <trkpt lat="47.8788" lon="6.98651">
        <ele>472.14</ele>
        <time>2021-10-20T13:44:57Z</time>
      </trkpt>
      <trkpt lat="47.8788" lon="6.98658">
        <ele>472.14</ele>
        <time>2021-10-20T13:44:58Z</time>
      </trkpt>
      <trkpt lat="47.87883" lon="6.98757">
        <ele>470.22</ele>
        <time>2021-10-20T13:45:12Z</time>
      </trkpt>
      <trkpt lat="47.87885" lon="6.9886">
        <ele>468.78</ele>
        <time>2021-10-20T13:45:23Z</time>
      </trkpt>
      <trkpt lat="47.8788" lon="6.98926">
        <ele>469.26</ele>
        <time>2021-10-20T13:45:32Z</time>
      </trkpt>
      <trkpt lat="47.87881" lon="6.98932">
        <ele>469.26</ele>
        <time>2021-10-20T13:45:33Z</time>
      </trkpt>
      <trkpt lat="47.87893" lon="6.99041">
        <ele>467.82</ele>
        <time>2021-10-20T13:45:47Z</time>
      </trkpt>
      <trkpt lat="47.87905" lon="6.99093">
        <ele>465.9</ele>
        <time>2021-10-20T13:45:53Z</time>
      </trkpt>
      <trkpt lat="47.87908" lon="6.99113">
        <ele>464.93</ele>
        <time>2021-10-20T13:45:55Z</time>
      </trkpt>
      <trkpt lat="47.87933" lon="6.99234">
        <ele>463.01</ele>
        <time>2021-10-20T13:46:08Z</time>
      </trkpt>
      <trkpt lat="47.87935" lon="6.99244">
        <ele>463.01</ele>
        <time>2021-10-20T13:46:09Z</time>
      </trkpt>
      <trkpt lat="47.87943" lon="6.99285">
        <ele>462.05</ele>
        <time>2021-10-20T13:46:13Z</time>
      </trkpt>
      <trkpt lat="47.87946" lon="6.99294">
        <ele>462.05</ele>
        <time>2021-10-20T13:46:14Z</time>
      </trkpt>
      <trkpt lat="47.87998" lon="6.99436">
        <ele>459.17</ele>
        <time>2021-10-20T13:46:31Z</time>
      </trkpt>
      <trkpt lat="47.88031" lon="6.99552">
        <ele>456.76</ele>
        <time>2021-10-20T13:46:45Z</time>
      </trkpt>
      <trkpt lat="47.88036" lon="6.99575">
        <ele>456.28</ele>
        <time>2021-10-20T13:46:48Z</time>
      </trkpt>
      <trkpt lat="47.88049" lon="6.99681">
        <ele>454.36</ele>
        <time>2021-10-20T13:47:01Z</time>
      </trkpt>
      <trkpt lat="47.88055" lon="6.99727">
        <ele>452.44</ele>
        <time>2021-10-20T13:47:06Z</time>
      </trkpt>
      <trkpt lat="47.88054" lon="6.99757">
        <ele>452.44</ele>
        <time>2021-10-20T13:47:12Z</time>
      </trkpt>
      <trkpt lat="47.88051" lon="6.9976">
        <ele>452.44</ele>
        <time>2021-10-20T13:47:13Z</time>
      </trkpt>
      <trkpt lat="47.88048" lon="6.99764">
        <ele>452.92</ele>
        <time>2021-10-20T13:47:14Z</time>
      </trkpt>
      <trkpt lat="47.88021" lon="6.99792">
        <ele>451.96</ele>
        <time>2021-10-20T13:47:21Z</time>
      </trkpt>
      <trkpt lat="47.87981" lon="6.99828">
        <ele>452.44</ele>
        <time>2021-10-20T13:47:30Z</time>
      </trkpt>
      <trkpt lat="47.87978" lon="6.99834">
        <ele>452.44</ele>
        <time>2021-10-20T13:47:31Z</time>
      </trkpt>
      <trkpt lat="47.87975" lon="6.9984">
        <ele>452.44</ele>
        <time>2021-10-20T13:47:32Z</time>
      </trkpt>
      <trkpt lat="47.87972" lon="6.99847">
        <ele>452.44</ele>
        <time>2021-10-20T13:47:33Z</time>
      </trkpt>
      <trkpt lat="47.8797" lon="6.99855">
        <ele>452.44</ele>
        <time>2021-10-20T13:47:34Z</time>
      </trkpt>
      <trkpt lat="47.87969" lon="6.99862">
        <ele>451.96</ele>
        <time>2021-10-20T13:47:35Z</time>
      </trkpt>
      <trkpt lat="47.87967" lon="6.9987">
        <ele>451.96</ele>
        <time>2021-10-20T13:47:36Z</time>
      </trkpt>
      <trkpt lat="47.87945" lon="6.99972">
        <ele>451.96</ele>
        <time>2021-10-20T13:47:49Z</time>
      </trkpt>
      <trkpt lat="47.87923" lon="7.00081">
        <ele>453.4</ele>
        <time>2021-10-20T13:48:05Z</time>
      </trkpt>
      <trkpt lat="47.87915" lon="7.00117">
        <ele>452.92</ele>
        <time>2021-10-20T13:48:10Z</time>
      </trkpt>
      <trkpt lat="47.8789" lon="7.00198">
        <ele>451.48</ele>
        <time>2021-10-20T13:48:20Z</time>
      </trkpt>
      <trkpt lat="47.87888" lon="7.00208">
        <ele>451</ele>
        <time>2021-10-20T13:48:21Z</time>
      </trkpt>
      <trkpt lat="47.87873" lon="7.00367">
        <ele>448.59</ele>
        <time>2021-10-20T13:48:36Z</time>
      </trkpt>
      <trkpt lat="47.87868" lon="7.00385">
        <ele>448.59</ele>
        <time>2021-10-20T13:48:38Z</time>
      </trkpt>
      <trkpt lat="47.87865" lon="7.00393">
        <ele>448.59</ele>
        <time>2021-10-20T13:48:39Z</time>
      </trkpt>
      <trkpt lat="47.87851" lon="7.00418">
        <ele>448.11</ele>
        <time>2021-10-20T13:48:42Z</time>
      </trkpt>
      <trkpt lat="47.87811" lon="7.00501">
        <ele>445.23</ele>
        <time>2021-10-20T13:48:51Z</time>
      </trkpt>
      <trkpt lat="47.87801" lon="7.00521">
        <ele>444.75</ele>
        <time>2021-10-20T13:48:53Z</time>
      </trkpt>
      <trkpt lat="47.87779" lon="7.00559">
        <ele>443.31</ele>
        <time>2021-10-20T13:48:57Z</time>
      </trkpt>
      <trkpt lat="47.87775" lon="7.00566">
        <ele>443.31</ele>
        <time>2021-10-20T13:48:58Z</time>
      </trkpt>
      <trkpt lat="47.87773" lon="7.00574">
        <ele>443.31</ele>
        <time>2021-10-20T13:48:59Z</time>
      </trkpt>
      <trkpt lat="47.87774" lon="7.0058">
        <ele>443.31</ele>
        <time>2021-10-20T13:49:00Z</time>
      </trkpt>
      <trkpt lat="47.87774" lon="7.00588">
        <ele>443.31</ele>
        <time>2021-10-20T13:49:01Z</time>
      </trkpt>
      <trkpt lat="47.87773" lon="7.00596">
        <ele>442.34</ele>
        <time>2021-10-20T13:49:02Z</time>
      </trkpt>
      <trkpt lat="47.87771" lon="7.00605">
        <ele>441.86</ele>
        <time>2021-10-20T13:49:03Z</time>
      </trkpt>
      <trkpt lat="47.87769" lon="7.00614">
        <ele>441.38</ele>
        <time>2021-10-20T13:49:04Z</time>
      </trkpt>
      <trkpt lat="47.87767" lon="7.00623">
        <ele>441.38</ele>
        <time>2021-10-20T13:49:05Z</time>
      </trkpt>
      <trkpt lat="47.87741" lon="7.00767">
        <ele>439.94</ele>
        <time>2021-10-20T13:49:19Z</time>
      </trkpt>
      <trkpt lat="47.87741" lon="7.00881">
        <ele>438.98</ele>
        <time>2021-10-20T13:49:30Z</time>
      </trkpt>
      <trkpt lat="47.87743" lon="7.0089">
        <ele>438.98</ele>
        <time>2021-10-20T13:49:31Z</time>
      </trkpt>
      <trkpt lat="47.87759" lon="7.00948">
        <ele>437.06</ele>
        <time>2021-10-20T13:49:38Z</time>
      </trkpt>
      <trkpt lat="47.87758" lon="7.01012">
        <ele>436.58</ele>
        <time>2021-10-20T13:49:45Z</time>
      </trkpt>
      <trkpt lat="47.87756" lon="7.01021">
        <ele>436.58</ele>
        <time>2021-10-20T13:49:46Z</time>
      </trkpt>
      <trkpt lat="47.87754" lon="7.01029">
        <ele>436.1</ele>
        <time>2021-10-20T13:49:47Z</time>
      </trkpt>
      <trkpt lat="47.87711" lon="7.01157">
        <ele>434.65</ele>
        <time>2021-10-20T13:50:02Z</time>
      </trkpt>
      <trkpt lat="47.87695" lon="7.01206">
        <ele>434.17</ele>
        <time>2021-10-20T13:50:08Z</time>
      </trkpt>
      <trkpt lat="47.87691" lon="7.01213">
        <ele>434.17</ele>
        <time>2021-10-20T13:50:09Z</time>
      </trkpt>
      <trkpt lat="47.87686" lon="7.0122">
        <ele>434.17</ele>
        <time>2021-10-20T13:50:10Z</time>
      </trkpt>
      <trkpt lat="47.87683" lon="7.01228">
        <ele>434.17</ele>
        <time>2021-10-20T13:50:11Z</time>
      </trkpt>
      <trkpt lat="47.87679" lon="7.01236">
        <ele>434.17</ele>
        <time>2021-10-20T13:50:12Z</time>
      </trkpt>
      <trkpt lat="47.87663" lon="7.01275">
        <ele>434.17</ele>
        <time>2021-10-20T13:50:17Z</time>
      </trkpt>
      <trkpt lat="47.87658" lon="7.0129">
        <ele>434.17</ele>
        <time>2021-10-20T13:50:19Z</time>
      </trkpt>
      <trkpt lat="47.87637" lon="7.01367">
        <ele>434.65</ele>
        <time>2021-10-20T13:50:31Z</time>
      </trkpt>
      <trkpt lat="47.87636" lon="7.01374">
        <ele>434.65</ele>
        <time>2021-10-20T13:50:32Z</time>
      </trkpt>
      <trkpt lat="47.87635" lon="7.01382">
        <ele>434.65</ele>
        <time>2021-10-20T13:50:33Z</time>
      </trkpt>
      <trkpt lat="47.87632" lon="7.01397">
        <ele>434.65</ele>
        <time>2021-10-20T13:50:35Z</time>
      </trkpt>
      <trkpt lat="47.87615" lon="7.01467">
        <ele>434.17</ele>
        <time>2021-10-20T13:50:43Z</time>
      </trkpt>
      <trkpt lat="47.87603" lon="7.01526">
        <ele>433.69</ele>
        <time>2021-10-20T13:50:49Z</time>
      </trkpt>
      <trkpt lat="47.87608" lon="7.01651">
        <ele>432.73</ele>
        <time>2021-10-20T13:51:02Z</time>
      </trkpt>
      <trkpt lat="47.87608" lon="7.01692">
        <ele>431.77</ele>
        <time>2021-10-20T13:51:06Z</time>
      </trkpt>
      <trkpt lat="47.87576" lon="7.01828">
        <ele>430.33</ele>
        <time>2021-10-20T13:51:20Z</time>
      </trkpt>
      <trkpt lat="47.87507" lon="7.01972">
        <ele>428.89</ele>
        <time>2021-10-20T13:51:37Z</time>
      </trkpt>
      <trkpt lat="47.87428" lon="7.02117">
        <ele>426</ele>
        <time>2021-10-20T13:51:54Z</time>
      </trkpt>
      <trkpt lat="47.874" lon="7.02193">
        <ele>425.52</ele>
        <time>2021-10-20T13:52:03Z</time>
      </trkpt>
      <trkpt lat="47.87396" lon="7.022">
        <ele>425.52</ele>
        <time>2021-10-20T13:52:04Z</time>
      </trkpt>
      <trkpt lat="47.87346" lon="7.02269">
        <ele>425.04</ele>
        <time>2021-10-20T13:52:16Z</time>
      </trkpt>
      <trkpt lat="47.87282" lon="7.02355">
        <ele>424.56</ele>
        <time>2021-10-20T13:52:30Z</time>
      </trkpt>
      <trkpt lat="47.87224" lon="7.02427">
        <ele>424.56</ele>
        <time>2021-10-20T13:52:43Z</time>
      </trkpt>
      <trkpt lat="47.87172" lon="7.02485">
        <ele>423.6</ele>
        <time>2021-10-20T13:52:56Z</time>
      </trkpt>
      <trkpt lat="47.87167" lon="7.02489">
        <ele>423.6</ele>
        <time>2021-10-20T13:52:57Z</time>
      </trkpt>
      <trkpt lat="47.87163" lon="7.02494">
        <ele>423.6</ele>
        <time>2021-10-20T13:52:58Z</time>
      </trkpt>
      <trkpt lat="47.87146" lon="7.02513">
        <ele>423.12</ele>
        <time>2021-10-20T13:53:02Z</time>
      </trkpt>
      <trkpt lat="47.87141" lon="7.02517">
        <ele>422.64</ele>
        <time>2021-10-20T13:53:03Z</time>
      </trkpt>
      <trkpt lat="47.87117" lon="7.02535">
        <ele>422.16</ele>
        <time>2021-10-20T13:53:07Z</time>
      </trkpt>
      <trkpt lat="47.87057" lon="7.02563">
        <ele>421.68</ele>
        <time>2021-10-20T13:53:17Z</time>
      </trkpt>
      <trkpt lat="47.87026" lon="7.02575">
        <ele>422.16</ele>
        <time>2021-10-20T13:53:23Z</time>
      </trkpt>
      <trkpt lat="47.86989" lon="7.02604">
        <ele>421.68</ele>
        <time>2021-10-20T13:53:31Z</time>
      </trkpt>
      <trkpt lat="47.86982" lon="7.02612">
        <ele>421.68</ele>
        <time>2021-10-20T13:53:33Z</time>
      </trkpt>
      <trkpt lat="47.86979" lon="7.02614">
        <ele>421.68</ele>
        <time>2021-10-20T13:53:34Z</time>
      </trkpt>
      <trkpt lat="47.86976" lon="7.02617">
        <ele>421.68</ele>
        <time>2021-10-20T13:53:35Z</time>
      </trkpt>
      <trkpt lat="47.86964" lon="7.02632">
        <ele>421.68</ele>
        <time>2021-10-20T13:53:38Z</time>
      </trkpt>
      <trkpt lat="47.8695" lon="7.02656">
        <ele>421.68</ele>
        <time>2021-10-20T13:53:42Z</time>
      </trkpt>
      <trkpt lat="47.86944" lon="7.02668">
        <ele>422.16</ele>
        <time>2021-10-20T13:53:44Z</time>
      </trkpt>
      <trkpt lat="47.86924" lon="7.02712">
        <ele>421.68</ele>
        <time>2021-10-20T13:53:52Z</time>
      </trkpt>
      <trkpt lat="47.86921" lon="7.02719">
        <ele>422.16</ele>
        <time>2021-10-20T13:53:53Z</time>
      </trkpt>
      <trkpt lat="47.86918" lon="7.02725">
        <ele>421.68</ele>
        <time>2021-10-20T13:53:54Z</time>
      </trkpt>
      <trkpt lat="47.86915" lon="7.0273">
        <ele>421.68</ele>
        <time>2021-10-20T13:53:55Z</time>
      </trkpt>
      <trkpt lat="47.86912" lon="7.02735">
        <ele>421.68</ele>
        <time>2021-10-20T13:53:56Z</time>
      </trkpt>
      <trkpt lat="47.86909" lon="7.02741">
        <ele>421.68</ele>
        <time>2021-10-20T13:53:57Z</time>
      </trkpt>
      <trkpt lat="47.86906" lon="7.02748">
        <ele>421.68</ele>
        <time>2021-10-20T13:53:58Z</time>
      </trkpt>
      <trkpt lat="47.86889" lon="7.02786">
        <ele>422.16</ele>
        <time>2021-10-20T13:54:06Z</time>
      </trkpt>
      <trkpt lat="47.86889" lon="7.02791">
        <ele>421.68</ele>
        <time>2021-10-20T13:54:07Z</time>
      </trkpt>
      <trkpt lat="47.86889" lon="7.02796">
        <ele>421.68</ele>
        <time>2021-10-20T13:54:08Z</time>
      </trkpt>
      <trkpt lat="47.86878" lon="7.02828">
        <ele>421.68</ele>
        <time>2021-10-20T13:54:13Z</time>
      </trkpt>
      <trkpt lat="47.86874" lon="7.02837">
        <ele>421.68</ele>
        <time>2021-10-20T13:54:14Z</time>
      </trkpt>
      <trkpt lat="47.86872" lon="7.02844">
        <ele>421.68</ele>
        <time>2021-10-20T13:54:15Z</time>
      </trkpt>
      <trkpt lat="47.86854" lon="7.02927">
        <ele>421.19</ele>
        <time>2021-10-20T13:54:24Z</time>
      </trkpt>
      <trkpt lat="47.86853" lon="7.02935">
        <ele>420.71</ele>
        <time>2021-10-20T13:54:25Z</time>
      </trkpt>
      <trkpt lat="47.86852" lon="7.0295">
        <ele>420.71</ele>
        <time>2021-10-20T13:54:27Z</time>
      </trkpt>
      <trkpt lat="47.86844" lon="7.0303">
        <ele>418.79</ele>
        <time>2021-10-20T13:54:35Z</time>
      </trkpt>
      <trkpt lat="47.86841" lon="7.03041">
        <ele>418.79</ele>
        <time>2021-10-20T13:54:36Z</time>
      </trkpt>
      <trkpt lat="47.8684" lon="7.03049">
        <ele>418.79</ele>
        <time>2021-10-20T13:54:37Z</time>
      </trkpt>
      <trkpt lat="47.86813" lon="7.0313">
        <ele>417.83</ele>
        <time>2021-10-20T13:54:46Z</time>
      </trkpt>
      <trkpt lat="47.8681" lon="7.03137">
        <ele>417.35</ele>
        <time>2021-10-20T13:54:47Z</time>
      </trkpt>
      <trkpt lat="47.86802" lon="7.03151">
        <ele>417.83</ele>
        <time>2021-10-20T13:54:49Z</time>
      </trkpt>
      <trkpt lat="47.86799" lon="7.03157">
        <ele>417.83</ele>
        <time>2021-10-20T13:54:50Z</time>
      </trkpt>
      <trkpt lat="47.86796" lon="7.03163">
        <ele>417.83</ele>
        <time>2021-10-20T13:54:51Z</time>
      </trkpt>
      <trkpt lat="47.86772" lon="7.03233">
        <ele>417.83</ele>
        <time>2021-10-20T13:55:01Z</time>
      </trkpt>
      <trkpt lat="47.86768" lon="7.03239">
        <ele>417.83</ele>
        <time>2021-10-20T13:55:02Z</time>
      </trkpt>
      <trkpt lat="47.86764" lon="7.03245">
        <ele>417.35</ele>
        <time>2021-10-20T13:55:03Z</time>
      </trkpt>
      <trkpt lat="47.86759" lon="7.03251">
        <ele>417.35</ele>
        <time>2021-10-20T13:55:04Z</time>
      </trkpt>
      <trkpt lat="47.86755" lon="7.03257">
        <ele>417.83</ele>
        <time>2021-10-20T13:55:05Z</time>
      </trkpt>
      <trkpt lat="47.86748" lon="7.03266">
        <ele>417.35</ele>
        <time>2021-10-20T13:55:06Z</time>
      </trkpt>
      <trkpt lat="47.8673" lon="7.03295">
        <ele>416.87</ele>
        <time>2021-10-20T13:55:10Z</time>
      </trkpt>
      <trkpt lat="47.86681" lon="7.03383">
        <ele>415.43</ele>
        <time>2021-10-20T13:55:22Z</time>
      </trkpt>
      <trkpt lat="47.86676" lon="7.03388">
        <ele>414.95</ele>
        <time>2021-10-20T13:55:23Z</time>
      </trkpt>
      <trkpt lat="47.8667" lon="7.03393">
        <ele>414.95</ele>
        <time>2021-10-20T13:55:24Z</time>
      </trkpt>
      <trkpt lat="47.86654" lon="7.03405">
        <ele>414.95</ele>
        <time>2021-10-20T13:55:27Z</time>
      </trkpt>
      <trkpt lat="47.86649" lon="7.0341">
        <ele>414.95</ele>
        <time>2021-10-20T13:55:28Z</time>
      </trkpt>
      <trkpt lat="47.86616" lon="7.03451">
        <ele>415.43</ele>
        <time>2021-10-20T13:55:38Z</time>
      </trkpt>
      <trkpt lat="47.86587" lon="7.03474">
        <ele>415.91</ele>
        <time>2021-10-20T13:55:48Z</time>
      </trkpt>
      <trkpt lat="47.86557" lon="7.03475">
        <ele>416.87</ele>
        <time>2021-10-20T13:55:57Z</time>
      </trkpt>
      <trkpt lat="47.86515" lon="7.03476">
        <ele>416.39</ele>
        <time>2021-10-20T13:56:06Z</time>
      </trkpt>
      <trkpt lat="47.8648" lon="7.0349">
        <ele>415.91</ele>
        <time>2021-10-20T13:56:12Z</time>
      </trkpt>
      <trkpt lat="47.86474" lon="7.03492">
        <ele>415.43</ele>
        <time>2021-10-20T13:56:13Z</time>
      </trkpt>
      <trkpt lat="47.86408" lon="7.03548">
        <ele>414.47</ele>
        <time>2021-10-20T13:56:24Z</time>
      </trkpt>
      <trkpt lat="47.86329" lon="7.03611">
        <ele>412.54</ele>
        <time>2021-10-20T13:56:37Z</time>
      </trkpt>
      <trkpt lat="47.86264" lon="7.03639">
        <ele>411.58</ele>
        <time>2021-10-20T13:56:47Z</time>
      </trkpt>
      <trkpt lat="47.86257" lon="7.03638">
        <ele>411.58</ele>
        <time>2021-10-20T13:56:48Z</time>
      </trkpt>
      <trkpt lat="47.86245" lon="7.03636">
        <ele>411.1</ele>
        <time>2021-10-20T13:56:50Z</time>
      </trkpt>
      <trkpt lat="47.86239" lon="7.03636">
        <ele>411.1</ele>
        <time>2021-10-20T13:56:51Z</time>
      </trkpt>
      <trkpt lat="47.86199" lon="7.03643">
        <ele>411.58</ele>
        <time>2021-10-20T13:56:57Z</time>
      </trkpt>
      <trkpt lat="47.86193" lon="7.03647">
        <ele>411.58</ele>
        <time>2021-10-20T13:56:58Z</time>
      </trkpt>
      <trkpt lat="47.86186" lon="7.03651">
        <ele>411.1</ele>
        <time>2021-10-20T13:56:59Z</time>
      </trkpt>
      <trkpt lat="47.8618" lon="7.03657">
        <ele>411.1</ele>
        <time>2021-10-20T13:57:00Z</time>
      </trkpt>
      <trkpt lat="47.86174" lon="7.03663">
        <ele>411.1</ele>
        <time>2021-10-20T13:57:01Z</time>
      </trkpt>
      <trkpt lat="47.86169" lon="7.0367">
        <ele>411.1</ele>
        <time>2021-10-20T13:57:02Z</time>
      </trkpt>
      <trkpt lat="47.86164" lon="7.03677">
        <ele>411.1</ele>
        <time>2021-10-20T13:57:03Z</time>
      </trkpt>
      <trkpt lat="47.86159" lon="7.03686">
        <ele>411.1</ele>
        <time>2021-10-20T13:57:04Z</time>
      </trkpt>
      <trkpt lat="47.86155" lon="7.03695">
        <ele>411.1</ele>
        <time>2021-10-20T13:57:05Z</time>
      </trkpt>
      <trkpt lat="47.86151" lon="7.03704">
        <ele>411.1</ele>
        <time>2021-10-20T13:57:06Z</time>
      </trkpt>
      <trkpt lat="47.86147" lon="7.03715">
        <ele>411.1</ele>
        <time>2021-10-20T13:57:07Z</time>
      </trkpt>
      <trkpt lat="47.86144" lon="7.03725">
        <ele>411.1</ele>
        <time>2021-10-20T13:57:08Z</time>
      </trkpt>
      <trkpt lat="47.86122" lon="7.03788">
        <ele>410.14</ele>
        <time>2021-10-20T13:57:14Z</time>
      </trkpt>
      <trkpt lat="47.86117" lon="7.03798">
        <ele>410.14</ele>
        <time>2021-10-20T13:57:15Z</time>
      </trkpt>
      <trkpt lat="47.86111" lon="7.03806">
        <ele>410.14</ele>
        <time>2021-10-20T13:57:16Z</time>
      </trkpt>
      <trkpt lat="47.86074" lon="7.03864">
        <ele>410.14</ele>
        <time>2021-10-20T13:57:23Z</time>
      </trkpt>
      <trkpt lat="47.86069" lon="7.03873">
        <ele>409.66</ele>
        <time>2021-10-20T13:57:24Z</time>
      </trkpt>
      <trkpt lat="47.86052" lon="7.03906">
        <ele>409.66</ele>
        <time>2021-10-20T13:57:28Z</time>
      </trkpt>
      <trkpt lat="47.86049" lon="7.03915">
        <ele>409.66</ele>
        <time>2021-10-20T13:57:29Z</time>
      </trkpt>
      <trkpt lat="47.86013" lon="7.04034">
        <ele>409.18</ele>
        <time>2021-10-20T13:57:43Z</time>
      </trkpt>
      <trkpt lat="47.8601" lon="7.04043">
        <ele>408.7</ele>
        <time>2021-10-20T13:57:44Z</time>
      </trkpt>
      <trkpt lat="47.86007" lon="7.04051">
        <ele>408.7</ele>
        <time>2021-10-20T13:57:45Z</time>
      </trkpt>
      <trkpt lat="47.86004" lon="7.04059">
        <ele>408.7</ele>
        <time>2021-10-20T13:57:46Z</time>
      </trkpt>
      <trkpt lat="47.86001" lon="7.04067">
        <ele>408.7</ele>
        <time>2021-10-20T13:57:47Z</time>
      </trkpt>
      <trkpt lat="47.85963" lon="7.04196">
        <ele>407.74</ele>
        <time>2021-10-20T13:58:03Z</time>
      </trkpt>
      <trkpt lat="47.85962" lon="7.04204">
        <ele>407.74</ele>
        <time>2021-10-20T13:58:04Z</time>
      </trkpt>
      <trkpt lat="47.8596" lon="7.04213">
        <ele>407.74</ele>
        <time>2021-10-20T13:58:05Z</time>
      </trkpt>
      <trkpt lat="47.85951" lon="7.04245">
        <ele>407.74</ele>
        <time>2021-10-20T13:58:09Z</time>
      </trkpt>
      <trkpt lat="47.85948" lon="7.04252">
        <ele>407.74</ele>
        <time>2021-10-20T13:58:10Z</time>
      </trkpt>
      <trkpt lat="47.85944" lon="7.04258">
        <ele>407.74</ele>
        <time>2021-10-20T13:58:11Z</time>
      </trkpt>
      <trkpt lat="47.85893" lon="7.04344">
        <ele>407.26</ele>
        <time>2021-10-20T13:58:25Z</time>
      </trkpt>
      <trkpt lat="47.85869" lon="7.04437">
        <ele>406.77</ele>
        <time>2021-10-20T13:58:37Z</time>
      </trkpt>
      <trkpt lat="47.85868" lon="7.04445">
        <ele>406.29</ele>
        <time>2021-10-20T13:58:38Z</time>
      </trkpt>
      <trkpt lat="47.85867" lon="7.04452">
        <ele>406.29</ele>
        <time>2021-10-20T13:58:39Z</time>
      </trkpt>
      <trkpt lat="47.85843" lon="7.04515">
        <ele>405.81</ele>
        <time>2021-10-20T13:58:47Z</time>
      </trkpt>
      <trkpt lat="47.85828" lon="7.04556">
        <ele>405.33</ele>
        <time>2021-10-20T13:58:52Z</time>
      </trkpt>
      <trkpt lat="47.8581" lon="7.04599">
        <ele>404.85</ele>
        <time>2021-10-20T13:58:58Z</time>
      </trkpt>
      <trkpt lat="47.85807" lon="7.04605">
        <ele>404.85</ele>
        <time>2021-10-20T13:58:59Z</time>
      </trkpt>
      <trkpt lat="47.85805" lon="7.04611">
        <ele>404.85</ele>
        <time>2021-10-20T13:59:00Z</time>
      </trkpt>
      <trkpt lat="47.85803" lon="7.04617">
        <ele>405.33</ele>
        <time>2021-10-20T13:59:01Z</time>
      </trkpt>
      <trkpt lat="47.85802" lon="7.04622">
        <ele>404.85</ele>
        <time>2021-10-20T13:59:02Z</time>
      </trkpt>
      <trkpt lat="47.85794" lon="7.04679">
        <ele>404.37</ele>
        <time>2021-10-20T13:59:13Z</time>
      </trkpt>
      <trkpt lat="47.85793" lon="7.04686">
        <ele>404.37</ele>
        <time>2021-10-20T13:59:14Z</time>
      </trkpt>
      <trkpt lat="47.85791" lon="7.047">
        <ele>403.89</ele>
        <time>2021-10-20T13:59:16Z</time>
      </trkpt>
      <trkpt lat="47.85789" lon="7.04707">
        <ele>403.89</ele>
        <time>2021-10-20T13:59:17Z</time>
      </trkpt>
      <trkpt lat="47.85786" lon="7.04713">
        <ele>404.37</ele>
        <time>2021-10-20T13:59:18Z</time>
      </trkpt>
      <trkpt lat="47.85775" lon="7.04733">
        <ele>405.33</ele>
        <time>2021-10-20T13:59:22Z</time>
      </trkpt>
      <trkpt lat="47.85771" lon="7.04737">
        <ele>405.33</ele>
        <time>2021-10-20T13:59:23Z</time>
      </trkpt>
      <trkpt lat="47.85732" lon="7.04772">
        <ele>406.29</ele>
        <time>2021-10-20T13:59:34Z</time>
      </trkpt>
      <trkpt lat="47.85705" lon="7.04796">
        <ele>406.77</ele>
        <time>2021-10-20T13:59:40Z</time>
      </trkpt>
      <trkpt lat="47.8569" lon="7.04804">
        <ele>406.77</ele>
        <time>2021-10-20T13:59:43Z</time>
      </trkpt>
      <trkpt lat="47.85685" lon="7.04807">
        <ele>406.77</ele>
        <time>2021-10-20T13:59:44Z</time>
      </trkpt>
      <trkpt lat="47.85621" lon="7.04846">
        <ele>406.29</ele>
        <time>2021-10-20T13:59:58Z</time>
      </trkpt>
      <trkpt lat="47.85585" lon="7.04874">
        <ele>406.29</ele>
        <time>2021-10-20T14:00:06Z</time>
      </trkpt>
      <trkpt lat="47.85577" lon="7.04884">
        <ele>406.29</ele>
        <time>2021-10-20T14:00:08Z</time>
      </trkpt>
      <trkpt lat="47.85559" lon="7.04913">
        <ele>406.29</ele>
        <time>2021-10-20T14:00:13Z</time>
      </trkpt>
      <trkpt lat="47.85556" lon="7.0492">
        <ele>405.81</ele>
        <time>2021-10-20T14:00:14Z</time>
      </trkpt>
      <trkpt lat="47.85552" lon="7.04926">
        <ele>405.81</ele>
        <time>2021-10-20T14:00:15Z</time>
      </trkpt>
      <trkpt lat="47.85543" lon="7.04938">
        <ele>405.33</ele>
        <time>2021-10-20T14:00:17Z</time>
      </trkpt>
      <trkpt lat="47.85498" lon="7.04983">
        <ele>405.33</ele>
        <time>2021-10-20T14:00:26Z</time>
      </trkpt>
      <trkpt lat="47.85482" lon="7.05003">
        <ele>405.81</ele>
        <time>2021-10-20T14:00:30Z</time>
      </trkpt>
      <trkpt lat="47.85428" lon="7.05096">
        <ele>404.37</ele>
        <time>2021-10-20T14:00:44Z</time>
      </trkpt>
      <trkpt lat="47.85378" lon="7.05173">
        <ele>403.89</ele>
        <time>2021-10-20T14:00:57Z</time>
      </trkpt>
      <trkpt lat="47.85359" lon="7.05199">
        <ele>403.89</ele>
        <time>2021-10-20T14:01:02Z</time>
      </trkpt>
      <trkpt lat="47.85356" lon="7.05204">
        <ele>403.89</ele>
        <time>2021-10-20T14:01:03Z</time>
      </trkpt>
      <trkpt lat="47.85344" lon="7.05218">
        <ele>403.89</ele>
        <time>2021-10-20T14:01:06Z</time>
      </trkpt>
      <trkpt lat="47.8534" lon="7.05222">
        <ele>404.37</ele>
        <time>2021-10-20T14:01:07Z</time>
      </trkpt>
      <trkpt lat="47.85335" lon="7.05225">
        <ele>404.37</ele>
        <time>2021-10-20T14:01:08Z</time>
      </trkpt>
      <trkpt lat="47.85294" lon="7.05257">
        <ele>406.77</ele>
        <time>2021-10-20T14:01:19Z</time>
      </trkpt>
      <trkpt lat="47.85272" lon="7.05282">
        <ele>408.22</ele>
        <time>2021-10-20T14:01:25Z</time>
      </trkpt>
      <trkpt lat="47.85247" lon="7.0532">
        <ele>409.18</ele>
        <time>2021-10-20T14:01:33Z</time>
      </trkpt>
      <trkpt lat="47.85236" lon="7.05335">
        <ele>409.18</ele>
        <time>2021-10-20T14:01:36Z</time>
      </trkpt>
      <trkpt lat="47.85192" lon="7.05388">
        <ele>409.66</ele>
        <time>2021-10-20T14:01:49Z</time>
      </trkpt>
      <trkpt lat="47.85186" lon="7.05397">
        <ele>409.18</ele>
        <time>2021-10-20T14:01:51Z</time>
      </trkpt>
      <trkpt lat="47.85147" lon="7.05444">
        <ele>409.66</ele>
        <time>2021-10-20T14:02:04Z</time>
      </trkpt>
      <trkpt lat="47.85142" lon="7.05442">
        <ele>410.62</ele>
        <time>2021-10-20T14:02:06Z</time>
      </trkpt>
      <trkpt lat="47.8514" lon="7.05439">
        <ele>410.14</ele>
        <time>2021-10-20T14:02:07Z</time>
      </trkpt>
      <trkpt lat="47.85139" lon="7.05437">
        <ele>410.14</ele>
        <time>2021-10-20T14:02:08Z</time>
      </trkpt>
      <trkpt lat="47.8512" lon="7.05394">
        <ele>412.54</ele>
        <time>2021-10-20T14:02:23Z</time>
      </trkpt>
      <trkpt lat="47.85103" lon="7.05352">
        <ele>415.91</ele>
        <time>2021-10-20T14:02:36Z</time>
      </trkpt>
      <trkpt lat="47.85089" lon="7.05319">
        <ele>418.79</ele>
        <time>2021-10-20T14:02:46Z</time>
      </trkpt>
      <trkpt lat="47.8507" lon="7.05284">
        <ele>422.16</ele>
        <time>2021-10-20T14:02:57Z</time>
      </trkpt>
      <trkpt lat="47.85053" lon="7.05267">
        <ele>424.08</ele>
        <time>2021-10-20T14:03:05Z</time>
      </trkpt>
      <trkpt lat="47.85043" lon="7.0526">
        <ele>426</ele>
        <time>2021-10-20T14:03:10Z</time>
      </trkpt>
      <trkpt lat="47.85021" lon="7.05231">
        <ele>428.89</ele>
        <time>2021-10-20T14:03:21Z</time>
      </trkpt>
      <trkpt lat="47.85001" lon="7.05195">
        <ele>430.81</ele>
        <time>2021-10-20T14:03:31Z</time>
      </trkpt>
      <trkpt lat="47.85" lon="7.05192">
        <ele>431.29</ele>
        <time>2021-10-20T14:03:32Z</time>
      </trkpt>
      <trkpt lat="47.84997" lon="7.05184">
        <ele>431.77</ele>
        <time>2021-10-20T14:03:34Z</time>
      </trkpt>
      <trkpt lat="47.84997" lon="7.0518">
        <ele>432.25</ele>
        <time>2021-10-20T14:03:35Z</time>
      </trkpt>
      <trkpt lat="47.84995" lon="7.05176">
        <ele>432.25</ele>
        <time>2021-10-20T14:03:36Z</time>
      </trkpt>
      <trkpt lat="47.84966" lon="7.05157">
        <ele>435.61</ele>
        <time>2021-10-20T14:03:46Z</time>
      </trkpt>
      <trkpt lat="47.84949" lon="7.05129">
        <ele>438.5</ele>
        <time>2021-10-20T14:03:56Z</time>
      </trkpt>
      <trkpt lat="47.84947" lon="7.05124">
        <ele>438.98</ele>
        <time>2021-10-20T14:03:58Z</time>
      </trkpt>
      <trkpt lat="47.84935" lon="7.05095">
        <ele>442.34</ele>
        <time>2021-10-20T14:04:08Z</time>
      </trkpt>
      <trkpt lat="47.84934" lon="7.05092">
        <ele>442.82</ele>
        <time>2021-10-20T14:04:09Z</time>
      </trkpt>
      <trkpt lat="47.84933" lon="7.05089">
        <ele>442.82</ele>
        <time>2021-10-20T14:04:10Z</time>
      </trkpt>
      <trkpt lat="47.84927" lon="7.05078">
        <ele>444.75</ele>
        <time>2021-10-20T14:04:14Z</time>
      </trkpt>
      <trkpt lat="47.84925" lon="7.05075">
        <ele>444.75</ele>
        <time>2021-10-20T14:04:15Z</time>
      </trkpt>
      <trkpt lat="47.84923" lon="7.05073">
        <ele>445.23</ele>
        <time>2021-10-20T14:04:16Z</time>
      </trkpt>
      <trkpt lat="47.84921" lon="7.0507">
        <ele>445.71</ele>
        <time>2021-10-20T14:04:17Z</time>
      </trkpt>
      <trkpt lat="47.8492" lon="7.05067">
        <ele>446.19</ele>
        <time>2021-10-20T14:04:18Z</time>
      </trkpt>
      <trkpt lat="47.84914" lon="7.05051">
        <ele>448.59</ele>
        <time>2021-10-20T14:04:25Z</time>
      </trkpt>
      <trkpt lat="47.84913" lon="7.05048">
        <ele>449.07</ele>
        <time>2021-10-20T14:04:26Z</time>
      </trkpt>
      <trkpt lat="47.8491" lon="7.05045">
        <ele>450.03</ele>
        <time>2021-10-20T14:04:28Z</time>
      </trkpt>
      <trkpt lat="47.84908" lon="7.05044">
        <ele>450.52</ele>
        <time>2021-10-20T14:04:29Z</time>
      </trkpt>
      <trkpt lat="47.84887" lon="7.05044">
        <ele>452.92</ele>
        <time>2021-10-20T14:04:38Z</time>
      </trkpt>
      <trkpt lat="47.84885" lon="7.05049">
        <ele>454.36</ele>
        <time>2021-10-20T14:04:43Z</time>
      </trkpt>
      <trkpt lat="47.84887" lon="7.05063">
        <ele>456.28</ele>
        <time>2021-10-20T14:04:50Z</time>
      </trkpt>
      <trkpt lat="47.84886" lon="7.0507">
        <ele>457.72</ele>
        <time>2021-10-20T14:04:53Z</time>
      </trkpt>
      <trkpt lat="47.84891" lon="7.05073">
        <ele>459.17</ele>
        <time>2021-10-20T14:04:59Z</time>
      </trkpt>
      <trkpt lat="47.84893" lon="7.05113">
        <ele>463.49</ele>
        <time>2021-10-20T14:05:11Z</time>
      </trkpt>
      <trkpt lat="47.84894" lon="7.05121">
        <ele>463.97</ele>
        <time>2021-10-20T14:05:14Z</time>
      </trkpt>
      <trkpt lat="47.84898" lon="7.05136">
        <ele>465.42</ele>
        <time>2021-10-20T14:05:19Z</time>
      </trkpt>
      <trkpt lat="47.84898" lon="7.05152">
        <ele>466.86</ele>
        <time>2021-10-20T14:05:24Z</time>
      </trkpt>
      <trkpt lat="47.84905" lon="7.05191">
        <ele>470.22</ele>
        <time>2021-10-20T14:05:35Z</time>
      </trkpt>
      <trkpt lat="47.84904" lon="7.05232">
        <ele>473.11</ele>
        <time>2021-10-20T14:05:46Z</time>
      </trkpt>
      <trkpt lat="47.84903" lon="7.05235">
        <ele>473.59</ele>
        <time>2021-10-20T14:05:47Z</time>
      </trkpt>
      <trkpt lat="47.84881" lon="7.05264">
        <ele>476.95</ele>
        <time>2021-10-20T14:05:59Z</time>
      </trkpt>
      <trkpt lat="47.84856" lon="7.05262">
        <ele>479.35</ele>
        <time>2021-10-20T14:06:10Z</time>
      </trkpt>
      <trkpt lat="47.84842" lon="7.0524">
        <ele>481.76</ele>
        <time>2021-10-20T14:06:21Z</time>
      </trkpt>
      <trkpt lat="47.84843" lon="7.05209">
        <ele>485.6</ele>
        <time>2021-10-20T14:06:31Z</time>
      </trkpt>
      <trkpt lat="47.84844" lon="7.05206">
        <ele>486.08</ele>
        <time>2021-10-20T14:06:32Z</time>
      </trkpt>
      <trkpt lat="47.84838" lon="7.05175">
        <ele>489.93</ele>
        <time>2021-10-20T14:06:42Z</time>
      </trkpt>
      <trkpt lat="47.84819" lon="7.0517">
        <ele>492.81</ele>
        <time>2021-10-20T14:06:51Z</time>
      </trkpt>
      <trkpt lat="47.84798" lon="7.05157">
        <ele>496.18</ele>
        <time>2021-10-20T14:07:00Z</time>
      </trkpt>
      <trkpt lat="47.8478" lon="7.05138">
        <ele>499.06</ele>
        <time>2021-10-20T14:07:10Z</time>
      </trkpt>
      <trkpt lat="47.84764" lon="7.05114">
        <ele>500.98</ele>
        <time>2021-10-20T14:07:18Z</time>
      </trkpt>
      <trkpt lat="47.84761" lon="7.05105">
        <ele>501.95</ele>
        <time>2021-10-20T14:07:20Z</time>
      </trkpt>
      <trkpt lat="47.84762" lon="7.05062">
        <ele>505.31</ele>
        <time>2021-10-20T14:07:32Z</time>
      </trkpt>
      <trkpt lat="47.84757" lon="7.05021">
        <ele>508.67</ele>
        <time>2021-10-20T14:07:42Z</time>
      </trkpt>
      <trkpt lat="47.84757" lon="7.05002">
        <ele>509.64</ele>
        <time>2021-10-20T14:07:46Z</time>
      </trkpt>
      <trkpt lat="47.8476" lon="7.0498">
        <ele>511.08</ele>
        <time>2021-10-20T14:07:51Z</time>
      </trkpt>
      <trkpt lat="47.84754" lon="7.04939">
        <ele>514.44</ele>
        <time>2021-10-20T14:08:02Z</time>
      </trkpt>
      <trkpt lat="47.84746" lon="7.04908">
        <ele>517.33</ele>
        <time>2021-10-20T14:08:11Z</time>
      </trkpt>
      <trkpt lat="47.84741" lon="7.04882">
        <ele>519.25</ele>
        <time>2021-10-20T14:08:18Z</time>
      </trkpt>
      <trkpt lat="47.84733" lon="7.04855">
        <ele>521.17</ele>
        <time>2021-10-20T14:08:25Z</time>
      </trkpt>
      <trkpt lat="47.84724" lon="7.04845">
        <ele>522.13</ele>
        <time>2021-10-20T14:08:29Z</time>
      </trkpt>
      <trkpt lat="47.84708" lon="7.04792">
        <ele>525.02</ele>
        <time>2021-10-20T14:08:41Z</time>
      </trkpt>
      <trkpt lat="47.84707" lon="7.04783">
        <ele>526.46</ele>
        <time>2021-10-20T14:08:44Z</time>
      </trkpt>
      <trkpt lat="47.84704" lon="7.04777">
        <ele>527.42</ele>
        <time>2021-10-20T14:08:49Z</time>
      </trkpt>
      <trkpt lat="47.84712" lon="7.0477">
        <ele>527.9</ele>
        <time>2021-10-20T14:08:53Z</time>
      </trkpt>
      <trkpt lat="47.84721" lon="7.04758">
        <ele>528.86</ele>
        <time>2021-10-20T14:08:56Z</time>
      </trkpt>
      <trkpt lat="47.84732" lon="7.04728">
        <ele>531.75</ele>
        <time>2021-10-20T14:09:05Z</time>
      </trkpt>
      <trkpt lat="47.84739" lon="7.04689">
        <ele>534.15</ele>
        <time>2021-10-20T14:09:16Z</time>
      </trkpt>
      <trkpt lat="47.84741" lon="7.04687">
        <ele>534.63</ele>
        <time>2021-10-20T14:09:17Z</time>
      </trkpt>
      <trkpt lat="47.84757" lon="7.04656">
        <ele>537.99</ele>
        <time>2021-10-20T14:09:26Z</time>
      </trkpt>
      <trkpt lat="47.8477" lon="7.04636">
        <ele>539.92</ele>
        <time>2021-10-20T14:09:33Z</time>
      </trkpt>
      <trkpt lat="47.84789" lon="7.04591">
        <ele>543.28</ele>
        <time>2021-10-20T14:09:43Z</time>
      </trkpt>
      <trkpt lat="47.84805" lon="7.0454">
        <ele>546.17</ele>
        <time>2021-10-20T14:09:55Z</time>
      </trkpt>
      <trkpt lat="47.84816" lon="7.0451">
        <ele>548.57</ele>
        <time>2021-10-20T14:10:05Z</time>
      </trkpt>
      <trkpt lat="47.84825" lon="7.04477">
        <ele>550.01</ele>
        <time>2021-10-20T14:10:16Z</time>
      </trkpt>
      <trkpt lat="47.84831" lon="7.04466">
        <ele>551.45</ele>
        <time>2021-10-20T14:10:26Z</time>
      </trkpt>
      <trkpt lat="47.84833" lon="7.04468">
        <ele>550.97</ele>
        <time>2021-10-20T14:10:31Z</time>
      </trkpt>
      <trkpt lat="47.84833" lon="7.04473">
        <ele>550.97</ele>
        <time>2021-10-20T14:10:33Z</time>
      </trkpt>
      <trkpt lat="47.84836" lon="7.04483">
        <ele>549.05</ele>
        <time>2021-10-20T14:10:41Z</time>
      </trkpt>
      <trkpt lat="47.84853" lon="7.04469">
        <ele>546.65</ele>
        <time>2021-10-20T14:10:53Z</time>
      </trkpt>
      <trkpt lat="47.84855" lon="7.04471">
        <ele>546.65</ele>
        <time>2021-10-20T14:11:21Z</time>
      </trkpt>
      <trkpt lat="47.84853" lon="7.04469">
        <ele>546.65</ele>
        <time>2021-10-20T14:11:37Z</time>
      </trkpt>
      <trkpt lat="47.84832" lon="7.04479">
        <ele>549.53</ele>
        <time>2021-10-20T14:11:48Z</time>
      </trkpt>
      <trkpt lat="47.84838" lon="7.04465">
        <ele>550.49</ele>
        <time>2021-10-20T14:11:53Z</time>
      </trkpt>
      <trkpt lat="47.84838" lon="7.04427">
        <ele>554.34</ele>
        <time>2021-10-20T14:12:03Z</time>
      </trkpt>
      <trkpt lat="47.8484" lon="7.04409">
        <ele>555.78</ele>
        <time>2021-10-20T14:12:08Z</time>
      </trkpt>
      <trkpt lat="47.84834" lon="7.04379">
        <ele>558.66</ele>
        <time>2021-10-20T14:12:16Z</time>
      </trkpt>
      <trkpt lat="47.84832" lon="7.04372">
        <ele>559.14</ele>
        <time>2021-10-20T14:12:18Z</time>
      </trkpt>
      <trkpt lat="47.84829" lon="7.04352">
        <ele>562.51</ele>
        <time>2021-10-20T14:12:27Z</time>
      </trkpt>
      <trkpt lat="47.84828" lon="7.04348">
        <ele>564.91</ele>
        <time>2021-10-20T14:12:40Z</time>
      </trkpt>
      <trkpt lat="47.84814" lon="7.04325">
        <ele>564.91</ele>
        <time>2021-10-20T14:12:58Z</time>
      </trkpt>
      <trkpt lat="47.84813" lon="7.04305">
        <ele>563.95</ele>
        <time>2021-10-20T14:13:28Z</time>
      </trkpt>
      <trkpt lat="47.84811" lon="7.04303">
        <ele>563.47</ele>
        <time>2021-10-20T14:14:02Z</time>
      </trkpt>
      <trkpt lat="47.84812" lon="7.04303">
        <ele>563.95</ele>
        <time>2021-10-20T14:14:32Z</time>
      </trkpt>
      <trkpt lat="47.84815" lon="7.04304">
        <ele>563.95</ele>
        <time>2021-10-20T14:15:00Z</time>
      </trkpt>
      <trkpt lat="47.84815" lon="7.04304">
        <ele>563.47</ele>
        <time>2021-10-20T14:15:29Z</time>
      </trkpt>
      <trkpt lat="47.84815" lon="7.04305">
        <ele>564.43</ele>
        <time>2021-10-20T14:15:57Z</time>
      </trkpt>
      <trkpt lat="47.84815" lon="7.04305">
        <ele>564.43</ele>
        <time>2021-10-20T14:16:28Z</time>
      </trkpt>
      <trkpt lat="47.84815" lon="7.04304">
        <ele>563.95</ele>
        <time>2021-10-20T14:17:01Z</time>
      </trkpt>
      <trkpt lat="47.84814" lon="7.043">
        <ele>564.43</ele>
        <time>2021-10-20T14:17:34Z</time>
      </trkpt>
      <trkpt lat="47.84813" lon="7.04299">
        <ele>563.95</ele>
        <time>2021-10-20T14:18:05Z</time>
      </trkpt>
      <trkpt lat="47.84816" lon="7.04301">
        <ele>564.43</ele>
        <time>2021-10-20T14:18:41Z</time>
      </trkpt>
      <trkpt lat="47.84817" lon="7.04302">
        <ele>564.43</ele>
        <time>2021-10-20T14:19:17Z</time>
      </trkpt>
      <trkpt lat="47.84818" lon="7.04302">
        <ele>564.91</ele>
        <time>2021-10-20T14:19:51Z</time>
      </trkpt>
      <trkpt lat="47.84814" lon="7.04298">
        <ele>564.91</ele>
        <time>2021-10-20T14:20:25Z</time>
      </trkpt>
      <trkpt lat="47.84814" lon="7.043">
        <ele>564.91</ele>
        <time>2021-10-20T14:21:00Z</time>
      </trkpt>
      <trkpt lat="47.84814" lon="7.043">
        <ele>564.91</ele>
        <time>2021-10-20T14:21:32Z</time>
      </trkpt>
      <trkpt lat="47.84815" lon="7.043">
        <ele>564.91</ele>
        <time>2021-10-20T14:22:00Z</time>
      </trkpt>
      <trkpt lat="47.84816" lon="7.04301">
        <ele>564.91</ele>
        <time>2021-10-20T14:22:29Z</time>
      </trkpt>
      <trkpt lat="47.84817" lon="7.043">
        <ele>565.39</ele>
        <time>2021-10-20T14:22:53Z</time>
      </trkpt>
      <trkpt lat="47.84815" lon="7.04301">
        <ele>565.39</ele>
        <time>2021-10-20T14:23:16Z</time>
      </trkpt>
      <trkpt lat="47.84815" lon="7.04301">
        <ele>565.39</ele>
        <time>2021-10-20T14:23:38Z</time>
      </trkpt>
      <trkpt lat="47.84817" lon="7.04299">
        <ele>565.39</ele>
        <time>2021-10-20T14:23:41Z</time>
      </trkpt>
      <trkpt lat="47.84812" lon="7.04294">
        <ele>565.87</ele>
        <time>2021-10-20T14:23:47Z</time>
      </trkpt>
      <trkpt lat="47.84808" lon="7.04279">
        <ele>567.32</ele>
        <time>2021-10-20T14:23:56Z</time>
      </trkpt>
      <trkpt lat="47.84807" lon="7.04267">
        <ele>567.8</ele>
        <time>2021-10-20T14:24:01Z</time>
      </trkpt>
      <trkpt lat="47.84801" lon="7.04233">
        <ele>569.72</ele>
        <time>2021-10-20T14:24:12Z</time>
      </trkpt>
      <trkpt lat="47.84803" lon="7.04224">
        <ele>570.2</ele>
        <time>2021-10-20T14:24:15Z</time>
      </trkpt>
      <trkpt lat="47.84818" lon="7.04199">
        <ele>571.64</ele>
        <time>2021-10-20T14:24:23Z</time>
      </trkpt>
      <trkpt lat="47.84836" lon="7.04148">
        <ele>572.6</ele>
        <time>2021-10-20T14:24:35Z</time>
      </trkpt>
      <trkpt lat="47.84842" lon="7.04096">
        <ele>574.04</ele>
        <time>2021-10-20T14:24:47Z</time>
      </trkpt>
      <trkpt lat="47.84841" lon="7.04048">
        <ele>575.49</ele>
        <time>2021-10-20T14:24:58Z</time>
      </trkpt>
      <trkpt lat="47.84839" lon="7.04035">
        <ele>575.97</ele>
        <time>2021-10-20T14:25:01Z</time>
      </trkpt>
      <trkpt lat="47.84825" lon="7.03991">
        <ele>578.37</ele>
        <time>2021-10-20T14:25:13Z</time>
      </trkpt>
      <trkpt lat="47.84807" lon="7.03964">
        <ele>580.29</ele>
        <time>2021-10-20T14:25:22Z</time>
      </trkpt>
      <trkpt lat="47.84804" lon="7.03962">
        <ele>580.77</ele>
        <time>2021-10-20T14:25:24Z</time>
      </trkpt>
      <trkpt lat="47.84768" lon="7.03938">
        <ele>582.22</ele>
        <time>2021-10-20T14:25:37Z</time>
      </trkpt>
      <trkpt lat="47.84734" lon="7.03906">
        <ele>583.66</ele>
        <time>2021-10-20T14:25:51Z</time>
      </trkpt>
      <trkpt lat="47.84702" lon="7.03869">
        <ele>585.58</ele>
        <time>2021-10-20T14:26:04Z</time>
      </trkpt>
      <trkpt lat="47.84679" lon="7.03853">
        <ele>587.02</ele>
        <time>2021-10-20T14:26:14Z</time>
      </trkpt>
      <trkpt lat="47.84654" lon="7.03851">
        <ele>590.39</ele>
        <time>2021-10-20T14:26:22Z</time>
      </trkpt>
      <trkpt lat="47.84629" lon="7.03845">
        <ele>592.79</ele>
        <time>2021-10-20T14:26:31Z</time>
      </trkpt>
      <trkpt lat="47.84602" lon="7.03839">
        <ele>595.19</ele>
        <time>2021-10-20T14:26:42Z</time>
      </trkpt>
      <trkpt lat="47.84588" lon="7.03829">
        <ele>598.08</ele>
        <time>2021-10-20T14:26:49Z</time>
      </trkpt>
      <trkpt lat="47.84571" lon="7.03818">
        <ele>601.44</ele>
        <time>2021-10-20T14:26:56Z</time>
      </trkpt>
      <trkpt lat="47.84552" lon="7.03808">
        <ele>604.81</ele>
        <time>2021-10-20T14:27:03Z</time>
      </trkpt>
      <trkpt lat="47.84547" lon="7.03805">
        <ele>605.29</ele>
        <time>2021-10-20T14:27:05Z</time>
      </trkpt>
      <trkpt lat="47.84529" lon="7.0379">
        <ele>608.17</ele>
        <time>2021-10-20T14:27:13Z</time>
      </trkpt>
      <trkpt lat="47.84519" lon="7.03773">
        <ele>609.61</ele>
        <time>2021-10-20T14:27:19Z</time>
      </trkpt>
      <trkpt lat="47.84506" lon="7.03751">
        <ele>611.54</ele>
        <time>2021-10-20T14:27:28Z</time>
      </trkpt>
      <trkpt lat="47.84514" lon="7.03735">
        <ele>613.46</ele>
        <time>2021-10-20T14:27:35Z</time>
      </trkpt>
      <trkpt lat="47.8452" lon="7.03721">
        <ele>613.94</ele>
        <time>2021-10-20T14:27:41Z</time>
      </trkpt>
      <trkpt lat="47.84521" lon="7.03705">
        <ele>614.9</ele>
        <time>2021-10-20T14:27:46Z</time>
      </trkpt>
      <trkpt lat="47.84524" lon="7.03694">
        <ele>616.34</ele>
        <time>2021-10-20T14:27:52Z</time>
      </trkpt>
      <trkpt lat="47.84525" lon="7.03684">
        <ele>616.82</ele>
        <time>2021-10-20T14:27:56Z</time>
      </trkpt>
      <trkpt lat="47.84531" lon="7.03675">
        <ele>617.3</ele>
        <time>2021-10-20T14:28:00Z</time>
      </trkpt>
      <trkpt lat="47.84564" lon="7.03634">
        <ele>619.23</ele>
        <time>2021-10-20T14:28:11Z</time>
      </trkpt>
      <trkpt lat="47.84609" lon="7.03576">
        <ele>622.59</ele>
        <time>2021-10-20T14:28:23Z</time>
      </trkpt>
      <trkpt lat="47.84619" lon="7.03546">
        <ele>624.03</ele>
        <time>2021-10-20T14:28:30Z</time>
      </trkpt>
      <trkpt lat="47.84619" lon="7.03541">
        <ele>624.51</ele>
        <time>2021-10-20T14:28:32Z</time>
      </trkpt>
      <trkpt lat="47.84635" lon="7.03495">
        <ele>626.44</ele>
        <time>2021-10-20T14:28:42Z</time>
      </trkpt>
      <trkpt lat="47.84648" lon="7.0344">
        <ele>628.36</ele>
        <time>2021-10-20T14:28:53Z</time>
      </trkpt>
      <trkpt lat="47.84667" lon="7.03399">
        <ele>629.8</ele>
        <time>2021-10-20T14:29:02Z</time>
      </trkpt>
      <trkpt lat="47.84692" lon="7.03354">
        <ele>631.72</ele>
        <time>2021-10-20T14:29:14Z</time>
      </trkpt>
      <trkpt lat="47.8469" lon="7.0334">
        <ele>632.2</ele>
        <time>2021-10-20T14:29:17Z</time>
      </trkpt>
      <trkpt lat="47.84666" lon="7.03303">
        <ele>633.17</ele>
        <time>2021-10-20T14:29:28Z</time>
      </trkpt>
      <trkpt lat="47.84639" lon="7.03298">
        <ele>634.13</ele>
        <time>2021-10-20T14:29:38Z</time>
      </trkpt>
      <trkpt lat="47.84612" lon="7.03299">
        <ele>635.57</ele>
        <time>2021-10-20T14:29:48Z</time>
      </trkpt>
      <trkpt lat="47.84576" lon="7.03315">
        <ele>636.53</ele>
        <time>2021-10-20T14:29:59Z</time>
      </trkpt>
      <trkpt lat="47.84538" lon="7.03336">
        <ele>637.49</ele>
        <time>2021-10-20T14:30:10Z</time>
      </trkpt>
      <trkpt lat="47.84502" lon="7.03367">
        <ele>638.93</ele>
        <time>2021-10-20T14:30:21Z</time>
      </trkpt>
      <trkpt lat="47.84462" lon="7.03394">
        <ele>639.89</ele>
        <time>2021-10-20T14:30:32Z</time>
      </trkpt>
      <trkpt lat="47.84424" lon="7.03395">
        <ele>641.82</ele>
        <time>2021-10-20T14:30:42Z</time>
      </trkpt>
      <trkpt lat="47.84412" lon="7.03397">
        <ele>642.3</ele>
        <time>2021-10-20T14:30:45Z</time>
      </trkpt>
      <trkpt lat="47.84369" lon="7.03405">
        <ele>643.26</ele>
        <time>2021-10-20T14:30:56Z</time>
      </trkpt>
      <trkpt lat="47.84321" lon="7.034">
        <ele>645.18</ele>
        <time>2021-10-20T14:31:08Z</time>
      </trkpt>
      <trkpt lat="47.84282" lon="7.03377">
        <ele>647.1</ele>
        <time>2021-10-20T14:31:19Z</time>
      </trkpt>
      <trkpt lat="47.8426" lon="7.0335">
        <ele>649.51</ele>
        <time>2021-10-20T14:31:28Z</time>
      </trkpt>
      <trkpt lat="47.84245" lon="7.03314">
        <ele>650.95</ele>
        <time>2021-10-20T14:31:38Z</time>
      </trkpt>
      <trkpt lat="47.84244" lon="7.03309">
        <ele>650.47</ele>
        <time>2021-10-20T14:31:39Z</time>
      </trkpt>
      <trkpt lat="47.84243" lon="7.03304">
        <ele>650.95</ele>
        <time>2021-10-20T14:31:40Z</time>
      </trkpt>
      <trkpt lat="47.84242" lon="7.03299">
        <ele>650.95</ele>
        <time>2021-10-20T14:31:41Z</time>
      </trkpt>
      <trkpt lat="47.84248" lon="7.03235">
        <ele>652.39</ele>
        <time>2021-10-20T14:31:52Z</time>
      </trkpt>
      <trkpt lat="47.84268" lon="7.03151">
        <ele>654.8</ele>
        <time>2021-10-20T14:32:06Z</time>
      </trkpt>
      <trkpt lat="47.84267" lon="7.03143">
        <ele>654.8</ele>
        <time>2021-10-20T14:32:07Z</time>
      </trkpt>
      <trkpt lat="47.84262" lon="7.03117">
        <ele>654.8</ele>
        <time>2021-10-20T14:32:11Z</time>
      </trkpt>
      <trkpt lat="47.84261" lon="7.03112">
        <ele>654.31</ele>
        <time>2021-10-20T14:32:12Z</time>
      </trkpt>
      <trkpt lat="47.84257" lon="7.03089">
        <ele>654.31</ele>
        <time>2021-10-20T14:32:16Z</time>
      </trkpt>
      <trkpt lat="47.84254" lon="7.03083">
        <ele>653.83</ele>
        <time>2021-10-20T14:32:17Z</time>
      </trkpt>
      <trkpt lat="47.8425" lon="7.03077">
        <ele>654.31</ele>
        <time>2021-10-20T14:32:18Z</time>
      </trkpt>
      <trkpt lat="47.84247" lon="7.03071">
        <ele>654.31</ele>
        <time>2021-10-20T14:32:19Z</time>
      </trkpt>
      <trkpt lat="47.84244" lon="7.03066">
        <ele>654.31</ele>
        <time>2021-10-20T14:32:20Z</time>
      </trkpt>
      <trkpt lat="47.84232" lon="7.03039">
        <ele>654.31</ele>
        <time>2021-10-20T14:32:25Z</time>
      </trkpt>
      <trkpt lat="47.8423" lon="7.03034">
        <ele>654.31</ele>
        <time>2021-10-20T14:32:26Z</time>
      </trkpt>
      <trkpt lat="47.84228" lon="7.03028">
        <ele>654.31</ele>
        <time>2021-10-20T14:32:27Z</time>
      </trkpt>
      <trkpt lat="47.84226" lon="7.03022">
        <ele>654.31</ele>
        <time>2021-10-20T14:32:28Z</time>
      </trkpt>
      <trkpt lat="47.84224" lon="7.03017">
        <ele>654.31</ele>
        <time>2021-10-20T14:32:29Z</time>
      </trkpt>
      <trkpt lat="47.84205" lon="7.02961">
        <ele>655.76</ele>
        <time>2021-10-20T14:32:40Z</time>
      </trkpt>
      <trkpt lat="47.84206" lon="7.02904">
        <ele>657.2</ele>
        <time>2021-10-20T14:32:49Z</time>
      </trkpt>
      <trkpt lat="47.84217" lon="7.0286">
        <ele>658.64</ele>
        <time>2021-10-20T14:32:59Z</time>
      </trkpt>
      <trkpt lat="47.84212" lon="7.02838">
        <ele>659.6</ele>
        <time>2021-10-20T14:33:04Z</time>
      </trkpt>
      <trkpt lat="47.8421" lon="7.02835">
        <ele>660.08</ele>
        <time>2021-10-20T14:33:05Z</time>
      </trkpt>
      <trkpt lat="47.84208" lon="7.02833">
        <ele>660.08</ele>
        <time>2021-10-20T14:33:06Z</time>
      </trkpt>
      <trkpt lat="47.84204" lon="7.02831">
        <ele>660.56</ele>
        <time>2021-10-20T14:33:07Z</time>
      </trkpt>
      <trkpt lat="47.84201" lon="7.0283">
        <ele>660.56</ele>
        <time>2021-10-20T14:33:08Z</time>
      </trkpt>
      <trkpt lat="47.84198" lon="7.0283">
        <ele>660.56</ele>
        <time>2021-10-20T14:33:09Z</time>
      </trkpt>
      <trkpt lat="47.84194" lon="7.02832">
        <ele>661.04</ele>
        <time>2021-10-20T14:33:11Z</time>
      </trkpt>
      <trkpt lat="47.84192" lon="7.02834">
        <ele>661.52</ele>
        <time>2021-10-20T14:33:12Z</time>
      </trkpt>
      <trkpt lat="47.8419" lon="7.02836">
        <ele>662.01</ele>
        <time>2021-10-20T14:33:13Z</time>
      </trkpt>
      <trkpt lat="47.84188" lon="7.02839">
        <ele>662.49</ele>
        <time>2021-10-20T14:33:14Z</time>
      </trkpt>
      <trkpt lat="47.84186" lon="7.02841">
        <ele>662.49</ele>
        <time>2021-10-20T14:33:15Z</time>
      </trkpt>
      <trkpt lat="47.84185" lon="7.02844">
        <ele>662.97</ele>
        <time>2021-10-20T14:33:16Z</time>
      </trkpt>
      <trkpt lat="47.84183" lon="7.02847">
        <ele>662.97</ele>
        <time>2021-10-20T14:33:17Z</time>
      </trkpt>
      <trkpt lat="47.84181" lon="7.02851">
        <ele>663.45</ele>
        <time>2021-10-20T14:33:18Z</time>
      </trkpt>
      <trkpt lat="47.84179" lon="7.02854">
        <ele>663.45</ele>
        <time>2021-10-20T14:33:19Z</time>
      </trkpt>
      <trkpt lat="47.84177" lon="7.02858">
        <ele>663.93</ele>
        <time>2021-10-20T14:33:20Z</time>
      </trkpt>
      <trkpt lat="47.84175" lon="7.0286">
        <ele>664.41</ele>
        <time>2021-10-20T14:33:21Z</time>
      </trkpt>
      <trkpt lat="47.84173" lon="7.02862">
        <ele>664.41</ele>
        <time>2021-10-20T14:33:22Z</time>
      </trkpt>
      <trkpt lat="47.84172" lon="7.02865">
        <ele>664.89</ele>
        <time>2021-10-20T14:33:23Z</time>
      </trkpt>
      <trkpt lat="47.8417" lon="7.02869">
        <ele>664.89</ele>
        <time>2021-10-20T14:33:24Z</time>
      </trkpt>
      <trkpt lat="47.84155" lon="7.02898">
        <ele>667.77</ele>
        <time>2021-10-20T14:33:32Z</time>
      </trkpt>
      <trkpt lat="47.84148" lon="7.02916">
        <ele>669.7</ele>
        <time>2021-10-20T14:33:37Z</time>
      </trkpt>
      <trkpt lat="47.84148" lon="7.02919">
        <ele>670.18</ele>
        <time>2021-10-20T14:33:38Z</time>
      </trkpt>
      <trkpt lat="47.84147" lon="7.02922">
        <ele>670.18</ele>
        <time>2021-10-20T14:33:39Z</time>
      </trkpt>
      <trkpt lat="47.84146" lon="7.02926">
        <ele>670.66</ele>
        <time>2021-10-20T14:33:40Z</time>
      </trkpt>
      <trkpt lat="47.84145" lon="7.02929">
        <ele>671.14</ele>
        <time>2021-10-20T14:33:41Z</time>
      </trkpt>
      <trkpt lat="47.84143" lon="7.02933">
        <ele>671.14</ele>
        <time>2021-10-20T14:33:42Z</time>
      </trkpt>
      <trkpt lat="47.84142" lon="7.02937">
        <ele>671.62</ele>
        <time>2021-10-20T14:33:43Z</time>
      </trkpt>
      <trkpt lat="47.84141" lon="7.0294">
        <ele>672.1</ele>
        <time>2021-10-20T14:33:44Z</time>
      </trkpt>
      <trkpt lat="47.8414" lon="7.02944">
        <ele>672.1</ele>
        <time>2021-10-20T14:33:45Z</time>
      </trkpt>
      <trkpt lat="47.84139" lon="7.02947">
        <ele>672.58</ele>
        <time>2021-10-20T14:33:46Z</time>
      </trkpt>
      <trkpt lat="47.84138" lon="7.02951">
        <ele>672.58</ele>
        <time>2021-10-20T14:33:47Z</time>
      </trkpt>
      <trkpt lat="47.84137" lon="7.02954">
        <ele>673.06</ele>
        <time>2021-10-20T14:33:48Z</time>
      </trkpt>
      <trkpt lat="47.84135" lon="7.02957">
        <ele>673.06</ele>
        <time>2021-10-20T14:33:49Z</time>
      </trkpt>
      <trkpt lat="47.84133" lon="7.02962">
        <ele>673.54</ele>
        <time>2021-10-20T14:33:50Z</time>
      </trkpt>
      <trkpt lat="47.84118" lon="7.02988">
        <ele>676.42</ele>
        <time>2021-10-20T14:33:59Z</time>
      </trkpt>
      <trkpt lat="47.84101" lon="7.03006">
        <ele>679.79</ele>
        <time>2021-10-20T14:34:09Z</time>
      </trkpt>
      <trkpt lat="47.84086" lon="7.03022">
        <ele>683.15</ele>
        <time>2021-10-20T14:34:17Z</time>
      </trkpt>
      <trkpt lat="47.84062" lon="7.03047">
        <ele>686.04</ele>
        <time>2021-10-20T14:34:31Z</time>
      </trkpt>
      <trkpt lat="47.84061" lon="7.03048">
        <ele>686.52</ele>
        <time>2021-10-20T14:34:32Z</time>
      </trkpt>
      <trkpt lat="47.84059" lon="7.03049">
        <ele>686.52</ele>
        <time>2021-10-20T14:34:33Z</time>
      </trkpt>
      <trkpt lat="47.84057" lon="7.03049">
        <ele>687</ele>
        <time>2021-10-20T14:34:34Z</time>
      </trkpt>
      <trkpt lat="47.84055" lon="7.03049">
        <ele>687</ele>
        <time>2021-10-20T14:34:35Z</time>
      </trkpt>
      <trkpt lat="47.84053" lon="7.0305">
        <ele>687.48</ele>
        <time>2021-10-20T14:34:36Z</time>
      </trkpt>
      <trkpt lat="47.84048" lon="7.03052">
        <ele>687.96</ele>
        <time>2021-10-20T14:34:51Z</time>
      </trkpt>
      <trkpt lat="47.84048" lon="7.03052">
        <ele>687.48</ele>
        <time>2021-10-20T14:35:11Z</time>
      </trkpt>
      <trkpt lat="47.84041" lon="7.03047">
        <ele>687.48</ele>
        <time>2021-10-20T14:35:31Z</time>
      </trkpt>
      <trkpt lat="47.84015" lon="7.03019">
        <ele>689.88</ele>
        <time>2021-10-20T14:35:44Z</time>
      </trkpt>
      <trkpt lat="47.83984" lon="7.03009">
        <ele>691.33</ele>
        <time>2021-10-20T14:35:54Z</time>
      </trkpt>
      <trkpt lat="47.83949" lon="7.02994">
        <ele>693.73</ele>
        <time>2021-10-20T14:36:06Z</time>
      </trkpt>
      <trkpt lat="47.83919" lon="7.03003">
        <ele>696.61</ele>
        <time>2021-10-20T14:36:16Z</time>
      </trkpt>
      <trkpt lat="47.83915" lon="7.03008">
        <ele>697.09</ele>
        <time>2021-10-20T14:36:18Z</time>
      </trkpt>
      <trkpt lat="47.83892" lon="7.03039">
        <ele>698.05</ele>
        <time>2021-10-20T14:36:28Z</time>
      </trkpt>
      <trkpt lat="47.83862" lon="7.03019">
        <ele>701.42</ele>
        <time>2021-10-20T14:36:37Z</time>
      </trkpt>
      <trkpt lat="47.83831" lon="7.02984">
        <ele>704.3</ele>
        <time>2021-10-20T14:36:48Z</time>
      </trkpt>
      <trkpt lat="47.83803" lon="7.02938">
        <ele>706.23</ele>
        <time>2021-10-20T14:36:59Z</time>
      </trkpt>
      <trkpt lat="47.8378" lon="7.02892">
        <ele>708.63</ele>
        <time>2021-10-20T14:37:11Z</time>
      </trkpt>
      <trkpt lat="47.8377" lon="7.02879">
        <ele>709.59</ele>
        <time>2021-10-20T14:37:17Z</time>
      </trkpt>
      <trkpt lat="47.83761" lon="7.02851">
        <ele>712.47</ele>
        <time>2021-10-20T14:37:25Z</time>
      </trkpt>
      <trkpt lat="47.8376" lon="7.02848">
        <ele>712.95</ele>
        <time>2021-10-20T14:37:26Z</time>
      </trkpt>
      <trkpt lat="47.83759" lon="7.02844">
        <ele>713.44</ele>
        <time>2021-10-20T14:37:27Z</time>
      </trkpt>
      <trkpt lat="47.83757" lon="7.0284">
        <ele>713.44</ele>
        <time>2021-10-20T14:37:28Z</time>
      </trkpt>
      <trkpt lat="47.83756" lon="7.02836">
        <ele>713.92</ele>
        <time>2021-10-20T14:37:29Z</time>
      </trkpt>
      <trkpt lat="47.83754" lon="7.02832">
        <ele>713.92</ele>
        <time>2021-10-20T14:37:30Z</time>
      </trkpt>
      <trkpt lat="47.83753" lon="7.02829">
        <ele>714.4</ele>
        <time>2021-10-20T14:37:31Z</time>
      </trkpt>
      <trkpt lat="47.83732" lon="7.02806">
        <ele>716.8</ele>
        <time>2021-10-20T14:37:42Z</time>
      </trkpt>
      <trkpt lat="47.83721" lon="7.02806">
        <ele>718.72</ele>
        <time>2021-10-20T14:37:47Z</time>
      </trkpt>
      <trkpt lat="47.83719" lon="7.02806">
        <ele>719.2</ele>
        <time>2021-10-20T14:37:48Z</time>
      </trkpt>
      <trkpt lat="47.83703" lon="7.02807">
        <ele>721.61</ele>
        <time>2021-10-20T14:37:55Z</time>
      </trkpt>
      <trkpt lat="47.83678" lon="7.02806">
        <ele>724.97</ele>
        <time>2021-10-20T14:38:05Z</time>
      </trkpt>
      <trkpt lat="47.8366" lon="7.02811">
        <ele>727.37</ele>
        <time>2021-10-20T14:38:12Z</time>
      </trkpt>
      <trkpt lat="47.83658" lon="7.02813">
        <ele>727.86</ele>
        <time>2021-10-20T14:38:13Z</time>
      </trkpt>
      <trkpt lat="47.83655" lon="7.02813">
        <ele>727.86</ele>
        <time>2021-10-20T14:38:14Z</time>
      </trkpt>
      <trkpt lat="47.83652" lon="7.02814">
        <ele>728.34</ele>
        <time>2021-10-20T14:38:15Z</time>
      </trkpt>
      <trkpt lat="47.8365" lon="7.02815">
        <ele>728.82</ele>
        <time>2021-10-20T14:38:16Z</time>
      </trkpt>
      <trkpt lat="47.83647" lon="7.02816">
        <ele>728.82</ele>
        <time>2021-10-20T14:38:17Z</time>
      </trkpt>
      <trkpt lat="47.83645" lon="7.02818">
        <ele>729.3</ele>
        <time>2021-10-20T14:38:18Z</time>
      </trkpt>
      <trkpt lat="47.83643" lon="7.02819">
        <ele>729.78</ele>
        <time>2021-10-20T14:38:19Z</time>
      </trkpt>
      <trkpt lat="47.83623" lon="7.02834">
        <ele>732.66</ele>
        <time>2021-10-20T14:38:28Z</time>
      </trkpt>
      <trkpt lat="47.83615" lon="7.02843">
        <ele>734.1</ele>
        <time>2021-10-20T14:38:33Z</time>
      </trkpt>
      <trkpt lat="47.83613" lon="7.02845">
        <ele>734.58</ele>
        <time>2021-10-20T14:38:34Z</time>
      </trkpt>
      <trkpt lat="47.83611" lon="7.02847">
        <ele>735.07</ele>
        <time>2021-10-20T14:38:35Z</time>
      </trkpt>
      <trkpt lat="47.83609" lon="7.0285">
        <ele>735.07</ele>
        <time>2021-10-20T14:38:36Z</time>
      </trkpt>
      <trkpt lat="47.83607" lon="7.02852">
        <ele>736.03</ele>
        <time>2021-10-20T14:38:37Z</time>
      </trkpt>
      <trkpt lat="47.83604" lon="7.02854">
        <ele>736.51</ele>
        <time>2021-10-20T14:38:38Z</time>
      </trkpt>
      <trkpt lat="47.83602" lon="7.02856">
        <ele>736.51</ele>
        <time>2021-10-20T14:38:39Z</time>
      </trkpt>
      <trkpt lat="47.83586" lon="7.02863">
        <ele>739.87</ele>
        <time>2021-10-20T14:38:47Z</time>
      </trkpt>
      <trkpt lat="47.83566" lon="7.02858">
        <ele>742.28</ele>
        <time>2021-10-20T14:38:54Z</time>
      </trkpt>
      <trkpt lat="47.83563" lon="7.02853">
        <ele>743.24</ele>
        <time>2021-10-20T14:38:56Z</time>
      </trkpt>
      <trkpt lat="47.83562" lon="7.0285">
        <ele>743.72</ele>
        <time>2021-10-20T14:38:57Z</time>
      </trkpt>
      <trkpt lat="47.83561" lon="7.02847">
        <ele>744.2</ele>
        <time>2021-10-20T14:38:58Z</time>
      </trkpt>
      <trkpt lat="47.83559" lon="7.02844">
        <ele>744.68</ele>
        <time>2021-10-20T14:38:59Z</time>
      </trkpt>
      <trkpt lat="47.83558" lon="7.02841">
        <ele>746.6</ele>
        <time>2021-10-20T14:39:00Z</time>
      </trkpt>
      <trkpt lat="47.83557" lon="7.02839">
        <ele>749</ele>
        <time>2021-10-20T14:39:01Z</time>
      </trkpt>
      <trkpt lat="47.83555" lon="7.02837">
        <ele>748.52</ele>
        <time>2021-10-20T14:39:02Z</time>
      </trkpt>
      <trkpt lat="47.8355" lon="7.0283">
        <ele>748.52</ele>
        <time>2021-10-20T14:39:05Z</time>
      </trkpt>
      <trkpt lat="47.83548" lon="7.02827">
        <ele>749</ele>
        <time>2021-10-20T14:39:06Z</time>
      </trkpt>
      <trkpt lat="47.83547" lon="7.02825">
        <ele>749</ele>
        <time>2021-10-20T14:39:07Z</time>
      </trkpt>
      <trkpt lat="47.83546" lon="7.02823">
        <ele>749.49</ele>
        <time>2021-10-20T14:39:08Z</time>
      </trkpt>
      <trkpt lat="47.83544" lon="7.02821">
        <ele>749.97</ele>
        <time>2021-10-20T14:39:09Z</time>
      </trkpt>
      <trkpt lat="47.83542" lon="7.0282">
        <ele>749.97</ele>
        <time>2021-10-20T14:39:10Z</time>
      </trkpt>
      <trkpt lat="47.8354" lon="7.02818">
        <ele>750.45</ele>
        <time>2021-10-20T14:39:11Z</time>
      </trkpt>
      <trkpt lat="47.83538" lon="7.02816">
        <ele>750.45</ele>
        <time>2021-10-20T14:39:12Z</time>
      </trkpt>
      <trkpt lat="47.83536" lon="7.02813">
        <ele>750.93</ele>
        <time>2021-10-20T14:39:13Z</time>
      </trkpt>
      <trkpt lat="47.83532" lon="7.02808">
        <ele>752.37</ele>
        <time>2021-10-20T14:39:18Z</time>
      </trkpt>
      <trkpt lat="47.83527" lon="7.02805">
        <ele>752.85</ele>
        <time>2021-10-20T14:39:20Z</time>
      </trkpt>
      <trkpt lat="47.83525" lon="7.02804">
        <ele>752.85</ele>
        <time>2021-10-20T14:39:21Z</time>
      </trkpt>
      <trkpt lat="47.83523" lon="7.02803">
        <ele>753.33</ele>
        <time>2021-10-20T14:39:22Z</time>
      </trkpt>
      <trkpt lat="47.83512" lon="7.02798">
        <ele>755.25</ele>
        <time>2021-10-20T14:39:27Z</time>
      </trkpt>
      <trkpt lat="47.83509" lon="7.02795">
        <ele>756.21</ele>
        <time>2021-10-20T14:39:29Z</time>
      </trkpt>
      <trkpt lat="47.83507" lon="7.02793">
        <ele>756.21</ele>
        <time>2021-10-20T14:39:30Z</time>
      </trkpt>
      <trkpt lat="47.83488" lon="7.02779">
        <ele>759.58</ele>
        <time>2021-10-20T14:39:40Z</time>
      </trkpt>
      <trkpt lat="47.83458" lon="7.02764">
        <ele>762.46</ele>
        <time>2021-10-20T14:39:50Z</time>
      </trkpt>
      <trkpt lat="47.83441" lon="7.02756">
        <ele>765.35</ele>
        <time>2021-10-20T14:40:00Z</time>
      </trkpt>
      <trkpt lat="47.83431" lon="7.02752">
        <ele>766.79</ele>
        <time>2021-10-20T14:40:04Z</time>
      </trkpt>
      <trkpt lat="47.8343" lon="7.0275">
        <ele>767.75</ele>
        <time>2021-10-20T14:40:05Z</time>
      </trkpt>
      <trkpt lat="47.83414" lon="7.02718">
        <ele>770.63</ele>
        <time>2021-10-20T14:40:12Z</time>
      </trkpt>
      <trkpt lat="47.83411" lon="7.02699">
        <ele>772.08</ele>
        <time>2021-10-20T14:40:17Z</time>
      </trkpt>
      <trkpt lat="47.83413" lon="7.02697">
        <ele>772.56</ele>
        <time>2021-10-20T14:40:18Z</time>
      </trkpt>
      <trkpt lat="47.83418" lon="7.02692">
        <ele>774</ele>
        <time>2021-10-20T14:40:23Z</time>
      </trkpt>
      <trkpt lat="47.83394" lon="7.02661">
        <ele>774.96</ele>
        <time>2021-10-20T14:40:29Z</time>
      </trkpt>
      <trkpt lat="47.83381" lon="7.02662">
        <ele>775.92</ele>
        <time>2021-10-20T14:40:42Z</time>
      </trkpt>
      <trkpt lat="47.83382" lon="7.02662">
        <ele>775.92</ele>
        <time>2021-10-20T14:41:07Z</time>
      </trkpt>
      <trkpt lat="47.83384" lon="7.02662">
        <ele>775.92</ele>
        <time>2021-10-20T14:41:14Z</time>
      </trkpt>
      <trkpt lat="47.83385" lon="7.02675">
        <ele>777.36</ele>
        <time>2021-10-20T14:41:22Z</time>
      </trkpt>
      <trkpt lat="47.83382" lon="7.02694">
        <ele>779.29</ele>
        <time>2021-10-20T14:41:29Z</time>
      </trkpt>
      <trkpt lat="47.8338" lon="7.02707">
        <ele>780.73</ele>
        <time>2021-10-20T14:41:35Z</time>
      </trkpt>
      <trkpt lat="47.83381" lon="7.02714">
        <ele>781.21</ele>
        <time>2021-10-20T14:41:37Z</time>
      </trkpt>
      <trkpt lat="47.83377" lon="7.02732">
        <ele>782.65</ele>
        <time>2021-10-20T14:41:42Z</time>
      </trkpt>
      <trkpt lat="47.83382" lon="7.02748">
        <ele>784.09</ele>
        <time>2021-10-20T14:41:46Z</time>
      </trkpt>
      <trkpt lat="47.83383" lon="7.02756">
        <ele>785.05</ele>
        <time>2021-10-20T14:41:49Z</time>
      </trkpt>
      <trkpt lat="47.83378" lon="7.02786">
        <ele>787.46</ele>
        <time>2021-10-20T14:41:59Z</time>
      </trkpt>
      <trkpt lat="47.83386" lon="7.02802">
        <ele>788.9</ele>
        <time>2021-10-20T14:42:04Z</time>
      </trkpt>
      <trkpt lat="47.83389" lon="7.02809">
        <ele>789.86</ele>
        <time>2021-10-20T14:42:07Z</time>
      </trkpt>
      <trkpt lat="47.834" lon="7.02827">
        <ele>791.78</ele>
        <time>2021-10-20T14:42:12Z</time>
      </trkpt>
      <trkpt lat="47.83414" lon="7.02849">
        <ele>793.71</ele>
        <time>2021-10-20T14:42:18Z</time>
      </trkpt>
      <trkpt lat="47.83427" lon="7.0287">
        <ele>795.63</ele>
        <time>2021-10-20T14:42:25Z</time>
      </trkpt>
      <trkpt lat="47.83435" lon="7.02881">
        <ele>797.07</ele>
        <time>2021-10-20T14:42:30Z</time>
      </trkpt>
      <trkpt lat="47.83447" lon="7.02897">
        <ele>798.51</ele>
        <time>2021-10-20T14:42:35Z</time>
      </trkpt>
      <trkpt lat="47.8345" lon="7.02907">
        <ele>799.47</ele>
        <time>2021-10-20T14:42:37Z</time>
      </trkpt>
      <trkpt lat="47.8345" lon="7.02926">
        <ele>801.4</ele>
        <time>2021-10-20T14:42:44Z</time>
      </trkpt>
      <trkpt lat="47.8346" lon="7.02969">
        <ele>803.8</ele>
        <time>2021-10-20T14:42:55Z</time>
      </trkpt>
      <trkpt lat="47.83463" lon="7.03009">
        <ele>807.64</ele>
        <time>2021-10-20T14:43:04Z</time>
      </trkpt>
      <trkpt lat="47.83455" lon="7.03036">
        <ele>810.53</ele>
        <time>2021-10-20T14:43:13Z</time>
      </trkpt>
      <trkpt lat="47.83442" lon="7.03054">
        <ele>813.41</ele>
        <time>2021-10-20T14:43:21Z</time>
      </trkpt>
      <trkpt lat="47.83422" lon="7.03066">
        <ele>811.01</ele>
        <time>2021-10-20T14:43:27Z</time>
      </trkpt>
      <trkpt lat="47.83402" lon="7.03073">
        <ele>808.13</ele>
        <time>2021-10-20T14:43:31Z</time>
      </trkpt>
      <trkpt lat="47.83379" lon="7.03082">
        <ele>804.76</ele>
        <time>2021-10-20T14:43:36Z</time>
      </trkpt>
      <trkpt lat="47.83374" lon="7.03084">
        <ele>803.8</ele>
        <time>2021-10-20T14:43:37Z</time>
      </trkpt>
      <trkpt lat="47.83369" lon="7.03086">
        <ele>803.32</ele>
        <time>2021-10-20T14:43:38Z</time>
      </trkpt>
      <trkpt lat="47.83358" lon="7.0309">
        <ele>801.88</ele>
        <time>2021-10-20T14:43:40Z</time>
      </trkpt>
      <trkpt lat="47.83348" lon="7.03096">
        <ele>799.95</ele>
        <time>2021-10-20T14:43:42Z</time>
      </trkpt>
      <trkpt lat="47.83337" lon="7.03104">
        <ele>798.03</ele>
        <time>2021-10-20T14:43:44Z</time>
      </trkpt>
      <trkpt lat="47.83327" lon="7.03113">
        <ele>796.11</ele>
        <time>2021-10-20T14:43:46Z</time>
      </trkpt>
      <trkpt lat="47.83321" lon="7.03115">
        <ele>795.15</ele>
        <time>2021-10-20T14:43:47Z</time>
      </trkpt>
      <trkpt lat="47.83316" lon="7.03118">
        <ele>794.19</ele>
        <time>2021-10-20T14:43:48Z</time>
      </trkpt>
      <trkpt lat="47.83309" lon="7.03121">
        <ele>793.22</ele>
        <time>2021-10-20T14:43:49Z</time>
      </trkpt>
      <trkpt lat="47.83291" lon="7.03135">
        <ele>790.34</ele>
        <time>2021-10-20T14:43:52Z</time>
      </trkpt>
      <trkpt lat="47.83272" lon="7.03157">
        <ele>786.98</ele>
        <time>2021-10-20T14:43:55Z</time>
      </trkpt>
      <trkpt lat="47.83249" lon="7.03187">
        <ele>784.09</ele>
        <time>2021-10-20T14:43:59Z</time>
      </trkpt>
      <trkpt lat="47.8323" lon="7.03216">
        <ele>779.77</ele>
        <time>2021-10-20T14:44:02Z</time>
      </trkpt>
      <trkpt lat="47.83207" lon="7.03253">
        <ele>776.4</ele>
        <time>2021-10-20T14:44:06Z</time>
      </trkpt>
      <trkpt lat="47.83204" lon="7.03264">
        <ele>775.44</ele>
        <time>2021-10-20T14:44:07Z</time>
      </trkpt>
      <trkpt lat="47.83202" lon="7.03275">
        <ele>774.48</ele>
        <time>2021-10-20T14:44:08Z</time>
      </trkpt>
      <trkpt lat="47.83202" lon="7.03323">
        <ele>771.6</ele>
        <time>2021-10-20T14:44:12Z</time>
      </trkpt>
      <trkpt lat="47.8321" lon="7.03367">
        <ele>767.27</ele>
        <time>2021-10-20T14:44:16Z</time>
      </trkpt>
      <trkpt lat="47.8322" lon="7.03414">
        <ele>763.9</ele>
        <time>2021-10-20T14:44:20Z</time>
      </trkpt>
      <trkpt lat="47.83234" lon="7.03455">
        <ele>760.06</ele>
        <time>2021-10-20T14:44:24Z</time>
      </trkpt>
      <trkpt lat="47.8324" lon="7.03483">
        <ele>756.21</ele>
        <time>2021-10-20T14:44:27Z</time>
      </trkpt>
      <trkpt lat="47.83242" lon="7.03491">
        <ele>756.21</ele>
        <time>2021-10-20T14:44:28Z</time>
      </trkpt>
      <trkpt lat="47.83247" lon="7.03508">
        <ele>754.29</ele>
        <time>2021-10-20T14:44:30Z</time>
      </trkpt>
      <trkpt lat="47.8325" lon="7.03517">
        <ele>753.33</ele>
        <time>2021-10-20T14:44:31Z</time>
      </trkpt>
      <trkpt lat="47.83253" lon="7.03525">
        <ele>752.85</ele>
        <time>2021-10-20T14:44:32Z</time>
      </trkpt>
      <trkpt lat="47.83266" lon="7.03561">
        <ele>749.49</ele>
        <time>2021-10-20T14:44:36Z</time>
      </trkpt>
      <trkpt lat="47.83282" lon="7.03601">
        <ele>746.12</ele>
        <time>2021-10-20T14:44:40Z</time>
      </trkpt>
      <trkpt lat="47.83286" lon="7.03611">
        <ele>745.16</ele>
        <time>2021-10-20T14:44:41Z</time>
      </trkpt>
      <trkpt lat="47.83289" lon="7.03633">
        <ele>743.24</ele>
        <time>2021-10-20T14:44:43Z</time>
      </trkpt>
      <trkpt lat="47.8329" lon="7.03655">
        <ele>742.28</ele>
        <time>2021-10-20T14:44:45Z</time>
      </trkpt>
      <trkpt lat="47.8329" lon="7.03666">
        <ele>741.79</ele>
        <time>2021-10-20T14:44:46Z</time>
      </trkpt>
      <trkpt lat="47.83289" lon="7.03685">
        <ele>740.83</ele>
        <time>2021-10-20T14:44:48Z</time>
      </trkpt>
      <trkpt lat="47.83287" lon="7.03694">
        <ele>740.35</ele>
        <time>2021-10-20T14:44:49Z</time>
      </trkpt>
      <trkpt lat="47.8328" lon="7.03717">
        <ele>739.87</ele>
        <time>2021-10-20T14:44:52Z</time>
      </trkpt>
      <trkpt lat="47.83276" lon="7.03723">
        <ele>739.87</ele>
        <time>2021-10-20T14:44:53Z</time>
      </trkpt>
      <trkpt lat="47.83272" lon="7.03727">
        <ele>739.39</ele>
        <time>2021-10-20T14:44:54Z</time>
      </trkpt>
      <trkpt lat="47.83269" lon="7.03729">
        <ele>738.91</ele>
        <time>2021-10-20T14:44:55Z</time>
      </trkpt>
      <trkpt lat="47.83265" lon="7.0373">
        <ele>738.43</ele>
        <time>2021-10-20T14:44:56Z</time>
      </trkpt>
      <trkpt lat="47.83261" lon="7.0373">
        <ele>737.95</ele>
        <time>2021-10-20T14:44:57Z</time>
      </trkpt>
      <trkpt lat="47.83258" lon="7.03728">
        <ele>737.47</ele>
        <time>2021-10-20T14:44:58Z</time>
      </trkpt>
      <trkpt lat="47.83255" lon="7.03727">
        <ele>736.99</ele>
        <time>2021-10-20T14:44:59Z</time>
      </trkpt>
      <trkpt lat="47.83252" lon="7.03726">
        <ele>736.51</ele>
        <time>2021-10-20T14:45:00Z</time>
      </trkpt>
      <trkpt lat="47.8325" lon="7.03725">
        <ele>736.03</ele>
        <time>2021-10-20T14:45:01Z</time>
      </trkpt>
      <trkpt lat="47.83247" lon="7.03724">
        <ele>735.55</ele>
        <time>2021-10-20T14:45:02Z</time>
      </trkpt>
      <trkpt lat="47.83243" lon="7.03724">
        <ele>735.07</ele>
        <time>2021-10-20T14:45:03Z</time>
      </trkpt>
      <trkpt lat="47.8324" lon="7.03723">
        <ele>734.58</ele>
        <time>2021-10-20T14:45:04Z</time>
      </trkpt>
      <trkpt lat="47.83227" lon="7.03722">
        <ele>733.14</ele>
        <time>2021-10-20T14:45:08Z</time>
      </trkpt>
      <trkpt lat="47.83208" lon="7.03704">
        <ele>730.26</ele>
        <time>2021-10-20T14:45:15Z</time>
      </trkpt>
      <trkpt lat="47.83193" lon="7.03686">
        <ele>726.89</ele>
        <time>2021-10-20T14:45:21Z</time>
      </trkpt>
      <trkpt lat="47.83187" lon="7.03677">
        <ele>725.93</ele>
        <time>2021-10-20T14:45:23Z</time>
      </trkpt>
      <trkpt lat="47.83169" lon="7.03655">
        <ele>723.53</ele>
        <time>2021-10-20T14:45:30Z</time>
      </trkpt>
      <trkpt lat="47.83167" lon="7.03653">
        <ele>723.05</ele>
        <time>2021-10-20T14:45:31Z</time>
      </trkpt>
      <trkpt lat="47.83147" lon="7.03624">
        <ele>722.09</ele>
        <time>2021-10-20T14:45:40Z</time>
      </trkpt>
      <trkpt lat="47.83126" lon="7.03615">
        <ele>722.57</ele>
        <time>2021-10-20T14:45:53Z</time>
      </trkpt>
      <trkpt lat="47.83118" lon="7.03613">
        <ele>723.05</ele>
        <time>2021-10-20T14:46:14Z</time>
      </trkpt>
      <trkpt lat="47.83119" lon="7.03612">
        <ele>723.05</ele>
        <time>2021-10-20T14:46:34Z</time>
      </trkpt>
      <trkpt lat="47.83114" lon="7.03611">
        <ele>723.53</ele>
        <time>2021-10-20T14:46:54Z</time>
      </trkpt>
      <trkpt lat="47.8311" lon="7.03612">
        <ele>724.01</ele>
        <time>2021-10-20T14:47:13Z</time>
      </trkpt>
      <trkpt lat="47.83109" lon="7.03612">
        <ele>724.01</ele>
        <time>2021-10-20T14:47:18Z</time>
      </trkpt>
      <trkpt lat="47.83084" lon="7.03606">
        <ele>726.41</ele>
        <time>2021-10-20T14:47:29Z</time>
      </trkpt>
      <trkpt lat="47.83059" lon="7.03607">
        <ele>729.78</ele>
        <time>2021-10-20T14:47:38Z</time>
      </trkpt>
      <trkpt lat="47.83043" lon="7.03618">
        <ele>732.66</ele>
        <time>2021-10-20T14:47:47Z</time>
      </trkpt>
      <trkpt lat="47.83036" lon="7.03638">
        <ele>735.55</ele>
        <time>2021-10-20T14:47:55Z</time>
      </trkpt>
      <trkpt lat="47.83024" lon="7.03669">
        <ele>738.91</ele>
        <time>2021-10-20T14:48:04Z</time>
      </trkpt>
      <trkpt lat="47.83014" lon="7.03707">
        <ele>741.79</ele>
        <time>2021-10-20T14:48:14Z</time>
      </trkpt>
      <trkpt lat="47.83012" lon="7.03714">
        <ele>742.28</ele>
        <time>2021-10-20T14:48:16Z</time>
      </trkpt>
      <trkpt lat="47.83012" lon="7.03717">
        <ele>742.76</ele>
        <time>2021-10-20T14:48:17Z</time>
      </trkpt>
      <trkpt lat="47.83012" lon="7.0372">
        <ele>743.24</ele>
        <time>2021-10-20T14:48:18Z</time>
      </trkpt>
      <trkpt lat="47.83011" lon="7.03723">
        <ele>743.24</ele>
        <time>2021-10-20T14:48:19Z</time>
      </trkpt>
      <trkpt lat="47.83011" lon="7.03726">
        <ele>743.72</ele>
        <time>2021-10-20T14:48:20Z</time>
      </trkpt>
      <trkpt lat="47.83009" lon="7.03735">
        <ele>744.68</ele>
        <time>2021-10-20T14:48:23Z</time>
      </trkpt>
      <trkpt lat="47.83008" lon="7.03739">
        <ele>745.16</ele>
        <time>2021-10-20T14:48:24Z</time>
      </trkpt>
      <trkpt lat="47.83011" lon="7.03766">
        <ele>748.04</ele>
        <time>2021-10-20T14:48:34Z</time>
      </trkpt>
      <trkpt lat="47.83018" lon="7.03777">
        <ele>751.41</ele>
        <time>2021-10-20T14:48:46Z</time>
      </trkpt>
      <trkpt lat="47.83018" lon="7.03778">
        <ele>751.89</ele>
        <time>2021-10-20T14:48:47Z</time>
      </trkpt>
      <trkpt lat="47.83019" lon="7.03784">
        <ele>753.33</ele>
        <time>2021-10-20T14:48:51Z</time>
      </trkpt>
      <trkpt lat="47.83018" lon="7.03795">
        <ele>754.77</ele>
        <time>2021-10-20T14:48:56Z</time>
      </trkpt>
      <trkpt lat="47.83015" lon="7.03804">
        <ele>755.73</ele>
        <time>2021-10-20T14:48:59Z</time>
      </trkpt>
      <trkpt lat="47.83007" lon="7.03813">
        <ele>757.66</ele>
        <time>2021-10-20T14:49:04Z</time>
      </trkpt>
      <trkpt lat="47.82998" lon="7.03835">
        <ele>760.06</ele>
        <time>2021-10-20T14:49:13Z</time>
      </trkpt>
      <trkpt lat="47.82991" lon="7.03847">
        <ele>760.54</ele>
        <time>2021-10-20T14:49:14Z</time>
      </trkpt>
      <trkpt lat="47.82975" lon="7.03901">
        <ele>763.42</ele>
        <time>2021-10-20T14:49:23Z</time>
      </trkpt>
      <trkpt lat="47.82963" lon="7.03927">
        <ele>764.87</ele>
        <time>2021-10-20T14:49:27Z</time>
      </trkpt>
      <trkpt lat="47.82952" lon="7.03968">
        <ele>768.23</ele>
        <time>2021-10-20T14:49:36Z</time>
      </trkpt>
      <trkpt lat="47.82947" lon="7.03978">
        <ele>768.71</ele>
        <time>2021-10-20T14:49:38Z</time>
      </trkpt>
      <trkpt lat="47.82942" lon="7.04001">
        <ele>770.63</ele>
        <time>2021-10-20T14:49:44Z</time>
      </trkpt>
      <trkpt lat="47.82937" lon="7.04007">
        <ele>771.6</ele>
        <time>2021-10-20T14:49:46Z</time>
      </trkpt>
      <trkpt lat="47.82932" lon="7.04016">
        <ele>772.08</ele>
        <time>2021-10-20T14:49:49Z</time>
      </trkpt>
      <trkpt lat="47.8293" lon="7.04022">
        <ele>773.04</ele>
        <time>2021-10-20T14:49:51Z</time>
      </trkpt>
      <trkpt lat="47.82925" lon="7.04035">
        <ele>774.96</ele>
        <time>2021-10-20T14:49:56Z</time>
      </trkpt>
      <trkpt lat="47.82911" lon="7.04046">
        <ele>776.4</ele>
        <time>2021-10-20T14:50:01Z</time>
      </trkpt>
      <trkpt lat="47.82908" lon="7.04063">
        <ele>778.32</ele>
        <time>2021-10-20T14:50:05Z</time>
      </trkpt>
      <trkpt lat="47.8289" lon="7.04085">
        <ele>780.25</ele>
        <time>2021-10-20T14:50:16Z</time>
      </trkpt>
      <trkpt lat="47.82897" lon="7.04098">
        <ele>779.77</ele>
        <time>2021-10-20T14:50:30Z</time>
      </trkpt>
      <trkpt lat="47.82901" lon="7.04099">
        <ele>780.73</ele>
        <time>2021-10-20T14:50:51Z</time>
      </trkpt>
      <trkpt lat="47.82899" lon="7.04099">
        <ele>780.73</ele>
        <time>2021-10-20T14:51:17Z</time>
      </trkpt>
      <trkpt lat="47.829" lon="7.04101">
        <ele>779.77</ele>
        <time>2021-10-20T14:51:44Z</time>
      </trkpt>
      <trkpt lat="47.82903" lon="7.04104">
        <ele>779.77</ele>
        <time>2021-10-20T14:52:09Z</time>
      </trkpt>
      <trkpt lat="47.82901" lon="7.04104">
        <ele>779.29</ele>
        <time>2021-10-20T14:52:16Z</time>
      </trkpt>
      <trkpt lat="47.82894" lon="7.04107">
        <ele>778.81</ele>
        <time>2021-10-20T14:52:21Z</time>
      </trkpt>
      <trkpt lat="47.8286" lon="7.04124">
        <ele>776.88</ele>
        <time>2021-10-20T14:52:34Z</time>
      </trkpt>
      <trkpt lat="47.82834" lon="7.04158">
        <ele>776.4</ele>
        <time>2021-10-20T14:52:43Z</time>
      </trkpt>
      <trkpt lat="47.82816" lon="7.0417">
        <ele>775.44</ele>
        <time>2021-10-20T14:52:48Z</time>
      </trkpt>
      <trkpt lat="47.82778" lon="7.04171">
        <ele>773.52</ele>
        <time>2021-10-20T14:52:57Z</time>
      </trkpt>
      <trkpt lat="47.82733" lon="7.04152">
        <ele>771.6</ele>
        <time>2021-10-20T14:53:07Z</time>
      </trkpt>
      <trkpt lat="47.82721" lon="7.04151">
        <ele>771.11</ele>
        <time>2021-10-20T14:53:09Z</time>
      </trkpt>
      <trkpt lat="47.82716" lon="7.04151">
        <ele>770.63</ele>
        <time>2021-10-20T14:53:10Z</time>
      </trkpt>
      <trkpt lat="47.82711" lon="7.04153">
        <ele>770.63</ele>
        <time>2021-10-20T14:53:11Z</time>
      </trkpt>
      <trkpt lat="47.82691" lon="7.04165">
        <ele>769.67</ele>
        <time>2021-10-20T14:53:15Z</time>
      </trkpt>
      <trkpt lat="47.82665" lon="7.04188">
        <ele>769.19</ele>
        <time>2021-10-20T14:53:21Z</time>
      </trkpt>
      <trkpt lat="47.82661" lon="7.04191">
        <ele>768.71</ele>
        <time>2021-10-20T14:53:22Z</time>
      </trkpt>
      <trkpt lat="47.82653" lon="7.04198">
        <ele>768.71</ele>
        <time>2021-10-20T14:53:24Z</time>
      </trkpt>
      <trkpt lat="47.8264" lon="7.04207">
        <ele>767.75</ele>
        <time>2021-10-20T14:53:27Z</time>
      </trkpt>
      <trkpt lat="47.82618" lon="7.04227">
        <ele>767.27</ele>
        <time>2021-10-20T14:53:32Z</time>
      </trkpt>
      <trkpt lat="47.82609" lon="7.04236">
        <ele>766.79</ele>
        <time>2021-10-20T14:53:34Z</time>
      </trkpt>
      <trkpt lat="47.82599" lon="7.04242">
        <ele>766.31</ele>
        <time>2021-10-20T14:53:36Z</time>
      </trkpt>
      <trkpt lat="47.82579" lon="7.04253">
        <ele>765.83</ele>
        <time>2021-10-20T14:53:40Z</time>
      </trkpt>
      <trkpt lat="47.82567" lon="7.04261">
        <ele>765.35</ele>
        <time>2021-10-20T14:53:43Z</time>
      </trkpt>
      <trkpt lat="47.82562" lon="7.04264">
        <ele>764.87</ele>
        <time>2021-10-20T14:53:44Z</time>
      </trkpt>
      <trkpt lat="47.82537" lon="7.04283">
        <ele>763.42</ele>
        <time>2021-10-20T14:53:49Z</time>
      </trkpt>
      <trkpt lat="47.82485" lon="7.04315">
        <ele>761.5</ele>
        <time>2021-10-20T14:53:58Z</time>
      </trkpt>
      <trkpt lat="47.82482" lon="7.04317">
        <ele>761.5</ele>
        <time>2021-10-20T14:53:59Z</time>
      </trkpt>
      <trkpt lat="47.82472" lon="7.04322">
        <ele>760.54</ele>
        <time>2021-10-20T14:54:01Z</time>
      </trkpt>
      <trkpt lat="47.82462" lon="7.04325">
        <ele>760.06</ele>
        <time>2021-10-20T14:54:03Z</time>
      </trkpt>
      <trkpt lat="47.82452" lon="7.04327">
        <ele>759.58</ele>
        <time>2021-10-20T14:54:05Z</time>
      </trkpt>
      <trkpt lat="47.8244" lon="7.04332">
        <ele>759.58</ele>
        <time>2021-10-20T14:54:07Z</time>
      </trkpt>
      <trkpt lat="47.82434" lon="7.04335">
        <ele>759.1</ele>
        <time>2021-10-20T14:54:08Z</time>
      </trkpt>
      <trkpt lat="47.82397" lon="7.04349">
        <ele>758.62</ele>
        <time>2021-10-20T14:54:15Z</time>
      </trkpt>
      <trkpt lat="47.82388" lon="7.04349">
        <ele>758.62</ele>
        <time>2021-10-20T14:54:17Z</time>
      </trkpt>
      <trkpt lat="47.82385" lon="7.04347">
        <ele>758.62</ele>
        <time>2021-10-20T14:54:18Z</time>
      </trkpt>
      <trkpt lat="47.82383" lon="7.04343">
        <ele>758.62</ele>
        <time>2021-10-20T14:54:19Z</time>
      </trkpt>
      <trkpt lat="47.82381" lon="7.04338">
        <ele>758.62</ele>
        <time>2021-10-20T14:54:20Z</time>
      </trkpt>
      <trkpt lat="47.8238" lon="7.04332">
        <ele>758.62</ele>
        <time>2021-10-20T14:54:21Z</time>
      </trkpt>
      <trkpt lat="47.82379" lon="7.04327">
        <ele>758.62</ele>
        <time>2021-10-20T14:54:22Z</time>
      </trkpt>
      <trkpt lat="47.82378" lon="7.0432">
        <ele>758.62</ele>
        <time>2021-10-20T14:54:23Z</time>
      </trkpt>
      <trkpt lat="47.82377" lon="7.04314">
        <ele>758.62</ele>
        <time>2021-10-20T14:54:24Z</time>
      </trkpt>
      <trkpt lat="47.82371" lon="7.04267">
        <ele>758.62</ele>
        <time>2021-10-20T14:54:34Z</time>
      </trkpt>
      <trkpt lat="47.82373" lon="7.04231">
        <ele>758.62</ele>
        <time>2021-10-20T14:54:45Z</time>
      </trkpt>
      <trkpt lat="47.82373" lon="7.04228">
        <ele>758.62</ele>
        <time>2021-10-20T14:54:46Z</time>
      </trkpt>
      <trkpt lat="47.82373" lon="7.04226">
        <ele>758.62</ele>
        <time>2021-10-20T14:54:47Z</time>
      </trkpt>
      <trkpt lat="47.82372" lon="7.04222">
        <ele>758.62</ele>
        <time>2021-10-20T14:54:49Z</time>
      </trkpt>
      <trkpt lat="47.82373" lon="7.04208">
        <ele>759.1</ele>
        <time>2021-10-20T14:54:57Z</time>
      </trkpt>
      <trkpt lat="47.82371" lon="7.04202">
        <ele>759.58</ele>
        <time>2021-10-20T14:55:10Z</time>
      </trkpt>
      <trkpt lat="47.82374" lon="7.042">
        <ele>759.1</ele>
        <time>2021-10-20T14:55:25Z</time>
      </trkpt>
      <trkpt lat="47.82374" lon="7.04198">
        <ele>759.58</ele>
        <time>2021-10-20T14:55:26Z</time>
      </trkpt>
      <trkpt lat="47.82374" lon="7.04195">
        <ele>759.1</ele>
        <time>2021-10-20T14:55:27Z</time>
      </trkpt>
      <trkpt lat="47.82374" lon="7.04193">
        <ele>759.1</ele>
        <time>2021-10-20T14:55:28Z</time>
      </trkpt>
      <trkpt lat="47.82375" lon="7.04191">
        <ele>759.1</ele>
        <time>2021-10-20T14:55:29Z</time>
      </trkpt>
      <trkpt lat="47.82376" lon="7.04185">
        <ele>759.1</ele>
        <time>2021-10-20T14:55:32Z</time>
      </trkpt>
      <trkpt lat="47.82377" lon="7.04182">
        <ele>759.1</ele>
        <time>2021-10-20T14:55:33Z</time>
      </trkpt>
      <trkpt lat="47.82378" lon="7.04179">
        <ele>758.62</ele>
        <time>2021-10-20T14:55:34Z</time>
      </trkpt>
      <trkpt lat="47.82378" lon="7.04175">
        <ele>758.62</ele>
        <time>2021-10-20T14:55:35Z</time>
      </trkpt>
      <trkpt lat="47.82378" lon="7.0417">
        <ele>758.62</ele>
        <time>2021-10-20T14:55:36Z</time>
      </trkpt>
      <trkpt lat="47.82377" lon="7.04165">
        <ele>758.14</ele>
        <time>2021-10-20T14:55:37Z</time>
      </trkpt>
      <trkpt lat="47.82377" lon="7.04161">
        <ele>758.14</ele>
        <time>2021-10-20T14:55:38Z</time>
      </trkpt>
      <trkpt lat="47.82377" lon="7.04156">
        <ele>758.14</ele>
        <time>2021-10-20T14:55:39Z</time>
      </trkpt>
      <trkpt lat="47.82375" lon="7.04107">
        <ele>757.18</ele>
        <time>2021-10-20T14:55:48Z</time>
      </trkpt>
      <trkpt lat="47.82375" lon="7.04065">
        <ele>755.73</ele>
        <time>2021-10-20T14:55:55Z</time>
      </trkpt>
      <trkpt lat="47.82375" lon="7.04058">
        <ele>755.73</ele>
        <time>2021-10-20T14:55:56Z</time>
      </trkpt>
      <trkpt lat="47.82375" lon="7.04051">
        <ele>755.25</ele>
        <time>2021-10-20T14:55:57Z</time>
      </trkpt>
      <trkpt lat="47.82374" lon="7.04036">
        <ele>754.29</ele>
        <time>2021-10-20T14:55:59Z</time>
      </trkpt>
      <trkpt lat="47.82373" lon="7.04028">
        <ele>754.29</ele>
        <time>2021-10-20T14:56:00Z</time>
      </trkpt>
      <trkpt lat="47.82371" lon="7.04012">
        <ele>752.85</ele>
        <time>2021-10-20T14:56:02Z</time>
      </trkpt>
      <trkpt lat="47.82369" lon="7.04003">
        <ele>752.37</ele>
        <time>2021-10-20T14:56:03Z</time>
      </trkpt>
      <trkpt lat="47.82366" lon="7.03994">
        <ele>751.41</ele>
        <time>2021-10-20T14:56:04Z</time>
      </trkpt>
      <trkpt lat="47.82359" lon="7.03977">
        <ele>750.45</ele>
        <time>2021-10-20T14:56:06Z</time>
      </trkpt>
      <trkpt lat="47.82355" lon="7.03971">
        <ele>749.97</ele>
        <time>2021-10-20T14:56:07Z</time>
      </trkpt>
      <trkpt lat="47.8235" lon="7.03967">
        <ele>749.49</ele>
        <time>2021-10-20T14:56:08Z</time>
      </trkpt>
      <trkpt lat="47.82334" lon="7.03974">
        <ele>749</ele>
        <time>2021-10-20T14:56:12Z</time>
      </trkpt>
      <trkpt lat="47.82331" lon="7.03978">
        <ele>749</ele>
        <time>2021-10-20T14:56:13Z</time>
      </trkpt>
      <trkpt lat="47.82327" lon="7.03984">
        <ele>748.04</ele>
        <time>2021-10-20T14:56:14Z</time>
      </trkpt>
      <trkpt lat="47.82322" lon="7.03988">
        <ele>748.04</ele>
        <time>2021-10-20T14:56:15Z</time>
      </trkpt>
      <trkpt lat="47.82312" lon="7.03995">
        <ele>747.08</ele>
        <time>2021-10-20T14:56:17Z</time>
      </trkpt>
      <trkpt lat="47.82308" lon="7.03997">
        <ele>746.6</ele>
        <time>2021-10-20T14:56:18Z</time>
      </trkpt>
      <trkpt lat="47.82302" lon="7.03997">
        <ele>746.12</ele>
        <time>2021-10-20T14:56:19Z</time>
      </trkpt>
      <trkpt lat="47.82296" lon="7.03995">
        <ele>746.12</ele>
        <time>2021-10-20T14:56:20Z</time>
      </trkpt>
      <trkpt lat="47.82291" lon="7.03992">
        <ele>745.64</ele>
        <time>2021-10-20T14:56:21Z</time>
      </trkpt>
      <trkpt lat="47.82285" lon="7.03989">
        <ele>745.64</ele>
        <time>2021-10-20T14:56:22Z</time>
      </trkpt>
      <trkpt lat="47.82266" lon="7.0398">
        <ele>744.68</ele>
        <time>2021-10-20T14:56:26Z</time>
      </trkpt>
      <trkpt lat="47.82259" lon="7.03981">
        <ele>744.2</ele>
        <time>2021-10-20T14:56:27Z</time>
      </trkpt>
      <trkpt lat="47.82253" lon="7.03983">
        <ele>743.72</ele>
        <time>2021-10-20T14:56:28Z</time>
      </trkpt>
      <trkpt lat="47.82246" lon="7.03986">
        <ele>743.72</ele>
        <time>2021-10-20T14:56:29Z</time>
      </trkpt>
      <trkpt lat="47.82243" lon="7.03987">
        <ele>743.24</ele>
        <time>2021-10-20T14:56:30Z</time>
      </trkpt>
      <trkpt lat="47.82226" lon="7.03997">
        <ele>742.76</ele>
        <time>2021-10-20T14:56:32Z</time>
      </trkpt>
      <trkpt lat="47.82209" lon="7.04008">
        <ele>741.79</ele>
        <time>2021-10-20T14:56:35Z</time>
      </trkpt>
      <trkpt lat="47.82202" lon="7.04009">
        <ele>741.31</ele>
        <time>2021-10-20T14:56:36Z</time>
      </trkpt>
      <trkpt lat="47.82187" lon="7.04013">
        <ele>740.83</ele>
        <time>2021-10-20T14:56:38Z</time>
      </trkpt>
      <trkpt lat="47.82133" lon="7.04005">
        <ele>738.43</ele>
        <time>2021-10-20T14:56:45Z</time>
      </trkpt>
      <trkpt lat="47.82108" lon="7.03995">
        <ele>736.99</ele>
        <time>2021-10-20T14:56:49Z</time>
      </trkpt>
      <trkpt lat="47.82101" lon="7.03996">
        <ele>736.51</ele>
        <time>2021-10-20T14:56:50Z</time>
      </trkpt>
      <trkpt lat="47.82095" lon="7.04">
        <ele>736.51</ele>
        <time>2021-10-20T14:56:51Z</time>
      </trkpt>
      <trkpt lat="47.8209" lon="7.04006">
        <ele>736.51</ele>
        <time>2021-10-20T14:56:52Z</time>
      </trkpt>
      <trkpt lat="47.82087" lon="7.04013">
        <ele>736.03</ele>
        <time>2021-10-20T14:56:53Z</time>
      </trkpt>
      <trkpt lat="47.82085" lon="7.04017">
        <ele>735.55</ele>
        <time>2021-10-20T14:56:54Z</time>
      </trkpt>
      <trkpt lat="47.82063" lon="7.04058">
        <ele>733.62</ele>
        <time>2021-10-20T14:56:59Z</time>
      </trkpt>
      <trkpt lat="47.82057" lon="7.04064">
        <ele>733.14</ele>
        <time>2021-10-20T14:57:00Z</time>
      </trkpt>
      <trkpt lat="47.82051" lon="7.04071">
        <ele>732.66</ele>
        <time>2021-10-20T14:57:01Z</time>
      </trkpt>
      <trkpt lat="47.82008" lon="7.04119">
        <ele>729.3</ele>
        <time>2021-10-20T14:57:08Z</time>
      </trkpt>
      <trkpt lat="47.81992" lon="7.04134">
        <ele>728.82</ele>
        <time>2021-10-20T14:57:10Z</time>
      </trkpt>
      <trkpt lat="47.81985" lon="7.04139">
        <ele>728.34</ele>
        <time>2021-10-20T14:57:11Z</time>
      </trkpt>
      <trkpt lat="47.8197" lon="7.04147">
        <ele>727.37</ele>
        <time>2021-10-20T14:57:13Z</time>
      </trkpt>
      <trkpt lat="47.8195" lon="7.04152">
        <ele>726.89</ele>
        <time>2021-10-20T14:57:16Z</time>
      </trkpt>
      <trkpt lat="47.81943" lon="7.04152">
        <ele>726.41</ele>
        <time>2021-10-20T14:57:17Z</time>
      </trkpt>
      <trkpt lat="47.81936" lon="7.04149">
        <ele>726.41</ele>
        <time>2021-10-20T14:57:18Z</time>
      </trkpt>
      <trkpt lat="47.81896" lon="7.04134">
        <ele>724.49</ele>
        <time>2021-10-20T14:57:24Z</time>
      </trkpt>
      <trkpt lat="47.81886" lon="7.04134">
        <ele>724.01</ele>
        <time>2021-10-20T14:57:25Z</time>
      </trkpt>
      <trkpt lat="47.81879" lon="7.04135">
        <ele>723.53</ele>
        <time>2021-10-20T14:57:26Z</time>
      </trkpt>
      <trkpt lat="47.81873" lon="7.04138">
        <ele>723.05</ele>
        <time>2021-10-20T14:57:27Z</time>
      </trkpt>
      <trkpt lat="47.81869" lon="7.04143">
        <ele>722.57</ele>
        <time>2021-10-20T14:57:28Z</time>
      </trkpt>
      <trkpt lat="47.81848" lon="7.04171">
        <ele>721.13</ele>
        <time>2021-10-20T14:57:32Z</time>
      </trkpt>
      <trkpt lat="47.81843" lon="7.04176">
        <ele>721.13</ele>
        <time>2021-10-20T14:57:33Z</time>
      </trkpt>
      <trkpt lat="47.81805" lon="7.04195">
        <ele>720.16</ele>
        <time>2021-10-20T14:57:42Z</time>
      </trkpt>
      <trkpt lat="47.81803" lon="7.04196">
        <ele>720.16</ele>
        <time>2021-10-20T14:57:43Z</time>
      </trkpt>
      <trkpt lat="47.81801" lon="7.04198">
        <ele>720.16</ele>
        <time>2021-10-20T14:57:44Z</time>
      </trkpt>
      <trkpt lat="47.81789" lon="7.04223">
        <ele>719.68</ele>
        <time>2021-10-20T14:57:50Z</time>
      </trkpt>
      <trkpt lat="47.81786" lon="7.0423">
        <ele>719.68</ele>
        <time>2021-10-20T14:57:51Z</time>
      </trkpt>
      <trkpt lat="47.81783" lon="7.04237">
        <ele>719.68</ele>
        <time>2021-10-20T14:57:52Z</time>
      </trkpt>
      <trkpt lat="47.8178" lon="7.04242">
        <ele>719.68</ele>
        <time>2021-10-20T14:57:53Z</time>
      </trkpt>
      <trkpt lat="47.81777" lon="7.04247">
        <ele>719.68</ele>
        <time>2021-10-20T14:57:54Z</time>
      </trkpt>
      <trkpt lat="47.81774" lon="7.04253">
        <ele>719.2</ele>
        <time>2021-10-20T14:57:55Z</time>
      </trkpt>
      <trkpt lat="47.81772" lon="7.04258">
        <ele>719.68</ele>
        <time>2021-10-20T14:57:56Z</time>
      </trkpt>
      <trkpt lat="47.81767" lon="7.0427">
        <ele>719.2</ele>
        <time>2021-10-20T14:57:58Z</time>
      </trkpt>
      <trkpt lat="47.81743" lon="7.04315">
        <ele>717.28</ele>
        <time>2021-10-20T14:58:07Z</time>
      </trkpt>
      <trkpt lat="47.81742" lon="7.04322">
        <ele>716.8</ele>
        <time>2021-10-20T14:58:08Z</time>
      </trkpt>
      <trkpt lat="47.81735" lon="7.04352">
        <ele>714.4</ele>
        <time>2021-10-20T14:58:12Z</time>
      </trkpt>
      <trkpt lat="47.81733" lon="7.04359">
        <ele>714.4</ele>
        <time>2021-10-20T14:58:13Z</time>
      </trkpt>
      <trkpt lat="47.8173" lon="7.04366">
        <ele>712.95</ele>
        <time>2021-10-20T14:58:14Z</time>
      </trkpt>
      <trkpt lat="47.81728" lon="7.04373">
        <ele>711.99</ele>
        <time>2021-10-20T14:58:15Z</time>
      </trkpt>
      <trkpt lat="47.81721" lon="7.04394">
        <ele>710.07</ele>
        <time>2021-10-20T14:58:18Z</time>
      </trkpt>
      <trkpt lat="47.81716" lon="7.04417">
        <ele>706.71</ele>
        <time>2021-10-20T14:58:21Z</time>
      </trkpt>
      <trkpt lat="47.81713" lon="7.04433">
        <ele>706.23</ele>
        <time>2021-10-20T14:58:23Z</time>
      </trkpt>
      <trkpt lat="47.81713" lon="7.04441">
        <ele>705.75</ele>
        <time>2021-10-20T14:58:24Z</time>
      </trkpt>
      <trkpt lat="47.81707" lon="7.04476">
        <ele>702.86</ele>
        <time>2021-10-20T14:58:30Z</time>
      </trkpt>
      <trkpt lat="47.81705" lon="7.0448">
        <ele>702.86</ele>
        <time>2021-10-20T14:58:31Z</time>
      </trkpt>
      <trkpt lat="47.81703" lon="7.0448">
        <ele>702.86</ele>
        <time>2021-10-20T14:58:32Z</time>
      </trkpt>
      <trkpt lat="47.81701" lon="7.04477">
        <ele>702.86</ele>
        <time>2021-10-20T14:58:33Z</time>
      </trkpt>
      <trkpt lat="47.81701" lon="7.04474">
        <ele>702.38</ele>
        <time>2021-10-20T14:58:34Z</time>
      </trkpt>
      <trkpt lat="47.817" lon="7.0447">
        <ele>701.9</ele>
        <time>2021-10-20T14:58:35Z</time>
      </trkpt>
      <trkpt lat="47.817" lon="7.04467">
        <ele>702.38</ele>
        <time>2021-10-20T14:58:36Z</time>
      </trkpt>
      <trkpt lat="47.81701" lon="7.04426">
        <ele>703.82</ele>
        <time>2021-10-20T14:58:46Z</time>
      </trkpt>
      <trkpt lat="47.81708" lon="7.04366">
        <ele>704.3</ele>
        <time>2021-10-20T14:58:58Z</time>
      </trkpt>
      <trkpt lat="47.81709" lon="7.04325">
        <ele>705.26</ele>
        <time>2021-10-20T14:59:06Z</time>
      </trkpt>
      <trkpt lat="47.81704" lon="7.04317">
        <ele>705.26</ele>
        <time>2021-10-20T14:59:08Z</time>
      </trkpt>
      <trkpt lat="47.81702" lon="7.04315">
        <ele>705.26</ele>
        <time>2021-10-20T14:59:09Z</time>
      </trkpt>
      <trkpt lat="47.81701" lon="7.04313">
        <ele>705.75</ele>
        <time>2021-10-20T14:59:10Z</time>
      </trkpt>
      <trkpt lat="47.81699" lon="7.04311">
        <ele>705.75</ele>
        <time>2021-10-20T14:59:11Z</time>
      </trkpt>
      <trkpt lat="47.81698" lon="7.04309">
        <ele>705.75</ele>
        <time>2021-10-20T14:59:12Z</time>
      </trkpt>
      <trkpt lat="47.81696" lon="7.04308">
        <ele>706.23</ele>
        <time>2021-10-20T14:59:13Z</time>
      </trkpt>
      <trkpt lat="47.81693" lon="7.04307">
        <ele>706.23</ele>
        <time>2021-10-20T14:59:14Z</time>
      </trkpt>
      <trkpt lat="47.8169" lon="7.04307">
        <ele>706.23</ele>
        <time>2021-10-20T14:59:15Z</time>
      </trkpt>
      <trkpt lat="47.81661" lon="7.04294">
        <ele>706.71</ele>
        <time>2021-10-20T14:59:23Z</time>
      </trkpt>
      <trkpt lat="47.81657" lon="7.04292">
        <ele>706.71</ele>
        <time>2021-10-20T14:59:24Z</time>
      </trkpt>
      <trkpt lat="47.81639" lon="7.04282">
        <ele>707.19</ele>
        <time>2021-10-20T14:59:27Z</time>
      </trkpt>
      <trkpt lat="47.81601" lon="7.04239">
        <ele>707.67</ele>
        <time>2021-10-20T14:59:38Z</time>
      </trkpt>
      <trkpt lat="47.81569" lon="7.0418">
        <ele>710.55</ele>
        <time>2021-10-20T14:59:50Z</time>
      </trkpt>
      <trkpt lat="47.81558" lon="7.04151">
        <ele>711.99</ele>
        <time>2021-10-20T14:59:55Z</time>
      </trkpt>
      <trkpt lat="47.81552" lon="7.04106">
        <ele>714.4</ele>
        <time>2021-10-20T15:00:02Z</time>
      </trkpt>
      <trkpt lat="47.81531" lon="7.04085">
        <ele>715.36</ele>
        <time>2021-10-20T15:00:10Z</time>
      </trkpt>
      <trkpt lat="47.81523" lon="7.04087">
        <ele>715.36</ele>
        <time>2021-10-20T15:00:12Z</time>
      </trkpt>
      <trkpt lat="47.81518" lon="7.04088">
        <ele>715.84</ele>
        <time>2021-10-20T15:00:13Z</time>
      </trkpt>
      <trkpt lat="47.81513" lon="7.04088">
        <ele>715.84</ele>
        <time>2021-10-20T15:00:14Z</time>
      </trkpt>
      <trkpt lat="47.81508" lon="7.04087">
        <ele>715.84</ele>
        <time>2021-10-20T15:00:15Z</time>
      </trkpt>
      <trkpt lat="47.81503" lon="7.04086">
        <ele>715.84</ele>
        <time>2021-10-20T15:00:16Z</time>
      </trkpt>
      <trkpt lat="47.8149" lon="7.04084">
        <ele>715.36</ele>
        <time>2021-10-20T15:00:19Z</time>
      </trkpt>
      <trkpt lat="47.8147" lon="7.04084">
        <ele>715.84</ele>
        <time>2021-10-20T15:00:23Z</time>
      </trkpt>
      <trkpt lat="47.81465" lon="7.04083">
        <ele>715.84</ele>
        <time>2021-10-20T15:00:24Z</time>
      </trkpt>
      <trkpt lat="47.81461" lon="7.0408">
        <ele>715.84</ele>
        <time>2021-10-20T15:00:25Z</time>
      </trkpt>
      <trkpt lat="47.81456" lon="7.04078">
        <ele>715.84</ele>
        <time>2021-10-20T15:00:26Z</time>
      </trkpt>
      <trkpt lat="47.81451" lon="7.04075">
        <ele>715.84</ele>
        <time>2021-10-20T15:00:27Z</time>
      </trkpt>
      <trkpt lat="47.81447" lon="7.04071">
        <ele>715.84</ele>
        <time>2021-10-20T15:00:28Z</time>
      </trkpt>
      <trkpt lat="47.81442" lon="7.04067">
        <ele>715.84</ele>
        <time>2021-10-20T15:00:29Z</time>
      </trkpt>
      <trkpt lat="47.81434" lon="7.04058">
        <ele>716.32</ele>
        <time>2021-10-20T15:00:31Z</time>
      </trkpt>
      <trkpt lat="47.8142" lon="7.0404">
        <ele>717.28</ele>
        <time>2021-10-20T15:00:35Z</time>
      </trkpt>
      <trkpt lat="47.81417" lon="7.04034">
        <ele>717.28</ele>
        <time>2021-10-20T15:00:36Z</time>
      </trkpt>
      <trkpt lat="47.81414" lon="7.04029">
        <ele>717.28</ele>
        <time>2021-10-20T15:00:37Z</time>
      </trkpt>
      <trkpt lat="47.81408" lon="7.04018">
        <ele>717.76</ele>
        <time>2021-10-20T15:00:39Z</time>
      </trkpt>
      <trkpt lat="47.81405" lon="7.04012">
        <ele>718.24</ele>
        <time>2021-10-20T15:00:40Z</time>
      </trkpt>
      <trkpt lat="47.81403" lon="7.04007">
        <ele>718.24</ele>
        <time>2021-10-20T15:00:41Z</time>
      </trkpt>
      <trkpt lat="47.81373" lon="7.03949">
        <ele>721.61</ele>
        <time>2021-10-20T15:00:54Z</time>
      </trkpt>
      <trkpt lat="47.8137" lon="7.03946">
        <ele>721.61</ele>
        <time>2021-10-20T15:00:55Z</time>
      </trkpt>
      <trkpt lat="47.81337" lon="7.039">
        <ele>724.49</ele>
        <time>2021-10-20T15:01:08Z</time>
      </trkpt>
      <trkpt lat="47.81306" lon="7.03855">
        <ele>726.41</ele>
        <time>2021-10-20T15:01:20Z</time>
      </trkpt>
      <trkpt lat="47.81269" lon="7.03809">
        <ele>727.86</ele>
        <time>2021-10-20T15:01:32Z</time>
      </trkpt>
      <trkpt lat="47.81245" lon="7.0378">
        <ele>728.82</ele>
        <time>2021-10-20T15:01:41Z</time>
      </trkpt>
      <trkpt lat="47.8124" lon="7.03778">
        <ele>729.3</ele>
        <time>2021-10-20T15:01:42Z</time>
      </trkpt>
      <trkpt lat="47.81235" lon="7.03777">
        <ele>729.3</ele>
        <time>2021-10-20T15:01:43Z</time>
      </trkpt>
      <trkpt lat="47.81231" lon="7.03778">
        <ele>729.3</ele>
        <time>2021-10-20T15:01:44Z</time>
      </trkpt>
      <trkpt lat="47.81227" lon="7.0378">
        <ele>729.3</ele>
        <time>2021-10-20T15:01:45Z</time>
      </trkpt>
      <trkpt lat="47.81223" lon="7.03782">
        <ele>729.78</ele>
        <time>2021-10-20T15:01:46Z</time>
      </trkpt>
      <trkpt lat="47.8122" lon="7.03786">
        <ele>729.78</ele>
        <time>2021-10-20T15:01:47Z</time>
      </trkpt>
      <trkpt lat="47.81202" lon="7.03807">
        <ele>729.78</ele>
        <time>2021-10-20T15:01:53Z</time>
      </trkpt>
      <trkpt lat="47.81198" lon="7.03811">
        <ele>730.26</ele>
        <time>2021-10-20T15:01:54Z</time>
      </trkpt>
      <trkpt lat="47.8119" lon="7.03826">
        <ele>730.26</ele>
        <time>2021-10-20T15:01:57Z</time>
      </trkpt>
      <trkpt lat="47.81187" lon="7.03831">
        <ele>730.26</ele>
        <time>2021-10-20T15:01:58Z</time>
      </trkpt>
      <trkpt lat="47.81165" lon="7.03884">
        <ele>730.74</ele>
        <time>2021-10-20T15:02:07Z</time>
      </trkpt>
      <trkpt lat="47.81155" lon="7.03902">
        <ele>731.22</ele>
        <time>2021-10-20T15:02:10Z</time>
      </trkpt>
      <trkpt lat="47.81142" lon="7.03916">
        <ele>731.7</ele>
        <time>2021-10-20T15:02:13Z</time>
      </trkpt>
      <trkpt lat="47.81138" lon="7.0392">
        <ele>731.22</ele>
        <time>2021-10-20T15:02:14Z</time>
      </trkpt>
      <trkpt lat="47.81134" lon="7.03926">
        <ele>731.22</ele>
        <time>2021-10-20T15:02:15Z</time>
      </trkpt>
      <trkpt lat="47.81132" lon="7.03932">
        <ele>731.7</ele>
        <time>2021-10-20T15:02:16Z</time>
      </trkpt>
      <trkpt lat="47.8113" lon="7.03938">
        <ele>731.7</ele>
        <time>2021-10-20T15:02:17Z</time>
      </trkpt>
      <trkpt lat="47.81129" lon="7.03944">
        <ele>731.7</ele>
        <time>2021-10-20T15:02:18Z</time>
      </trkpt>
      <trkpt lat="47.81119" lon="7.03976">
        <ele>731.7</ele>
        <time>2021-10-20T15:02:23Z</time>
      </trkpt>
      <trkpt lat="47.81116" lon="7.03982">
        <ele>732.18</ele>
        <time>2021-10-20T15:02:24Z</time>
      </trkpt>
      <trkpt lat="47.81108" lon="7.03999">
        <ele>732.18</ele>
        <time>2021-10-20T15:02:27Z</time>
      </trkpt>
      <trkpt lat="47.81105" lon="7.04004">
        <ele>732.18</ele>
        <time>2021-10-20T15:02:28Z</time>
      </trkpt>
      <trkpt lat="47.81097" lon="7.04014">
        <ele>732.18</ele>
        <time>2021-10-20T15:02:30Z</time>
      </trkpt>
      <trkpt lat="47.81094" lon="7.0402">
        <ele>732.18</ele>
        <time>2021-10-20T15:02:31Z</time>
      </trkpt>
      <trkpt lat="47.81089" lon="7.04024">
        <ele>732.66</ele>
        <time>2021-10-20T15:02:32Z</time>
      </trkpt>
      <trkpt lat="47.81084" lon="7.04027">
        <ele>732.18</ele>
        <time>2021-10-20T15:02:33Z</time>
      </trkpt>
      <trkpt lat="47.81078" lon="7.04029">
        <ele>732.66</ele>
        <time>2021-10-20T15:02:34Z</time>
      </trkpt>
      <trkpt lat="47.81073" lon="7.04028">
        <ele>732.66</ele>
        <time>2021-10-20T15:02:35Z</time>
      </trkpt>
      <trkpt lat="47.81068" lon="7.04027">
        <ele>733.14</ele>
        <time>2021-10-20T15:02:36Z</time>
      </trkpt>
      <trkpt lat="47.81063" lon="7.04025">
        <ele>733.14</ele>
        <time>2021-10-20T15:02:37Z</time>
      </trkpt>
      <trkpt lat="47.81059" lon="7.04023">
        <ele>733.14</ele>
        <time>2021-10-20T15:02:38Z</time>
      </trkpt>
      <trkpt lat="47.81053" lon="7.04021">
        <ele>733.14</ele>
        <time>2021-10-20T15:02:39Z</time>
      </trkpt>
      <trkpt lat="47.81028" lon="7.0401">
        <ele>733.14</ele>
        <time>2021-10-20T15:02:44Z</time>
      </trkpt>
      <trkpt lat="47.8098" lon="7.04009">
        <ele>733.62</ele>
        <time>2021-10-20T15:02:55Z</time>
      </trkpt>
      <trkpt lat="47.80957" lon="7.04009">
        <ele>734.1</ele>
        <time>2021-10-20T15:03:00Z</time>
      </trkpt>
      <trkpt lat="47.80953" lon="7.04012">
        <ele>734.1</ele>
        <time>2021-10-20T15:03:01Z</time>
      </trkpt>
      <trkpt lat="47.8095" lon="7.04014">
        <ele>734.1</ele>
        <time>2021-10-20T15:03:02Z</time>
      </trkpt>
      <trkpt lat="47.80947" lon="7.04018">
        <ele>734.1</ele>
        <time>2021-10-20T15:03:03Z</time>
      </trkpt>
      <trkpt lat="47.80944" lon="7.04021">
        <ele>734.58</ele>
        <time>2021-10-20T15:03:04Z</time>
      </trkpt>
      <trkpt lat="47.80933" lon="7.04048">
        <ele>735.07</ele>
        <time>2021-10-20T15:03:10Z</time>
      </trkpt>
      <trkpt lat="47.80925" lon="7.04094">
        <ele>736.51</ele>
        <time>2021-10-20T15:03:17Z</time>
      </trkpt>
      <trkpt lat="47.80922" lon="7.04106">
        <ele>736.51</ele>
        <time>2021-10-20T15:03:19Z</time>
      </trkpt>
      <trkpt lat="47.8092" lon="7.04112">
        <ele>736.51</ele>
        <time>2021-10-20T15:03:20Z</time>
      </trkpt>
      <trkpt lat="47.80917" lon="7.04117">
        <ele>736.99</ele>
        <time>2021-10-20T15:03:21Z</time>
      </trkpt>
      <trkpt lat="47.80913" lon="7.04122">
        <ele>736.99</ele>
        <time>2021-10-20T15:03:22Z</time>
      </trkpt>
      <trkpt lat="47.80908" lon="7.04127">
        <ele>737.47</ele>
        <time>2021-10-20T15:03:23Z</time>
      </trkpt>
      <trkpt lat="47.80904" lon="7.04131">
        <ele>737.47</ele>
        <time>2021-10-20T15:03:24Z</time>
      </trkpt>
      <trkpt lat="47.809" lon="7.04133">
        <ele>737.95</ele>
        <time>2021-10-20T15:03:25Z</time>
      </trkpt>
      <trkpt lat="47.80857" lon="7.04144">
        <ele>740.35</ele>
        <time>2021-10-20T15:03:36Z</time>
      </trkpt>
      <trkpt lat="47.80825" lon="7.04145">
        <ele>742.76</ele>
        <time>2021-10-20T15:03:45Z</time>
      </trkpt>
      <trkpt lat="47.80788" lon="7.04177">
        <ele>745.64</ele>
        <time>2021-10-20T15:03:56Z</time>
      </trkpt>
      <trkpt lat="47.80759" lon="7.04203">
        <ele>749</ele>
        <time>2021-10-20T15:04:05Z</time>
      </trkpt>
      <trkpt lat="47.80736" lon="7.04218">
        <ele>752.37</ele>
        <time>2021-10-20T15:04:13Z</time>
      </trkpt>
      <trkpt lat="47.807" lon="7.04239">
        <ele>754.29</ele>
        <time>2021-10-20T15:04:26Z</time>
      </trkpt>
      <trkpt lat="47.80673" lon="7.04253">
        <ele>754.77</ele>
        <time>2021-10-20T15:04:36Z</time>
      </trkpt>
      <trkpt lat="47.80657" lon="7.0425">
        <ele>757.18</ele>
        <time>2021-10-20T15:04:42Z</time>
      </trkpt>
      <trkpt lat="47.80624" lon="7.04209">
        <ele>760.54</ele>
        <time>2021-10-20T15:04:56Z</time>
      </trkpt>
      <trkpt lat="47.80603" lon="7.04137">
        <ele>762.94</ele>
        <time>2021-10-20T15:05:12Z</time>
      </trkpt>
      <trkpt lat="47.8059" lon="7.04077">
        <ele>765.83</ele>
        <time>2021-10-20T15:05:25Z</time>
      </trkpt>
      <trkpt lat="47.80579" lon="7.04017">
        <ele>768.23</ele>
        <time>2021-10-20T15:05:38Z</time>
      </trkpt>
      <trkpt lat="47.80558" lon="7.03964">
        <ele>770.15</ele>
        <time>2021-10-20T15:05:50Z</time>
      </trkpt>
      <trkpt lat="47.80548" lon="7.03947">
        <ele>771.11</ele>
        <time>2021-10-20T15:05:55Z</time>
      </trkpt>
      <trkpt lat="47.80547" lon="7.03944">
        <ele>770.63</ele>
        <time>2021-10-20T15:05:56Z</time>
      </trkpt>
      <trkpt lat="47.80546" lon="7.03939">
        <ele>772.08</ele>
        <time>2021-10-20T15:06:09Z</time>
      </trkpt>
      <trkpt lat="47.80545" lon="7.03938">
        <ele>772.08</ele>
        <time>2021-10-20T15:06:10Z</time>
      </trkpt>
      <trkpt lat="47.80544" lon="7.03936">
        <ele>772.08</ele>
        <time>2021-10-20T15:06:11Z</time>
      </trkpt>
      <trkpt lat="47.80543" lon="7.03933">
        <ele>772.08</ele>
        <time>2021-10-20T15:06:12Z</time>
      </trkpt>
      <trkpt lat="47.80542" lon="7.0393">
        <ele>772.08</ele>
        <time>2021-10-20T15:06:13Z</time>
      </trkpt>
      <trkpt lat="47.8054" lon="7.03927">
        <ele>772.56</ele>
        <time>2021-10-20T15:06:14Z</time>
      </trkpt>
      <trkpt lat="47.80539" lon="7.03924">
        <ele>772.08</ele>
        <time>2021-10-20T15:06:15Z</time>
      </trkpt>
      <trkpt lat="47.80538" lon="7.0392">
        <ele>772.56</ele>
        <time>2021-10-20T15:06:16Z</time>
      </trkpt>
      <trkpt lat="47.80523" lon="7.03857">
        <ele>774</ele>
        <time>2021-10-20T15:06:28Z</time>
      </trkpt>
      <trkpt lat="47.80522" lon="7.03845">
        <ele>774</ele>
        <time>2021-10-20T15:06:30Z</time>
      </trkpt>
      <trkpt lat="47.80525" lon="7.03818">
        <ele>775.44</ele>
        <time>2021-10-20T15:06:35Z</time>
      </trkpt>
      <trkpt lat="47.80526" lon="7.03812">
        <ele>775.92</ele>
        <time>2021-10-20T15:06:36Z</time>
      </trkpt>
      <trkpt lat="47.8053" lon="7.03794">
        <ele>774.96</ele>
        <time>2021-10-20T15:06:39Z</time>
      </trkpt>
      <trkpt lat="47.80532" lon="7.03789">
        <ele>775.44</ele>
        <time>2021-10-20T15:06:40Z</time>
      </trkpt>
      <trkpt lat="47.80534" lon="7.03784">
        <ele>775.44</ele>
        <time>2021-10-20T15:06:41Z</time>
      </trkpt>
      <trkpt lat="47.80536" lon="7.03779">
        <ele>775.44</ele>
        <time>2021-10-20T15:06:42Z</time>
      </trkpt>
      <trkpt lat="47.80539" lon="7.03774">
        <ele>775.92</ele>
        <time>2021-10-20T15:06:43Z</time>
      </trkpt>
      <trkpt lat="47.80541" lon="7.0377">
        <ele>775.92</ele>
        <time>2021-10-20T15:06:44Z</time>
      </trkpt>
      <trkpt lat="47.80543" lon="7.03765">
        <ele>775.44</ele>
        <time>2021-10-20T15:06:45Z</time>
      </trkpt>
      <trkpt lat="47.80546" lon="7.03762">
        <ele>775.44</ele>
        <time>2021-10-20T15:06:46Z</time>
      </trkpt>
      <trkpt lat="47.80549" lon="7.03759">
        <ele>775.44</ele>
        <time>2021-10-20T15:06:47Z</time>
      </trkpt>
      <trkpt lat="47.80584" lon="7.03727">
        <ele>776.4</ele>
        <time>2021-10-20T15:06:58Z</time>
      </trkpt>
      <trkpt lat="47.8062" lon="7.03711">
        <ele>777.84</ele>
        <time>2021-10-20T15:07:08Z</time>
      </trkpt>
      <trkpt lat="47.80669" lon="7.03684">
        <ele>778.32</ele>
        <time>2021-10-20T15:07:20Z</time>
      </trkpt>
      <trkpt lat="47.80688" lon="7.0367">
        <ele>778.32</ele>
        <time>2021-10-20T15:07:25Z</time>
      </trkpt>
      <trkpt lat="47.80706" lon="7.03651">
        <ele>778.32</ele>
        <time>2021-10-20T15:07:30Z</time>
      </trkpt>
      <trkpt lat="47.80714" lon="7.03643">
        <ele>778.32</ele>
        <time>2021-10-20T15:07:32Z</time>
      </trkpt>
      <trkpt lat="47.80768" lon="7.03598">
        <ele>780.25</ele>
        <time>2021-10-20T15:07:46Z</time>
      </trkpt>
      <trkpt lat="47.8078" lon="7.03588">
        <ele>779.77</ele>
        <time>2021-10-20T15:07:49Z</time>
      </trkpt>
      <trkpt lat="47.80783" lon="7.03583">
        <ele>779.77</ele>
        <time>2021-10-20T15:07:50Z</time>
      </trkpt>
      <trkpt lat="47.80786" lon="7.03578">
        <ele>780.25</ele>
        <time>2021-10-20T15:07:51Z</time>
      </trkpt>
      <trkpt lat="47.80788" lon="7.03573">
        <ele>780.25</ele>
        <time>2021-10-20T15:07:52Z</time>
      </trkpt>
      <trkpt lat="47.8079" lon="7.03567">
        <ele>780.25</ele>
        <time>2021-10-20T15:07:53Z</time>
      </trkpt>
      <trkpt lat="47.80792" lon="7.03561">
        <ele>780.25</ele>
        <time>2021-10-20T15:07:54Z</time>
      </trkpt>
      <trkpt lat="47.80793" lon="7.03555">
        <ele>780.25</ele>
        <time>2021-10-20T15:07:55Z</time>
      </trkpt>
      <trkpt lat="47.80794" lon="7.0355">
        <ele>780.25</ele>
        <time>2021-10-20T15:07:56Z</time>
      </trkpt>
      <trkpt lat="47.80795" lon="7.03544">
        <ele>780.25</ele>
        <time>2021-10-20T15:07:57Z</time>
      </trkpt>
      <trkpt lat="47.80801" lon="7.03517">
        <ele>781.21</ele>
        <time>2021-10-20T15:08:01Z</time>
      </trkpt>
      <trkpt lat="47.80804" lon="7.03504">
        <ele>781.69</ele>
        <time>2021-10-20T15:08:03Z</time>
      </trkpt>
      <trkpt lat="47.80806" lon="7.03499">
        <ele>781.69</ele>
        <time>2021-10-20T15:08:04Z</time>
      </trkpt>
      <trkpt lat="47.80809" lon="7.03493">
        <ele>781.69</ele>
        <time>2021-10-20T15:08:05Z</time>
      </trkpt>
      <trkpt lat="47.80822" lon="7.03458">
        <ele>784.09</ele>
        <time>2021-10-20T15:08:11Z</time>
      </trkpt>
      <trkpt lat="47.80824" lon="7.03453">
        <ele>784.57</ele>
        <time>2021-10-20T15:08:12Z</time>
      </trkpt>
      <trkpt lat="47.80826" lon="7.03449">
        <ele>784.57</ele>
        <time>2021-10-20T15:08:13Z</time>
      </trkpt>
      <trkpt lat="47.80858" lon="7.03406">
        <ele>786.5</ele>
        <time>2021-10-20T15:08:24Z</time>
      </trkpt>
      <trkpt lat="47.80865" lon="7.03375">
        <ele>786.98</ele>
        <time>2021-10-20T15:08:30Z</time>
      </trkpt>
      <trkpt lat="47.80848" lon="7.03332">
        <ele>787.46</ele>
        <time>2021-10-20T15:08:38Z</time>
      </trkpt>
      <trkpt lat="47.80846" lon="7.03327">
        <ele>787.94</ele>
        <time>2021-10-20T15:08:39Z</time>
      </trkpt>
      <trkpt lat="47.80836" lon="7.03311">
        <ele>788.9</ele>
        <time>2021-10-20T15:08:42Z</time>
      </trkpt>
      <trkpt lat="47.80832" lon="7.03307">
        <ele>789.38</ele>
        <time>2021-10-20T15:08:43Z</time>
      </trkpt>
      <trkpt lat="47.80827" lon="7.03303">
        <ele>789.86</ele>
        <time>2021-10-20T15:08:44Z</time>
      </trkpt>
      <trkpt lat="47.80823" lon="7.03299">
        <ele>790.34</ele>
        <time>2021-10-20T15:08:45Z</time>
      </trkpt>
      <trkpt lat="47.80819" lon="7.03294">
        <ele>790.34</ele>
        <time>2021-10-20T15:08:46Z</time>
      </trkpt>
      <trkpt lat="47.80811" lon="7.03284">
        <ele>790.34</ele>
        <time>2021-10-20T15:08:48Z</time>
      </trkpt>
      <trkpt lat="47.80809" lon="7.0328">
        <ele>790.82</ele>
        <time>2021-10-20T15:08:49Z</time>
      </trkpt>
      <trkpt lat="47.80806" lon="7.03276">
        <ele>790.82</ele>
        <time>2021-10-20T15:08:50Z</time>
      </trkpt>
      <trkpt lat="47.80804" lon="7.03272">
        <ele>791.78</ele>
        <time>2021-10-20T15:08:51Z</time>
      </trkpt>
      <trkpt lat="47.80802" lon="7.03267">
        <ele>792.74</ele>
        <time>2021-10-20T15:08:52Z</time>
      </trkpt>
      <trkpt lat="47.808" lon="7.03262">
        <ele>792.74</ele>
        <time>2021-10-20T15:08:53Z</time>
      </trkpt>
      <trkpt lat="47.80791" lon="7.03219">
        <ele>795.15</ele>
        <time>2021-10-20T15:09:03Z</time>
      </trkpt>
      <trkpt lat="47.80791" lon="7.0321">
        <ele>794.19</ele>
        <time>2021-10-20T15:09:17Z</time>
      </trkpt>
      <trkpt lat="47.8079" lon="7.0321">
        <ele>795.63</ele>
        <time>2021-10-20T15:09:30Z</time>
      </trkpt>
      <trkpt lat="47.80792" lon="7.03208">
        <ele>795.15</ele>
        <time>2021-10-20T15:09:31Z</time>
      </trkpt>
      <trkpt lat="47.80793" lon="7.03205">
        <ele>795.15</ele>
        <time>2021-10-20T15:09:32Z</time>
      </trkpt>
      <trkpt lat="47.80799" lon="7.03187">
        <ele>794.19</ele>
        <time>2021-10-20T15:09:36Z</time>
      </trkpt>
      <trkpt lat="47.80802" lon="7.03182">
        <ele>793.71</ele>
        <time>2021-10-20T15:09:37Z</time>
      </trkpt>
      <trkpt lat="47.80803" lon="7.03177">
        <ele>793.22</ele>
        <time>2021-10-20T15:09:38Z</time>
      </trkpt>
      <trkpt lat="47.80813" lon="7.0315">
        <ele>789.86</ele>
        <time>2021-10-20T15:09:43Z</time>
      </trkpt>
      <trkpt lat="47.80819" lon="7.03134">
        <ele>787.94</ele>
        <time>2021-10-20T15:09:46Z</time>
      </trkpt>
      <trkpt lat="47.8082" lon="7.03128">
        <ele>787.46</ele>
        <time>2021-10-20T15:09:47Z</time>
      </trkpt>
      <trkpt lat="47.80821" lon="7.03121">
        <ele>786.98</ele>
        <time>2021-10-20T15:09:48Z</time>
      </trkpt>
      <trkpt lat="47.80823" lon="7.03114">
        <ele>786.02</ele>
        <time>2021-10-20T15:09:49Z</time>
      </trkpt>
      <trkpt lat="47.80825" lon="7.03108">
        <ele>785.53</ele>
        <time>2021-10-20T15:09:50Z</time>
      </trkpt>
      <trkpt lat="47.80828" lon="7.03102">
        <ele>785.05</ele>
        <time>2021-10-20T15:09:51Z</time>
      </trkpt>
      <trkpt lat="47.80837" lon="7.03084">
        <ele>783.61</ele>
        <time>2021-10-20T15:09:54Z</time>
      </trkpt>
      <trkpt lat="47.80848" lon="7.03061">
        <ele>781.69</ele>
        <time>2021-10-20T15:09:58Z</time>
      </trkpt>
      <trkpt lat="47.80855" lon="7.0305">
        <ele>780.73</ele>
        <time>2021-10-20T15:10:00Z</time>
      </trkpt>
      <trkpt lat="47.80864" lon="7.03035">
        <ele>779.29</ele>
        <time>2021-10-20T15:10:03Z</time>
      </trkpt>
      <trkpt lat="47.80874" lon="7.03013">
        <ele>775.92</ele>
        <time>2021-10-20T15:10:07Z</time>
      </trkpt>
      <trkpt lat="47.80888" lon="7.02983">
        <ele>773.04</ele>
        <time>2021-10-20T15:10:13Z</time>
      </trkpt>
      <trkpt lat="47.80893" lon="7.02974">
        <ele>772.08</ele>
        <time>2021-10-20T15:10:15Z</time>
      </trkpt>
      <trkpt lat="47.80908" lon="7.02942">
        <ele>769.19</ele>
        <time>2021-10-20T15:10:20Z</time>
      </trkpt>
      <trkpt lat="47.80911" lon="7.02934">
        <ele>768.71</ele>
        <time>2021-10-20T15:10:21Z</time>
      </trkpt>
      <trkpt lat="47.80913" lon="7.02925">
        <ele>768.23</ele>
        <time>2021-10-20T15:10:22Z</time>
      </trkpt>
      <trkpt lat="47.80936" lon="7.02868">
        <ele>765.83</ele>
        <time>2021-10-20T15:10:29Z</time>
      </trkpt>
      <trkpt lat="47.80941" lon="7.02864">
        <ele>765.83</ele>
        <time>2021-10-20T15:10:30Z</time>
      </trkpt>
      <trkpt lat="47.80946" lon="7.0286">
        <ele>765.35</ele>
        <time>2021-10-20T15:10:31Z</time>
      </trkpt>
      <trkpt lat="47.80951" lon="7.02853">
        <ele>764.87</ele>
        <time>2021-10-20T15:10:32Z</time>
      </trkpt>
      <trkpt lat="47.80956" lon="7.02847">
        <ele>764.39</ele>
        <time>2021-10-20T15:10:33Z</time>
      </trkpt>
      <trkpt lat="47.80959" lon="7.02841">
        <ele>763.9</ele>
        <time>2021-10-20T15:10:34Z</time>
      </trkpt>
      <trkpt lat="47.80961" lon="7.02836">
        <ele>763.42</ele>
        <time>2021-10-20T15:10:35Z</time>
      </trkpt>
      <trkpt lat="47.80961" lon="7.02831">
        <ele>762.94</ele>
        <time>2021-10-20T15:10:36Z</time>
      </trkpt>
      <trkpt lat="47.8096" lon="7.02827">
        <ele>762.46</ele>
        <time>2021-10-20T15:10:37Z</time>
      </trkpt>
      <trkpt lat="47.80959" lon="7.02824">
        <ele>761.98</ele>
        <time>2021-10-20T15:10:38Z</time>
      </trkpt>
      <trkpt lat="47.80956" lon="7.02821">
        <ele>761.5</ele>
        <time>2021-10-20T15:10:39Z</time>
      </trkpt>
      <trkpt lat="47.80954" lon="7.02818">
        <ele>761.02</ele>
        <time>2021-10-20T15:10:40Z</time>
      </trkpt>
      <trkpt lat="47.80945" lon="7.02813">
        <ele>757.66</ele>
        <time>2021-10-20T15:10:44Z</time>
      </trkpt>
      <trkpt lat="47.80926" lon="7.02808">
        <ele>755.25</ele>
        <time>2021-10-20T15:10:48Z</time>
      </trkpt>
      <trkpt lat="47.80895" lon="7.0281">
        <ele>752.85</ele>
        <time>2021-10-20T15:10:53Z</time>
      </trkpt>
      <trkpt lat="47.80882" lon="7.02815">
        <ele>751.89</ele>
        <time>2021-10-20T15:10:55Z</time>
      </trkpt>
      <trkpt lat="47.80877" lon="7.02818">
        <ele>751.41</ele>
        <time>2021-10-20T15:10:56Z</time>
      </trkpt>
      <trkpt lat="47.80871" lon="7.02823">
        <ele>750.45</ele>
        <time>2021-10-20T15:10:57Z</time>
      </trkpt>
      <trkpt lat="47.80866" lon="7.02826">
        <ele>749.97</ele>
        <time>2021-10-20T15:10:58Z</time>
      </trkpt>
      <trkpt lat="47.80859" lon="7.02829">
        <ele>748.52</ele>
        <time>2021-10-20T15:10:59Z</time>
      </trkpt>
      <trkpt lat="47.80853" lon="7.02832">
        <ele>746.6</ele>
        <time>2021-10-20T15:11:00Z</time>
      </trkpt>
      <trkpt lat="47.80846" lon="7.02833">
        <ele>745.16</ele>
        <time>2021-10-20T15:11:01Z</time>
      </trkpt>
      <trkpt lat="47.8084" lon="7.02834">
        <ele>743.72</ele>
        <time>2021-10-20T15:11:02Z</time>
      </trkpt>
      <trkpt lat="47.80835" lon="7.02835">
        <ele>742.28</ele>
        <time>2021-10-20T15:11:03Z</time>
      </trkpt>
      <trkpt lat="47.80829" lon="7.02835">
        <ele>740.83</ele>
        <time>2021-10-20T15:11:04Z</time>
      </trkpt>
      <trkpt lat="47.80823" lon="7.02836">
        <ele>739.39</ele>
        <time>2021-10-20T15:11:05Z</time>
      </trkpt>
      <trkpt lat="47.80805" lon="7.02835">
        <ele>735.55</ele>
        <time>2021-10-20T15:11:08Z</time>
      </trkpt>
      <trkpt lat="47.80792" lon="7.02834">
        <ele>733.62</ele>
        <time>2021-10-20T15:11:10Z</time>
      </trkpt>
      <trkpt lat="47.80783" lon="7.02832">
        <ele>732.66</ele>
        <time>2021-10-20T15:11:11Z</time>
      </trkpt>
      <trkpt lat="47.80775" lon="7.02829">
        <ele>731.22</ele>
        <time>2021-10-20T15:11:12Z</time>
      </trkpt>
      <trkpt lat="47.80768" lon="7.02825">
        <ele>729.78</ele>
        <time>2021-10-20T15:11:13Z</time>
      </trkpt>
      <trkpt lat="47.80761" lon="7.0282">
        <ele>728.82</ele>
        <time>2021-10-20T15:11:14Z</time>
      </trkpt>
      <trkpt lat="47.80754" lon="7.02813">
        <ele>727.37</ele>
        <time>2021-10-20T15:11:15Z</time>
      </trkpt>
      <trkpt lat="47.80747" lon="7.02804">
        <ele>726.41</ele>
        <time>2021-10-20T15:11:16Z</time>
      </trkpt>
      <trkpt lat="47.80719" lon="7.02774">
        <ele>723.53</ele>
        <time>2021-10-20T15:11:20Z</time>
      </trkpt>
      <trkpt lat="47.80699" lon="7.02752">
        <ele>720.65</ele>
        <time>2021-10-20T15:11:23Z</time>
      </trkpt>
      <trkpt lat="47.80691" lon="7.02746">
        <ele>719.68</ele>
        <time>2021-10-20T15:11:24Z</time>
      </trkpt>
      <trkpt lat="47.80684" lon="7.02741">
        <ele>717.76</ele>
        <time>2021-10-20T15:11:25Z</time>
      </trkpt>
      <trkpt lat="47.80675" lon="7.02737">
        <ele>716.8</ele>
        <time>2021-10-20T15:11:26Z</time>
      </trkpt>
      <trkpt lat="47.80668" lon="7.02734">
        <ele>715.84</ele>
        <time>2021-10-20T15:11:27Z</time>
      </trkpt>
      <trkpt lat="47.80661" lon="7.02734">
        <ele>714.88</ele>
        <time>2021-10-20T15:11:28Z</time>
      </trkpt>
      <trkpt lat="47.80655" lon="7.02735">
        <ele>714.4</ele>
        <time>2021-10-20T15:11:29Z</time>
      </trkpt>
      <trkpt lat="47.8065" lon="7.02738">
        <ele>713.92</ele>
        <time>2021-10-20T15:11:30Z</time>
      </trkpt>
      <trkpt lat="47.80646" lon="7.02739">
        <ele>713.92</ele>
        <time>2021-10-20T15:11:31Z</time>
      </trkpt>
      <trkpt lat="47.80642" lon="7.02738">
        <ele>713.44</ele>
        <time>2021-10-20T15:11:32Z</time>
      </trkpt>
      <trkpt lat="47.8064" lon="7.02734">
        <ele>712.95</ele>
        <time>2021-10-20T15:11:33Z</time>
      </trkpt>
      <trkpt lat="47.8064" lon="7.0273">
        <ele>712.47</ele>
        <time>2021-10-20T15:11:34Z</time>
      </trkpt>
      <trkpt lat="47.8064" lon="7.02726">
        <ele>712.47</ele>
        <time>2021-10-20T15:11:35Z</time>
      </trkpt>
      <trkpt lat="47.80641" lon="7.02722">
        <ele>712.47</ele>
        <time>2021-10-20T15:11:36Z</time>
      </trkpt>
      <trkpt lat="47.80643" lon="7.0272">
        <ele>711.99</ele>
        <time>2021-10-20T15:11:37Z</time>
      </trkpt>
      <trkpt lat="47.80645" lon="7.02718">
        <ele>711.99</ele>
        <time>2021-10-20T15:11:38Z</time>
      </trkpt>
      <trkpt lat="47.80648" lon="7.02717">
        <ele>711.99</ele>
        <time>2021-10-20T15:11:39Z</time>
      </trkpt>
      <trkpt lat="47.80653" lon="7.02717">
        <ele>711.51</ele>
        <time>2021-10-20T15:11:40Z</time>
      </trkpt>
      <trkpt lat="47.80658" lon="7.02717">
        <ele>711.51</ele>
        <time>2021-10-20T15:11:41Z</time>
      </trkpt>
      <trkpt lat="47.80688" lon="7.02716">
        <ele>711.03</ele>
        <time>2021-10-20T15:11:48Z</time>
      </trkpt>
      <trkpt lat="47.80692" lon="7.02716">
        <ele>711.03</ele>
        <time>2021-10-20T15:11:49Z</time>
      </trkpt>
      <trkpt lat="47.80697" lon="7.02717">
        <ele>711.03</ele>
        <time>2021-10-20T15:11:50Z</time>
      </trkpt>
      <trkpt lat="47.8072" lon="7.02719">
        <ele>711.03</ele>
        <time>2021-10-20T15:11:55Z</time>
      </trkpt>
      <trkpt lat="47.80725" lon="7.02721">
        <ele>710.55</ele>
        <time>2021-10-20T15:11:56Z</time>
      </trkpt>
      <trkpt lat="47.80731" lon="7.02724">
        <ele>710.07</ele>
        <time>2021-10-20T15:11:57Z</time>
      </trkpt>
      <trkpt lat="47.80736" lon="7.02727">
        <ele>710.07</ele>
        <time>2021-10-20T15:11:58Z</time>
      </trkpt>
      <trkpt lat="47.80741" lon="7.02729">
        <ele>709.59</ele>
        <time>2021-10-20T15:11:59Z</time>
      </trkpt>
      <trkpt lat="47.80745" lon="7.02728">
        <ele>709.59</ele>
        <time>2021-10-20T15:12:00Z</time>
      </trkpt>
      <trkpt lat="47.80749" lon="7.02724">
        <ele>709.11</ele>
        <time>2021-10-20T15:12:01Z</time>
      </trkpt>
      <trkpt lat="47.8075" lon="7.02718">
        <ele>708.63</ele>
        <time>2021-10-20T15:12:02Z</time>
      </trkpt>
      <trkpt lat="47.80749" lon="7.02713">
        <ele>708.63</ele>
        <time>2021-10-20T15:12:03Z</time>
      </trkpt>
      <trkpt lat="47.80745" lon="7.02709">
        <ele>707.67</ele>
        <time>2021-10-20T15:12:04Z</time>
      </trkpt>
      <trkpt lat="47.8074" lon="7.02706">
        <ele>707.19</ele>
        <time>2021-10-20T15:12:05Z</time>
      </trkpt>
      <trkpt lat="47.80735" lon="7.02703">
        <ele>706.71</ele>
        <time>2021-10-20T15:12:06Z</time>
      </trkpt>
      <trkpt lat="47.8073" lon="7.027">
        <ele>706.23</ele>
        <time>2021-10-20T15:12:07Z</time>
      </trkpt>
      <trkpt lat="47.80726" lon="7.02696">
        <ele>705.75</ele>
        <time>2021-10-20T15:12:08Z</time>
      </trkpt>
      <trkpt lat="47.80714" lon="7.02687">
        <ele>704.3</ele>
        <time>2021-10-20T15:12:10Z</time>
      </trkpt>
      <trkpt lat="47.80707" lon="7.02684">
        <ele>704.3</ele>
        <time>2021-10-20T15:12:11Z</time>
      </trkpt>
      <trkpt lat="47.80679" lon="7.02673">
        <ele>702.38</ele>
        <time>2021-10-20T15:12:15Z</time>
      </trkpt>
      <trkpt lat="47.80649" lon="7.02669">
        <ele>699.02</ele>
        <time>2021-10-20T15:12:19Z</time>
      </trkpt>
      <trkpt lat="47.8064" lon="7.0267">
        <ele>698.53</ele>
        <time>2021-10-20T15:12:20Z</time>
      </trkpt>
      <trkpt lat="47.80632" lon="7.02673">
        <ele>697.57</ele>
        <time>2021-10-20T15:12:21Z</time>
      </trkpt>
      <trkpt lat="47.8061" lon="7.02684">
        <ele>694.21</ele>
        <time>2021-10-20T15:12:24Z</time>
      </trkpt>
      <trkpt lat="47.80603" lon="7.0269">
        <ele>693.73</ele>
        <time>2021-10-20T15:12:25Z</time>
      </trkpt>
      <trkpt lat="47.80567" lon="7.02723">
        <ele>690.36</ele>
        <time>2021-10-20T15:12:30Z</time>
      </trkpt>
      <trkpt lat="47.80556" lon="7.02737">
        <ele>688.44</ele>
        <time>2021-10-20T15:12:32Z</time>
      </trkpt>
      <trkpt lat="47.80551" lon="7.02745">
        <ele>687.48</ele>
        <time>2021-10-20T15:12:33Z</time>
      </trkpt>
      <trkpt lat="47.80537" lon="7.02777">
        <ele>684.12</ele>
        <time>2021-10-20T15:12:37Z</time>
      </trkpt>
      <trkpt lat="47.80533" lon="7.02782">
        <ele>683.15</ele>
        <time>2021-10-20T15:12:38Z</time>
      </trkpt>
      <trkpt lat="47.8053" lon="7.02782">
        <ele>682.67</ele>
        <time>2021-10-20T15:12:39Z</time>
      </trkpt>
      <trkpt lat="47.80527" lon="7.02779">
        <ele>682.67</ele>
        <time>2021-10-20T15:12:40Z</time>
      </trkpt>
      <trkpt lat="47.80525" lon="7.02774">
        <ele>682.67</ele>
        <time>2021-10-20T15:12:41Z</time>
      </trkpt>
      <trkpt lat="47.80524" lon="7.02769">
        <ele>682.19</ele>
        <time>2021-10-20T15:12:42Z</time>
      </trkpt>
      <trkpt lat="47.80526" lon="7.02763">
        <ele>681.71</ele>
        <time>2021-10-20T15:12:43Z</time>
      </trkpt>
      <trkpt lat="47.80528" lon="7.02757">
        <ele>681.71</ele>
        <time>2021-10-20T15:12:44Z</time>
      </trkpt>
      <trkpt lat="47.80531" lon="7.0275">
        <ele>681.23</ele>
        <time>2021-10-20T15:12:45Z</time>
      </trkpt>
      <trkpt lat="47.80543" lon="7.0272">
        <ele>677.39</ele>
        <time>2021-10-20T15:12:49Z</time>
      </trkpt>
      <trkpt lat="47.80563" lon="7.0268">
        <ele>673.54</ele>
        <time>2021-10-20T15:12:53Z</time>
      </trkpt>
      <trkpt lat="47.80567" lon="7.02669">
        <ele>672.58</ele>
        <time>2021-10-20T15:12:54Z</time>
      </trkpt>
      <trkpt lat="47.8057" lon="7.02657">
        <ele>672.1</ele>
        <time>2021-10-20T15:12:55Z</time>
      </trkpt>
      <trkpt lat="47.80575" lon="7.02647">
        <ele>671.14</ele>
        <time>2021-10-20T15:12:56Z</time>
      </trkpt>
      <trkpt lat="47.80581" lon="7.02638">
        <ele>670.18</ele>
        <time>2021-10-20T15:12:57Z</time>
      </trkpt>
      <trkpt lat="47.80587" lon="7.02629">
        <ele>669.22</ele>
        <time>2021-10-20T15:12:58Z</time>
      </trkpt>
      <trkpt lat="47.80592" lon="7.02622">
        <ele>668.25</ele>
        <time>2021-10-20T15:12:59Z</time>
      </trkpt>
      <trkpt lat="47.80596" lon="7.02616">
        <ele>667.29</ele>
        <time>2021-10-20T15:13:00Z</time>
      </trkpt>
      <trkpt lat="47.806" lon="7.02609">
        <ele>666.81</ele>
        <time>2021-10-20T15:13:01Z</time>
      </trkpt>
      <trkpt lat="47.80601" lon="7.02602">
        <ele>665.85</ele>
        <time>2021-10-20T15:13:02Z</time>
      </trkpt>
      <trkpt lat="47.80599" lon="7.02597">
        <ele>665.37</ele>
        <time>2021-10-20T15:13:03Z</time>
      </trkpt>
      <trkpt lat="47.80594" lon="7.02595">
        <ele>665.37</ele>
        <time>2021-10-20T15:13:04Z</time>
      </trkpt>
      <trkpt lat="47.80589" lon="7.02596">
        <ele>664.89</ele>
        <time>2021-10-20T15:13:05Z</time>
      </trkpt>
      <trkpt lat="47.80585" lon="7.026">
        <ele>664.41</ele>
        <time>2021-10-20T15:13:06Z</time>
      </trkpt>
      <trkpt lat="47.8058" lon="7.02606">
        <ele>663.93</ele>
        <time>2021-10-20T15:13:07Z</time>
      </trkpt>
      <trkpt lat="47.80576" lon="7.02612">
        <ele>663.45</ele>
        <time>2021-10-20T15:13:08Z</time>
      </trkpt>
      <trkpt lat="47.80563" lon="7.02629">
        <ele>660.56</ele>
        <time>2021-10-20T15:13:11Z</time>
      </trkpt>
      <trkpt lat="47.80533" lon="7.0266">
        <ele>657.68</ele>
        <time>2021-10-20T15:13:16Z</time>
      </trkpt>
      <trkpt lat="47.80527" lon="7.02666">
        <ele>657.2</ele>
        <time>2021-10-20T15:13:17Z</time>
      </trkpt>
      <trkpt lat="47.80514" lon="7.02677">
        <ele>656.24</ele>
        <time>2021-10-20T15:13:19Z</time>
      </trkpt>
      <trkpt lat="47.80489" lon="7.02703">
        <ele>652.87</ele>
        <time>2021-10-20T15:13:23Z</time>
      </trkpt>
      <trkpt lat="47.80482" lon="7.02707">
        <ele>652.39</ele>
        <time>2021-10-20T15:13:24Z</time>
      </trkpt>
      <trkpt lat="47.80475" lon="7.0271">
        <ele>651.43</ele>
        <time>2021-10-20T15:13:25Z</time>
      </trkpt>
      <trkpt lat="47.80468" lon="7.02712">
        <ele>650.47</ele>
        <time>2021-10-20T15:13:26Z</time>
      </trkpt>
      <trkpt lat="47.80461" lon="7.02712">
        <ele>649.99</ele>
        <time>2021-10-20T15:13:27Z</time>
      </trkpt>
      <trkpt lat="47.80454" lon="7.02712">
        <ele>648.55</ele>
        <time>2021-10-20T15:13:28Z</time>
      </trkpt>
      <trkpt lat="47.80447" lon="7.02711">
        <ele>647.59</ele>
        <time>2021-10-20T15:13:29Z</time>
      </trkpt>
      <trkpt lat="47.8044" lon="7.02708">
        <ele>646.62</ele>
        <time>2021-10-20T15:13:30Z</time>
      </trkpt>
      <trkpt lat="47.80433" lon="7.02705">
        <ele>645.66</ele>
        <time>2021-10-20T15:13:31Z</time>
      </trkpt>
      <trkpt lat="47.80426" lon="7.027">
        <ele>644.22</ele>
        <time>2021-10-20T15:13:32Z</time>
      </trkpt>
      <trkpt lat="47.80419" lon="7.02695">
        <ele>643.26</ele>
        <time>2021-10-20T15:13:33Z</time>
      </trkpt>
      <trkpt lat="47.80413" lon="7.02687">
        <ele>642.3</ele>
        <time>2021-10-20T15:13:34Z</time>
      </trkpt>
      <trkpt lat="47.80401" lon="7.0267">
        <ele>638.45</ele>
        <time>2021-10-20T15:13:36Z</time>
      </trkpt>
      <trkpt lat="47.80397" lon="7.0266">
        <ele>637.01</ele>
        <time>2021-10-20T15:13:37Z</time>
      </trkpt>
      <trkpt lat="47.80393" lon="7.02649">
        <ele>635.57</ele>
        <time>2021-10-20T15:13:38Z</time>
      </trkpt>
      <trkpt lat="47.80382" lon="7.02616">
        <ele>632.68</ele>
        <time>2021-10-20T15:13:41Z</time>
      </trkpt>
      <trkpt lat="47.80376" lon="7.02597">
        <ele>631.72</ele>
        <time>2021-10-20T15:13:43Z</time>
      </trkpt>
      <trkpt lat="47.8037" lon="7.02581">
        <ele>631.24</ele>
        <time>2021-10-20T15:13:44Z</time>
      </trkpt>
      <trkpt lat="47.80352" lon="7.0255">
        <ele>629.8</ele>
        <time>2021-10-20T15:13:47Z</time>
      </trkpt>
      <trkpt lat="47.80341" lon="7.02542">
        <ele>628.84</ele>
        <time>2021-10-20T15:13:48Z</time>
      </trkpt>
      <trkpt lat="47.80316" lon="7.02522">
        <ele>626.92</ele>
        <time>2021-10-20T15:13:51Z</time>
      </trkpt>
      <trkpt lat="47.80287" lon="7.02503">
        <ele>624.99</ele>
        <time>2021-10-20T15:13:55Z</time>
      </trkpt>
      <trkpt lat="47.80265" lon="7.02491">
        <ele>621.63</ele>
        <time>2021-10-20T15:13:58Z</time>
      </trkpt>
      <trkpt lat="47.80257" lon="7.02486">
        <ele>620.19</ele>
        <time>2021-10-20T15:13:59Z</time>
      </trkpt>
      <trkpt lat="47.80242" lon="7.02477">
        <ele>615.86</ele>
        <time>2021-10-20T15:14:01Z</time>
      </trkpt>
      <trkpt lat="47.80234" lon="7.02473">
        <ele>614.42</ele>
        <time>2021-10-20T15:14:02Z</time>
      </trkpt>
      <trkpt lat="47.80217" lon="7.02465">
        <ele>611.06</ele>
        <time>2021-10-20T15:14:04Z</time>
      </trkpt>
      <trkpt lat="47.80178" lon="7.02447">
        <ele>607.69</ele>
        <time>2021-10-20T15:14:08Z</time>
      </trkpt>
      <trkpt lat="47.80146" lon="7.02437">
        <ele>605.29</ele>
        <time>2021-10-20T15:14:11Z</time>
      </trkpt>
      <trkpt lat="47.80136" lon="7.02434">
        <ele>604.33</ele>
        <time>2021-10-20T15:14:12Z</time>
      </trkpt>
      <trkpt lat="47.80125" lon="7.02431">
        <ele>603.36</ele>
        <time>2021-10-20T15:14:13Z</time>
      </trkpt>
      <trkpt lat="47.80107" lon="7.02428">
        <ele>602.4</ele>
        <time>2021-10-20T15:14:15Z</time>
      </trkpt>
      <trkpt lat="47.801" lon="7.02425">
        <ele>601.92</ele>
        <time>2021-10-20T15:14:16Z</time>
      </trkpt>
      <trkpt lat="47.80091" lon="7.02424">
        <ele>601.92</ele>
        <time>2021-10-20T15:14:17Z</time>
      </trkpt>
      <trkpt lat="47.80084" lon="7.02425">
        <ele>601.92</ele>
        <time>2021-10-20T15:14:18Z</time>
      </trkpt>
      <trkpt lat="47.80077" lon="7.02428">
        <ele>601.44</ele>
        <time>2021-10-20T15:14:19Z</time>
      </trkpt>
      <trkpt lat="47.80072" lon="7.02433">
        <ele>601.44</ele>
        <time>2021-10-20T15:14:20Z</time>
      </trkpt>
      <trkpt lat="47.80067" lon="7.0244">
        <ele>600.96</ele>
        <time>2021-10-20T15:14:21Z</time>
      </trkpt>
      <trkpt lat="47.80063" lon="7.02446">
        <ele>600.96</ele>
        <time>2021-10-20T15:14:22Z</time>
      </trkpt>
      <trkpt lat="47.80058" lon="7.02452">
        <ele>600.96</ele>
        <time>2021-10-20T15:14:23Z</time>
      </trkpt>
      <trkpt lat="47.80055" lon="7.02459">
        <ele>600.48</ele>
        <time>2021-10-20T15:14:24Z</time>
      </trkpt>
      <trkpt lat="47.80052" lon="7.02466">
        <ele>600.48</ele>
        <time>2021-10-20T15:14:25Z</time>
      </trkpt>
      <trkpt lat="47.80045" lon="7.02479">
        <ele>600.48</ele>
        <time>2021-10-20T15:14:27Z</time>
      </trkpt>
      <trkpt lat="47.80041" lon="7.02485">
        <ele>600</ele>
        <time>2021-10-20T15:14:28Z</time>
      </trkpt>
      <trkpt lat="47.8003" lon="7.02496">
        <ele>599.04</ele>
        <time>2021-10-20T15:14:30Z</time>
      </trkpt>
      <trkpt lat="47.80023" lon="7.025">
        <ele>598.08</ele>
        <time>2021-10-20T15:14:31Z</time>
      </trkpt>
      <trkpt lat="47.80016" lon="7.02505">
        <ele>598.08</ele>
        <time>2021-10-20T15:14:32Z</time>
      </trkpt>
      <trkpt lat="47.79968" lon="7.02531">
        <ele>594.71</ele>
        <time>2021-10-20T15:14:38Z</time>
      </trkpt>
      <trkpt lat="47.79943" lon="7.0255">
        <ele>591.35</ele>
        <time>2021-10-20T15:14:44Z</time>
      </trkpt>
      <trkpt lat="47.79932" lon="7.02562">
        <ele>589.91</ele>
        <time>2021-10-20T15:14:47Z</time>
      </trkpt>
      <trkpt lat="47.79926" lon="7.02566">
        <ele>588.95</ele>
        <time>2021-10-20T15:14:48Z</time>
      </trkpt>
      <trkpt lat="47.79902" lon="7.02587">
        <ele>585.58</ele>
        <time>2021-10-20T15:14:52Z</time>
      </trkpt>
      <trkpt lat="47.79896" lon="7.02591">
        <ele>585.58</ele>
        <time>2021-10-20T15:14:53Z</time>
      </trkpt>
      <trkpt lat="47.79833" lon="7.02631">
        <ele>586.06</ele>
        <time>2021-10-20T15:15:04Z</time>
      </trkpt>
      <trkpt lat="47.79829" lon="7.02637">
        <ele>586.06</ele>
        <time>2021-10-20T15:15:05Z</time>
      </trkpt>
      <trkpt lat="47.79826" lon="7.02644">
        <ele>586.54</ele>
        <time>2021-10-20T15:15:06Z</time>
      </trkpt>
      <trkpt lat="47.79823" lon="7.02652">
        <ele>586.54</ele>
        <time>2021-10-20T15:15:07Z</time>
      </trkpt>
      <trkpt lat="47.79821" lon="7.02659">
        <ele>586.54</ele>
        <time>2021-10-20T15:15:08Z</time>
      </trkpt>
      <trkpt lat="47.79819" lon="7.02666">
        <ele>587.02</ele>
        <time>2021-10-20T15:15:09Z</time>
      </trkpt>
      <trkpt lat="47.79817" lon="7.02673">
        <ele>587.02</ele>
        <time>2021-10-20T15:15:10Z</time>
      </trkpt>
      <trkpt lat="47.79816" lon="7.02679">
        <ele>587.5</ele>
        <time>2021-10-20T15:15:11Z</time>
      </trkpt>
      <trkpt lat="47.79814" lon="7.02696">
        <ele>588.95</ele>
        <time>2021-10-20T15:15:14Z</time>
      </trkpt>
      <trkpt lat="47.79814" lon="7.02726">
        <ele>591.83</ele>
        <time>2021-10-20T15:15:21Z</time>
      </trkpt>
      <trkpt lat="47.79795" lon="7.0276">
        <ele>592.79</ele>
        <time>2021-10-20T15:15:31Z</time>
      </trkpt>
      <trkpt lat="47.79783" lon="7.02764">
        <ele>592.31</ele>
        <time>2021-10-20T15:15:34Z</time>
      </trkpt>
      <trkpt lat="47.79732" lon="7.02782">
        <ele>590.87</ele>
        <time>2021-10-20T15:15:50Z</time>
      </trkpt>
      <trkpt lat="47.797" lon="7.02803">
        <ele>589.91</ele>
        <time>2021-10-20T15:16:00Z</time>
      </trkpt>
      <trkpt lat="47.79688" lon="7.02809">
        <ele>589.43</ele>
        <time>2021-10-20T15:16:03Z</time>
      </trkpt>
      <trkpt lat="47.79668" lon="7.02817">
        <ele>587.98</ele>
        <time>2021-10-20T15:16:08Z</time>
      </trkpt>
      <trkpt lat="47.79664" lon="7.02819">
        <ele>587.5</ele>
        <time>2021-10-20T15:16:09Z</time>
      </trkpt>
      <trkpt lat="47.7966" lon="7.02821">
        <ele>587.5</ele>
        <time>2021-10-20T15:16:10Z</time>
      </trkpt>
      <trkpt lat="47.79656" lon="7.02823">
        <ele>587.02</ele>
        <time>2021-10-20T15:16:11Z</time>
      </trkpt>
      <trkpt lat="47.79651" lon="7.02825">
        <ele>587.02</ele>
        <time>2021-10-20T15:16:12Z</time>
      </trkpt>
      <trkpt lat="47.79625" lon="7.02842">
        <ele>585.58</ele>
        <time>2021-10-20T15:16:18Z</time>
      </trkpt>
      <trkpt lat="47.79621" lon="7.02845">
        <ele>585.58</ele>
        <time>2021-10-20T15:16:19Z</time>
      </trkpt>
      <trkpt lat="47.79599" lon="7.02865">
        <ele>583.66</ele>
        <time>2021-10-20T15:16:26Z</time>
      </trkpt>
      <trkpt lat="47.79592" lon="7.02873">
        <ele>582.7</ele>
        <time>2021-10-20T15:16:28Z</time>
      </trkpt>
      <trkpt lat="47.79586" lon="7.02882">
        <ele>581.73</ele>
        <time>2021-10-20T15:16:30Z</time>
      </trkpt>
      <trkpt lat="47.79583" lon="7.02886">
        <ele>581.25</ele>
        <time>2021-10-20T15:16:31Z</time>
      </trkpt>
      <trkpt lat="47.7958" lon="7.02891">
        <ele>580.77</ele>
        <time>2021-10-20T15:16:32Z</time>
      </trkpt>
      <trkpt lat="47.79577" lon="7.02896">
        <ele>580.77</ele>
        <time>2021-10-20T15:16:33Z</time>
      </trkpt>
      <trkpt lat="47.79575" lon="7.02901">
        <ele>579.81</ele>
        <time>2021-10-20T15:16:34Z</time>
      </trkpt>
      <trkpt lat="47.79572" lon="7.02907">
        <ele>579.33</ele>
        <time>2021-10-20T15:16:35Z</time>
      </trkpt>
      <trkpt lat="47.79569" lon="7.02912">
        <ele>578.85</ele>
        <time>2021-10-20T15:16:36Z</time>
      </trkpt>
      <trkpt lat="47.79566" lon="7.02917">
        <ele>578.37</ele>
        <time>2021-10-20T15:16:37Z</time>
      </trkpt>
      <trkpt lat="47.79564" lon="7.02921">
        <ele>577.89</ele>
        <time>2021-10-20T15:16:38Z</time>
      </trkpt>
      <trkpt lat="47.79561" lon="7.02925">
        <ele>577.41</ele>
        <time>2021-10-20T15:16:39Z</time>
      </trkpt>
      <trkpt lat="47.79557" lon="7.0293">
        <ele>576.93</ele>
        <time>2021-10-20T15:16:40Z</time>
      </trkpt>
      <trkpt lat="47.79536" lon="7.02964">
        <ele>574.04</ele>
        <time>2021-10-20T15:16:48Z</time>
      </trkpt>
      <trkpt lat="47.79523" lon="7.02986">
        <ele>570.68</ele>
        <time>2021-10-20T15:16:55Z</time>
      </trkpt>
      <trkpt lat="47.79516" lon="7.02997">
        <ele>570.68</ele>
        <time>2021-10-20T15:16:59Z</time>
      </trkpt>
      <trkpt lat="47.79506" lon="7.03028">
        <ele>568.76</ele>
        <time>2021-10-20T15:17:05Z</time>
      </trkpt>
      <trkpt lat="47.79504" lon="7.03035">
        <ele>568.28</ele>
        <time>2021-10-20T15:17:06Z</time>
      </trkpt>
      <trkpt lat="47.79495" lon="7.03099">
        <ele>565.39</ele>
        <time>2021-10-20T15:17:13Z</time>
      </trkpt>
      <trkpt lat="47.79493" lon="7.03107">
        <ele>564.43</ele>
        <time>2021-10-20T15:17:14Z</time>
      </trkpt>
      <trkpt lat="47.7949" lon="7.03114">
        <ele>563.95</ele>
        <time>2021-10-20T15:17:15Z</time>
      </trkpt>
      <trkpt lat="47.79486" lon="7.03118">
        <ele>563.47</ele>
        <time>2021-10-20T15:17:16Z</time>
      </trkpt>
      <trkpt lat="47.79481" lon="7.03119">
        <ele>562.99</ele>
        <time>2021-10-20T15:17:17Z</time>
      </trkpt>
      <trkpt lat="47.79475" lon="7.03117">
        <ele>562.03</ele>
        <time>2021-10-20T15:17:18Z</time>
      </trkpt>
      <trkpt lat="47.79469" lon="7.03111">
        <ele>561.55</ele>
        <time>2021-10-20T15:17:19Z</time>
      </trkpt>
      <trkpt lat="47.79465" lon="7.03104">
        <ele>561.07</ele>
        <time>2021-10-20T15:17:20Z</time>
      </trkpt>
      <trkpt lat="47.7946" lon="7.03096">
        <ele>560.59</ele>
        <time>2021-10-20T15:17:21Z</time>
      </trkpt>
      <trkpt lat="47.79456" lon="7.03089">
        <ele>560.11</ele>
        <time>2021-10-20T15:17:22Z</time>
      </trkpt>
      <trkpt lat="47.79437" lon="7.03052">
        <ele>556.26</ele>
        <time>2021-10-20T15:17:27Z</time>
      </trkpt>
      <trkpt lat="47.79424" lon="7.03025">
        <ele>554.34</ele>
        <time>2021-10-20T15:17:31Z</time>
      </trkpt>
      <trkpt lat="47.79419" lon="7.03016">
        <ele>553.86</ele>
        <time>2021-10-20T15:17:33Z</time>
      </trkpt>
      <trkpt lat="47.79416" lon="7.03012">
        <ele>553.38</ele>
        <time>2021-10-20T15:17:34Z</time>
      </trkpt>
      <trkpt lat="47.79413" lon="7.0301">
        <ele>552.9</ele>
        <time>2021-10-20T15:17:35Z</time>
      </trkpt>
      <trkpt lat="47.79411" lon="7.0301">
        <ele>552.9</ele>
        <time>2021-10-20T15:17:36Z</time>
      </trkpt>
      <trkpt lat="47.7941" lon="7.03011">
        <ele>552.9</ele>
        <time>2021-10-20T15:17:37Z</time>
      </trkpt>
      <trkpt lat="47.79407" lon="7.03011">
        <ele>552.41</ele>
        <time>2021-10-20T15:17:50Z</time>
      </trkpt>
      <trkpt lat="47.79407" lon="7.03011">
        <ele>552.41</ele>
        <time>2021-10-20T15:18:01Z</time>
      </trkpt>
      <trkpt lat="47.79399" lon="7.03016">
        <ele>550.49</ele>
        <time>2021-10-20T15:18:05Z</time>
      </trkpt>
      <trkpt lat="47.79396" lon="7.03017">
        <ele>549.53</ele>
        <time>2021-10-20T15:18:07Z</time>
      </trkpt>
      <trkpt lat="47.79392" lon="7.0302">
        <ele>549.05</ele>
        <time>2021-10-20T15:18:19Z</time>
      </trkpt>
      <trkpt lat="47.79389" lon="7.03026">
        <ele>549.05</ele>
        <time>2021-10-20T15:18:32Z</time>
      </trkpt>
      <trkpt lat="47.79388" lon="7.03029">
        <ele>549.05</ele>
        <time>2021-10-20T15:18:55Z</time>
      </trkpt>
      <trkpt lat="47.79388" lon="7.03028">
        <ele>549.53</ele>
        <time>2021-10-20T15:19:07Z</time>
      </trkpt>
      <trkpt lat="47.79382" lon="7.03021">
        <ele>548.57</ele>
        <time>2021-10-20T15:19:13Z</time>
      </trkpt>
      <trkpt lat="47.79384" lon="7.03015">
        <ele>548.09</ele>
        <time>2021-10-20T15:19:15Z</time>
      </trkpt>
      <trkpt lat="47.7939" lon="7.03003">
        <ele>547.13</ele>
        <time>2021-10-20T15:19:26Z</time>
      </trkpt>
      <trkpt lat="47.7939" lon="7.03001">
        <ele>547.61</ele>
        <time>2021-10-20T15:19:45Z</time>
      </trkpt>
    </trkseg>
  </trk>
</gpx>